<?xml version="1.0" encoding="UTF-8" standalone="no" ?>
<gpx xmlns="http://www.topografix.com/GPX/1/1" xmlns:xsi="http://www.w3.org/2001/XMLSchema-instance" xsi:schemaLocation="http://www.topografix.com/GPX/1/1 http://www.topografix.com/GPX/1/1/gpx.xsd" version="1.1" creator="VisuGPX - https://www.visugpx.com">
  <metadata>
    <name>Trace du sanglier 2013 - PALAJA (11) - 30/35km</name>
    <desc><![CDATA[La trace du sanglier VTT du 23/06/2013 à PALAJA (11)
Initialement, c\'est le parcours du 35km avec itinéraire alternatif réduisant la distance à 30km.]]></desc>
  </metadata>
  <trk>
    <name><![CDATA[Track 2013-06-23  08:53am]]></name>
    <trkseg>
      <trkpt lat="43.17002" lon="2.38711">
        <ele>177.056824</ele>
        <time>2013-06-23T08:54:19Z</time>
      </trkpt>
      <trkpt lat="43.17" lon="2.38704">
        <ele>176.901428</ele>
        <time>2013-06-23T08:54:23Z</time>
      </trkpt>
      <trkpt lat="43.16999" lon="2.38697">
        <ele>176.757324</ele>
        <time>2013-06-23T08:54:27Z</time>
      </trkpt>
      <trkpt lat="43.16998" lon="2.38691">
        <ele>176.63562</ele>
        <time>2013-06-23T08:54:35Z</time>
      </trkpt>
      <trkpt lat="43.17002" lon="2.38695">
        <ele>176.669861</ele>
        <time>2013-06-23T08:56:24Z</time>
      </trkpt>
      <trkpt lat="43.17002" lon="2.38702">
        <ele>176.841736</ele>
        <time>2013-06-23T08:56:31Z</time>
      </trkpt>
      <trkpt lat="43.17003" lon="2.38709">
        <ele>177.005371</ele>
        <time>2013-06-23T08:56:35Z</time>
      </trkpt>
      <trkpt lat="43.17" lon="2.38713">
        <ele>177.127014</ele>
        <time>2013-06-23T08:56:38Z</time>
      </trkpt>
      <trkpt lat="43.16994" lon="2.38714">
        <ele>177.271118</ele>
        <time>2013-06-23T08:56:42Z</time>
      </trkpt>
      <trkpt lat="43.1699" lon="2.38717">
        <ele>177.454102</ele>
        <time>2013-06-23T08:56:45Z</time>
      </trkpt>
      <trkpt lat="43.16983" lon="2.38718">
        <ele>177.623413</ele>
        <time>2013-06-23T08:56:48Z</time>
      </trkpt>
      <trkpt lat="43.16978" lon="2.3872">
        <ele>177.801636</ele>
        <time>2013-06-23T08:56:51Z</time>
      </trkpt>
      <trkpt lat="43.16972" lon="2.38719">
        <ele>177.928528</ele>
        <time>2013-06-23T08:56:54Z</time>
      </trkpt>
      <trkpt lat="43.16966" lon="2.3872">
        <ele>178.086121</ele>
        <time>2013-06-23T08:56:57Z</time>
      </trkpt>
      <trkpt lat="43.16961" lon="2.3872">
        <ele>178.209106</ele>
        <time>2013-06-23T08:56:59Z</time>
      </trkpt>
      <trkpt lat="43.16956" lon="2.38719">
        <ele>178.319214</ele>
        <time>2013-06-23T08:57:01Z</time>
      </trkpt>
      <trkpt lat="43.16951" lon="2.38717">
        <ele>178.395203</ele>
        <time>2013-06-23T08:57:03Z</time>
      </trkpt>
      <trkpt lat="43.16946" lon="2.38712">
        <ele>178.399719</ele>
        <time>2013-06-23T08:57:06Z</time>
      </trkpt>
      <trkpt lat="43.16943" lon="2.38705">
        <ele>178.295227</ele>
        <time>2013-06-23T08:57:08Z</time>
      </trkpt>
      <trkpt lat="43.16942" lon="2.38699">
        <ele>178.16394</ele>
        <time>2013-06-23T08:57:10Z</time>
      </trkpt>
      <trkpt lat="43.16938" lon="2.38691">
        <ele>178.074341</ele>
        <time>2013-06-23T08:57:13Z</time>
      </trkpt>
      <trkpt lat="43.16933" lon="2.3869">
        <ele>178.158203</ele>
        <time>2013-06-23T08:57:15Z</time>
      </trkpt>
      <trkpt lat="43.16928" lon="2.38691">
        <ele>178.31189</ele>
        <time>2013-06-23T08:57:17Z</time>
      </trkpt>
      <trkpt lat="43.16922" lon="2.38692">
        <ele>178.493103</ele>
        <time>2013-06-23T08:57:19Z</time>
      </trkpt>
      <trkpt lat="43.16916" lon="2.38694">
        <ele>178.691406</ele>
        <time>2013-06-23T08:57:21Z</time>
      </trkpt>
      <trkpt lat="43.1691" lon="2.38696">
        <ele>179.059326</ele>
        <time>2013-06-23T08:57:23Z</time>
      </trkpt>
      <trkpt lat="43.16906" lon="2.387">
        <ele>179.391479</ele>
        <time>2013-06-23T08:57:25Z</time>
      </trkpt>
      <trkpt lat="43.16904" lon="2.38709">
        <ele>179.664429</ele>
        <time>2013-06-23T08:57:28Z</time>
      </trkpt>
      <trkpt lat="43.16905" lon="2.38716">
        <ele>179.818604</ele>
        <time>2013-06-23T08:57:30Z</time>
      </trkpt>
      <trkpt lat="43.16905" lon="2.38723">
        <ele>179.951782</ele>
        <time>2013-06-23T08:57:32Z</time>
      </trkpt>
      <trkpt lat="43.16906" lon="2.38729">
        <ele>180.064331</ele>
        <time>2013-06-23T08:57:34Z</time>
      </trkpt>
      <trkpt lat="43.16906" lon="2.38736">
        <ele>180.215515</ele>
        <time>2013-06-23T08:57:36Z</time>
      </trkpt>
      <trkpt lat="43.16906" lon="2.38743">
        <ele>180.369934</ele>
        <time>2013-06-23T08:57:38Z</time>
      </trkpt>
      <trkpt lat="43.16905" lon="2.38749">
        <ele>180.530823</ele>
        <time>2013-06-23T08:57:40Z</time>
      </trkpt>
      <trkpt lat="43.16904" lon="2.38756">
        <ele>180.680298</ele>
        <time>2013-06-23T08:57:42Z</time>
      </trkpt>
      <trkpt lat="43.16899" lon="2.3876">
        <ele>180.957886</ele>
        <time>2013-06-23T08:57:45Z</time>
      </trkpt>
      <trkpt lat="43.16893" lon="2.38758">
        <ele>181.229248</ele>
        <time>2013-06-23T08:57:48Z</time>
      </trkpt>
      <trkpt lat="43.16887" lon="2.38757">
        <ele>181.47821</ele>
        <time>2013-06-23T08:57:50Z</time>
      </trkpt>
      <trkpt lat="43.16882" lon="2.38758">
        <ele>181.699097</ele>
        <time>2013-06-23T08:57:52Z</time>
      </trkpt>
      <trkpt lat="43.1688" lon="2.38764">
        <ele>181.845825</ele>
        <time>2013-06-23T08:57:55Z</time>
      </trkpt>
      <trkpt lat="43.1688" lon="2.3877">
        <ele>181.91272</ele>
        <time>2013-06-23T08:57:57Z</time>
      </trkpt>
      <trkpt lat="43.16879" lon="2.38777">
        <ele>181.997375</ele>
        <time>2013-06-23T08:57:59Z</time>
      </trkpt>
      <trkpt lat="43.16878" lon="2.38784">
        <ele>182.079895</ele>
        <time>2013-06-23T08:58:01Z</time>
      </trkpt>
      <trkpt lat="43.16877" lon="2.3879">
        <ele>182.158752</ele>
        <time>2013-06-23T08:58:03Z</time>
      </trkpt>
      <trkpt lat="43.16877" lon="2.38797">
        <ele>182.212769</ele>
        <time>2013-06-23T08:58:05Z</time>
      </trkpt>
      <trkpt lat="43.16877" lon="2.38804">
        <ele>182.242981</ele>
        <time>2013-06-23T08:58:07Z</time>
      </trkpt>
      <trkpt lat="43.16877" lon="2.38811">
        <ele>182.297119</ele>
        <time>2013-06-23T08:58:09Z</time>
      </trkpt>
      <trkpt lat="43.16876" lon="2.38818">
        <ele>182.367676</ele>
        <time>2013-06-23T08:58:11Z</time>
      </trkpt>
      <trkpt lat="43.16875" lon="2.38824">
        <ele>182.434204</ele>
        <time>2013-06-23T08:58:13Z</time>
      </trkpt>
      <trkpt lat="43.16875" lon="2.38832">
        <ele>182.495239</ele>
        <time>2013-06-23T08:58:15Z</time>
      </trkpt>
      <trkpt lat="43.16874" lon="2.38839">
        <ele>182.767456</ele>
        <time>2013-06-23T08:58:17Z</time>
      </trkpt>
      <trkpt lat="43.16873" lon="2.38846">
        <ele>183.115112</ele>
        <time>2013-06-23T08:58:19Z</time>
      </trkpt>
      <trkpt lat="43.16872" lon="2.38853">
        <ele>183.458923</ele>
        <time>2013-06-23T08:58:21Z</time>
      </trkpt>
      <trkpt lat="43.16871" lon="2.3886">
        <ele>183.803162</ele>
        <time>2013-06-23T08:58:23Z</time>
      </trkpt>
      <trkpt lat="43.1687" lon="2.38867">
        <ele>184.167419</ele>
        <time>2013-06-23T08:58:25Z</time>
      </trkpt>
      <trkpt lat="43.16869" lon="2.38874">
        <ele>184.527893</ele>
        <time>2013-06-23T08:58:27Z</time>
      </trkpt>
      <trkpt lat="43.16869" lon="2.38881">
        <ele>184.883118</ele>
        <time>2013-06-23T08:58:29Z</time>
      </trkpt>
      <trkpt lat="43.16868" lon="2.38888">
        <ele>185.250366</ele>
        <time>2013-06-23T08:58:31Z</time>
      </trkpt>
      <trkpt lat="43.16867" lon="2.38896">
        <ele>185.647888</ele>
        <time>2013-06-23T08:58:33Z</time>
      </trkpt>
      <trkpt lat="43.16866" lon="2.38904">
        <ele>186.043579</ele>
        <time>2013-06-23T08:58:35Z</time>
      </trkpt>
      <trkpt lat="43.16865" lon="2.38911">
        <ele>186.448853</ele>
        <time>2013-06-23T08:58:37Z</time>
      </trkpt>
      <trkpt lat="43.16865" lon="2.38918">
        <ele>186.773499</ele>
        <time>2013-06-23T08:58:39Z</time>
      </trkpt>
      <trkpt lat="43.16864" lon="2.38927">
        <ele>187.058777</ele>
        <time>2013-06-23T08:58:42Z</time>
      </trkpt>
      <trkpt lat="43.16863" lon="2.38934">
        <ele>187.325012</ele>
        <time>2013-06-23T08:58:45Z</time>
      </trkpt>
      <trkpt lat="43.16863" lon="2.38942">
        <ele>187.599426</ele>
        <time>2013-06-23T08:58:48Z</time>
      </trkpt>
      <trkpt lat="43.16862" lon="2.38948">
        <ele>187.798584</ele>
        <time>2013-06-23T08:58:51Z</time>
      </trkpt>
      <trkpt lat="43.16864" lon="2.38954">
        <ele>187.847412</ele>
        <time>2013-06-23T08:58:55Z</time>
      </trkpt>
      <trkpt lat="43.16869" lon="2.38955">
        <ele>187.54364</ele>
        <time>2013-06-23T08:58:59Z</time>
      </trkpt>
      <trkpt lat="43.16874" lon="2.38955">
        <ele>187.204468</ele>
        <time>2013-06-23T08:59:01Z</time>
      </trkpt>
      <trkpt lat="43.1688" lon="2.38953">
        <ele>186.769531</ele>
        <time>2013-06-23T08:59:03Z</time>
      </trkpt>
      <trkpt lat="43.16886" lon="2.38951">
        <ele>186.321777</ele>
        <time>2013-06-23T08:59:05Z</time>
      </trkpt>
      <trkpt lat="43.16891" lon="2.38948">
        <ele>185.870911</ele>
        <time>2013-06-23T08:59:07Z</time>
      </trkpt>
      <trkpt lat="43.16896" lon="2.38945">
        <ele>185.41272</ele>
        <time>2013-06-23T08:59:09Z</time>
      </trkpt>
      <trkpt lat="43.16902" lon="2.38942">
        <ele>184.950439</ele>
        <time>2013-06-23T08:59:11Z</time>
      </trkpt>
      <trkpt lat="43.16906" lon="2.3894">
        <ele>184.58075</ele>
        <time>2013-06-23T08:59:13Z</time>
      </trkpt>
      <trkpt lat="43.1691" lon="2.38937">
        <ele>184.178406</ele>
        <time>2013-06-23T08:59:15Z</time>
      </trkpt>
      <trkpt lat="43.16915" lon="2.38934">
        <ele>183.744629</ele>
        <time>2013-06-23T08:59:17Z</time>
      </trkpt>
      <trkpt lat="43.1692" lon="2.38931">
        <ele>183.532776</ele>
        <time>2013-06-23T08:59:19Z</time>
      </trkpt>
      <trkpt lat="43.16925" lon="2.38927">
        <ele>183.461792</ele>
        <time>2013-06-23T08:59:21Z</time>
      </trkpt>
      <trkpt lat="43.16931" lon="2.38924">
        <ele>183.403687</ele>
        <time>2013-06-23T08:59:23Z</time>
      </trkpt>
      <trkpt lat="43.16937" lon="2.38919">
        <ele>183.321106</ele>
        <time>2013-06-23T08:59:25Z</time>
      </trkpt>
      <trkpt lat="43.16942" lon="2.38916">
        <ele>183.273254</ele>
        <time>2013-06-23T08:59:27Z</time>
      </trkpt>
      <trkpt lat="43.16947" lon="2.38911">
        <ele>183.235413</ele>
        <time>2013-06-23T08:59:29Z</time>
      </trkpt>
      <trkpt lat="43.16953" lon="2.38907">
        <ele>183.198914</ele>
        <time>2013-06-23T08:59:31Z</time>
      </trkpt>
      <trkpt lat="43.16958" lon="2.38903">
        <ele>183.161255</ele>
        <time>2013-06-23T08:59:33Z</time>
      </trkpt>
      <trkpt lat="43.16964" lon="2.389">
        <ele>183.167786</ele>
        <time>2013-06-23T08:59:35Z</time>
      </trkpt>
      <trkpt lat="43.16972" lon="2.38901">
        <ele>183.286743</ele>
        <time>2013-06-23T08:59:37Z</time>
      </trkpt>
      <trkpt lat="43.16979" lon="2.38907">
        <ele>183.512573</ele>
        <time>2013-06-23T08:59:39Z</time>
      </trkpt>
      <trkpt lat="43.16981" lon="2.38918">
        <ele>183.790833</ele>
        <time>2013-06-23T08:59:41Z</time>
      </trkpt>
      <trkpt lat="43.16981" lon="2.38928">
        <ele>183.95929</ele>
        <time>2013-06-23T08:59:43Z</time>
      </trkpt>
      <trkpt lat="43.16979" lon="2.38937">
        <ele>184.112</ele>
        <time>2013-06-23T08:59:45Z</time>
      </trkpt>
      <trkpt lat="43.16976" lon="2.38946">
        <ele>184.269714</ele>
        <time>2013-06-23T08:59:47Z</time>
      </trkpt>
      <trkpt lat="43.16974" lon="2.38955">
        <ele>184.432434</ele>
        <time>2013-06-23T08:59:49Z</time>
      </trkpt>
      <trkpt lat="43.16972" lon="2.38963">
        <ele>184.60321</ele>
        <time>2013-06-23T08:59:51Z</time>
      </trkpt>
      <trkpt lat="43.16969" lon="2.38972">
        <ele>184.787476</ele>
        <time>2013-06-23T08:59:53Z</time>
      </trkpt>
      <trkpt lat="43.16967" lon="2.38981">
        <ele>184.983398</ele>
        <time>2013-06-23T08:59:55Z</time>
      </trkpt>
      <trkpt lat="43.16965" lon="2.38989">
        <ele>185.189819</ele>
        <time>2013-06-23T08:59:57Z</time>
      </trkpt>
      <trkpt lat="43.16962" lon="2.38997">
        <ele>185.396667</ele>
        <time>2013-06-23T08:59:59Z</time>
      </trkpt>
      <trkpt lat="43.16959" lon="2.39004">
        <ele>185.560547</ele>
        <time>2013-06-23T09:00:01Z</time>
      </trkpt>
      <trkpt lat="43.16957" lon="2.3901">
        <ele>185.699768</ele>
        <time>2013-06-23T09:00:03Z</time>
      </trkpt>
      <trkpt lat="43.16954" lon="2.39017">
        <ele>185.88855</ele>
        <time>2013-06-23T09:00:05Z</time>
      </trkpt>
      <trkpt lat="43.16951" lon="2.39025">
        <ele>186.113831</ele>
        <time>2013-06-23T09:00:07Z</time>
      </trkpt>
      <trkpt lat="43.16948" lon="2.39033">
        <ele>186.368103</ele>
        <time>2013-06-23T09:00:09Z</time>
      </trkpt>
      <trkpt lat="43.16945" lon="2.39042">
        <ele>186.659424</ele>
        <time>2013-06-23T09:00:11Z</time>
      </trkpt>
      <trkpt lat="43.16942" lon="2.39052">
        <ele>186.981384</ele>
        <time>2013-06-23T09:00:13Z</time>
      </trkpt>
      <trkpt lat="43.16939" lon="2.39062">
        <ele>187.344971</ele>
        <time>2013-06-23T09:00:15Z</time>
      </trkpt>
      <trkpt lat="43.16936" lon="2.39072">
        <ele>187.785583</ele>
        <time>2013-06-23T09:00:17Z</time>
      </trkpt>
      <trkpt lat="43.16932" lon="2.39083">
        <ele>188.258942</ele>
        <time>2013-06-23T09:00:19Z</time>
      </trkpt>
      <trkpt lat="43.16928" lon="2.39093">
        <ele>188.425812</ele>
        <time>2013-06-23T09:00:21Z</time>
      </trkpt>
      <trkpt lat="43.16925" lon="2.39102">
        <ele>188.591919</ele>
        <time>2013-06-23T09:00:23Z</time>
      </trkpt>
      <trkpt lat="43.16921" lon="2.39111">
        <ele>188.782288</ele>
        <time>2013-06-23T09:00:25Z</time>
      </trkpt>
      <trkpt lat="43.16917" lon="2.3912">
        <ele>188.998657</ele>
        <time>2013-06-23T09:00:27Z</time>
      </trkpt>
      <trkpt lat="43.16913" lon="2.3913">
        <ele>189.28064</ele>
        <time>2013-06-23T09:00:29Z</time>
      </trkpt>
      <trkpt lat="43.16908" lon="2.39139">
        <ele>189.602417</ele>
        <time>2013-06-23T09:00:31Z</time>
      </trkpt>
      <trkpt lat="43.16904" lon="2.39148">
        <ele>189.963898</ele>
        <time>2013-06-23T09:00:33Z</time>
      </trkpt>
      <trkpt lat="43.169" lon="2.39156">
        <ele>190.366028</ele>
        <time>2013-06-23T09:00:35Z</time>
      </trkpt>
      <trkpt lat="43.16895" lon="2.39165">
        <ele>190.817566</ele>
        <time>2013-06-23T09:00:37Z</time>
      </trkpt>
      <trkpt lat="43.1689" lon="2.39173">
        <ele>191.350677</ele>
        <time>2013-06-23T09:00:39Z</time>
      </trkpt>
      <trkpt lat="43.16885" lon="2.39182">
        <ele>191.959351</ele>
        <time>2013-06-23T09:00:41Z</time>
      </trkpt>
      <trkpt lat="43.16881" lon="2.39189">
        <ele>192.535675</ele>
        <time>2013-06-23T09:00:43Z</time>
      </trkpt>
      <trkpt lat="43.16877" lon="2.39198">
        <ele>193.031067</ele>
        <time>2013-06-23T09:00:45Z</time>
      </trkpt>
      <trkpt lat="43.16876" lon="2.39209">
        <ele>193.365204</ele>
        <time>2013-06-23T09:00:47Z</time>
      </trkpt>
      <trkpt lat="43.16877" lon="2.39219">
        <ele>193.602264</ele>
        <time>2013-06-23T09:00:49Z</time>
      </trkpt>
      <trkpt lat="43.16878" lon="2.3923">
        <ele>193.68631</ele>
        <time>2013-06-23T09:00:51Z</time>
      </trkpt>
      <trkpt lat="43.16881" lon="2.3924">
        <ele>193.665192</ele>
        <time>2013-06-23T09:00:53Z</time>
      </trkpt>
      <trkpt lat="43.16883" lon="2.39249">
        <ele>193.641785</ele>
        <time>2013-06-23T09:00:55Z</time>
      </trkpt>
      <trkpt lat="43.16884" lon="2.39259">
        <ele>193.532166</ele>
        <time>2013-06-23T09:00:57Z</time>
      </trkpt>
      <trkpt lat="43.16885" lon="2.39269">
        <ele>193.467163</ele>
        <time>2013-06-23T09:00:59Z</time>
      </trkpt>
      <trkpt lat="43.16886" lon="2.3928">
        <ele>193.370789</ele>
        <time>2013-06-23T09:01:01Z</time>
      </trkpt>
      <trkpt lat="43.16887" lon="2.3929">
        <ele>193.301727</ele>
        <time>2013-06-23T09:01:03Z</time>
      </trkpt>
      <trkpt lat="43.16888" lon="2.39301">
        <ele>193.266327</ele>
        <time>2013-06-23T09:01:05Z</time>
      </trkpt>
      <trkpt lat="43.16889" lon="2.39311">
        <ele>193.216248</ele>
        <time>2013-06-23T09:01:07Z</time>
      </trkpt>
      <trkpt lat="43.1689" lon="2.39322">
        <ele>193.174133</ele>
        <time>2013-06-23T09:01:09Z</time>
      </trkpt>
      <trkpt lat="43.16891" lon="2.39332">
        <ele>193.117096</ele>
        <time>2013-06-23T09:01:11Z</time>
      </trkpt>
      <trkpt lat="43.16893" lon="2.39342">
        <ele>193.004181</ele>
        <time>2013-06-23T09:01:13Z</time>
      </trkpt>
      <trkpt lat="43.16894" lon="2.39352">
        <ele>192.913605</ele>
        <time>2013-06-23T09:01:15Z</time>
      </trkpt>
      <trkpt lat="43.16894" lon="2.39362">
        <ele>192.866394</ele>
        <time>2013-06-23T09:01:17Z</time>
      </trkpt>
      <trkpt lat="43.16895" lon="2.39373">
        <ele>192.852325</ele>
        <time>2013-06-23T09:01:19Z</time>
      </trkpt>
      <trkpt lat="43.16894" lon="2.39384">
        <ele>192.898895</ele>
        <time>2013-06-23T09:01:21Z</time>
      </trkpt>
      <trkpt lat="43.16893" lon="2.39394">
        <ele>193.029419</ele>
        <time>2013-06-23T09:01:23Z</time>
      </trkpt>
      <trkpt lat="43.16892" lon="2.39405">
        <ele>193.100098</ele>
        <time>2013-06-23T09:01:25Z</time>
      </trkpt>
      <trkpt lat="43.16891" lon="2.39416">
        <ele>193.192627</ele>
        <time>2013-06-23T09:01:27Z</time>
      </trkpt>
      <trkpt lat="43.1689" lon="2.39426">
        <ele>192.936218</ele>
        <time>2013-06-23T09:01:29Z</time>
      </trkpt>
      <trkpt lat="43.16889" lon="2.39438">
        <ele>192.636963</ele>
        <time>2013-06-23T09:01:31Z</time>
      </trkpt>
      <trkpt lat="43.16888" lon="2.39447">
        <ele>192.436096</ele>
        <time>2013-06-23T09:01:33Z</time>
      </trkpt>
      <trkpt lat="43.16887" lon="2.39458">
        <ele>192.230103</ele>
        <time>2013-06-23T09:01:35Z</time>
      </trkpt>
      <trkpt lat="43.16886" lon="2.3947">
        <ele>191.940247</ele>
        <time>2013-06-23T09:01:37Z</time>
      </trkpt>
      <trkpt lat="43.16885" lon="2.39482">
        <ele>191.632111</ele>
        <time>2013-06-23T09:01:39Z</time>
      </trkpt>
      <trkpt lat="43.16884" lon="2.39494">
        <ele>191.338684</ele>
        <time>2013-06-23T09:01:41Z</time>
      </trkpt>
      <trkpt lat="43.16883" lon="2.39505">
        <ele>191.302338</ele>
        <time>2013-06-23T09:01:43Z</time>
      </trkpt>
      <trkpt lat="43.16882" lon="2.39518">
        <ele>191.618073</ele>
        <time>2013-06-23T09:01:45Z</time>
      </trkpt>
      <trkpt lat="43.1688" lon="2.3953">
        <ele>191.943665</ele>
        <time>2013-06-23T09:01:47Z</time>
      </trkpt>
      <trkpt lat="43.1688" lon="2.3954">
        <ele>192.179993</ele>
        <time>2013-06-23T09:01:49Z</time>
      </trkpt>
      <trkpt lat="43.16878" lon="2.39553">
        <ele>192.582306</ele>
        <time>2013-06-23T09:01:51Z</time>
      </trkpt>
      <trkpt lat="43.16877" lon="2.39559">
        <ele>192.786133</ele>
        <time>2013-06-23T09:01:52Z</time>
      </trkpt>
      <trkpt lat="43.16877" lon="2.3957">
        <ele>193.066223</ele>
        <time>2013-06-23T09:01:54Z</time>
      </trkpt>
      <trkpt lat="43.16876" lon="2.39581">
        <ele>193.335907</ele>
        <time>2013-06-23T09:01:56Z</time>
      </trkpt>
      <trkpt lat="43.16876" lon="2.39593">
        <ele>193.600952</ele>
        <time>2013-06-23T09:01:58Z</time>
      </trkpt>
      <trkpt lat="43.16875" lon="2.39599">
        <ele>193.752747</ele>
        <time>2013-06-23T09:01:59Z</time>
      </trkpt>
      <trkpt lat="43.16875" lon="2.39605">
        <ele>193.870972</ele>
        <time>2013-06-23T09:02:00Z</time>
      </trkpt>
      <trkpt lat="43.16875" lon="2.39612">
        <ele>193.978699</ele>
        <time>2013-06-23T09:02:01Z</time>
      </trkpt>
      <trkpt lat="43.16875" lon="2.39618">
        <ele>194.093048</ele>
        <time>2013-06-23T09:02:02Z</time>
      </trkpt>
      <trkpt lat="43.16875" lon="2.39625">
        <ele>194.225159</ele>
        <time>2013-06-23T09:02:03Z</time>
      </trkpt>
      <trkpt lat="43.16875" lon="2.39631">
        <ele>194.332153</ele>
        <time>2013-06-23T09:02:04Z</time>
      </trkpt>
      <trkpt lat="43.16876" lon="2.39638">
        <ele>194.393219</ele>
        <time>2013-06-23T09:02:05Z</time>
      </trkpt>
      <trkpt lat="43.16876" lon="2.39645">
        <ele>194.445221</ele>
        <time>2013-06-23T09:02:06Z</time>
      </trkpt>
      <trkpt lat="43.16877" lon="2.39651">
        <ele>194.445618</ele>
        <time>2013-06-23T09:02:07Z</time>
      </trkpt>
      <trkpt lat="43.16877" lon="2.39658">
        <ele>194.484497</ele>
        <time>2013-06-23T09:02:08Z</time>
      </trkpt>
      <trkpt lat="43.16878" lon="2.39664">
        <ele>194.495819</ele>
        <time>2013-06-23T09:02:09Z</time>
      </trkpt>
      <trkpt lat="43.16878" lon="2.39671">
        <ele>194.361816</ele>
        <time>2013-06-23T09:02:10Z</time>
      </trkpt>
      <trkpt lat="43.16879" lon="2.39677">
        <ele>194.193237</ele>
        <time>2013-06-23T09:02:11Z</time>
      </trkpt>
      <trkpt lat="43.16879" lon="2.39683">
        <ele>194.025452</ele>
        <time>2013-06-23T09:02:12Z</time>
      </trkpt>
      <trkpt lat="43.16879" lon="2.3969">
        <ele>193.884308</ele>
        <time>2013-06-23T09:02:13Z</time>
      </trkpt>
      <trkpt lat="43.1688" lon="2.39696">
        <ele>193.732666</ele>
        <time>2013-06-23T09:02:14Z</time>
      </trkpt>
      <trkpt lat="43.1688" lon="2.39703">
        <ele>193.574402</ele>
        <time>2013-06-23T09:02:15Z</time>
      </trkpt>
      <trkpt lat="43.16881" lon="2.3971">
        <ele>193.350037</ele>
        <time>2013-06-23T09:02:16Z</time>
      </trkpt>
      <trkpt lat="43.16881" lon="2.39718">
        <ele>193.182098</ele>
        <time>2013-06-23T09:02:17Z</time>
      </trkpt>
      <trkpt lat="43.16882" lon="2.39725">
        <ele>193.024109</ele>
        <time>2013-06-23T09:02:18Z</time>
      </trkpt>
      <trkpt lat="43.16882" lon="2.39732">
        <ele>192.898163</ele>
        <time>2013-06-23T09:02:19Z</time>
      </trkpt>
      <trkpt lat="43.16882" lon="2.3974">
        <ele>192.765137</ele>
        <time>2013-06-23T09:02:20Z</time>
      </trkpt>
      <trkpt lat="43.16881" lon="2.39748">
        <ele>192.700745</ele>
        <time>2013-06-23T09:02:21Z</time>
      </trkpt>
      <trkpt lat="43.16881" lon="2.39755">
        <ele>192.795898</ele>
        <time>2013-06-23T09:02:22Z</time>
      </trkpt>
      <trkpt lat="43.1688" lon="2.39763">
        <ele>192.97644</ele>
        <time>2013-06-23T09:02:23Z</time>
      </trkpt>
      <trkpt lat="43.16879" lon="2.3977">
        <ele>193.169312</ele>
        <time>2013-06-23T09:02:24Z</time>
      </trkpt>
      <trkpt lat="43.16877" lon="2.39777">
        <ele>193.351929</ele>
        <time>2013-06-23T09:02:25Z</time>
      </trkpt>
      <trkpt lat="43.16877" lon="2.39783">
        <ele>193.481232</ele>
        <time>2013-06-23T09:02:26Z</time>
      </trkpt>
      <trkpt lat="43.16876" lon="2.39795">
        <ele>193.703491</ele>
        <time>2013-06-23T09:02:28Z</time>
      </trkpt>
      <trkpt lat="43.16874" lon="2.39806">
        <ele>193.912628</ele>
        <time>2013-06-23T09:02:30Z</time>
      </trkpt>
      <trkpt lat="43.16873" lon="2.39817">
        <ele>194.13504</ele>
        <time>2013-06-23T09:02:32Z</time>
      </trkpt>
      <trkpt lat="43.16872" lon="2.39828">
        <ele>194.306061</ele>
        <time>2013-06-23T09:02:34Z</time>
      </trkpt>
      <trkpt lat="43.16872" lon="2.39838">
        <ele>194.482422</ele>
        <time>2013-06-23T09:02:36Z</time>
      </trkpt>
      <trkpt lat="43.16871" lon="2.39847">
        <ele>194.709869</ele>
        <time>2013-06-23T09:02:38Z</time>
      </trkpt>
      <trkpt lat="43.1687" lon="2.39856">
        <ele>194.981262</ele>
        <time>2013-06-23T09:02:40Z</time>
      </trkpt>
      <trkpt lat="43.16869" lon="2.39866">
        <ele>195.272644</ele>
        <time>2013-06-23T09:02:42Z</time>
      </trkpt>
      <trkpt lat="43.16868" lon="2.39876">
        <ele>195.593628</ele>
        <time>2013-06-23T09:02:44Z</time>
      </trkpt>
      <trkpt lat="43.16866" lon="2.39885">
        <ele>195.932037</ele>
        <time>2013-06-23T09:02:46Z</time>
      </trkpt>
      <trkpt lat="43.16865" lon="2.39893">
        <ele>196.20755</ele>
        <time>2013-06-23T09:02:48Z</time>
      </trkpt>
      <trkpt lat="43.16864" lon="2.39901">
        <ele>196.470367</ele>
        <time>2013-06-23T09:02:50Z</time>
      </trkpt>
      <trkpt lat="43.16862" lon="2.39909">
        <ele>196.765625</ele>
        <time>2013-06-23T09:02:52Z</time>
      </trkpt>
      <trkpt lat="43.16862" lon="2.39916">
        <ele>196.935242</ele>
        <time>2013-06-23T09:02:54Z</time>
      </trkpt>
      <trkpt lat="43.16861" lon="2.39925">
        <ele>197.317352</ele>
        <time>2013-06-23T09:02:56Z</time>
      </trkpt>
      <trkpt lat="43.1686" lon="2.39932">
        <ele>197.729218</ele>
        <time>2013-06-23T09:02:58Z</time>
      </trkpt>
      <trkpt lat="43.16859" lon="2.39939">
        <ele>198.119568</ele>
        <time>2013-06-23T09:03:00Z</time>
      </trkpt>
      <trkpt lat="43.16857" lon="2.39946">
        <ele>198.688538</ele>
        <time>2013-06-23T09:03:03Z</time>
      </trkpt>
      <trkpt lat="43.16854" lon="2.39954">
        <ele>199.365723</ele>
        <time>2013-06-23T09:03:06Z</time>
      </trkpt>
      <trkpt lat="43.16851" lon="2.39959">
        <ele>199.898804</ele>
        <time>2013-06-23T09:03:08Z</time>
      </trkpt>
      <trkpt lat="43.16849" lon="2.39964">
        <ele>200.436951</ele>
        <time>2013-06-23T09:03:10Z</time>
      </trkpt>
      <trkpt lat="43.16846" lon="2.39972">
        <ele>201.124634</ele>
        <time>2013-06-23T09:03:13Z</time>
      </trkpt>
      <trkpt lat="43.16842" lon="2.39979">
        <ele>201.824951</ele>
        <time>2013-06-23T09:03:17Z</time>
      </trkpt>
      <trkpt lat="43.1684" lon="2.39985">
        <ele>202.44635</ele>
        <time>2013-06-23T09:03:20Z</time>
      </trkpt>
      <trkpt lat="43.16839" lon="2.39991">
        <ele>202.844666</ele>
        <time>2013-06-23T09:03:23Z</time>
      </trkpt>
      <trkpt lat="43.16837" lon="2.39997">
        <ele>203.360168</ele>
        <time>2013-06-23T09:03:26Z</time>
      </trkpt>
      <trkpt lat="43.16835" lon="2.40004">
        <ele>203.76004</ele>
        <time>2013-06-23T09:03:29Z</time>
      </trkpt>
      <trkpt lat="43.16833" lon="2.40011">
        <ele>204.082458</ele>
        <time>2013-06-23T09:03:32Z</time>
      </trkpt>
      <trkpt lat="43.16829" lon="2.40016">
        <ele>204.43689</ele>
        <time>2013-06-23T09:03:35Z</time>
      </trkpt>
      <trkpt lat="43.16825" lon="2.40019">
        <ele>204.960114</ele>
        <time>2013-06-23T09:03:38Z</time>
      </trkpt>
      <trkpt lat="43.1682" lon="2.40022">
        <ele>205.474884</ele>
        <time>2013-06-23T09:03:41Z</time>
      </trkpt>
      <trkpt lat="43.16816" lon="2.40025">
        <ele>205.952332</ele>
        <time>2013-06-23T09:03:44Z</time>
      </trkpt>
      <trkpt lat="43.16811" lon="2.40026">
        <ele>206.493744</ele>
        <time>2013-06-23T09:03:47Z</time>
      </trkpt>
      <trkpt lat="43.16807" lon="2.40028">
        <ele>207.00827</ele>
        <time>2013-06-23T09:03:50Z</time>
      </trkpt>
      <trkpt lat="43.16801" lon="2.4003">
        <ele>207.64502</ele>
        <time>2013-06-23T09:03:53Z</time>
      </trkpt>
      <trkpt lat="43.16797" lon="2.40032">
        <ele>208.137054</ele>
        <time>2013-06-23T09:03:56Z</time>
      </trkpt>
      <trkpt lat="43.16792" lon="2.40035">
        <ele>208.675598</ele>
        <time>2013-06-23T09:03:59Z</time>
      </trkpt>
      <trkpt lat="43.16786" lon="2.40035">
        <ele>209.31781</ele>
        <time>2013-06-23T09:04:02Z</time>
      </trkpt>
      <trkpt lat="43.16782" lon="2.40037">
        <ele>209.847778</ele>
        <time>2013-06-23T09:04:05Z</time>
      </trkpt>
      <trkpt lat="43.16777" lon="2.40039">
        <ele>210.380676</ele>
        <time>2013-06-23T09:04:08Z</time>
      </trkpt>
      <trkpt lat="43.16773" lon="2.4004">
        <ele>210.894501</ele>
        <time>2013-06-23T09:04:11Z</time>
      </trkpt>
      <trkpt lat="43.16768" lon="2.40041">
        <ele>211.43222</ele>
        <time>2013-06-23T09:04:14Z</time>
      </trkpt>
      <trkpt lat="43.16763" lon="2.40042">
        <ele>212.020935</ele>
        <time>2013-06-23T09:04:17Z</time>
      </trkpt>
      <trkpt lat="43.16757" lon="2.40044">
        <ele>212.742493</ele>
        <time>2013-06-23T09:04:21Z</time>
      </trkpt>
      <trkpt lat="43.16752" lon="2.40046">
        <ele>213.302399</ele>
        <time>2013-06-23T09:04:24Z</time>
      </trkpt>
      <trkpt lat="43.16746" lon="2.40048">
        <ele>214.318695</ele>
        <time>2013-06-23T09:04:27Z</time>
      </trkpt>
      <trkpt lat="43.16741" lon="2.40047">
        <ele>215.460693</ele>
        <time>2013-06-23T09:04:30Z</time>
      </trkpt>
      <trkpt lat="43.16738" lon="2.40041">
        <ele>215.990723</ele>
        <time>2013-06-23T09:04:33Z</time>
      </trkpt>
      <trkpt lat="43.16737" lon="2.40035">
        <ele>216.082703</ele>
        <time>2013-06-23T09:04:35Z</time>
      </trkpt>
      <trkpt lat="43.16737" lon="2.40027">
        <ele>216.141174</ele>
        <time>2013-06-23T09:04:38Z</time>
      </trkpt>
      <trkpt lat="43.16737" lon="2.4002">
        <ele>216.015381</ele>
        <time>2013-06-23T09:04:40Z</time>
      </trkpt>
      <trkpt lat="43.16737" lon="2.4001">
        <ele>215.940216</ele>
        <time>2013-06-23T09:04:42Z</time>
      </trkpt>
      <trkpt lat="43.16736" lon="2.39999">
        <ele>216.062134</ele>
        <time>2013-06-23T09:04:44Z</time>
      </trkpt>
      <trkpt lat="43.16735" lon="2.39992">
        <ele>216.010193</ele>
        <time>2013-06-23T09:04:45Z</time>
      </trkpt>
      <trkpt lat="43.16735" lon="2.39986">
        <ele>215.926178</ele>
        <time>2013-06-23T09:04:46Z</time>
      </trkpt>
      <trkpt lat="43.16735" lon="2.39979">
        <ele>215.841675</ele>
        <time>2013-06-23T09:04:47Z</time>
      </trkpt>
      <trkpt lat="43.16733" lon="2.39967">
        <ele>215.899292</ele>
        <time>2013-06-23T09:04:49Z</time>
      </trkpt>
      <trkpt lat="43.16733" lon="2.3996">
        <ele>215.906158</ele>
        <time>2013-06-23T09:04:50Z</time>
      </trkpt>
      <trkpt lat="43.16732" lon="2.39954">
        <ele>215.938141</ele>
        <time>2013-06-23T09:04:51Z</time>
      </trkpt>
      <trkpt lat="43.16731" lon="2.39947">
        <ele>215.947601</ele>
        <time>2013-06-23T09:04:52Z</time>
      </trkpt>
      <trkpt lat="43.16731" lon="2.39941">
        <ele>215.88916</ele>
        <time>2013-06-23T09:04:53Z</time>
      </trkpt>
      <trkpt lat="43.16731" lon="2.39935">
        <ele>215.828796</ele>
        <time>2013-06-23T09:04:54Z</time>
      </trkpt>
      <trkpt lat="43.1673" lon="2.39928">
        <ele>215.796692</ele>
        <time>2013-06-23T09:04:55Z</time>
      </trkpt>
      <trkpt lat="43.1673" lon="2.39922">
        <ele>215.745941</ele>
        <time>2013-06-23T09:04:56Z</time>
      </trkpt>
      <trkpt lat="43.16729" lon="2.39915">
        <ele>215.706451</ele>
        <time>2013-06-23T09:04:57Z</time>
      </trkpt>
      <trkpt lat="43.16729" lon="2.39904">
        <ele>215.724945</ele>
        <time>2013-06-23T09:04:59Z</time>
      </trkpt>
      <trkpt lat="43.16728" lon="2.39893">
        <ele>215.796417</ele>
        <time>2013-06-23T09:05:01Z</time>
      </trkpt>
      <trkpt lat="43.16725" lon="2.39883">
        <ele>216.17926</ele>
        <time>2013-06-23T09:05:03Z</time>
      </trkpt>
      <trkpt lat="43.16719" lon="2.39878">
        <ele>217.322205</ele>
        <time>2013-06-23T09:05:05Z</time>
      </trkpt>
      <trkpt lat="43.16715" lon="2.39879">
        <ele>218.290894</ele>
        <time>2013-06-23T09:05:07Z</time>
      </trkpt>
      <trkpt lat="43.16709" lon="2.39884">
        <ele>219.574402</ele>
        <time>2013-06-23T09:05:10Z</time>
      </trkpt>
      <trkpt lat="43.16705" lon="2.39892">
        <ele>220.697021</ele>
        <time>2013-06-23T09:05:13Z</time>
      </trkpt>
      <trkpt lat="43.16701" lon="2.39898">
        <ele>221.546539</ele>
        <time>2013-06-23T09:05:15Z</time>
      </trkpt>
      <trkpt lat="43.16699" lon="2.39904">
        <ele>222.192291</ele>
        <time>2013-06-23T09:05:17Z</time>
      </trkpt>
      <trkpt lat="43.16697" lon="2.39911">
        <ele>223.007935</ele>
        <time>2013-06-23T09:05:20Z</time>
      </trkpt>
      <trkpt lat="43.16694" lon="2.39917">
        <ele>223.781189</ele>
        <time>2013-06-23T09:05:23Z</time>
      </trkpt>
      <trkpt lat="43.16691" lon="2.39924">
        <ele>224.616821</ele>
        <time>2013-06-23T09:05:26Z</time>
      </trkpt>
      <trkpt lat="43.16688" lon="2.3993">
        <ele>225.368378</ele>
        <time>2013-06-23T09:05:29Z</time>
      </trkpt>
      <trkpt lat="43.16686" lon="2.39936">
        <ele>225.855164</ele>
        <time>2013-06-23T09:05:32Z</time>
      </trkpt>
      <trkpt lat="43.16684" lon="2.39943">
        <ele>226.501709</ele>
        <time>2013-06-23T09:05:35Z</time>
      </trkpt>
      <trkpt lat="43.16682" lon="2.39949">
        <ele>227.074036</ele>
        <time>2013-06-23T09:05:40Z</time>
      </trkpt>
      <trkpt lat="43.1668" lon="2.39955">
        <ele>227.504211</ele>
        <time>2013-06-23T09:05:45Z</time>
      </trkpt>
      <trkpt lat="43.16677" lon="2.39962">
        <ele>228.160675</ele>
        <time>2013-06-23T09:05:51Z</time>
      </trkpt>
      <trkpt lat="43.16675" lon="2.39968">
        <ele>228.750366</ele>
        <time>2013-06-23T09:05:54Z</time>
      </trkpt>
      <trkpt lat="43.16671" lon="2.39973">
        <ele>229.653259</ele>
        <time>2013-06-23T09:05:57Z</time>
      </trkpt>
      <trkpt lat="43.16666" lon="2.39972">
        <ele>230.869415</ele>
        <time>2013-06-23T09:06:01Z</time>
      </trkpt>
      <trkpt lat="43.16663" lon="2.39966">
        <ele>231.465607</ele>
        <time>2013-06-23T09:06:05Z</time>
      </trkpt>
      <trkpt lat="43.16661" lon="2.39958">
        <ele>231.814636</ele>
        <time>2013-06-23T09:06:08Z</time>
      </trkpt>
      <trkpt lat="43.1666" lon="2.39952">
        <ele>232.015656</ele>
        <time>2013-06-23T09:06:10Z</time>
      </trkpt>
      <trkpt lat="43.16659" lon="2.39944">
        <ele>232.23645</ele>
        <time>2013-06-23T09:06:13Z</time>
      </trkpt>
      <trkpt lat="43.16658" lon="2.39935">
        <ele>232.438538</ele>
        <time>2013-06-23T09:06:17Z</time>
      </trkpt>
      <trkpt lat="43.16654" lon="2.39929">
        <ele>233.293549</ele>
        <time>2013-06-23T09:06:20Z</time>
      </trkpt>
      <trkpt lat="43.16649" lon="2.39926">
        <ele>234.434692</ele>
        <time>2013-06-23T09:06:24Z</time>
      </trkpt>
      <trkpt lat="43.16648" lon="2.39919">
        <ele>234.752777</ele>
        <time>2013-06-23T09:06:28Z</time>
      </trkpt>
      <trkpt lat="43.16645" lon="2.39912">
        <ele>235.218994</ele>
        <time>2013-06-23T09:06:32Z</time>
      </trkpt>
      <trkpt lat="43.16642" lon="2.39907">
        <ele>235.707489</ele>
        <time>2013-06-23T09:06:35Z</time>
      </trkpt>
      <trkpt lat="43.1664" lon="2.39901">
        <ele>236.055939</ele>
        <time>2013-06-23T09:06:38Z</time>
      </trkpt>
      <trkpt lat="43.16639" lon="2.39892">
        <ele>236.1008</ele>
        <time>2013-06-23T09:06:42Z</time>
      </trkpt>
      <trkpt lat="43.16633" lon="2.39889">
        <ele>237.332672</ele>
        <time>2013-06-23T09:06:45Z</time>
      </trkpt>
      <trkpt lat="43.16629" lon="2.39883">
        <ele>238.15976</ele>
        <time>2013-06-23T09:06:48Z</time>
      </trkpt>
      <trkpt lat="43.16625" lon="2.39878">
        <ele>239.179871</ele>
        <time>2013-06-23T09:06:51Z</time>
      </trkpt>
      <trkpt lat="43.16622" lon="2.39874">
        <ele>239.872772</ele>
        <time>2013-06-23T09:06:55Z</time>
      </trkpt>
      <trkpt lat="43.1662" lon="2.39867">
        <ele>240.118713</ele>
        <time>2013-06-23T09:06:59Z</time>
      </trkpt>
      <trkpt lat="43.16617" lon="2.39861">
        <ele>240.769531</ele>
        <time>2013-06-23T09:07:03Z</time>
      </trkpt>
      <trkpt lat="43.16612" lon="2.39862">
        <ele>242.02359</ele>
        <time>2013-06-23T09:07:09Z</time>
      </trkpt>
      <trkpt lat="43.16607" lon="2.39861">
        <ele>243.239624</ele>
        <time>2013-06-23T09:07:12Z</time>
      </trkpt>
      <trkpt lat="43.16603" lon="2.39858">
        <ele>244.371613</ele>
        <time>2013-06-23T09:07:16Z</time>
      </trkpt>
      <trkpt lat="43.16599" lon="2.39853">
        <ele>245.170868</ele>
        <time>2013-06-23T09:07:19Z</time>
      </trkpt>
      <trkpt lat="43.16595" lon="2.39847">
        <ele>246.060364</ele>
        <time>2013-06-23T09:07:22Z</time>
      </trkpt>
      <trkpt lat="43.16592" lon="2.39842">
        <ele>246.724915</ele>
        <time>2013-06-23T09:07:25Z</time>
      </trkpt>
      <trkpt lat="43.1659" lon="2.39836">
        <ele>247.303711</ele>
        <time>2013-06-23T09:07:55Z</time>
      </trkpt>
      <trkpt lat="43.16594" lon="2.39831">
        <ele>246.0961</ele>
        <time>2013-06-23T09:08:32Z</time>
      </trkpt>
      <trkpt lat="43.16593" lon="2.39823">
        <ele>246.359497</ele>
        <time>2013-06-23T09:08:35Z</time>
      </trkpt>
      <trkpt lat="43.1659" lon="2.39817">
        <ele>247.376129</ele>
        <time>2013-06-23T09:08:38Z</time>
      </trkpt>
      <trkpt lat="43.16588" lon="2.39809">
        <ele>247.892273</ele>
        <time>2013-06-23T09:08:41Z</time>
      </trkpt>
      <trkpt lat="43.16586" lon="2.39803">
        <ele>248.426361</ele>
        <time>2013-06-23T09:08:44Z</time>
      </trkpt>
      <trkpt lat="43.16584" lon="2.39796">
        <ele>248.763153</ele>
        <time>2013-06-23T09:08:46Z</time>
      </trkpt>
      <trkpt lat="43.16584" lon="2.39788">
        <ele>248.963135</ele>
        <time>2013-06-23T09:08:49Z</time>
      </trkpt>
      <trkpt lat="43.16582" lon="2.3978">
        <ele>249.299591</ele>
        <time>2013-06-23T09:08:51Z</time>
      </trkpt>
      <trkpt lat="43.16581" lon="2.39773">
        <ele>249.511627</ele>
        <time>2013-06-23T09:08:52Z</time>
      </trkpt>
      <trkpt lat="43.1658" lon="2.39767">
        <ele>249.841919</ele>
        <time>2013-06-23T09:08:53Z</time>
      </trkpt>
      <trkpt lat="43.16578" lon="2.3976">
        <ele>250.313782</ele>
        <time>2013-06-23T09:08:54Z</time>
      </trkpt>
      <trkpt lat="43.16576" lon="2.39754">
        <ele>250.870117</ele>
        <time>2013-06-23T09:08:55Z</time>
      </trkpt>
      <trkpt lat="43.16573" lon="2.39747">
        <ele>251.483521</ele>
        <time>2013-06-23T09:08:57Z</time>
      </trkpt>
      <trkpt lat="43.16572" lon="2.39737">
        <ele>251.878418</ele>
        <time>2013-06-23T09:09:00Z</time>
      </trkpt>
      <trkpt lat="43.16571" lon="2.39729">
        <ele>252.123749</ele>
        <time>2013-06-23T09:09:02Z</time>
      </trkpt>
      <trkpt lat="43.16571" lon="2.39721">
        <ele>252.108582</ele>
        <time>2013-06-23T09:09:04Z</time>
      </trkpt>
      <trkpt lat="43.16571" lon="2.39715">
        <ele>252.2034</ele>
        <time>2013-06-23T09:09:06Z</time>
      </trkpt>
      <trkpt lat="43.16572" lon="2.39707">
        <ele>252.142395</ele>
        <time>2013-06-23T09:09:09Z</time>
      </trkpt>
      <trkpt lat="43.1657" lon="2.39699">
        <ele>252.437042</ele>
        <time>2013-06-23T09:09:12Z</time>
      </trkpt>
      <trkpt lat="43.16568" lon="2.39693">
        <ele>252.967285</ele>
        <time>2013-06-23T09:09:14Z</time>
      </trkpt>
      <trkpt lat="43.16567" lon="2.39685">
        <ele>253.323669</ele>
        <time>2013-06-23T09:09:17Z</time>
      </trkpt>
      <trkpt lat="43.16566" lon="2.39678">
        <ele>253.461365</ele>
        <time>2013-06-23T09:09:20Z</time>
      </trkpt>
      <trkpt lat="43.16566" lon="2.39671">
        <ele>253.519958</ele>
        <time>2013-06-23T09:09:23Z</time>
      </trkpt>
      <trkpt lat="43.16566" lon="2.39664">
        <ele>253.681122</ele>
        <time>2013-06-23T09:09:26Z</time>
      </trkpt>
      <trkpt lat="43.16566" lon="2.39658">
        <ele>253.900635</ele>
        <time>2013-06-23T09:09:28Z</time>
      </trkpt>
      <trkpt lat="43.16566" lon="2.39651">
        <ele>254.079254</ele>
        <time>2013-06-23T09:09:30Z</time>
      </trkpt>
      <trkpt lat="43.16566" lon="2.39643">
        <ele>254.362396</ele>
        <time>2013-06-23T09:09:33Z</time>
      </trkpt>
      <trkpt lat="43.16565" lon="2.39636">
        <ele>254.812134</ele>
        <time>2013-06-23T09:09:36Z</time>
      </trkpt>
      <trkpt lat="43.16565" lon="2.39627">
        <ele>255.138153</ele>
        <time>2013-06-23T09:09:39Z</time>
      </trkpt>
      <trkpt lat="43.16564" lon="2.3962">
        <ele>255.605774</ele>
        <time>2013-06-23T09:09:42Z</time>
      </trkpt>
      <trkpt lat="43.16561" lon="2.39612">
        <ele>256.251221</ele>
        <time>2013-06-23T09:09:45Z</time>
      </trkpt>
      <trkpt lat="43.16561" lon="2.39604">
        <ele>256.557159</ele>
        <time>2013-06-23T09:09:49Z</time>
      </trkpt>
      <trkpt lat="43.16562" lon="2.39597">
        <ele>256.697144</ele>
        <time>2013-06-23T09:09:52Z</time>
      </trkpt>
      <trkpt lat="43.16561" lon="2.39589">
        <ele>256.998016</ele>
        <time>2013-06-23T09:09:56Z</time>
      </trkpt>
      <trkpt lat="43.1656" lon="2.39583">
        <ele>257.300415</ele>
        <time>2013-06-23T09:10:00Z</time>
      </trkpt>
      <trkpt lat="43.16561" lon="2.39576">
        <ele>257.089905</ele>
        <time>2013-06-23T09:10:03Z</time>
      </trkpt>
      <trkpt lat="43.16559" lon="2.3957">
        <ele>257.296478</ele>
        <time>2013-06-23T09:10:08Z</time>
      </trkpt>
      <trkpt lat="43.16556" lon="2.39563">
        <ele>257.596802</ele>
        <time>2013-06-23T09:10:12Z</time>
      </trkpt>
      <trkpt lat="43.16555" lon="2.39556">
        <ele>257.658356</ele>
        <time>2013-06-23T09:10:16Z</time>
      </trkpt>
      <trkpt lat="43.16554" lon="2.39549">
        <ele>257.674347</ele>
        <time>2013-06-23T09:10:20Z</time>
      </trkpt>
      <trkpt lat="43.16552" lon="2.39543">
        <ele>257.952606</ele>
        <time>2013-06-23T09:10:25Z</time>
      </trkpt>
      <trkpt lat="43.16549" lon="2.39537">
        <ele>258.304932</ele>
        <time>2013-06-23T09:10:32Z</time>
      </trkpt>
      <trkpt lat="43.16547" lon="2.39532">
        <ele>258.551117</ele>
        <time>2013-06-23T09:10:40Z</time>
      </trkpt>
      <trkpt lat="43.16546" lon="2.39525">
        <ele>258.674866</ele>
        <time>2013-06-23T09:10:45Z</time>
      </trkpt>
      <trkpt lat="43.16543" lon="2.39517">
        <ele>258.945679</ele>
        <time>2013-06-23T09:10:48Z</time>
      </trkpt>
      <trkpt lat="43.16543" lon="2.39509">
        <ele>258.914764</ele>
        <time>2013-06-23T09:10:50Z</time>
      </trkpt>
      <trkpt lat="43.16542" lon="2.39498">
        <ele>258.938232</ele>
        <time>2013-06-23T09:10:52Z</time>
      </trkpt>
      <trkpt lat="43.1654" lon="2.39488">
        <ele>259.056122</ele>
        <time>2013-06-23T09:10:54Z</time>
      </trkpt>
      <trkpt lat="43.16538" lon="2.39479">
        <ele>259.179474</ele>
        <time>2013-06-23T09:10:56Z</time>
      </trkpt>
      <trkpt lat="43.16539" lon="2.39468">
        <ele>258.982422</ele>
        <time>2013-06-23T09:10:58Z</time>
      </trkpt>
      <trkpt lat="43.16538" lon="2.39459">
        <ele>258.897278</ele>
        <time>2013-06-23T09:11:00Z</time>
      </trkpt>
      <trkpt lat="43.16538" lon="2.39451">
        <ele>258.75061</ele>
        <time>2013-06-23T09:11:02Z</time>
      </trkpt>
      <trkpt lat="43.16537" lon="2.39445">
        <ele>258.756958</ele>
        <time>2013-06-23T09:11:04Z</time>
      </trkpt>
      <trkpt lat="43.16537" lon="2.39438">
        <ele>258.713806</ele>
        <time>2013-06-23T09:11:06Z</time>
      </trkpt>
      <trkpt lat="43.16536" lon="2.3943">
        <ele>258.676239</ele>
        <time>2013-06-23T09:11:08Z</time>
      </trkpt>
      <trkpt lat="43.16536" lon="2.39422">
        <ele>258.684479</ele>
        <time>2013-06-23T09:11:10Z</time>
      </trkpt>
      <trkpt lat="43.16534" lon="2.39415">
        <ele>258.785797</ele>
        <time>2013-06-23T09:11:12Z</time>
      </trkpt>
      <trkpt lat="43.16534" lon="2.39409">
        <ele>258.673035</ele>
        <time>2013-06-23T09:11:14Z</time>
      </trkpt>
      <trkpt lat="43.16534" lon="2.39401">
        <ele>258.4039</ele>
        <time>2013-06-23T09:11:16Z</time>
      </trkpt>
      <trkpt lat="43.16535" lon="2.39393">
        <ele>258.019653</ele>
        <time>2013-06-23T09:11:19Z</time>
      </trkpt>
      <trkpt lat="43.16537" lon="2.39385">
        <ele>257.544708</ele>
        <time>2013-06-23T09:11:22Z</time>
      </trkpt>
      <trkpt lat="43.16538" lon="2.39378">
        <ele>257.190369</ele>
        <time>2013-06-23T09:11:24Z</time>
      </trkpt>
      <trkpt lat="43.16539" lon="2.39369">
        <ele>256.824097</ele>
        <time>2013-06-23T09:11:27Z</time>
      </trkpt>
      <trkpt lat="43.16538" lon="2.39363">
        <ele>256.708405</ele>
        <time>2013-06-23T09:11:29Z</time>
      </trkpt>
      <trkpt lat="43.16538" lon="2.39356">
        <ele>256.563995</ele>
        <time>2013-06-23T09:11:31Z</time>
      </trkpt>
      <trkpt lat="43.16538" lon="2.3935">
        <ele>256.425232</ele>
        <time>2013-06-23T09:11:33Z</time>
      </trkpt>
      <trkpt lat="43.16537" lon="2.39341">
        <ele>256.289917</ele>
        <time>2013-06-23T09:11:36Z</time>
      </trkpt>
      <trkpt lat="43.16537" lon="2.39335">
        <ele>256.111603</ele>
        <time>2013-06-23T09:11:38Z</time>
      </trkpt>
      <trkpt lat="43.16538" lon="2.39326">
        <ele>255.799805</ele>
        <time>2013-06-23T09:11:41Z</time>
      </trkpt>
      <trkpt lat="43.16537" lon="2.39317">
        <ele>255.579163</ele>
        <time>2013-06-23T09:11:44Z</time>
      </trkpt>
      <trkpt lat="43.16536" lon="2.39309">
        <ele>255.419678</ele>
        <time>2013-06-23T09:11:47Z</time>
      </trkpt>
      <trkpt lat="43.16536" lon="2.39302">
        <ele>255.174774</ele>
        <time>2013-06-23T09:11:50Z</time>
      </trkpt>
      <trkpt lat="43.16536" lon="2.39295">
        <ele>254.892456</ele>
        <time>2013-06-23T09:11:53Z</time>
      </trkpt>
      <trkpt lat="43.16536" lon="2.39287">
        <ele>254.613739</ele>
        <time>2013-06-23T09:11:56Z</time>
      </trkpt>
      <trkpt lat="43.16536" lon="2.3928">
        <ele>254.321808</ele>
        <time>2013-06-23T09:11:59Z</time>
      </trkpt>
      <trkpt lat="43.16536" lon="2.39273">
        <ele>254.06308</ele>
        <time>2013-06-23T09:12:02Z</time>
      </trkpt>
      <trkpt lat="43.16537" lon="2.39265">
        <ele>253.772705</ele>
        <time>2013-06-23T09:12:07Z</time>
      </trkpt>
      <trkpt lat="43.16534" lon="2.39259">
        <ele>253.716309</ele>
        <time>2013-06-23T09:12:11Z</time>
      </trkpt>
      <trkpt lat="43.16529" lon="2.39258">
        <ele>253.976013</ele>
        <time>2013-06-23T09:12:17Z</time>
      </trkpt>
      <trkpt lat="43.16531" lon="2.39266">
        <ele>254.156097</ele>
        <time>2013-06-23T09:12:22Z</time>
      </trkpt>
      <trkpt lat="43.16532" lon="2.39275">
        <ele>254.484985</ele>
        <time>2013-06-23T09:12:25Z</time>
      </trkpt>
      <trkpt lat="43.16536" lon="2.39276">
        <ele>254.173645</ele>
        <time>2013-06-23T09:12:31Z</time>
      </trkpt>
      <trkpt lat="43.16528" lon="2.39279">
        <ele>254.88681</ele>
        <time>2013-06-23T09:12:38Z</time>
      </trkpt>
      <trkpt lat="43.16522" lon="2.39283">
        <ele>255.524872</ele>
        <time>2013-06-23T09:12:40Z</time>
      </trkpt>
      <trkpt lat="43.16519" lon="2.39286">
        <ele>256.01181</ele>
        <time>2013-06-23T09:12:42Z</time>
      </trkpt>
      <trkpt lat="43.16515" lon="2.39291">
        <ele>256.601318</ele>
        <time>2013-06-23T09:12:44Z</time>
      </trkpt>
      <trkpt lat="43.16513" lon="2.39299">
        <ele>257.259003</ele>
        <time>2013-06-23T09:12:46Z</time>
      </trkpt>
      <trkpt lat="43.16514" lon="2.39305">
        <ele>257.535065</ele>
        <time>2013-06-23T09:12:48Z</time>
      </trkpt>
      <trkpt lat="43.16517" lon="2.39312">
        <ele>257.577759</ele>
        <time>2013-06-23T09:12:51Z</time>
      </trkpt>
      <trkpt lat="43.16517" lon="2.3932">
        <ele>257.998077</ele>
        <time>2013-06-23T09:12:55Z</time>
      </trkpt>
      <trkpt lat="43.16515" lon="2.39327">
        <ele>258.64798</ele>
        <time>2013-06-23T09:12:57Z</time>
      </trkpt>
      <trkpt lat="43.16513" lon="2.39337">
        <ele>259.389069</ele>
        <time>2013-06-23T09:12:59Z</time>
      </trkpt>
      <trkpt lat="43.16513" lon="2.39347">
        <ele>259.859009</ele>
        <time>2013-06-23T09:13:01Z</time>
      </trkpt>
      <trkpt lat="43.16513" lon="2.39354">
        <ele>260.105377</ele>
        <time>2013-06-23T09:13:04Z</time>
      </trkpt>
      <trkpt lat="43.16511" lon="2.39364">
        <ele>260.885956</ele>
        <time>2013-06-23T09:13:07Z</time>
      </trkpt>
      <trkpt lat="43.16508" lon="2.39373">
        <ele>261.601715</ele>
        <time>2013-06-23T09:13:09Z</time>
      </trkpt>
      <trkpt lat="43.16507" lon="2.39381">
        <ele>262.204681</ele>
        <time>2013-06-23T09:13:11Z</time>
      </trkpt>
      <trkpt lat="43.16504" lon="2.39387">
        <ele>262.849457</ele>
        <time>2013-06-23T09:13:13Z</time>
      </trkpt>
      <trkpt lat="43.16505" lon="2.39395">
        <ele>263.1427</ele>
        <time>2013-06-23T09:13:16Z</time>
      </trkpt>
      <trkpt lat="43.16502" lon="2.39401">
        <ele>263.852783</ele>
        <time>2013-06-23T09:13:18Z</time>
      </trkpt>
      <trkpt lat="43.165" lon="2.39407">
        <ele>264.49234</ele>
        <time>2013-06-23T09:13:20Z</time>
      </trkpt>
      <trkpt lat="43.16498" lon="2.39415">
        <ele>264.63559</ele>
        <time>2013-06-23T09:13:23Z</time>
      </trkpt>
      <trkpt lat="43.16497" lon="2.39422">
        <ele>264.627228</ele>
        <time>2013-06-23T09:13:26Z</time>
      </trkpt>
      <trkpt lat="43.16497" lon="2.39428">
        <ele>264.609894</ele>
        <time>2013-06-23T09:13:28Z</time>
      </trkpt>
      <trkpt lat="43.16495" lon="2.39435">
        <ele>264.304321</ele>
        <time>2013-06-23T09:13:30Z</time>
      </trkpt>
      <trkpt lat="43.16494" lon="2.39444">
        <ele>264.188843</ele>
        <time>2013-06-23T09:13:33Z</time>
      </trkpt>
      <trkpt lat="43.16493" lon="2.39452">
        <ele>264.20166</ele>
        <time>2013-06-23T09:13:35Z</time>
      </trkpt>
      <trkpt lat="43.16494" lon="2.39459">
        <ele>264.427948</ele>
        <time>2013-06-23T09:13:37Z</time>
      </trkpt>
      <trkpt lat="43.16494" lon="2.39466">
        <ele>264.501587</ele>
        <time>2013-06-23T09:13:39Z</time>
      </trkpt>
      <trkpt lat="43.16492" lon="2.39473">
        <ele>264.200623</ele>
        <time>2013-06-23T09:13:41Z</time>
      </trkpt>
      <trkpt lat="43.16492" lon="2.39479">
        <ele>264.229218</ele>
        <time>2013-06-23T09:13:43Z</time>
      </trkpt>
      <trkpt lat="43.1649" lon="2.39489">
        <ele>264.036621</ele>
        <time>2013-06-23T09:13:46Z</time>
      </trkpt>
      <trkpt lat="43.1649" lon="2.39497">
        <ele>264.095367</ele>
        <time>2013-06-23T09:13:48Z</time>
      </trkpt>
      <trkpt lat="43.1649" lon="2.39506">
        <ele>264.080566</ele>
        <time>2013-06-23T09:13:50Z</time>
      </trkpt>
      <trkpt lat="43.16492" lon="2.39514">
        <ele>264.446777</ele>
        <time>2013-06-23T09:13:52Z</time>
      </trkpt>
      <trkpt lat="43.16493" lon="2.39521">
        <ele>264.641846</ele>
        <time>2013-06-23T09:13:54Z</time>
      </trkpt>
      <trkpt lat="43.16494" lon="2.39527">
        <ele>264.916016</ele>
        <time>2013-06-23T09:13:56Z</time>
      </trkpt>
      <trkpt lat="43.16496" lon="2.39534">
        <ele>265.209961</ele>
        <time>2013-06-23T09:13:58Z</time>
      </trkpt>
      <trkpt lat="43.16498" lon="2.39542">
        <ele>265.619904</ele>
        <time>2013-06-23T09:14:00Z</time>
      </trkpt>
      <trkpt lat="43.165" lon="2.39549">
        <ele>265.966278</ele>
        <time>2013-06-23T09:14:02Z</time>
      </trkpt>
      <trkpt lat="43.16502" lon="2.39555">
        <ele>265.712738</ele>
        <time>2013-06-23T09:14:04Z</time>
      </trkpt>
      <trkpt lat="43.16504" lon="2.39562">
        <ele>265.406403</ele>
        <time>2013-06-23T09:14:06Z</time>
      </trkpt>
      <trkpt lat="43.16504" lon="2.39571">
        <ele>265.345337</ele>
        <time>2013-06-23T09:14:09Z</time>
      </trkpt>
      <trkpt lat="43.16504" lon="2.39579">
        <ele>265.416901</ele>
        <time>2013-06-23T09:14:35Z</time>
      </trkpt>
      <trkpt lat="43.16503" lon="2.39585">
        <ele>265.552124</ele>
        <time>2013-06-23T09:14:38Z</time>
      </trkpt>
      <trkpt lat="43.16503" lon="2.39593">
        <ele>265.703888</ele>
        <time>2013-06-23T09:14:40Z</time>
      </trkpt>
      <trkpt lat="43.16503" lon="2.39601">
        <ele>265.812439</ele>
        <time>2013-06-23T09:14:43Z</time>
      </trkpt>
      <trkpt lat="43.16504" lon="2.3961">
        <ele>265.723907</ele>
        <time>2013-06-23T09:14:46Z</time>
      </trkpt>
      <trkpt lat="43.16504" lon="2.39617">
        <ele>265.825806</ele>
        <time>2013-06-23T09:14:48Z</time>
      </trkpt>
      <trkpt lat="43.16501" lon="2.39626">
        <ele>266.338135</ele>
        <time>2013-06-23T09:14:51Z</time>
      </trkpt>
      <trkpt lat="43.16498" lon="2.39631">
        <ele>266.26181</ele>
        <time>2013-06-23T09:14:54Z</time>
      </trkpt>
      <trkpt lat="43.16495" lon="2.39637">
        <ele>265.724426</ele>
        <time>2013-06-23T09:14:57Z</time>
      </trkpt>
      <trkpt lat="43.16494" lon="2.39644">
        <ele>265.722839</ele>
        <time>2013-06-23T09:14:59Z</time>
      </trkpt>
      <trkpt lat="43.16492" lon="2.39653">
        <ele>265.409851</ele>
        <time>2013-06-23T09:15:02Z</time>
      </trkpt>
      <trkpt lat="43.16491" lon="2.3966">
        <ele>265.307129</ele>
        <time>2013-06-23T09:15:05Z</time>
      </trkpt>
      <trkpt lat="43.16491" lon="2.39668">
        <ele>265.455414</ele>
        <time>2013-06-23T09:15:08Z</time>
      </trkpt>
      <trkpt lat="43.16492" lon="2.39676">
        <ele>265.832611</ele>
        <time>2013-06-23T09:15:11Z</time>
      </trkpt>
      <trkpt lat="43.1649" lon="2.39684">
        <ele>265.824493</ele>
        <time>2013-06-23T09:15:14Z</time>
      </trkpt>
      <trkpt lat="43.16489" lon="2.39691">
        <ele>265.8526</ele>
        <time>2013-06-23T09:15:16Z</time>
      </trkpt>
      <trkpt lat="43.1649" lon="2.39698">
        <ele>266.101685</ele>
        <time>2013-06-23T09:15:18Z</time>
      </trkpt>
      <trkpt lat="43.1649" lon="2.39706">
        <ele>266.382812</ele>
        <time>2013-06-23T09:15:21Z</time>
      </trkpt>
      <trkpt lat="43.16489" lon="2.39713">
        <ele>266.455566</ele>
        <time>2013-06-23T09:15:23Z</time>
      </trkpt>
      <trkpt lat="43.1649" lon="2.3972">
        <ele>266.750122</ele>
        <time>2013-06-23T09:15:26Z</time>
      </trkpt>
      <trkpt lat="43.1649" lon="2.39726">
        <ele>266.867035</ele>
        <time>2013-06-23T09:15:29Z</time>
      </trkpt>
      <trkpt lat="43.16491" lon="2.39735">
        <ele>267.29364</ele>
        <time>2013-06-23T09:15:32Z</time>
      </trkpt>
      <trkpt lat="43.16491" lon="2.39744">
        <ele>267.534882</ele>
        <time>2013-06-23T09:15:35Z</time>
      </trkpt>
      <trkpt lat="43.1649" lon="2.39751">
        <ele>267.524597</ele>
        <time>2013-06-23T09:15:37Z</time>
      </trkpt>
      <trkpt lat="43.16486" lon="2.39759">
        <ele>266.940033</ele>
        <time>2013-06-23T09:15:40Z</time>
      </trkpt>
      <trkpt lat="43.16481" lon="2.39763">
        <ele>266.29895</ele>
        <time>2013-06-23T09:15:42Z</time>
      </trkpt>
      <trkpt lat="43.16479" lon="2.3977">
        <ele>265.965607</ele>
        <time>2013-06-23T09:15:45Z</time>
      </trkpt>
      <trkpt lat="43.1648" lon="2.39776">
        <ele>266.151215</ele>
        <time>2013-06-23T09:15:47Z</time>
      </trkpt>
      <trkpt lat="43.16483" lon="2.39784">
        <ele>266.461578</ele>
        <time>2013-06-23T09:15:50Z</time>
      </trkpt>
      <trkpt lat="43.16484" lon="2.39793">
        <ele>266.615936</ele>
        <time>2013-06-23T09:15:53Z</time>
      </trkpt>
      <trkpt lat="43.16484" lon="2.39802">
        <ele>266.499084</ele>
        <time>2013-06-23T09:15:55Z</time>
      </trkpt>
      <trkpt lat="43.16484" lon="2.39811">
        <ele>266.54306</ele>
        <time>2013-06-23T09:15:57Z</time>
      </trkpt>
      <trkpt lat="43.16485" lon="2.39817">
        <ele>266.616577</ele>
        <time>2013-06-23T09:15:59Z</time>
      </trkpt>
      <trkpt lat="43.16485" lon="2.39825">
        <ele>266.575378</ele>
        <time>2013-06-23T09:16:01Z</time>
      </trkpt>
      <trkpt lat="43.16486" lon="2.39831">
        <ele>266.663971</ele>
        <time>2013-06-23T09:16:03Z</time>
      </trkpt>
      <trkpt lat="43.16489" lon="2.39838">
        <ele>266.72229</ele>
        <time>2013-06-23T09:16:05Z</time>
      </trkpt>
      <trkpt lat="43.16493" lon="2.39844">
        <ele>266.767273</ele>
        <time>2013-06-23T09:16:07Z</time>
      </trkpt>
      <trkpt lat="43.16496" lon="2.39851">
        <ele>266.62088</ele>
        <time>2013-06-23T09:16:09Z</time>
      </trkpt>
      <trkpt lat="43.165" lon="2.39855">
        <ele>266.6651</ele>
        <time>2013-06-23T09:16:11Z</time>
      </trkpt>
      <trkpt lat="43.16504" lon="2.39861">
        <ele>265.585724</ele>
        <time>2013-06-23T09:16:14Z</time>
      </trkpt>
      <trkpt lat="43.16506" lon="2.39869">
        <ele>264.675659</ele>
        <time>2013-06-23T09:16:17Z</time>
      </trkpt>
      <trkpt lat="43.16508" lon="2.39877">
        <ele>263.962463</ele>
        <time>2013-06-23T09:16:20Z</time>
      </trkpt>
      <trkpt lat="43.1651" lon="2.39883">
        <ele>263.231995</ele>
        <time>2013-06-23T09:16:22Z</time>
      </trkpt>
      <trkpt lat="43.16514" lon="2.39888">
        <ele>262.40155</ele>
        <time>2013-06-23T09:16:24Z</time>
      </trkpt>
      <trkpt lat="43.16513" lon="2.39896">
        <ele>262.166382</ele>
        <time>2013-06-23T09:16:27Z</time>
      </trkpt>
      <trkpt lat="43.16509" lon="2.39904">
        <ele>262.331879</ele>
        <time>2013-06-23T09:16:29Z</time>
      </trkpt>
      <trkpt lat="43.16508" lon="2.39912">
        <ele>262.124451</ele>
        <time>2013-06-23T09:16:31Z</time>
      </trkpt>
      <trkpt lat="43.16508" lon="2.39919">
        <ele>261.735321</ele>
        <time>2013-06-23T09:16:33Z</time>
      </trkpt>
      <trkpt lat="43.16508" lon="2.39926">
        <ele>261.43158</ele>
        <time>2013-06-23T09:16:35Z</time>
      </trkpt>
      <trkpt lat="43.16508" lon="2.39932">
        <ele>261.149628</ele>
        <time>2013-06-23T09:16:37Z</time>
      </trkpt>
      <trkpt lat="43.16508" lon="2.39939">
        <ele>260.907349</ele>
        <time>2013-06-23T09:16:39Z</time>
      </trkpt>
      <trkpt lat="43.16508" lon="2.39946">
        <ele>260.613647</ele>
        <time>2013-06-23T09:16:41Z</time>
      </trkpt>
      <trkpt lat="43.16506" lon="2.39953">
        <ele>260.48056</ele>
        <time>2013-06-23T09:16:43Z</time>
      </trkpt>
      <trkpt lat="43.16505" lon="2.39962">
        <ele>260.180908</ele>
        <time>2013-06-23T09:16:45Z</time>
      </trkpt>
      <trkpt lat="43.16505" lon="2.39972">
        <ele>259.792084</ele>
        <time>2013-06-23T09:16:47Z</time>
      </trkpt>
      <trkpt lat="43.16506" lon="2.39981">
        <ele>259.282593</ele>
        <time>2013-06-23T09:16:49Z</time>
      </trkpt>
      <trkpt lat="43.16508" lon="2.39991">
        <ele>258.602173</ele>
        <time>2013-06-23T09:16:51Z</time>
      </trkpt>
      <trkpt lat="43.16509" lon="2.4">
        <ele>258.114807</ele>
        <time>2013-06-23T09:16:53Z</time>
      </trkpt>
      <trkpt lat="43.16509" lon="2.40007">
        <ele>257.518158</ele>
        <time>2013-06-23T09:16:55Z</time>
      </trkpt>
      <trkpt lat="43.16511" lon="2.40016">
        <ele>256.631012</ele>
        <time>2013-06-23T09:16:57Z</time>
      </trkpt>
      <trkpt lat="43.16514" lon="2.40024">
        <ele>255.768005</ele>
        <time>2013-06-23T09:16:59Z</time>
      </trkpt>
      <trkpt lat="43.16515" lon="2.40034">
        <ele>254.953827</ele>
        <time>2013-06-23T09:17:01Z</time>
      </trkpt>
      <trkpt lat="43.16515" lon="2.40044">
        <ele>254.160339</ele>
        <time>2013-06-23T09:17:03Z</time>
      </trkpt>
      <trkpt lat="43.16515" lon="2.40052">
        <ele>253.480408</ele>
        <time>2013-06-23T09:17:05Z</time>
      </trkpt>
      <trkpt lat="43.16516" lon="2.40059">
        <ele>252.909454</ele>
        <time>2013-06-23T09:17:07Z</time>
      </trkpt>
      <trkpt lat="43.16518" lon="2.40066">
        <ele>252.279053</ele>
        <time>2013-06-23T09:17:09Z</time>
      </trkpt>
      <trkpt lat="43.16522" lon="2.40069">
        <ele>251.753632</ele>
        <time>2013-06-23T09:17:11Z</time>
      </trkpt>
      <trkpt lat="43.16524" lon="2.40077">
        <ele>251.05304</ele>
        <time>2013-06-23T09:17:15Z</time>
      </trkpt>
      <trkpt lat="43.16525" lon="2.40084">
        <ele>250.454773</ele>
        <time>2013-06-23T09:17:29Z</time>
      </trkpt>
      <trkpt lat="43.16527" lon="2.40091">
        <ele>249.748108</ele>
        <time>2013-06-23T09:17:34Z</time>
      </trkpt>
      <trkpt lat="43.16531" lon="2.40094">
        <ele>249.209839</ele>
        <time>2013-06-23T09:17:41Z</time>
      </trkpt>
      <trkpt lat="43.16536" lon="2.40095">
        <ele>248.77713</ele>
        <time>2013-06-23T09:17:44Z</time>
      </trkpt>
      <trkpt lat="43.16541" lon="2.40096">
        <ele>248.344452</ele>
        <time>2013-06-23T09:17:47Z</time>
      </trkpt>
      <trkpt lat="43.16547" lon="2.40093">
        <ele>248.222717</ele>
        <time>2013-06-23T09:17:50Z</time>
      </trkpt>
      <trkpt lat="43.16552" lon="2.40095">
        <ele>247.664246</ele>
        <time>2013-06-23T09:17:52Z</time>
      </trkpt>
      <trkpt lat="43.16559" lon="2.40096">
        <ele>247.065979</ele>
        <time>2013-06-23T09:17:55Z</time>
      </trkpt>
      <trkpt lat="43.16565" lon="2.40094">
        <ele>246.896057</ele>
        <time>2013-06-23T09:17:58Z</time>
      </trkpt>
      <trkpt lat="43.16569" lon="2.40095">
        <ele>246.427032</ele>
        <time>2013-06-23T09:18:12Z</time>
      </trkpt>
      <trkpt lat="43.16575" lon="2.40097">
        <ele>245.84494</ele>
        <time>2013-06-23T09:18:30Z</time>
      </trkpt>
      <trkpt lat="43.1658" lon="2.40096">
        <ele>245.599243</ele>
        <time>2013-06-23T09:18:36Z</time>
      </trkpt>
      <trkpt lat="43.16582" lon="2.40103">
        <ele>244.543884</ele>
        <time>2013-06-23T09:18:49Z</time>
      </trkpt>
      <trkpt lat="43.16582" lon="2.4011">
        <ele>243.520355</ele>
        <time>2013-06-23T09:18:52Z</time>
      </trkpt>
      <trkpt lat="43.16584" lon="2.40117">
        <ele>242.554901</ele>
        <time>2013-06-23T09:18:58Z</time>
      </trkpt>
      <trkpt lat="43.16587" lon="2.40122">
        <ele>241.271545</ele>
        <time>2013-06-23T09:19:07Z</time>
      </trkpt>
      <trkpt lat="43.16588" lon="2.40129">
        <ele>240.016815</ele>
        <time>2013-06-23T09:19:12Z</time>
      </trkpt>
      <trkpt lat="43.16592" lon="2.40141">
        <ele>237.950378</ele>
        <time>2013-06-23T09:19:27Z</time>
      </trkpt>
      <trkpt lat="43.16593" lon="2.40147">
        <ele>236.977356</ele>
        <time>2013-06-23T09:19:34Z</time>
      </trkpt>
      <trkpt lat="43.16596" lon="2.40151">
        <ele>235.872101</ele>
        <time>2013-06-23T09:19:36Z</time>
      </trkpt>
      <trkpt lat="43.16601" lon="2.40154">
        <ele>234.622131</ele>
        <time>2013-06-23T09:19:38Z</time>
      </trkpt>
      <trkpt lat="43.16607" lon="2.40156">
        <ele>233.446411</ele>
        <time>2013-06-23T09:19:40Z</time>
      </trkpt>
      <trkpt lat="43.16611" lon="2.4016">
        <ele>232.191742</ele>
        <time>2013-06-23T09:19:42Z</time>
      </trkpt>
      <trkpt lat="43.16613" lon="2.40167">
        <ele>231.006927</ele>
        <time>2013-06-23T09:19:45Z</time>
      </trkpt>
      <trkpt lat="43.16614" lon="2.40174">
        <ele>230.990204</ele>
        <time>2013-06-23T09:19:48Z</time>
      </trkpt>
      <trkpt lat="43.16615" lon="2.40183">
        <ele>231.165314</ele>
        <time>2013-06-23T09:19:51Z</time>
      </trkpt>
      <trkpt lat="43.16615" lon="2.40193">
        <ele>231.379364</ele>
        <time>2013-06-23T09:19:53Z</time>
      </trkpt>
      <trkpt lat="43.16614" lon="2.40201">
        <ele>231.682983</ele>
        <time>2013-06-23T09:19:55Z</time>
      </trkpt>
      <trkpt lat="43.16614" lon="2.40209">
        <ele>231.95752</ele>
        <time>2013-06-23T09:19:57Z</time>
      </trkpt>
      <trkpt lat="43.16613" lon="2.40217">
        <ele>232.202484</ele>
        <time>2013-06-23T09:20:00Z</time>
      </trkpt>
      <trkpt lat="43.16613" lon="2.40223">
        <ele>232.45636</ele>
        <time>2013-06-23T09:20:02Z</time>
      </trkpt>
      <trkpt lat="43.16612" lon="2.40231">
        <ele>232.820587</ele>
        <time>2013-06-23T09:20:05Z</time>
      </trkpt>
      <trkpt lat="43.1661" lon="2.40237">
        <ele>233.189423</ele>
        <time>2013-06-23T09:20:08Z</time>
      </trkpt>
      <trkpt lat="43.16612" lon="2.40244">
        <ele>233.077271</ele>
        <time>2013-06-23T09:20:13Z</time>
      </trkpt>
      <trkpt lat="43.16615" lon="2.40249">
        <ele>232.84079</ele>
        <time>2013-06-23T09:20:17Z</time>
      </trkpt>
      <trkpt lat="43.16618" lon="2.40255">
        <ele>232.559448</ele>
        <time>2013-06-23T09:20:22Z</time>
      </trkpt>
      <trkpt lat="43.1662" lon="2.40263">
        <ele>232.550842</ele>
        <time>2013-06-23T09:20:35Z</time>
      </trkpt>
      <trkpt lat="43.16623" lon="2.40268">
        <ele>232.259949</ele>
        <time>2013-06-23T09:20:37Z</time>
      </trkpt>
      <trkpt lat="43.16629" lon="2.40273">
        <ele>231.699554</ele>
        <time>2013-06-23T09:20:40Z</time>
      </trkpt>
      <trkpt lat="43.16634" lon="2.40277">
        <ele>231.12442</ele>
        <time>2013-06-23T09:20:42Z</time>
      </trkpt>
      <trkpt lat="43.16641" lon="2.40281">
        <ele>230.427582</ele>
        <time>2013-06-23T09:20:44Z</time>
      </trkpt>
      <trkpt lat="43.16647" lon="2.40284">
        <ele>229.744995</ele>
        <time>2013-06-23T09:20:46Z</time>
      </trkpt>
      <trkpt lat="43.16656" lon="2.40287">
        <ele>228.750458</ele>
        <time>2013-06-23T09:20:48Z</time>
      </trkpt>
      <trkpt lat="43.16663" lon="2.40291">
        <ele>227.935211</ele>
        <time>2013-06-23T09:20:50Z</time>
      </trkpt>
      <trkpt lat="43.16666" lon="2.40298">
        <ele>227.765045</ele>
        <time>2013-06-23T09:20:53Z</time>
      </trkpt>
      <trkpt lat="43.16664" lon="2.40305">
        <ele>228.330139</ele>
        <time>2013-06-23T09:20:56Z</time>
      </trkpt>
      <trkpt lat="43.16659" lon="2.40308">
        <ele>229.099213</ele>
        <time>2013-06-23T09:20:58Z</time>
      </trkpt>
      <trkpt lat="43.16652" lon="2.40311">
        <ele>230.067169</ele>
        <time>2013-06-23T09:21:00Z</time>
      </trkpt>
      <trkpt lat="43.16645" lon="2.40314">
        <ele>230.972076</ele>
        <time>2013-06-23T09:21:02Z</time>
      </trkpt>
      <trkpt lat="43.1664" lon="2.40318">
        <ele>231.723297</ele>
        <time>2013-06-23T09:21:04Z</time>
      </trkpt>
      <trkpt lat="43.16636" lon="2.40322">
        <ele>232.326996</ele>
        <time>2013-06-23T09:21:06Z</time>
      </trkpt>
      <trkpt lat="43.16632" lon="2.40325">
        <ele>232.908203</ele>
        <time>2013-06-23T09:21:08Z</time>
      </trkpt>
      <trkpt lat="43.16628" lon="2.4033">
        <ele>233.551819</ele>
        <time>2013-06-23T09:21:11Z</time>
      </trkpt>
      <trkpt lat="43.16622" lon="2.40335">
        <ele>234.319489</ele>
        <time>2013-06-23T09:21:14Z</time>
      </trkpt>
      <trkpt lat="43.16616" lon="2.40338">
        <ele>235.049164</ele>
        <time>2013-06-23T09:21:17Z</time>
      </trkpt>
      <trkpt lat="43.16611" lon="2.4034">
        <ele>235.595764</ele>
        <time>2013-06-23T09:21:19Z</time>
      </trkpt>
      <trkpt lat="43.16607" lon="2.40342">
        <ele>236.166199</ele>
        <time>2013-06-23T09:21:21Z</time>
      </trkpt>
      <trkpt lat="43.166" lon="2.40345">
        <ele>236.887878</ele>
        <time>2013-06-23T09:21:24Z</time>
      </trkpt>
      <trkpt lat="43.16596" lon="2.40351">
        <ele>237.454407</ele>
        <time>2013-06-23T09:21:28Z</time>
      </trkpt>
      <trkpt lat="43.16593" lon="2.40356">
        <ele>237.84201</ele>
        <time>2013-06-23T09:21:31Z</time>
      </trkpt>
      <trkpt lat="43.1659" lon="2.40364">
        <ele>238.184326</ele>
        <time>2013-06-23T09:21:34Z</time>
      </trkpt>
      <trkpt lat="43.16586" lon="2.4037">
        <ele>238.644714</ele>
        <time>2013-06-23T09:21:37Z</time>
      </trkpt>
      <trkpt lat="43.16582" lon="2.40376">
        <ele>239.233185</ele>
        <time>2013-06-23T09:21:40Z</time>
      </trkpt>
      <trkpt lat="43.16579" lon="2.4038">
        <ele>239.816498</ele>
        <time>2013-06-23T09:21:43Z</time>
      </trkpt>
      <trkpt lat="43.16576" lon="2.40386">
        <ele>240.314636</ele>
        <time>2013-06-23T09:21:47Z</time>
      </trkpt>
      <trkpt lat="43.16573" lon="2.40393">
        <ele>240.737427</ele>
        <time>2013-06-23T09:21:51Z</time>
      </trkpt>
      <trkpt lat="43.1657" lon="2.404">
        <ele>241.292999</ele>
        <time>2013-06-23T09:21:55Z</time>
      </trkpt>
      <trkpt lat="43.16566" lon="2.40407">
        <ele>242.01593</ele>
        <time>2013-06-23T09:21:58Z</time>
      </trkpt>
      <trkpt lat="43.16562" lon="2.40414">
        <ele>242.548798</ele>
        <time>2013-06-23T09:22:00Z</time>
      </trkpt>
      <trkpt lat="43.16559" lon="2.40418">
        <ele>243.07843</ele>
        <time>2013-06-23T09:22:02Z</time>
      </trkpt>
      <trkpt lat="43.16555" lon="2.40423">
        <ele>243.592224</ele>
        <time>2013-06-23T09:22:05Z</time>
      </trkpt>
      <trkpt lat="43.1655" lon="2.40427">
        <ele>244.080444</ele>
        <time>2013-06-23T09:22:09Z</time>
      </trkpt>
      <trkpt lat="43.16546" lon="2.40434">
        <ele>244.467285</ele>
        <time>2013-06-23T09:22:13Z</time>
      </trkpt>
      <trkpt lat="43.1654" lon="2.4044">
        <ele>244.962097</ele>
        <time>2013-06-23T09:22:16Z</time>
      </trkpt>
      <trkpt lat="43.16535" lon="2.40444">
        <ele>245.43219</ele>
        <time>2013-06-23T09:22:19Z</time>
      </trkpt>
      <trkpt lat="43.16531" lon="2.40446">
        <ele>245.89093</ele>
        <time>2013-06-23T09:22:22Z</time>
      </trkpt>
      <trkpt lat="43.16525" lon="2.40449">
        <ele>246.485626</ele>
        <time>2013-06-23T09:22:26Z</time>
      </trkpt>
      <trkpt lat="43.16519" lon="2.4045">
        <ele>247.215607</ele>
        <time>2013-06-23T09:22:30Z</time>
      </trkpt>
      <trkpt lat="43.16514" lon="2.40449">
        <ele>248.010803</ele>
        <time>2013-06-23T09:22:33Z</time>
      </trkpt>
      <trkpt lat="43.16509" lon="2.40447">
        <ele>248.829559</ele>
        <time>2013-06-23T09:22:36Z</time>
      </trkpt>
      <trkpt lat="43.16504" lon="2.40444">
        <ele>249.855774</ele>
        <time>2013-06-23T09:22:39Z</time>
      </trkpt>
      <trkpt lat="43.165" lon="2.4044">
        <ele>250.741882</ele>
        <time>2013-06-23T09:22:42Z</time>
      </trkpt>
      <trkpt lat="43.16497" lon="2.40435">
        <ele>250.939056</ele>
        <time>2013-06-23T09:22:45Z</time>
      </trkpt>
      <trkpt lat="43.16495" lon="2.40428">
        <ele>251.368378</ele>
        <time>2013-06-23T09:22:49Z</time>
      </trkpt>
      <trkpt lat="43.16494" lon="2.40421">
        <ele>251.856171</ele>
        <time>2013-06-23T09:22:52Z</time>
      </trkpt>
      <trkpt lat="43.16494" lon="2.40413">
        <ele>252.319458</ele>
        <time>2013-06-23T09:22:56Z</time>
      </trkpt>
      <trkpt lat="43.16495" lon="2.40407">
        <ele>252.533234</ele>
        <time>2013-06-23T09:22:59Z</time>
      </trkpt>
      <trkpt lat="43.16496" lon="2.40401">
        <ele>252.783447</ele>
        <time>2013-06-23T09:23:02Z</time>
      </trkpt>
      <trkpt lat="43.16498" lon="2.40394">
        <ele>253.088501</ele>
        <time>2013-06-23T09:23:06Z</time>
      </trkpt>
      <trkpt lat="43.16499" lon="2.40387">
        <ele>253.276611</ele>
        <time>2013-06-23T09:23:10Z</time>
      </trkpt>
      <trkpt lat="43.16499" lon="2.40381">
        <ele>253.29837</ele>
        <time>2013-06-23T09:23:13Z</time>
      </trkpt>
      <trkpt lat="43.16498" lon="2.40373">
        <ele>253.337097</ele>
        <time>2013-06-23T09:23:17Z</time>
      </trkpt>
      <trkpt lat="43.16498" lon="2.40366">
        <ele>253.386322</ele>
        <time>2013-06-23T09:23:20Z</time>
      </trkpt>
      <trkpt lat="43.16497" lon="2.40359">
        <ele>253.386597</ele>
        <time>2013-06-23T09:23:23Z</time>
      </trkpt>
      <trkpt lat="43.16495" lon="2.40353">
        <ele>253.317627</ele>
        <time>2013-06-23T09:23:26Z</time>
      </trkpt>
      <trkpt lat="43.16493" lon="2.40347">
        <ele>253.215851</ele>
        <time>2013-06-23T09:23:29Z</time>
      </trkpt>
      <trkpt lat="43.16492" lon="2.40341">
        <ele>253.183777</ele>
        <time>2013-06-23T09:23:34Z</time>
      </trkpt>
      <trkpt lat="43.1649" lon="2.40335">
        <ele>253.101532</ele>
        <time>2013-06-23T09:23:42Z</time>
      </trkpt>
      <trkpt lat="43.16489" lon="2.40328">
        <ele>252.883728</ele>
        <time>2013-06-23T09:23:46Z</time>
      </trkpt>
      <trkpt lat="43.16486" lon="2.4032">
        <ele>252.527039</ele>
        <time>2013-06-23T09:23:50Z</time>
      </trkpt>
      <trkpt lat="43.16484" lon="2.40314">
        <ele>252.219696</ele>
        <time>2013-06-23T09:23:53Z</time>
      </trkpt>
      <trkpt lat="43.16482" lon="2.40306">
        <ele>251.907227</ele>
        <time>2013-06-23T09:23:55Z</time>
      </trkpt>
      <trkpt lat="43.16478" lon="2.40294">
        <ele>251.470978</ele>
        <time>2013-06-23T09:23:57Z</time>
      </trkpt>
      <trkpt lat="43.16475" lon="2.40287">
        <ele>251.216919</ele>
        <time>2013-06-23T09:23:58Z</time>
      </trkpt>
      <trkpt lat="43.16471" lon="2.40278">
        <ele>250.961853</ele>
        <time>2013-06-23T09:23:59Z</time>
      </trkpt>
      <trkpt lat="43.16467" lon="2.40271">
        <ele>250.765106</ele>
        <time>2013-06-23T09:24:01Z</time>
      </trkpt>
      <trkpt lat="43.16463" lon="2.40263">
        <ele>250.60083</ele>
        <time>2013-06-23T09:24:01Z</time>
      </trkpt>
      <trkpt lat="43.16458" lon="2.40256">
        <ele>250.498566</ele>
        <time>2013-06-23T09:24:02Z</time>
      </trkpt>
      <trkpt lat="43.16454" lon="2.40249">
        <ele>250.472717</ele>
        <time>2013-06-23T09:24:03Z</time>
      </trkpt>
      <trkpt lat="43.1645" lon="2.40243">
        <ele>250.580292</ele>
        <time>2013-06-23T09:24:04Z</time>
      </trkpt>
      <trkpt lat="43.16447" lon="2.40236">
        <ele>250.759033</ele>
        <time>2013-06-23T09:24:05Z</time>
      </trkpt>
      <trkpt lat="43.16445" lon="2.4023">
        <ele>250.978271</ele>
        <time>2013-06-23T09:24:06Z</time>
      </trkpt>
      <trkpt lat="43.16443" lon="2.40222">
        <ele>251.27652</ele>
        <time>2013-06-23T09:24:07Z</time>
      </trkpt>
      <trkpt lat="43.1644" lon="2.40214">
        <ele>251.655792</ele>
        <time>2013-06-23T09:24:08Z</time>
      </trkpt>
      <trkpt lat="43.16438" lon="2.40206">
        <ele>252.114471</ele>
        <time>2013-06-23T09:24:09Z</time>
      </trkpt>
      <trkpt lat="43.16435" lon="2.40199">
        <ele>252.543854</ele>
        <time>2013-06-23T09:24:10Z</time>
      </trkpt>
      <trkpt lat="43.16432" lon="2.40191">
        <ele>253.117645</ele>
        <time>2013-06-23T09:24:13Z</time>
      </trkpt>
      <trkpt lat="43.16429" lon="2.40184">
        <ele>253.793762</ele>
        <time>2013-06-23T09:24:15Z</time>
      </trkpt>
      <trkpt lat="43.16423" lon="2.40183">
        <ele>254.276306</ele>
        <time>2013-06-23T09:24:19Z</time>
      </trkpt>
      <trkpt lat="43.16419" lon="2.40186">
        <ele>254.442047</ele>
        <time>2013-06-23T09:24:22Z</time>
      </trkpt>
      <trkpt lat="43.16414" lon="2.4019">
        <ele>254.21582</ele>
        <time>2013-06-23T09:24:24Z</time>
      </trkpt>
      <trkpt lat="43.1641" lon="2.40193">
        <ele>253.796722</ele>
        <time>2013-06-23T09:24:27Z</time>
      </trkpt>
      <trkpt lat="43.16406" lon="2.40196">
        <ele>253.379211</ele>
        <time>2013-06-23T09:24:28Z</time>
      </trkpt>
      <trkpt lat="43.164" lon="2.40199">
        <ele>252.926819</ele>
        <time>2013-06-23T09:24:30Z</time>
      </trkpt>
      <trkpt lat="43.16394" lon="2.40202">
        <ele>252.522552</ele>
        <time>2013-06-23T09:24:33Z</time>
      </trkpt>
      <trkpt lat="43.16389" lon="2.40204">
        <ele>252.215607</ele>
        <time>2013-06-23T09:24:36Z</time>
      </trkpt>
      <trkpt lat="43.16383" lon="2.40206">
        <ele>251.881866</ele>
        <time>2013-06-23T09:24:39Z</time>
      </trkpt>
      <trkpt lat="43.16378" lon="2.4021">
        <ele>251.522217</ele>
        <time>2013-06-23T09:24:43Z</time>
      </trkpt>
      <trkpt lat="43.16373" lon="2.40215">
        <ele>251.203735</ele>
        <time>2013-06-23T09:24:46Z</time>
      </trkpt>
      <trkpt lat="43.1637" lon="2.40221">
        <ele>250.928345</ele>
        <time>2013-06-23T09:24:48Z</time>
      </trkpt>
      <trkpt lat="43.16366" lon="2.40225">
        <ele>250.699707</ele>
        <time>2013-06-23T09:24:50Z</time>
      </trkpt>
      <trkpt lat="43.16362" lon="2.40229">
        <ele>250.516174</ele>
        <time>2013-06-23T09:24:52Z</time>
      </trkpt>
      <trkpt lat="43.16358" lon="2.40234">
        <ele>250.331879</ele>
        <time>2013-06-23T09:24:58Z</time>
      </trkpt>
      <trkpt lat="43.16352" lon="2.40241">
        <ele>250.145508</ele>
        <time>2013-06-23T09:25:35Z</time>
      </trkpt>
      <trkpt lat="43.16356" lon="2.40236">
        <ele>250.269745</ele>
        <time>2013-06-23T09:25:55Z</time>
      </trkpt>
      <trkpt lat="43.16359" lon="2.4023">
        <ele>250.434753</ele>
        <time>2013-06-23T09:26:19Z</time>
      </trkpt>
      <trkpt lat="43.16362" lon="2.40224">
        <ele>250.648773</ele>
        <time>2013-06-23T09:27:21Z</time>
      </trkpt>
      <trkpt lat="43.16363" lon="2.40231">
        <ele>250.499542</ele>
        <time>2013-06-23T09:27:53Z</time>
      </trkpt>
      <trkpt lat="43.16358" lon="2.40233">
        <ele>250.36438</ele>
        <time>2013-06-23T09:28:25Z</time>
      </trkpt>
      <trkpt lat="43.16363" lon="2.40232">
        <ele>250.4505</ele>
        <time>2013-06-23T09:29:23Z</time>
      </trkpt>
      <trkpt lat="43.16358" lon="2.40234">
        <ele>250.338043</ele>
        <time>2013-06-23T09:29:47Z</time>
      </trkpt>
      <trkpt lat="43.16352" lon="2.40236">
        <ele>250.228149</ele>
        <time>2013-06-23T09:29:49Z</time>
      </trkpt>
      <trkpt lat="43.16345" lon="2.4024">
        <ele>250.108948</ele>
        <time>2013-06-23T09:29:51Z</time>
      </trkpt>
      <trkpt lat="43.1634" lon="2.40244">
        <ele>250.035065</ele>
        <time>2013-06-23T09:29:53Z</time>
      </trkpt>
      <trkpt lat="43.16332" lon="2.40248">
        <ele>249.874634</ele>
        <time>2013-06-23T09:29:55Z</time>
      </trkpt>
      <trkpt lat="43.16327" lon="2.40247">
        <ele>249.366302</ele>
        <time>2013-06-23T09:29:56Z</time>
      </trkpt>
      <trkpt lat="43.16321" lon="2.40245">
        <ele>248.819641</ele>
        <time>2013-06-23T09:29:57Z</time>
      </trkpt>
      <trkpt lat="43.16315" lon="2.4024">
        <ele>248.23288</ele>
        <time>2013-06-23T09:29:58Z</time>
      </trkpt>
      <trkpt lat="43.16311" lon="2.40235">
        <ele>247.773163</ele>
        <time>2013-06-23T09:29:59Z</time>
      </trkpt>
      <trkpt lat="43.16308" lon="2.40229">
        <ele>247.378754</ele>
        <time>2013-06-23T09:30:01Z</time>
      </trkpt>
      <trkpt lat="43.16304" lon="2.40219">
        <ele>246.942078</ele>
        <time>2013-06-23T09:30:02Z</time>
      </trkpt>
      <trkpt lat="43.16303" lon="2.40213">
        <ele>246.761902</ele>
        <time>2013-06-23T09:30:03Z</time>
      </trkpt>
      <trkpt lat="43.16302" lon="2.40204">
        <ele>246.585876</ele>
        <time>2013-06-23T09:30:04Z</time>
      </trkpt>
      <trkpt lat="43.16301" lon="2.40194">
        <ele>246.408112</ele>
        <time>2013-06-23T09:30:05Z</time>
      </trkpt>
      <trkpt lat="43.16301" lon="2.40186">
        <ele>246.26825</ele>
        <time>2013-06-23T09:30:06Z</time>
      </trkpt>
      <trkpt lat="43.163" lon="2.4018">
        <ele>246.101501</ele>
        <time>2013-06-23T09:30:07Z</time>
      </trkpt>
      <trkpt lat="43.16295" lon="2.40175">
        <ele>245.503052</ele>
        <time>2013-06-23T09:30:09Z</time>
      </trkpt>
      <trkpt lat="43.16289" lon="2.40174">
        <ele>244.730927</ele>
        <time>2013-06-23T09:30:11Z</time>
      </trkpt>
      <trkpt lat="43.16281" lon="2.40174">
        <ele>243.794617</ele>
        <time>2013-06-23T09:30:14Z</time>
      </trkpt>
      <trkpt lat="43.16275" lon="2.40173">
        <ele>243.162048</ele>
        <time>2013-06-23T09:30:14Z</time>
      </trkpt>
      <trkpt lat="43.16271" lon="2.40173">
        <ele>242.560669</ele>
        <time>2013-06-23T09:30:15Z</time>
      </trkpt>
      <trkpt lat="43.16266" lon="2.40172">
        <ele>241.97229</ele>
        <time>2013-06-23T09:30:16Z</time>
      </trkpt>
      <trkpt lat="43.16261" lon="2.40171">
        <ele>241.388824</ele>
        <time>2013-06-23T09:30:17Z</time>
      </trkpt>
      <trkpt lat="43.16254" lon="2.40169">
        <ele>240.530243</ele>
        <time>2013-06-23T09:30:19Z</time>
      </trkpt>
      <trkpt lat="43.16249" lon="2.40173">
        <ele>240.177979</ele>
        <time>2013-06-23T09:30:21Z</time>
      </trkpt>
      <trkpt lat="43.16248" lon="2.40179">
        <ele>240.419495</ele>
        <time>2013-06-23T09:30:23Z</time>
      </trkpt>
      <trkpt lat="43.16244" lon="2.40183">
        <ele>240.667542</ele>
        <time>2013-06-23T09:30:40Z</time>
      </trkpt>
      <trkpt lat="43.16238" lon="2.40187">
        <ele>240.9198</ele>
        <time>2013-06-23T09:30:42Z</time>
      </trkpt>
      <trkpt lat="43.16233" lon="2.40193">
        <ele>241.094238</ele>
        <time>2013-06-23T09:30:44Z</time>
      </trkpt>
      <trkpt lat="43.16229" lon="2.40197">
        <ele>241.145996</ele>
        <time>2013-06-23T09:30:45Z</time>
      </trkpt>
      <trkpt lat="43.16222" lon="2.40204">
        <ele>241.117157</ele>
        <time>2013-06-23T09:30:48Z</time>
      </trkpt>
      <trkpt lat="43.16217" lon="2.40207">
        <ele>241.049652</ele>
        <time>2013-06-23T09:30:49Z</time>
      </trkpt>
      <trkpt lat="43.16211" lon="2.40207">
        <ele>241.04364</ele>
        <time>2013-06-23T09:30:51Z</time>
      </trkpt>
      <trkpt lat="43.16204" lon="2.40206">
        <ele>241.137634</ele>
        <time>2013-06-23T09:30:53Z</time>
      </trkpt>
      <trkpt lat="43.16198" lon="2.40205">
        <ele>241.205109</ele>
        <time>2013-06-23T09:30:55Z</time>
      </trkpt>
      <trkpt lat="43.16192" lon="2.4021">
        <ele>240.888794</ele>
        <time>2013-06-23T09:30:57Z</time>
      </trkpt>
      <trkpt lat="43.16187" lon="2.40216">
        <ele>240.389923</ele>
        <time>2013-06-23T09:30:59Z</time>
      </trkpt>
      <trkpt lat="43.16181" lon="2.40222">
        <ele>239.742188</ele>
        <time>2013-06-23T09:31:01Z</time>
      </trkpt>
      <trkpt lat="43.16175" lon="2.40232">
        <ele>238.544128</ele>
        <time>2013-06-23T09:31:03Z</time>
      </trkpt>
      <trkpt lat="43.16172" lon="2.40239">
        <ele>237.645905</ele>
        <time>2013-06-23T09:31:04Z</time>
      </trkpt>
      <trkpt lat="43.16169" lon="2.40246">
        <ele>236.647034</ele>
        <time>2013-06-23T09:31:05Z</time>
      </trkpt>
      <trkpt lat="43.16166" lon="2.40253">
        <ele>235.766754</ele>
        <time>2013-06-23T09:31:06Z</time>
      </trkpt>
      <trkpt lat="43.16165" lon="2.40262">
        <ele>235.073425</ele>
        <time>2013-06-23T09:31:07Z</time>
      </trkpt>
      <trkpt lat="43.16164" lon="2.40271">
        <ele>234.365997</ele>
        <time>2013-06-23T09:31:08Z</time>
      </trkpt>
      <trkpt lat="43.16161" lon="2.40279">
        <ele>233.772949</ele>
        <time>2013-06-23T09:31:09Z</time>
      </trkpt>
      <trkpt lat="43.16159" lon="2.40287">
        <ele>233.103363</ele>
        <time>2013-06-23T09:31:10Z</time>
      </trkpt>
      <trkpt lat="43.16158" lon="2.40295">
        <ele>232.514984</ele>
        <time>2013-06-23T09:31:12Z</time>
      </trkpt>
      <trkpt lat="43.16157" lon="2.40301">
        <ele>231.996826</ele>
        <time>2013-06-23T09:31:12Z</time>
      </trkpt>
      <trkpt lat="43.16154" lon="2.40309">
        <ele>231.393463</ele>
        <time>2013-06-23T09:31:14Z</time>
      </trkpt>
      <trkpt lat="43.1615" lon="2.40312">
        <ele>231.252472</ele>
        <time>2013-06-23T09:31:18Z</time>
      </trkpt>
      <trkpt lat="43.16145" lon="2.40311">
        <ele>231.472565</ele>
        <time>2013-06-23T09:31:24Z</time>
      </trkpt>
      <trkpt lat="43.16146" lon="2.4032">
        <ele>230.662384</ele>
        <time>2013-06-23T09:32:02Z</time>
      </trkpt>
      <trkpt lat="43.16145" lon="2.40334">
        <ele>229.502167</ele>
        <time>2013-06-23T09:32:04Z</time>
      </trkpt>
      <trkpt lat="43.16143" lon="2.40342">
        <ele>229.204987</ele>
        <time>2013-06-23T09:32:05Z</time>
      </trkpt>
      <trkpt lat="43.1614" lon="2.40349">
        <ele>228.966888</ele>
        <time>2013-06-23T09:32:06Z</time>
      </trkpt>
      <trkpt lat="43.16136" lon="2.40354">
        <ele>228.850677</ele>
        <time>2013-06-23T09:32:07Z</time>
      </trkpt>
      <trkpt lat="43.16131" lon="2.40355">
        <ele>228.904419</ele>
        <time>2013-06-23T09:32:08Z</time>
      </trkpt>
      <trkpt lat="43.16125" lon="2.40354">
        <ele>229.146576</ele>
        <time>2013-06-23T09:32:10Z</time>
      </trkpt>
      <trkpt lat="43.16125" lon="2.40347">
        <ele>229.411224</ele>
        <time>2013-06-23T09:32:44Z</time>
      </trkpt>
      <trkpt lat="43.1612" lon="2.40343">
        <ele>229.731628</ele>
        <time>2013-06-23T09:33:00Z</time>
      </trkpt>
      <trkpt lat="43.16115" lon="2.40341">
        <ele>229.944153</ele>
        <time>2013-06-23T09:33:01Z</time>
      </trkpt>
      <trkpt lat="43.16109" lon="2.40339">
        <ele>230.165771</ele>
        <time>2013-06-23T09:33:03Z</time>
      </trkpt>
      <trkpt lat="43.16102" lon="2.40337">
        <ele>230.411682</ele>
        <time>2013-06-23T09:33:05Z</time>
      </trkpt>
      <trkpt lat="43.16097" lon="2.4034">
        <ele>230.440125</ele>
        <time>2013-06-23T09:33:08Z</time>
      </trkpt>
      <trkpt lat="43.161" lon="2.40348">
        <ele>230.043976</ele>
        <time>2013-06-23T09:33:12Z</time>
      </trkpt>
      <trkpt lat="43.16101" lon="2.40359">
        <ele>229.588196</ele>
        <time>2013-06-23T09:33:13Z</time>
      </trkpt>
      <trkpt lat="43.16101" lon="2.40365">
        <ele>229.337067</ele>
        <time>2013-06-23T09:33:14Z</time>
      </trkpt>
      <trkpt lat="43.161" lon="2.40375">
        <ele>228.992706</ele>
        <time>2013-06-23T09:33:16Z</time>
      </trkpt>
      <trkpt lat="43.16097" lon="2.40382">
        <ele>228.843872</ele>
        <time>2013-06-23T09:33:18Z</time>
      </trkpt>
      <trkpt lat="43.16097" lon="2.4039">
        <ele>228.526398</ele>
        <time>2013-06-23T09:33:20Z</time>
      </trkpt>
      <trkpt lat="43.16098" lon="2.40396">
        <ele>228.26062</ele>
        <time>2013-06-23T09:33:23Z</time>
      </trkpt>
      <trkpt lat="43.16097" lon="2.40402">
        <ele>228.069977</ele>
        <time>2013-06-23T09:33:24Z</time>
      </trkpt>
      <trkpt lat="43.16097" lon="2.40409">
        <ele>227.825256</ele>
        <time>2013-06-23T09:33:31Z</time>
      </trkpt>
      <trkpt lat="43.16095" lon="2.40415">
        <ele>227.67395</ele>
        <time>2013-06-23T09:33:46Z</time>
      </trkpt>
      <trkpt lat="43.1609" lon="2.40419">
        <ele>227.915192</ele>
        <time>2013-06-23T09:33:54Z</time>
      </trkpt>
      <trkpt lat="43.16086" lon="2.40423">
        <ele>228.32608</ele>
        <time>2013-06-23T09:33:59Z</time>
      </trkpt>
      <trkpt lat="43.1608" lon="2.40421">
        <ele>228.419769</ele>
        <time>2013-06-23T09:34:03Z</time>
      </trkpt>
      <trkpt lat="43.16075" lon="2.40418">
        <ele>228.391174</ele>
        <time>2013-06-23T09:34:07Z</time>
      </trkpt>
      <trkpt lat="43.16069" lon="2.40417">
        <ele>228.539368</ele>
        <time>2013-06-23T09:34:12Z</time>
      </trkpt>
      <trkpt lat="43.16063" lon="2.40417">
        <ele>228.750061</ele>
        <time>2013-06-23T09:34:15Z</time>
      </trkpt>
      <trkpt lat="43.16057" lon="2.40416">
        <ele>228.984039</ele>
        <time>2013-06-23T09:34:17Z</time>
      </trkpt>
      <trkpt lat="43.16051" lon="2.40415">
        <ele>229.192993</ele>
        <time>2013-06-23T09:34:19Z</time>
      </trkpt>
      <trkpt lat="43.16047" lon="2.40415">
        <ele>229.363556</ele>
        <time>2013-06-23T09:34:21Z</time>
      </trkpt>
      <trkpt lat="43.16041" lon="2.40415">
        <ele>229.571442</ele>
        <time>2013-06-23T09:34:26Z</time>
      </trkpt>
      <trkpt lat="43.16036" lon="2.40414">
        <ele>229.800079</ele>
        <time>2013-06-23T09:34:26Z</time>
      </trkpt>
      <trkpt lat="43.1603" lon="2.40413">
        <ele>230.014496</ele>
        <time>2013-06-23T09:34:28Z</time>
      </trkpt>
      <trkpt lat="43.16025" lon="2.40412">
        <ele>230.233429</ele>
        <time>2013-06-23T09:34:30Z</time>
      </trkpt>
      <trkpt lat="43.16021" lon="2.40411">
        <ele>230.409546</ele>
        <time>2013-06-23T09:34:32Z</time>
      </trkpt>
      <trkpt lat="43.16015" lon="2.40412">
        <ele>230.582123</ele>
        <time>2013-06-23T09:34:35Z</time>
      </trkpt>
      <trkpt lat="43.1601" lon="2.40414">
        <ele>230.710571</ele>
        <time>2013-06-23T09:34:38Z</time>
      </trkpt>
      <trkpt lat="43.16004" lon="2.40418">
        <ele>230.850586</ele>
        <time>2013-06-23T09:34:41Z</time>
      </trkpt>
      <trkpt lat="43.15999" lon="2.40421">
        <ele>231.054199</ele>
        <time>2013-06-23T09:34:43Z</time>
      </trkpt>
      <trkpt lat="43.15995" lon="2.40424">
        <ele>231.474976</ele>
        <time>2013-06-23T09:34:46Z</time>
      </trkpt>
      <trkpt lat="43.1599" lon="2.40428">
        <ele>231.878052</ele>
        <time>2013-06-23T09:34:50Z</time>
      </trkpt>
      <trkpt lat="43.15986" lon="2.40432">
        <ele>232.214966</ele>
        <time>2013-06-23T09:34:52Z</time>
      </trkpt>
      <trkpt lat="43.15985" lon="2.40439">
        <ele>232.299591</ele>
        <time>2013-06-23T09:34:56Z</time>
      </trkpt>
      <trkpt lat="43.15983" lon="2.40448">
        <ele>232.416626</ele>
        <time>2013-06-23T09:34:59Z</time>
      </trkpt>
      <trkpt lat="43.1598" lon="2.40458">
        <ele>232.537445</ele>
        <time>2013-06-23T09:35:01Z</time>
      </trkpt>
      <trkpt lat="43.15976" lon="2.40468">
        <ele>232.772919</ele>
        <time>2013-06-23T09:35:03Z</time>
      </trkpt>
      <trkpt lat="43.1597" lon="2.40475">
        <ele>233.112366</ele>
        <time>2013-06-23T09:35:05Z</time>
      </trkpt>
      <trkpt lat="43.15966" lon="2.40479">
        <ele>233.375641</ele>
        <time>2013-06-23T09:35:07Z</time>
      </trkpt>
      <trkpt lat="43.15962" lon="2.40483">
        <ele>233.526855</ele>
        <time>2013-06-23T09:35:19Z</time>
      </trkpt>
      <trkpt lat="43.15958" lon="2.40484">
        <ele>233.841797</ele>
        <time>2013-06-23T09:35:26Z</time>
      </trkpt>
      <trkpt lat="43.15953" lon="2.40485">
        <ele>234.151428</ele>
        <time>2013-06-23T09:35:43Z</time>
      </trkpt>
      <trkpt lat="43.15947" lon="2.40485">
        <ele>234.496857</ele>
        <time>2013-06-23T09:36:03Z</time>
      </trkpt>
      <trkpt lat="43.15942" lon="2.40485">
        <ele>234.84436</ele>
        <time>2013-06-23T09:36:27Z</time>
      </trkpt>
      <trkpt lat="43.15938" lon="2.40481">
        <ele>235.213501</ele>
        <time>2013-06-23T09:37:29Z</time>
      </trkpt>
      <trkpt lat="43.15943" lon="2.40482">
        <ele>234.884064</ele>
        <time>2013-06-23T09:37:39Z</time>
      </trkpt>
      <trkpt lat="43.15947" lon="2.40486">
        <ele>234.530273</ele>
        <time>2013-06-23T09:37:47Z</time>
      </trkpt>
      <trkpt lat="43.1595" lon="2.40491">
        <ele>234.220215</ele>
        <time>2013-06-23T09:37:59Z</time>
      </trkpt>
      <trkpt lat="43.15953" lon="2.40496">
        <ele>233.916077</ele>
        <time>2013-06-23T09:38:10Z</time>
      </trkpt>
      <trkpt lat="43.15956" lon="2.40503">
        <ele>233.829498</ele>
        <time>2013-06-23T09:38:12Z</time>
      </trkpt>
      <trkpt lat="43.15959" lon="2.40509">
        <ele>234.03714</ele>
        <time>2013-06-23T09:38:14Z</time>
      </trkpt>
      <trkpt lat="43.15961" lon="2.40514">
        <ele>234.158112</ele>
        <time>2013-06-23T09:38:16Z</time>
      </trkpt>
      <trkpt lat="43.15965" lon="2.40521">
        <ele>234.178833</ele>
        <time>2013-06-23T09:38:19Z</time>
      </trkpt>
      <trkpt lat="43.15967" lon="2.4053">
        <ele>234.409241</ele>
        <time>2013-06-23T09:38:23Z</time>
      </trkpt>
      <trkpt lat="43.15969" lon="2.40537">
        <ele>234.531708</ele>
        <time>2013-06-23T09:38:24Z</time>
      </trkpt>
      <trkpt lat="43.1597" lon="2.40543">
        <ele>234.569427</ele>
        <time>2013-06-23T09:38:26Z</time>
      </trkpt>
      <trkpt lat="43.15971" lon="2.40551">
        <ele>234.720184</ele>
        <time>2013-06-23T09:38:28Z</time>
      </trkpt>
      <trkpt lat="43.15971" lon="2.40561">
        <ele>235.17926</ele>
        <time>2013-06-23T09:38:30Z</time>
      </trkpt>
      <trkpt lat="43.15972" lon="2.4057">
        <ele>235.288849</ele>
        <time>2013-06-23T09:38:32Z</time>
      </trkpt>
      <trkpt lat="43.15972" lon="2.40577">
        <ele>235.43689</ele>
        <time>2013-06-23T09:38:36Z</time>
      </trkpt>
      <trkpt lat="43.15972" lon="2.40584">
        <ele>235.637848</ele>
        <time>2013-06-23T09:38:36Z</time>
      </trkpt>
      <trkpt lat="43.15973" lon="2.40595">
        <ele>235.438568</ele>
        <time>2013-06-23T09:38:38Z</time>
      </trkpt>
      <trkpt lat="43.15973" lon="2.40602">
        <ele>235.572937</ele>
        <time>2013-06-23T09:38:39Z</time>
      </trkpt>
      <trkpt lat="43.15973" lon="2.40613">
        <ele>235.484589</ele>
        <time>2013-06-23T09:38:41Z</time>
      </trkpt>
      <trkpt lat="43.15974" lon="2.40624">
        <ele>235.429443</ele>
        <time>2013-06-23T09:38:43Z</time>
      </trkpt>
      <trkpt lat="43.15974" lon="2.40633">
        <ele>235.303253</ele>
        <time>2013-06-23T09:38:45Z</time>
      </trkpt>
      <trkpt lat="43.15976" lon="2.40641">
        <ele>234.772949</ele>
        <time>2013-06-23T09:38:48Z</time>
      </trkpt>
      <trkpt lat="43.15978" lon="2.4065">
        <ele>234.269684</ele>
        <time>2013-06-23T09:38:49Z</time>
      </trkpt>
      <trkpt lat="43.1598" lon="2.40662">
        <ele>233.63562</ele>
        <time>2013-06-23T09:38:51Z</time>
      </trkpt>
      <trkpt lat="43.15981" lon="2.40674">
        <ele>232.832428</ele>
        <time>2013-06-23T09:38:53Z</time>
      </trkpt>
      <trkpt lat="43.15983" lon="2.40686">
        <ele>232.062195</ele>
        <time>2013-06-23T09:38:55Z</time>
      </trkpt>
      <trkpt lat="43.15984" lon="2.40697">
        <ele>231.399231</ele>
        <time>2013-06-23T09:38:58Z</time>
      </trkpt>
      <trkpt lat="43.15985" lon="2.40705">
        <ele>230.978546</ele>
        <time>2013-06-23T09:38:59Z</time>
      </trkpt>
      <trkpt lat="43.15985" lon="2.40715">
        <ele>230.503998</ele>
        <time>2013-06-23T09:39:01Z</time>
      </trkpt>
      <trkpt lat="43.15987" lon="2.40721">
        <ele>229.928436</ele>
        <time>2013-06-23T09:39:02Z</time>
      </trkpt>
      <trkpt lat="43.15987" lon="2.40729">
        <ele>229.59314</ele>
        <time>2013-06-23T09:39:03Z</time>
      </trkpt>
      <trkpt lat="43.15988" lon="2.40737">
        <ele>229.162933</ele>
        <time>2013-06-23T09:39:04Z</time>
      </trkpt>
      <trkpt lat="43.15989" lon="2.40743">
        <ele>228.555573</ele>
        <time>2013-06-23T09:39:05Z</time>
      </trkpt>
      <trkpt lat="43.1599" lon="2.40749">
        <ele>228.084534</ele>
        <time>2013-06-23T09:39:06Z</time>
      </trkpt>
      <trkpt lat="43.15992" lon="2.4076">
        <ele>227.454865</ele>
        <time>2013-06-23T09:39:08Z</time>
      </trkpt>
      <trkpt lat="43.15993" lon="2.4077">
        <ele>227.212006</ele>
        <time>2013-06-23T09:39:10Z</time>
      </trkpt>
      <trkpt lat="43.15993" lon="2.4078">
        <ele>227.360413</ele>
        <time>2013-06-23T09:39:12Z</time>
      </trkpt>
      <trkpt lat="43.15992" lon="2.40788">
        <ele>227.537567</ele>
        <time>2013-06-23T09:39:14Z</time>
      </trkpt>
      <trkpt lat="43.15991" lon="2.40799">
        <ele>227.86792</ele>
        <time>2013-06-23T09:39:16Z</time>
      </trkpt>
      <trkpt lat="43.15994" lon="2.40808">
        <ele>227.299652</ele>
        <time>2013-06-23T09:39:18Z</time>
      </trkpt>
      <trkpt lat="43.15999" lon="2.40817">
        <ele>226.09375</ele>
        <time>2013-06-23T09:39:20Z</time>
      </trkpt>
      <trkpt lat="43.16003" lon="2.40824">
        <ele>225.932404</ele>
        <time>2013-06-23T09:39:23Z</time>
      </trkpt>
      <trkpt lat="43.16007" lon="2.40831">
        <ele>226.12674</ele>
        <time>2013-06-23T09:39:24Z</time>
      </trkpt>
      <trkpt lat="43.16011" lon="2.40836">
        <ele>226.690674</ele>
        <time>2013-06-23T09:39:26Z</time>
      </trkpt>
      <trkpt lat="43.16015" lon="2.40842">
        <ele>227.706879</ele>
        <time>2013-06-23T09:39:28Z</time>
      </trkpt>
      <trkpt lat="43.16019" lon="2.40849">
        <ele>228.706146</ele>
        <time>2013-06-23T09:39:30Z</time>
      </trkpt>
      <trkpt lat="43.16022" lon="2.40854">
        <ele>229.610229</ele>
        <time>2013-06-23T09:39:33Z</time>
      </trkpt>
      <trkpt lat="43.16023" lon="2.4086">
        <ele>230.483856</ele>
        <time>2013-06-23T09:39:34Z</time>
      </trkpt>
      <trkpt lat="43.16025" lon="2.40867">
        <ele>231.513489</ele>
        <time>2013-06-23T09:39:37Z</time>
      </trkpt>
      <trkpt lat="43.16026" lon="2.40874">
        <ele>232.447327</ele>
        <time>2013-06-23T09:39:40Z</time>
      </trkpt>
      <trkpt lat="43.16026" lon="2.4088">
        <ele>233.378265</ele>
        <time>2013-06-23T09:39:43Z</time>
      </trkpt>
      <trkpt lat="43.16027" lon="2.40886">
        <ele>234.21106</ele>
        <time>2013-06-23T09:39:46Z</time>
      </trkpt>
      <trkpt lat="43.16029" lon="2.40894">
        <ele>235.392303</ele>
        <time>2013-06-23T09:39:48Z</time>
      </trkpt>
      <trkpt lat="43.1603" lon="2.40903">
        <ele>236.693146</ele>
        <time>2013-06-23T09:39:51Z</time>
      </trkpt>
      <trkpt lat="43.16031" lon="2.40909">
        <ele>237.560455</ele>
        <time>2013-06-23T09:39:53Z</time>
      </trkpt>
      <trkpt lat="43.16033" lon="2.40918">
        <ele>238.711029</ele>
        <time>2013-06-23T09:39:56Z</time>
      </trkpt>
      <trkpt lat="43.16036" lon="2.40926">
        <ele>239.712494</ele>
        <time>2013-06-23T09:39:59Z</time>
      </trkpt>
      <trkpt lat="43.16039" lon="2.40934">
        <ele>240.509155</ele>
        <time>2013-06-23T09:40:02Z</time>
      </trkpt>
      <trkpt lat="43.16041" lon="2.40941">
        <ele>241.33728</ele>
        <time>2013-06-23T09:40:05Z</time>
      </trkpt>
      <trkpt lat="43.16044" lon="2.40949">
        <ele>242.070404</ele>
        <time>2013-06-23T09:40:09Z</time>
      </trkpt>
      <trkpt lat="43.16048" lon="2.40953">
        <ele>242.39151</ele>
        <time>2013-06-23T09:40:11Z</time>
      </trkpt>
      <trkpt lat="43.16051" lon="2.40958">
        <ele>242.699219</ele>
        <time>2013-06-23T09:40:13Z</time>
      </trkpt>
      <trkpt lat="43.16055" lon="2.40964">
        <ele>243.048889</ele>
        <time>2013-06-23T09:40:16Z</time>
      </trkpt>
      <trkpt lat="43.16059" lon="2.40969">
        <ele>243.344452</ele>
        <time>2013-06-23T09:40:20Z</time>
      </trkpt>
      <trkpt lat="43.16063" lon="2.40974">
        <ele>243.478516</ele>
        <time>2013-06-23T09:40:22Z</time>
      </trkpt>
      <trkpt lat="43.16066" lon="2.40979">
        <ele>243.81546</ele>
        <time>2013-06-23T09:40:25Z</time>
      </trkpt>
      <trkpt lat="43.16069" lon="2.40985">
        <ele>244.027496</ele>
        <time>2013-06-23T09:40:29Z</time>
      </trkpt>
      <trkpt lat="43.16072" lon="2.4099">
        <ele>244.215027</ele>
        <time>2013-06-23T09:40:32Z</time>
      </trkpt>
      <trkpt lat="43.16075" lon="2.40995">
        <ele>244.339539</ele>
        <time>2013-06-23T09:40:38Z</time>
      </trkpt>
      <trkpt lat="43.16079" lon="2.41001">
        <ele>244.528748</ele>
        <time>2013-06-23T09:40:56Z</time>
      </trkpt>
      <trkpt lat="43.16083" lon="2.41008">
        <ele>244.905365</ele>
        <time>2013-06-23T09:41:00Z</time>
      </trkpt>
      <trkpt lat="43.16087" lon="2.41013">
        <ele>245.383209</ele>
        <time>2013-06-23T09:41:03Z</time>
      </trkpt>
      <trkpt lat="43.1609" lon="2.41017">
        <ele>245.837036</ele>
        <time>2013-06-23T09:41:07Z</time>
      </trkpt>
      <trkpt lat="43.16093" lon="2.41023">
        <ele>246.468353</ele>
        <time>2013-06-23T09:41:11Z</time>
      </trkpt>
      <trkpt lat="43.16095" lon="2.4103">
        <ele>247.079956</ele>
        <time>2013-06-23T09:41:16Z</time>
      </trkpt>
      <trkpt lat="43.16097" lon="2.41036">
        <ele>247.660828</ele>
        <time>2013-06-23T09:41:21Z</time>
      </trkpt>
      <trkpt lat="43.161" lon="2.41042">
        <ele>248.239166</ele>
        <time>2013-06-23T09:41:24Z</time>
      </trkpt>
      <trkpt lat="43.161" lon="2.41049">
        <ele>248.876831</ele>
        <time>2013-06-23T09:41:27Z</time>
      </trkpt>
      <trkpt lat="43.16101" lon="2.41056">
        <ele>249.53241</ele>
        <time>2013-06-23T09:41:31Z</time>
      </trkpt>
      <trkpt lat="43.16102" lon="2.41064">
        <ele>250.311127</ele>
        <time>2013-06-23T09:41:33Z</time>
      </trkpt>
      <trkpt lat="43.16101" lon="2.41071">
        <ele>250.987183</ele>
        <time>2013-06-23T09:41:36Z</time>
      </trkpt>
      <trkpt lat="43.16102" lon="2.41078">
        <ele>251.596802</ele>
        <time>2013-06-23T09:41:39Z</time>
      </trkpt>
      <trkpt lat="43.161" lon="2.41086">
        <ele>252.150085</ele>
        <time>2013-06-23T09:41:41Z</time>
      </trkpt>
      <trkpt lat="43.16098" lon="2.41093">
        <ele>252.190979</ele>
        <time>2013-06-23T09:41:43Z</time>
      </trkpt>
      <trkpt lat="43.16095" lon="2.411">
        <ele>252.322266</ele>
        <time>2013-06-23T09:41:47Z</time>
      </trkpt>
      <trkpt lat="43.16091" lon="2.41105">
        <ele>252.531097</ele>
        <time>2013-06-23T09:41:51Z</time>
      </trkpt>
      <trkpt lat="43.16088" lon="2.4111">
        <ele>252.704285</ele>
        <time>2013-06-23T09:41:54Z</time>
      </trkpt>
      <trkpt lat="43.16086" lon="2.41117">
        <ele>252.851685</ele>
        <time>2013-06-23T09:41:57Z</time>
      </trkpt>
      <trkpt lat="43.16081" lon="2.41121">
        <ele>253.261383</ele>
        <time>2013-06-23T09:42:00Z</time>
      </trkpt>
      <trkpt lat="43.16077" lon="2.41123">
        <ele>253.880859</ele>
        <time>2013-06-23T09:42:06Z</time>
      </trkpt>
      <trkpt lat="43.16072" lon="2.41126">
        <ele>254.543701</ele>
        <time>2013-06-23T09:42:10Z</time>
      </trkpt>
      <trkpt lat="43.16068" lon="2.41129">
        <ele>255.171234</ele>
        <time>2013-06-23T09:42:13Z</time>
      </trkpt>
      <trkpt lat="43.16064" lon="2.41132">
        <ele>255.758087</ele>
        <time>2013-06-23T09:42:16Z</time>
      </trkpt>
      <trkpt lat="43.16061" lon="2.41139">
        <ele>256.16275</ele>
        <time>2013-06-23T09:44:25Z</time>
      </trkpt>
      <trkpt lat="43.16058" lon="2.41144">
        <ele>256.587677</ele>
        <time>2013-06-23T09:44:28Z</time>
      </trkpt>
      <trkpt lat="43.16056" lon="2.41152">
        <ele>256.95462</ele>
        <time>2013-06-23T09:44:31Z</time>
      </trkpt>
      <trkpt lat="43.16054" lon="2.41159">
        <ele>257.201996</ele>
        <time>2013-06-23T09:44:33Z</time>
      </trkpt>
      <trkpt lat="43.16054" lon="2.41165">
        <ele>257.277191</ele>
        <time>2013-06-23T09:44:35Z</time>
      </trkpt>
      <trkpt lat="43.16053" lon="2.41172">
        <ele>256.757385</ele>
        <time>2013-06-23T09:44:37Z</time>
      </trkpt>
      <trkpt lat="43.16051" lon="2.41177">
        <ele>256.421844</ele>
        <time>2013-06-23T09:44:39Z</time>
      </trkpt>
      <trkpt lat="43.16047" lon="2.41184">
        <ele>256.091461</ele>
        <time>2013-06-23T09:44:42Z</time>
      </trkpt>
      <trkpt lat="43.16042" lon="2.4119">
        <ele>255.987946</ele>
        <time>2013-06-23T09:44:45Z</time>
      </trkpt>
      <trkpt lat="43.16038" lon="2.41196">
        <ele>255.795959</ele>
        <time>2013-06-23T09:44:48Z</time>
      </trkpt>
      <trkpt lat="43.16034" lon="2.412">
        <ele>255.676544</ele>
        <time>2013-06-23T09:44:51Z</time>
      </trkpt>
      <trkpt lat="43.1603" lon="2.41207">
        <ele>255.36731</ele>
        <time>2013-06-23T09:44:52Z</time>
      </trkpt>
      <trkpt lat="43.16024" lon="2.41213">
        <ele>255.115448</ele>
        <time>2013-06-23T09:44:54Z</time>
      </trkpt>
      <trkpt lat="43.16018" lon="2.41217">
        <ele>255.190247</ele>
        <time>2013-06-23T09:44:56Z</time>
      </trkpt>
      <trkpt lat="43.16011" lon="2.41221">
        <ele>255.31842</ele>
        <time>2013-06-23T09:44:58Z</time>
      </trkpt>
      <trkpt lat="43.16006" lon="2.41224">
        <ele>255.468323</ele>
        <time>2013-06-23T09:45:00Z</time>
      </trkpt>
      <trkpt lat="43.16" lon="2.41225">
        <ele>255.975372</ele>
        <time>2013-06-23T09:45:02Z</time>
      </trkpt>
      <trkpt lat="43.15994" lon="2.41224">
        <ele>256.292664</ele>
        <time>2013-06-23T09:45:04Z</time>
      </trkpt>
      <trkpt lat="43.15989" lon="2.41223">
        <ele>256.624084</ele>
        <time>2013-06-23T09:45:06Z</time>
      </trkpt>
      <trkpt lat="43.15983" lon="2.41223">
        <ele>256.890015</ele>
        <time>2013-06-23T09:45:08Z</time>
      </trkpt>
      <trkpt lat="43.15978" lon="2.41221">
        <ele>257.311218</ele>
        <time>2013-06-23T09:45:10Z</time>
      </trkpt>
      <trkpt lat="43.15974" lon="2.4122">
        <ele>257.724945</ele>
        <time>2013-06-23T09:45:13Z</time>
      </trkpt>
      <trkpt lat="43.15967" lon="2.41219">
        <ele>258.182251</ele>
        <time>2013-06-23T09:45:15Z</time>
      </trkpt>
      <trkpt lat="43.15962" lon="2.41218">
        <ele>258.584137</ele>
        <time>2013-06-23T09:45:17Z</time>
      </trkpt>
      <trkpt lat="43.15956" lon="2.41217">
        <ele>259.054901</ele>
        <time>2013-06-23T09:45:19Z</time>
      </trkpt>
      <trkpt lat="43.15951" lon="2.41215">
        <ele>259.643005</ele>
        <time>2013-06-23T09:45:21Z</time>
      </trkpt>
      <trkpt lat="43.15945" lon="2.41214">
        <ele>260.217468</ele>
        <time>2013-06-23T09:45:23Z</time>
      </trkpt>
      <trkpt lat="43.1594" lon="2.41214">
        <ele>260.538818</ele>
        <time>2013-06-23T09:45:25Z</time>
      </trkpt>
      <trkpt lat="43.15935" lon="2.41212">
        <ele>261.074921</ele>
        <time>2013-06-23T09:45:27Z</time>
      </trkpt>
      <trkpt lat="43.1593" lon="2.41212">
        <ele>261.3974</ele>
        <time>2013-06-23T09:45:29Z</time>
      </trkpt>
      <trkpt lat="43.15925" lon="2.41211">
        <ele>261.854401</ele>
        <time>2013-06-23T09:45:33Z</time>
      </trkpt>
      <trkpt lat="43.15921" lon="2.41208">
        <ele>262.89386</ele>
        <time>2013-06-23T09:45:38Z</time>
      </trkpt>
      <trkpt lat="43.15915" lon="2.41205">
        <ele>263.819305</ele>
        <time>2013-06-23T09:45:42Z</time>
      </trkpt>
      <trkpt lat="43.1591" lon="2.41203">
        <ele>264.488556</ele>
        <time>2013-06-23T09:45:45Z</time>
      </trkpt>
      <trkpt lat="43.15905" lon="2.41201">
        <ele>264.867889</ele>
        <time>2013-06-23T09:45:47Z</time>
      </trkpt>
      <trkpt lat="43.159" lon="2.41199">
        <ele>265.612061</ele>
        <time>2013-06-23T09:45:49Z</time>
      </trkpt>
      <trkpt lat="43.15894" lon="2.41197">
        <ele>266.194031</ele>
        <time>2013-06-23T09:45:51Z</time>
      </trkpt>
      <trkpt lat="43.15889" lon="2.41195">
        <ele>266.68515</ele>
        <time>2013-06-23T09:45:54Z</time>
      </trkpt>
      <trkpt lat="43.15883" lon="2.41193">
        <ele>267.282867</ele>
        <time>2013-06-23T09:45:55Z</time>
      </trkpt>
      <trkpt lat="43.15878" lon="2.4119">
        <ele>268.137054</ele>
        <time>2013-06-23T09:45:58Z</time>
      </trkpt>
      <trkpt lat="43.15874" lon="2.4119">
        <ele>268.211304</ele>
        <time>2013-06-23T09:45:59Z</time>
      </trkpt>
      <trkpt lat="43.15868" lon="2.4119">
        <ele>268.302765</ele>
        <time>2013-06-23T09:46:03Z</time>
      </trkpt>
      <trkpt lat="43.15863" lon="2.4119">
        <ele>268.449463</ele>
        <time>2013-06-23T09:46:04Z</time>
      </trkpt>
      <trkpt lat="43.15859" lon="2.41188">
        <ele>268.927826</ele>
        <time>2013-06-23T09:46:06Z</time>
      </trkpt>
      <trkpt lat="43.15853" lon="2.41189">
        <ele>268.895782</ele>
        <time>2013-06-23T09:46:08Z</time>
      </trkpt>
      <trkpt lat="43.15847" lon="2.4119">
        <ele>268.710358</ele>
        <time>2013-06-23T09:46:10Z</time>
      </trkpt>
      <trkpt lat="43.1584" lon="2.4119">
        <ele>268.779083</ele>
        <time>2013-06-23T09:46:13Z</time>
      </trkpt>
      <trkpt lat="43.15833" lon="2.41189">
        <ele>269.150726</ele>
        <time>2013-06-23T09:46:14Z</time>
      </trkpt>
      <trkpt lat="43.15825" lon="2.41189">
        <ele>269.820496</ele>
        <time>2013-06-23T09:46:16Z</time>
      </trkpt>
      <trkpt lat="43.15818" lon="2.41189">
        <ele>270.39624</ele>
        <time>2013-06-23T09:46:18Z</time>
      </trkpt>
      <trkpt lat="43.1581" lon="2.41189">
        <ele>270.913208</ele>
        <time>2013-06-23T09:46:20Z</time>
      </trkpt>
      <trkpt lat="43.15803" lon="2.41189">
        <ele>271.382721</ele>
        <time>2013-06-23T09:46:22Z</time>
      </trkpt>
      <trkpt lat="43.15796" lon="2.4119">
        <ele>271.936829</ele>
        <time>2013-06-23T09:46:25Z</time>
      </trkpt>
      <trkpt lat="43.1579" lon="2.41191">
        <ele>272.074188</ele>
        <time>2013-06-23T09:46:26Z</time>
      </trkpt>
      <trkpt lat="43.15784" lon="2.41193">
        <ele>271.985962</ele>
        <time>2013-06-23T09:46:28Z</time>
      </trkpt>
      <trkpt lat="43.15778" lon="2.41195">
        <ele>271.8573</ele>
        <time>2013-06-23T09:46:30Z</time>
      </trkpt>
      <trkpt lat="43.15773" lon="2.41196">
        <ele>271.822235</ele>
        <time>2013-06-23T09:46:32Z</time>
      </trkpt>
      <trkpt lat="43.15768" lon="2.41198">
        <ele>271.862671</ele>
        <time>2013-06-23T09:46:35Z</time>
      </trkpt>
      <trkpt lat="43.15762" lon="2.41201">
        <ele>271.609344</ele>
        <time>2013-06-23T09:46:36Z</time>
      </trkpt>
      <trkpt lat="43.15756" lon="2.41203">
        <ele>271.317657</ele>
        <time>2013-06-23T09:46:38Z</time>
      </trkpt>
      <trkpt lat="43.15751" lon="2.41206">
        <ele>271.21228</ele>
        <time>2013-06-23T09:46:40Z</time>
      </trkpt>
      <trkpt lat="43.15746" lon="2.41208">
        <ele>270.592041</ele>
        <time>2013-06-23T09:46:42Z</time>
      </trkpt>
      <trkpt lat="43.15739" lon="2.41211">
        <ele>269.769073</ele>
        <time>2013-06-23T09:46:45Z</time>
      </trkpt>
      <trkpt lat="43.15732" lon="2.41214">
        <ele>269.110443</ele>
        <time>2013-06-23T09:46:48Z</time>
      </trkpt>
      <trkpt lat="43.15726" lon="2.41216">
        <ele>268.488617</ele>
        <time>2013-06-23T09:46:50Z</time>
      </trkpt>
      <trkpt lat="43.15721" lon="2.41219">
        <ele>267.829163</ele>
        <time>2013-06-23T09:46:52Z</time>
      </trkpt>
      <trkpt lat="43.15714" lon="2.41221">
        <ele>267.456268</ele>
        <time>2013-06-23T09:46:54Z</time>
      </trkpt>
      <trkpt lat="43.15709" lon="2.41223">
        <ele>266.713348</ele>
        <time>2013-06-23T09:46:56Z</time>
      </trkpt>
      <trkpt lat="43.15702" lon="2.41226">
        <ele>265.944946</ele>
        <time>2013-06-23T09:46:59Z</time>
      </trkpt>
      <trkpt lat="43.15695" lon="2.4123">
        <ele>264.955444</ele>
        <time>2013-06-23T09:47:00Z</time>
      </trkpt>
      <trkpt lat="43.15688" lon="2.41232">
        <ele>264.229706</ele>
        <time>2013-06-23T09:47:02Z</time>
      </trkpt>
      <trkpt lat="43.15683" lon="2.41234">
        <ele>263.659027</ele>
        <time>2013-06-23T09:47:04Z</time>
      </trkpt>
      <trkpt lat="43.15678" lon="2.41235">
        <ele>263.520294</ele>
        <time>2013-06-23T09:47:06Z</time>
      </trkpt>
      <trkpt lat="43.15672" lon="2.41235">
        <ele>263.529999</ele>
        <time>2013-06-23T09:47:09Z</time>
      </trkpt>
      <trkpt lat="43.15664" lon="2.41234">
        <ele>264.270233</ele>
        <time>2013-06-23T09:47:10Z</time>
      </trkpt>
      <trkpt lat="43.15658" lon="2.41233">
        <ele>265.154816</ele>
        <time>2013-06-23T09:47:11Z</time>
      </trkpt>
      <trkpt lat="43.15652" lon="2.41232">
        <ele>266.331085</ele>
        <time>2013-06-23T09:47:13Z</time>
      </trkpt>
      <trkpt lat="43.15645" lon="2.41231">
        <ele>267.429138</ele>
        <time>2013-06-23T09:47:15Z</time>
      </trkpt>
      <trkpt lat="43.15639" lon="2.41233">
        <ele>267.337708</ele>
        <time>2013-06-23T09:47:18Z</time>
      </trkpt>
      <trkpt lat="43.15634" lon="2.41239">
        <ele>266.224854</ele>
        <time>2013-06-23T09:47:21Z</time>
      </trkpt>
      <trkpt lat="43.1563" lon="2.41242">
        <ele>265.773499</ele>
        <time>2013-06-23T09:47:23Z</time>
      </trkpt>
      <trkpt lat="43.15625" lon="2.41247">
        <ele>264.807617</ele>
        <time>2013-06-23T09:47:26Z</time>
      </trkpt>
      <trkpt lat="43.15622" lon="2.41252">
        <ele>263.912842</ele>
        <time>2013-06-23T09:47:28Z</time>
      </trkpt>
      <trkpt lat="43.15617" lon="2.41257">
        <ele>263.342896</ele>
        <time>2013-06-23T09:47:31Z</time>
      </trkpt>
      <trkpt lat="43.15612" lon="2.4126">
        <ele>263.287079</ele>
        <time>2013-06-23T09:47:32Z</time>
      </trkpt>
      <trkpt lat="43.15606" lon="2.41264">
        <ele>263.033081</ele>
        <time>2013-06-23T09:47:34Z</time>
      </trkpt>
      <trkpt lat="43.15599" lon="2.41268">
        <ele>262.931824</ele>
        <time>2013-06-23T09:47:36Z</time>
      </trkpt>
      <trkpt lat="43.15594" lon="2.4127">
        <ele>262.978821</ele>
        <time>2013-06-23T09:47:37Z</time>
      </trkpt>
      <trkpt lat="43.15588" lon="2.41273">
        <ele>262.86795</ele>
        <time>2013-06-23T09:47:39Z</time>
      </trkpt>
      <trkpt lat="43.15582" lon="2.41278">
        <ele>262.478882</ele>
        <time>2013-06-23T09:47:41Z</time>
      </trkpt>
      <trkpt lat="43.15577" lon="2.4128">
        <ele>262.273193</ele>
        <time>2013-06-23T09:47:43Z</time>
      </trkpt>
      <trkpt lat="43.15569" lon="2.41286">
        <ele>261.622192</ele>
        <time>2013-06-23T09:47:44Z</time>
      </trkpt>
      <trkpt lat="43.15564" lon="2.41289">
        <ele>261.179535</ele>
        <time>2013-06-23T09:47:45Z</time>
      </trkpt>
      <trkpt lat="43.15559" lon="2.41292">
        <ele>260.957428</ele>
        <time>2013-06-23T09:47:46Z</time>
      </trkpt>
      <trkpt lat="43.15555" lon="2.41295">
        <ele>260.604034</ele>
        <time>2013-06-23T09:47:47Z</time>
      </trkpt>
      <trkpt lat="43.15547" lon="2.41299">
        <ele>260.20459</ele>
        <time>2013-06-23T09:47:49Z</time>
      </trkpt>
      <trkpt lat="43.1554" lon="2.41303">
        <ele>259.949677</ele>
        <time>2013-06-23T09:47:51Z</time>
      </trkpt>
      <trkpt lat="43.15532" lon="2.41308">
        <ele>259.137268</ele>
        <time>2013-06-23T09:47:53Z</time>
      </trkpt>
      <trkpt lat="43.15528" lon="2.41312">
        <ele>258.582428</ele>
        <time>2013-06-23T09:47:54Z</time>
      </trkpt>
      <trkpt lat="43.15524" lon="2.41315">
        <ele>258.014191</ele>
        <time>2013-06-23T09:47:55Z</time>
      </trkpt>
      <trkpt lat="43.15517" lon="2.41321">
        <ele>256.884247</ele>
        <time>2013-06-23T09:47:57Z</time>
      </trkpt>
      <trkpt lat="43.1551" lon="2.41326">
        <ele>256.292175</ele>
        <time>2013-06-23T09:47:59Z</time>
      </trkpt>
      <trkpt lat="43.15502" lon="2.41331">
        <ele>255.477936</ele>
        <time>2013-06-23T09:48:01Z</time>
      </trkpt>
      <trkpt lat="43.15495" lon="2.41336">
        <ele>255.630768</ele>
        <time>2013-06-23T09:48:04Z</time>
      </trkpt>
      <trkpt lat="43.15488" lon="2.41339">
        <ele>256.439514</ele>
        <time>2013-06-23T09:48:05Z</time>
      </trkpt>
      <trkpt lat="43.15481" lon="2.4134">
        <ele>257.456146</ele>
        <time>2013-06-23T09:48:07Z</time>
      </trkpt>
      <trkpt lat="43.15474" lon="2.41341">
        <ele>258.422791</ele>
        <time>2013-06-23T09:48:09Z</time>
      </trkpt>
      <trkpt lat="43.15469" lon="2.41341">
        <ele>259.092102</ele>
        <time>2013-06-23T09:48:11Z</time>
      </trkpt>
      <trkpt lat="43.15464" lon="2.41343">
        <ele>259.65921</ele>
        <time>2013-06-23T09:48:13Z</time>
      </trkpt>
      <trkpt lat="43.15459" lon="2.41346">
        <ele>260.029266</ele>
        <time>2013-06-23T09:48:15Z</time>
      </trkpt>
      <trkpt lat="43.15455" lon="2.41348">
        <ele>260.386444</ele>
        <time>2013-06-23T09:48:17Z</time>
      </trkpt>
      <trkpt lat="43.1545" lon="2.4135">
        <ele>260.727173</ele>
        <time>2013-06-23T09:48:19Z</time>
      </trkpt>
      <trkpt lat="43.15446" lon="2.41353">
        <ele>261.044342</ele>
        <time>2013-06-23T09:48:21Z</time>
      </trkpt>
      <trkpt lat="43.1544" lon="2.41355">
        <ele>261.459991</ele>
        <time>2013-06-23T09:48:23Z</time>
      </trkpt>
      <trkpt lat="43.15435" lon="2.41356">
        <ele>261.97522</ele>
        <time>2013-06-23T09:48:26Z</time>
      </trkpt>
      <trkpt lat="43.15431" lon="2.41359">
        <ele>261.91684</ele>
        <time>2013-06-23T09:48:27Z</time>
      </trkpt>
      <trkpt lat="43.15428" lon="2.41364">
        <ele>261.542236</ele>
        <time>2013-06-23T09:48:29Z</time>
      </trkpt>
      <trkpt lat="43.15424" lon="2.41369">
        <ele>261.26889</ele>
        <time>2013-06-23T09:48:56Z</time>
      </trkpt>
      <trkpt lat="43.15419" lon="2.41376">
        <ele>260.708588</ele>
        <time>2013-06-23T09:48:59Z</time>
      </trkpt>
      <trkpt lat="43.15414" lon="2.41381">
        <ele>260.419434</ele>
        <time>2013-06-23T09:49:01Z</time>
      </trkpt>
      <trkpt lat="43.15408" lon="2.41388">
        <ele>260.339966</ele>
        <time>2013-06-23T09:49:03Z</time>
      </trkpt>
      <trkpt lat="43.15404" lon="2.41391">
        <ele>260.364441</ele>
        <time>2013-06-23T09:49:04Z</time>
      </trkpt>
      <trkpt lat="43.15399" lon="2.41394">
        <ele>260.496979</ele>
        <time>2013-06-23T09:49:05Z</time>
      </trkpt>
      <trkpt lat="43.15392" lon="2.41401">
        <ele>260.371857</ele>
        <time>2013-06-23T09:49:07Z</time>
      </trkpt>
      <trkpt lat="43.15387" lon="2.41405">
        <ele>260.334045</ele>
        <time>2013-06-23T09:49:09Z</time>
      </trkpt>
      <trkpt lat="43.15381" lon="2.41408">
        <ele>260.601471</ele>
        <time>2013-06-23T09:49:13Z</time>
      </trkpt>
      <trkpt lat="43.15377" lon="2.41412">
        <ele>260.21521</ele>
        <time>2013-06-23T09:49:16Z</time>
      </trkpt>
      <trkpt lat="43.15376" lon="2.41418">
        <ele>259.392944</ele>
        <time>2013-06-23T09:49:44Z</time>
      </trkpt>
      <trkpt lat="43.15373" lon="2.41422">
        <ele>259.847748</ele>
        <time>2013-06-23T09:50:01Z</time>
      </trkpt>
      <trkpt lat="43.15369" lon="2.41429">
        <ele>260.224335</ele>
        <time>2013-06-23T09:50:19Z</time>
      </trkpt>
      <trkpt lat="43.15369" lon="2.41435">
        <ele>260.245544</ele>
        <time>2013-06-23T09:50:34Z</time>
      </trkpt>
      <trkpt lat="43.15372" lon="2.41443">
        <ele>259.966034</ele>
        <time>2013-06-23T09:50:38Z</time>
      </trkpt>
      <trkpt lat="43.15377" lon="2.41446">
        <ele>259.511993</ele>
        <time>2013-06-23T09:50:42Z</time>
      </trkpt>
      <trkpt lat="43.15382" lon="2.41449">
        <ele>259.018463</ele>
        <time>2013-06-23T09:50:44Z</time>
      </trkpt>
      <trkpt lat="43.15387" lon="2.4145">
        <ele>258.648346</ele>
        <time>2013-06-23T09:50:46Z</time>
      </trkpt>
      <trkpt lat="43.15392" lon="2.41448">
        <ele>258.11145</ele>
        <time>2013-06-23T09:50:49Z</time>
      </trkpt>
      <trkpt lat="43.15397" lon="2.41446">
        <ele>257.648468</ele>
        <time>2013-06-23T09:50:52Z</time>
      </trkpt>
      <trkpt lat="43.15402" lon="2.41443">
        <ele>257.005432</ele>
        <time>2013-06-23T09:50:55Z</time>
      </trkpt>
      <trkpt lat="43.15407" lon="2.41439">
        <ele>256.331543</ele>
        <time>2013-06-23T09:50:58Z</time>
      </trkpt>
      <trkpt lat="43.15411" lon="2.41436">
        <ele>255.697754</ele>
        <time>2013-06-23T09:51:00Z</time>
      </trkpt>
      <trkpt lat="43.15417" lon="2.41433">
        <ele>254.972961</ele>
        <time>2013-06-23T09:51:02Z</time>
      </trkpt>
      <trkpt lat="43.15422" lon="2.4143">
        <ele>254.712585</ele>
        <time>2013-06-23T09:51:05Z</time>
      </trkpt>
      <trkpt lat="43.15425" lon="2.41427">
        <ele>254.397614</ele>
        <time>2013-06-23T09:51:06Z</time>
      </trkpt>
      <trkpt lat="43.15428" lon="2.41419">
        <ele>253.723572</ele>
        <time>2013-06-23T09:51:09Z</time>
      </trkpt>
      <trkpt lat="43.15432" lon="2.41415">
        <ele>253.706177</ele>
        <time>2013-06-23T09:51:11Z</time>
      </trkpt>
      <trkpt lat="43.15437" lon="2.41412">
        <ele>253.86203</ele>
        <time>2013-06-23T09:51:13Z</time>
      </trkpt>
      <trkpt lat="43.15443" lon="2.41408">
        <ele>254.251099</ele>
        <time>2013-06-23T09:51:15Z</time>
      </trkpt>
      <trkpt lat="43.15448" lon="2.41404">
        <ele>254.368622</ele>
        <time>2013-06-23T09:51:18Z</time>
      </trkpt>
      <trkpt lat="43.15454" lon="2.41402">
        <ele>254.371063</ele>
        <time>2013-06-23T09:51:19Z</time>
      </trkpt>
      <trkpt lat="43.15459" lon="2.41399">
        <ele>254.410309</ele>
        <time>2013-06-23T09:51:21Z</time>
      </trkpt>
      <trkpt lat="43.15464" lon="2.41396">
        <ele>254.312317</ele>
        <time>2013-06-23T09:51:23Z</time>
      </trkpt>
      <trkpt lat="43.15469" lon="2.41395">
        <ele>254.147339</ele>
        <time>2013-06-23T09:51:26Z</time>
      </trkpt>
      <trkpt lat="43.15475" lon="2.41393">
        <ele>253.855316</ele>
        <time>2013-06-23T09:51:28Z</time>
      </trkpt>
      <trkpt lat="43.1548" lon="2.41392">
        <ele>253.618042</ele>
        <time>2013-06-23T09:51:31Z</time>
      </trkpt>
      <trkpt lat="43.15486" lon="2.4139">
        <ele>253.282196</ele>
        <time>2013-06-23T09:51:34Z</time>
      </trkpt>
      <trkpt lat="43.15491" lon="2.41388">
        <ele>253.051178</ele>
        <time>2013-06-23T09:51:38Z</time>
      </trkpt>
      <trkpt lat="43.15497" lon="2.41386">
        <ele>252.696716</ele>
        <time>2013-06-23T09:51:40Z</time>
      </trkpt>
      <trkpt lat="43.15502" lon="2.41384">
        <ele>252.484558</ele>
        <time>2013-06-23T09:51:42Z</time>
      </trkpt>
      <trkpt lat="43.15508" lon="2.41381">
        <ele>252.245209</ele>
        <time>2013-06-23T09:51:44Z</time>
      </trkpt>
      <trkpt lat="43.15514" lon="2.41379">
        <ele>251.986389</ele>
        <time>2013-06-23T09:51:46Z</time>
      </trkpt>
      <trkpt lat="43.1552" lon="2.41377">
        <ele>251.712555</ele>
        <time>2013-06-23T09:51:49Z</time>
      </trkpt>
      <trkpt lat="43.15526" lon="2.41375">
        <ele>251.449097</ele>
        <time>2013-06-23T09:51:50Z</time>
      </trkpt>
      <trkpt lat="43.15531" lon="2.41374">
        <ele>251.179108</ele>
        <time>2013-06-23T09:51:52Z</time>
      </trkpt>
      <trkpt lat="43.15537" lon="2.41369">
        <ele>251.013367</ele>
        <time>2013-06-23T09:51:54Z</time>
      </trkpt>
      <trkpt lat="43.15543" lon="2.41365">
        <ele>250.79715</ele>
        <time>2013-06-23T09:51:56Z</time>
      </trkpt>
      <trkpt lat="43.15549" lon="2.41362">
        <ele>250.500885</ele>
        <time>2013-06-23T09:51:59Z</time>
      </trkpt>
      <trkpt lat="43.15557" lon="2.41356">
        <ele>250.147278</ele>
        <time>2013-06-23T09:52:00Z</time>
      </trkpt>
      <trkpt lat="43.15565" lon="2.4135">
        <ele>249.853302</ele>
        <time>2013-06-23T09:52:02Z</time>
      </trkpt>
      <trkpt lat="43.15571" lon="2.41346">
        <ele>249.582916</ele>
        <time>2013-06-23T09:52:04Z</time>
      </trkpt>
      <trkpt lat="43.15576" lon="2.41341">
        <ele>249.321381</ele>
        <time>2013-06-23T09:52:06Z</time>
      </trkpt>
      <trkpt lat="43.15583" lon="2.41336">
        <ele>249.003967</ele>
        <time>2013-06-23T09:52:08Z</time>
      </trkpt>
      <trkpt lat="43.15587" lon="2.41333">
        <ele>248.851349</ele>
        <time>2013-06-23T09:52:11Z</time>
      </trkpt>
      <trkpt lat="43.15592" lon="2.41331">
        <ele>248.944641</ele>
        <time>2013-06-23T09:52:12Z</time>
      </trkpt>
      <trkpt lat="43.15597" lon="2.41327">
        <ele>249.552795</ele>
        <time>2013-06-23T09:52:14Z</time>
      </trkpt>
      <trkpt lat="43.15602" lon="2.41323">
        <ele>250.17334</ele>
        <time>2013-06-23T09:52:16Z</time>
      </trkpt>
      <trkpt lat="43.15609" lon="2.4132">
        <ele>250.144379</ele>
        <time>2013-06-23T09:52:19Z</time>
      </trkpt>
      <trkpt lat="43.15614" lon="2.4132">
        <ele>249.868469</ele>
        <time>2013-06-23T09:52:21Z</time>
      </trkpt>
      <trkpt lat="43.1562" lon="2.41319">
        <ele>249.562134</ele>
        <time>2013-06-23T09:52:24Z</time>
      </trkpt>
      <trkpt lat="43.15627" lon="2.41317">
        <ele>249.389343</ele>
        <time>2013-06-23T09:52:25Z</time>
      </trkpt>
      <trkpt lat="43.15634" lon="2.41317">
        <ele>248.858337</ele>
        <time>2013-06-23T09:52:27Z</time>
      </trkpt>
      <trkpt lat="43.15642" lon="2.41316">
        <ele>248.291962</ele>
        <time>2013-06-23T09:52:29Z</time>
      </trkpt>
      <trkpt lat="43.1565" lon="2.41316">
        <ele>247.812103</ele>
        <time>2013-06-23T09:52:31Z</time>
      </trkpt>
      <trkpt lat="43.15657" lon="2.41312">
        <ele>247.93042</ele>
        <time>2013-06-23T09:52:34Z</time>
      </trkpt>
      <trkpt lat="43.15662" lon="2.41308">
        <ele>248.225891</ele>
        <time>2013-06-23T09:52:35Z</time>
      </trkpt>
      <trkpt lat="43.15666" lon="2.41304">
        <ele>248.682373</ele>
        <time>2013-06-23T09:52:37Z</time>
      </trkpt>
      <trkpt lat="43.15671" lon="2.41298">
        <ele>249.652039</ele>
        <time>2013-06-23T09:52:40Z</time>
      </trkpt>
      <trkpt lat="43.15676" lon="2.41295">
        <ele>250.030365</ele>
        <time>2013-06-23T09:52:43Z</time>
      </trkpt>
      <trkpt lat="43.15681" lon="2.41292">
        <ele>250.552521</ele>
        <time>2013-06-23T09:52:46Z</time>
      </trkpt>
      <trkpt lat="43.15686" lon="2.41291">
        <ele>250.780609</ele>
        <time>2013-06-23T09:52:47Z</time>
      </trkpt>
      <trkpt lat="43.1569" lon="2.41291">
        <ele>250.605743</ele>
        <time>2013-06-23T09:52:49Z</time>
      </trkpt>
      <trkpt lat="43.15695" lon="2.41292">
        <ele>250.368622</ele>
        <time>2013-06-23T09:52:52Z</time>
      </trkpt>
      <trkpt lat="43.157" lon="2.4129">
        <ele>250.607788</ele>
        <time>2013-06-23T09:52:55Z</time>
      </trkpt>
      <trkpt lat="43.15705" lon="2.4129">
        <ele>250.36322</ele>
        <time>2013-06-23T09:52:58Z</time>
      </trkpt>
      <trkpt lat="43.15711" lon="2.41291">
        <ele>250.164001</ele>
        <time>2013-06-23T09:53:00Z</time>
      </trkpt>
      <trkpt lat="43.15717" lon="2.41291">
        <ele>250.032959</ele>
        <time>2013-06-23T09:53:02Z</time>
      </trkpt>
      <trkpt lat="43.15724" lon="2.4129">
        <ele>250.013153</ele>
        <time>2013-06-23T09:53:04Z</time>
      </trkpt>
      <trkpt lat="43.15729" lon="2.41289">
        <ele>250.098938</ele>
        <time>2013-06-23T09:53:05Z</time>
      </trkpt>
      <trkpt lat="43.15737" lon="2.41288">
        <ele>250.204803</ele>
        <time>2013-06-23T09:53:08Z</time>
      </trkpt>
      <trkpt lat="43.15745" lon="2.41288">
        <ele>250.046173</ele>
        <time>2013-06-23T09:53:09Z</time>
      </trkpt>
      <trkpt lat="43.15754" lon="2.41288">
        <ele>249.700226</ele>
        <time>2013-06-23T09:53:11Z</time>
      </trkpt>
      <trkpt lat="43.15758" lon="2.41288">
        <ele>249.265778</ele>
        <time>2013-06-23T09:53:12Z</time>
      </trkpt>
      <trkpt lat="43.15763" lon="2.41288">
        <ele>248.881866</ele>
        <time>2013-06-23T09:53:13Z</time>
      </trkpt>
      <trkpt lat="43.1577" lon="2.41287">
        <ele>248.393799</ele>
        <time>2013-06-23T09:53:15Z</time>
      </trkpt>
      <trkpt lat="43.15776" lon="2.41286">
        <ele>248.044769</ele>
        <time>2013-06-23T09:53:18Z</time>
      </trkpt>
      <trkpt lat="43.15784" lon="2.41286">
        <ele>247.435852</ele>
        <time>2013-06-23T09:53:19Z</time>
      </trkpt>
      <trkpt lat="43.1579" lon="2.41284">
        <ele>247.39566</ele>
        <time>2013-06-23T09:53:21Z</time>
      </trkpt>
      <trkpt lat="43.15795" lon="2.41281">
        <ele>247.42868</ele>
        <time>2013-06-23T09:53:23Z</time>
      </trkpt>
      <trkpt lat="43.15803" lon="2.41279">
        <ele>247.09613</ele>
        <time>2013-06-23T09:53:25Z</time>
      </trkpt>
      <trkpt lat="43.15811" lon="2.41278">
        <ele>246.748383</ele>
        <time>2013-06-23T09:53:27Z</time>
      </trkpt>
      <trkpt lat="43.1582" lon="2.41279">
        <ele>245.761749</ele>
        <time>2013-06-23T09:53:29Z</time>
      </trkpt>
      <trkpt lat="43.15827" lon="2.41279">
        <ele>245.078644</ele>
        <time>2013-06-23T09:53:31Z</time>
      </trkpt>
      <trkpt lat="43.15835" lon="2.41279">
        <ele>244.40802</ele>
        <time>2013-06-23T09:53:33Z</time>
      </trkpt>
      <trkpt lat="43.15843" lon="2.41279">
        <ele>244.385742</ele>
        <time>2013-06-23T09:53:35Z</time>
      </trkpt>
      <trkpt lat="43.1585" lon="2.41279">
        <ele>244.465179</ele>
        <time>2013-06-23T09:53:37Z</time>
      </trkpt>
      <trkpt lat="43.15857" lon="2.41278">
        <ele>244.542267</ele>
        <time>2013-06-23T09:53:39Z</time>
      </trkpt>
      <trkpt lat="43.15863" lon="2.41277">
        <ele>244.771759</ele>
        <time>2013-06-23T09:53:41Z</time>
      </trkpt>
      <trkpt lat="43.15871" lon="2.41276">
        <ele>245.151428</ele>
        <time>2013-06-23T09:53:43Z</time>
      </trkpt>
      <trkpt lat="43.15878" lon="2.41275">
        <ele>245.351196</ele>
        <time>2013-06-23T09:53:45Z</time>
      </trkpt>
      <trkpt lat="43.15886" lon="2.41275">
        <ele>245.254059</ele>
        <time>2013-06-23T09:53:47Z</time>
      </trkpt>
      <trkpt lat="43.15892" lon="2.41275">
        <ele>245.297516</ele>
        <time>2013-06-23T09:53:49Z</time>
      </trkpt>
      <trkpt lat="43.15898" lon="2.41274">
        <ele>245.561646</ele>
        <time>2013-06-23T09:53:51Z</time>
      </trkpt>
      <trkpt lat="43.15905" lon="2.41276">
        <ele>245.21701</ele>
        <time>2013-06-23T09:53:54Z</time>
      </trkpt>
      <trkpt lat="43.15912" lon="2.41278">
        <ele>244.727905</ele>
        <time>2013-06-23T09:53:55Z</time>
      </trkpt>
      <trkpt lat="43.15919" lon="2.41278">
        <ele>244.633514</ele>
        <time>2013-06-23T09:53:57Z</time>
      </trkpt>
      <trkpt lat="43.15928" lon="2.41279">
        <ele>244.270325</ele>
        <time>2013-06-23T09:53:59Z</time>
      </trkpt>
      <trkpt lat="43.15935" lon="2.4128">
        <ele>244.12262</ele>
        <time>2013-06-23T09:54:01Z</time>
      </trkpt>
      <trkpt lat="43.15944" lon="2.41284">
        <ele>243.156494</ele>
        <time>2013-06-23T09:54:04Z</time>
      </trkpt>
      <trkpt lat="43.15949" lon="2.41286">
        <ele>242.556946</ele>
        <time>2013-06-23T09:54:04Z</time>
      </trkpt>
      <trkpt lat="43.15954" lon="2.41288">
        <ele>241.882202</ele>
        <time>2013-06-23T09:54:05Z</time>
      </trkpt>
      <trkpt lat="43.1596" lon="2.41291">
        <ele>241.284668</ele>
        <time>2013-06-23T09:54:06Z</time>
      </trkpt>
      <trkpt lat="43.15964" lon="2.41292">
        <ele>240.861023</ele>
        <time>2013-06-23T09:54:07Z</time>
      </trkpt>
      <trkpt lat="43.15972" lon="2.41295">
        <ele>240.193665</ele>
        <time>2013-06-23T09:54:09Z</time>
      </trkpt>
      <trkpt lat="43.1598" lon="2.41296">
        <ele>239.908997</ele>
        <time>2013-06-23T09:54:11Z</time>
      </trkpt>
      <trkpt lat="43.15987" lon="2.41299">
        <ele>239.179871</ele>
        <time>2013-06-23T09:54:13Z</time>
      </trkpt>
      <trkpt lat="43.15995" lon="2.41299">
        <ele>239.064362</ele>
        <time>2013-06-23T09:54:15Z</time>
      </trkpt>
      <trkpt lat="43.16002" lon="2.41298">
        <ele>239.213593</ele>
        <time>2013-06-23T09:54:18Z</time>
      </trkpt>
      <trkpt lat="43.1601" lon="2.41296">
        <ele>239.567169</ele>
        <time>2013-06-23T09:54:19Z</time>
      </trkpt>
      <trkpt lat="43.16015" lon="2.41294">
        <ele>239.880951</ele>
        <time>2013-06-23T09:54:21Z</time>
      </trkpt>
      <trkpt lat="43.16021" lon="2.41292">
        <ele>240.102264</ele>
        <time>2013-06-23T09:54:23Z</time>
      </trkpt>
      <trkpt lat="43.16028" lon="2.41295">
        <ele>239.280548</ele>
        <time>2013-06-23T09:54:25Z</time>
      </trkpt>
      <trkpt lat="43.16034" lon="2.41298">
        <ele>238.319855</ele>
        <time>2013-06-23T09:54:27Z</time>
      </trkpt>
      <trkpt lat="43.1604" lon="2.41302">
        <ele>237.425903</ele>
        <time>2013-06-23T09:54:29Z</time>
      </trkpt>
      <trkpt lat="43.16045" lon="2.41306">
        <ele>236.290771</ele>
        <time>2013-06-23T09:54:31Z</time>
      </trkpt>
      <trkpt lat="43.1605" lon="2.41307">
        <ele>236.09433</ele>
        <time>2013-06-23T09:54:33Z</time>
      </trkpt>
      <trkpt lat="43.16055" lon="2.41302">
        <ele>236.909668</ele>
        <time>2013-06-23T09:54:35Z</time>
      </trkpt>
      <trkpt lat="43.16061" lon="2.41298">
        <ele>237.616943</ele>
        <time>2013-06-23T09:54:37Z</time>
      </trkpt>
      <trkpt lat="43.16067" lon="2.41296">
        <ele>237.74115</ele>
        <time>2013-06-23T09:54:40Z</time>
      </trkpt>
      <trkpt lat="43.16074" lon="2.41299">
        <ele>237.075836</ele>
        <time>2013-06-23T09:54:41Z</time>
      </trkpt>
      <trkpt lat="43.1608" lon="2.41303">
        <ele>236.192017</ele>
        <time>2013-06-23T09:54:43Z</time>
      </trkpt>
      <trkpt lat="43.16085" lon="2.41308">
        <ele>235.271179</ele>
        <time>2013-06-23T09:54:45Z</time>
      </trkpt>
      <trkpt lat="43.1609" lon="2.41313">
        <ele>234.47998</ele>
        <time>2013-06-23T09:54:47Z</time>
      </trkpt>
      <trkpt lat="43.16095" lon="2.41317">
        <ele>233.798462</ele>
        <time>2013-06-23T09:54:49Z</time>
      </trkpt>
      <trkpt lat="43.161" lon="2.4132">
        <ele>233.366852</ele>
        <time>2013-06-23T09:54:51Z</time>
      </trkpt>
      <trkpt lat="43.16106" lon="2.41318">
        <ele>233.750305</ele>
        <time>2013-06-23T09:54:53Z</time>
      </trkpt>
      <trkpt lat="43.16111" lon="2.41314">
        <ele>234.344635</ele>
        <time>2013-06-23T09:54:55Z</time>
      </trkpt>
      <trkpt lat="43.16117" lon="2.4131">
        <ele>234.765503</ele>
        <time>2013-06-23T09:54:57Z</time>
      </trkpt>
      <trkpt lat="43.16123" lon="2.41309">
        <ele>234.952667</ele>
        <time>2013-06-23T09:54:59Z</time>
      </trkpt>
      <trkpt lat="43.1613" lon="2.41311">
        <ele>234.70462</ele>
        <time>2013-06-23T09:55:01Z</time>
      </trkpt>
      <trkpt lat="43.16136" lon="2.41314">
        <ele>234.315918</ele>
        <time>2013-06-23T09:55:04Z</time>
      </trkpt>
      <trkpt lat="43.16143" lon="2.4132">
        <ele>233.802734</ele>
        <time>2013-06-23T09:55:05Z</time>
      </trkpt>
      <trkpt lat="43.16149" lon="2.41325">
        <ele>233.339264</ele>
        <time>2013-06-23T09:55:07Z</time>
      </trkpt>
      <trkpt lat="43.16154" lon="2.4133">
        <ele>233.017761</ele>
        <time>2013-06-23T09:55:09Z</time>
      </trkpt>
      <trkpt lat="43.16158" lon="2.41333">
        <ele>232.824249</ele>
        <time>2013-06-23T09:55:11Z</time>
      </trkpt>
      <trkpt lat="43.16162" lon="2.41338">
        <ele>232.514252</ele>
        <time>2013-06-23T09:55:14Z</time>
      </trkpt>
      <trkpt lat="43.16168" lon="2.4134">
        <ele>232.492523</ele>
        <time>2013-06-23T09:55:18Z</time>
      </trkpt>
      <trkpt lat="43.16172" lon="2.4134">
        <ele>232.240967</ele>
        <time>2013-06-23T09:55:19Z</time>
      </trkpt>
      <trkpt lat="43.16179" lon="2.4134">
        <ele>231.876282</ele>
        <time>2013-06-23T09:55:22Z</time>
      </trkpt>
      <trkpt lat="43.16187" lon="2.41338">
        <ele>231.558655</ele>
        <time>2013-06-23T09:55:24Z</time>
      </trkpt>
      <trkpt lat="43.16192" lon="2.41336">
        <ele>231.373016</ele>
        <time>2013-06-23T09:55:25Z</time>
      </trkpt>
      <trkpt lat="43.16197" lon="2.41333">
        <ele>231.174194</ele>
        <time>2013-06-23T09:55:26Z</time>
      </trkpt>
      <trkpt lat="43.16204" lon="2.41331">
        <ele>230.916656</ele>
        <time>2013-06-23T09:55:27Z</time>
      </trkpt>
      <trkpt lat="43.1621" lon="2.41328">
        <ele>230.715607</ele>
        <time>2013-06-23T09:55:28Z</time>
      </trkpt>
      <trkpt lat="43.16216" lon="2.41326">
        <ele>230.479858</ele>
        <time>2013-06-23T09:55:30Z</time>
      </trkpt>
      <trkpt lat="43.16223" lon="2.41323">
        <ele>230.204071</ele>
        <time>2013-06-23T09:55:30Z</time>
      </trkpt>
      <trkpt lat="43.16229" lon="2.4132">
        <ele>229.997681</ele>
        <time>2013-06-23T09:55:31Z</time>
      </trkpt>
      <trkpt lat="43.16234" lon="2.41317">
        <ele>229.8125</ele>
        <time>2013-06-23T09:55:33Z</time>
      </trkpt>
      <trkpt lat="43.16239" lon="2.41315">
        <ele>229.622437</ele>
        <time>2013-06-23T09:55:33Z</time>
      </trkpt>
      <trkpt lat="43.16243" lon="2.41313">
        <ele>229.425049</ele>
        <time>2013-06-23T09:55:34Z</time>
      </trkpt>
      <trkpt lat="43.16248" lon="2.41311">
        <ele>229.215332</ele>
        <time>2013-06-23T09:55:35Z</time>
      </trkpt>
      <trkpt lat="43.16253" lon="2.41308">
        <ele>228.996857</ele>
        <time>2013-06-23T09:55:36Z</time>
      </trkpt>
      <trkpt lat="43.16257" lon="2.41306">
        <ele>228.791443</ele>
        <time>2013-06-23T09:55:37Z</time>
      </trkpt>
      <trkpt lat="43.16263" lon="2.41299">
        <ele>228.621704</ele>
        <time>2013-06-23T09:55:40Z</time>
      </trkpt>
      <trkpt lat="43.1627" lon="2.41294">
        <ele>228.424896</ele>
        <time>2013-06-23T09:55:41Z</time>
      </trkpt>
      <trkpt lat="43.16278" lon="2.41289">
        <ele>228.129944</ele>
        <time>2013-06-23T09:55:43Z</time>
      </trkpt>
      <trkpt lat="43.16287" lon="2.41287">
        <ele>227.678741</ele>
        <time>2013-06-23T09:55:45Z</time>
      </trkpt>
      <trkpt lat="43.16292" lon="2.41287">
        <ele>227.295044</ele>
        <time>2013-06-23T09:55:46Z</time>
      </trkpt>
      <trkpt lat="43.16297" lon="2.41287">
        <ele>226.948517</ele>
        <time>2013-06-23T09:55:47Z</time>
      </trkpt>
      <trkpt lat="43.16302" lon="2.41287">
        <ele>226.614014</ele>
        <time>2013-06-23T09:55:48Z</time>
      </trkpt>
      <trkpt lat="43.1631" lon="2.41289">
        <ele>225.914368</ele>
        <time>2013-06-23T09:55:51Z</time>
      </trkpt>
      <trkpt lat="43.16315" lon="2.41289">
        <ele>225.50473</ele>
        <time>2013-06-23T09:55:51Z</time>
      </trkpt>
      <trkpt lat="43.1632" lon="2.41292">
        <ele>224.989929</ele>
        <time>2013-06-23T09:55:52Z</time>
      </trkpt>
      <trkpt lat="43.16325" lon="2.41294">
        <ele>224.443115</ele>
        <time>2013-06-23T09:55:53Z</time>
      </trkpt>
      <trkpt lat="43.16329" lon="2.41296">
        <ele>223.907562</ele>
        <time>2013-06-23T09:55:54Z</time>
      </trkpt>
      <trkpt lat="43.16333" lon="2.41299">
        <ele>223.284576</ele>
        <time>2013-06-23T09:55:55Z</time>
      </trkpt>
      <trkpt lat="43.16337" lon="2.41303">
        <ele>222.250946</ele>
        <time>2013-06-23T09:55:56Z</time>
      </trkpt>
      <trkpt lat="43.16341" lon="2.41307">
        <ele>221.211487</ele>
        <time>2013-06-23T09:55:57Z</time>
      </trkpt>
      <trkpt lat="43.16347" lon="2.41313">
        <ele>219.602783</ele>
        <time>2013-06-23T09:55:59Z</time>
      </trkpt>
      <trkpt lat="43.16354" lon="2.41319">
        <ele>217.985168</ele>
        <time>2013-06-23T09:56:01Z</time>
      </trkpt>
      <trkpt lat="43.16361" lon="2.41321">
        <ele>216.491577</ele>
        <time>2013-06-23T09:56:03Z</time>
      </trkpt>
      <trkpt lat="43.16369" lon="2.41319">
        <ele>215.384552</ele>
        <time>2013-06-23T09:56:05Z</time>
      </trkpt>
      <trkpt lat="43.16377" lon="2.41318">
        <ele>214.121979</ele>
        <time>2013-06-23T09:56:07Z</time>
      </trkpt>
      <trkpt lat="43.16383" lon="2.41317">
        <ele>213.266357</ele>
        <time>2013-06-23T09:56:08Z</time>
      </trkpt>
      <trkpt lat="43.16388" lon="2.41317">
        <ele>212.368347</ele>
        <time>2013-06-23T09:56:09Z</time>
      </trkpt>
      <trkpt lat="43.16397" lon="2.41318">
        <ele>210.861877</ele>
        <time>2013-06-23T09:56:11Z</time>
      </trkpt>
      <trkpt lat="43.16405" lon="2.41319">
        <ele>209.281677</ele>
        <time>2013-06-23T09:56:13Z</time>
      </trkpt>
      <trkpt lat="43.16415" lon="2.41321">
        <ele>207.547974</ele>
        <time>2013-06-23T09:56:15Z</time>
      </trkpt>
      <trkpt lat="43.16422" lon="2.4132">
        <ele>206.420502</ele>
        <time>2013-06-23T09:56:17Z</time>
      </trkpt>
      <trkpt lat="43.16429" lon="2.41319">
        <ele>205.306976</ele>
        <time>2013-06-23T09:56:19Z</time>
      </trkpt>
      <trkpt lat="43.16434" lon="2.41318">
        <ele>204.726837</ele>
        <time>2013-06-23T09:56:20Z</time>
      </trkpt>
      <trkpt lat="43.16441" lon="2.41314">
        <ele>203.829163</ele>
        <time>2013-06-23T09:56:22Z</time>
      </trkpt>
      <trkpt lat="43.16446" lon="2.4131">
        <ele>203.360229</ele>
        <time>2013-06-23T09:56:24Z</time>
      </trkpt>
      <trkpt lat="43.16449" lon="2.41305">
        <ele>203.156403</ele>
        <time>2013-06-23T09:56:26Z</time>
      </trkpt>
      <trkpt lat="43.16452" lon="2.41297">
        <ele>203.160583</ele>
        <time>2013-06-23T09:56:28Z</time>
      </trkpt>
      <trkpt lat="43.16456" lon="2.41291">
        <ele>203.059326</ele>
        <time>2013-06-23T09:56:30Z</time>
      </trkpt>
      <trkpt lat="43.16459" lon="2.41286">
        <ele>202.830078</ele>
        <time>2013-06-23T09:56:32Z</time>
      </trkpt>
      <trkpt lat="43.16463" lon="2.4128">
        <ele>202.519318</ele>
        <time>2013-06-23T09:56:34Z</time>
      </trkpt>
      <trkpt lat="43.16466" lon="2.41275">
        <ele>202.244141</ele>
        <time>2013-06-23T09:56:36Z</time>
      </trkpt>
      <trkpt lat="43.16469" lon="2.41269">
        <ele>202.038025</ele>
        <time>2013-06-23T09:56:38Z</time>
      </trkpt>
      <trkpt lat="43.16473" lon="2.4126">
        <ele>201.968048</ele>
        <time>2013-06-23T09:56:41Z</time>
      </trkpt>
      <trkpt lat="43.16475" lon="2.41253">
        <ele>201.874573</ele>
        <time>2013-06-23T09:56:43Z</time>
      </trkpt>
      <trkpt lat="43.16478" lon="2.41247">
        <ele>201.710571</ele>
        <time>2013-06-23T09:56:46Z</time>
      </trkpt>
      <trkpt lat="43.1648" lon="2.41241">
        <ele>201.482544</ele>
        <time>2013-06-23T09:56:48Z</time>
      </trkpt>
      <trkpt lat="43.16485" lon="2.41236">
        <ele>200.754639</ele>
        <time>2013-06-23T09:56:51Z</time>
      </trkpt>
      <trkpt lat="43.1649" lon="2.41233">
        <ele>199.957031</ele>
        <time>2013-06-23T09:56:53Z</time>
      </trkpt>
      <trkpt lat="43.16496" lon="2.4123">
        <ele>198.980469</ele>
        <time>2013-06-23T09:56:55Z</time>
      </trkpt>
      <trkpt lat="43.16503" lon="2.4123">
        <ele>197.902039</ele>
        <time>2013-06-23T09:56:57Z</time>
      </trkpt>
      <trkpt lat="43.16509" lon="2.41231">
        <ele>197.173615</ele>
        <time>2013-06-23T09:56:59Z</time>
      </trkpt>
      <trkpt lat="43.16515" lon="2.41232">
        <ele>196.62619</ele>
        <time>2013-06-23T09:57:01Z</time>
      </trkpt>
      <trkpt lat="43.16521" lon="2.41231">
        <ele>196.014221</ele>
        <time>2013-06-23T09:57:12Z</time>
      </trkpt>
      <trkpt lat="43.16525" lon="2.41229">
        <ele>195.589417</ele>
        <time>2013-06-23T09:57:15Z</time>
      </trkpt>
      <trkpt lat="43.16531" lon="2.41226">
        <ele>195.064301</ele>
        <time>2013-06-23T09:57:17Z</time>
      </trkpt>
      <trkpt lat="43.16537" lon="2.41224">
        <ele>194.455688</ele>
        <time>2013-06-23T09:57:20Z</time>
      </trkpt>
      <trkpt lat="43.16543" lon="2.4122">
        <ele>193.877716</ele>
        <time>2013-06-23T09:57:21Z</time>
      </trkpt>
      <trkpt lat="43.16549" lon="2.41217">
        <ele>193.243713</ele>
        <time>2013-06-23T09:57:23Z</time>
      </trkpt>
      <trkpt lat="43.16554" lon="2.41214">
        <ele>192.721863</ele>
        <time>2013-06-23T09:57:25Z</time>
      </trkpt>
      <trkpt lat="43.16559" lon="2.41212">
        <ele>192.073273</ele>
        <time>2013-06-23T09:57:27Z</time>
      </trkpt>
      <trkpt lat="43.16566" lon="2.41208">
        <ele>191.179657</ele>
        <time>2013-06-23T09:57:30Z</time>
      </trkpt>
      <trkpt lat="43.16572" lon="2.41203">
        <ele>190.305328</ele>
        <time>2013-06-23T09:57:31Z</time>
      </trkpt>
      <trkpt lat="43.16577" lon="2.412">
        <ele>189.62384</ele>
        <time>2013-06-23T09:57:33Z</time>
      </trkpt>
      <trkpt lat="43.16582" lon="2.41196">
        <ele>188.850616</ele>
        <time>2013-06-23T09:57:36Z</time>
      </trkpt>
      <trkpt lat="43.16588" lon="2.41192">
        <ele>188.551636</ele>
        <time>2013-06-23T09:57:39Z</time>
      </trkpt>
      <trkpt lat="43.16592" lon="2.41186">
        <ele>188.338501</ele>
        <time>2013-06-23T09:57:43Z</time>
      </trkpt>
      <trkpt lat="43.16597" lon="2.41185">
        <ele>188.207733</ele>
        <time>2013-06-23T09:57:46Z</time>
      </trkpt>
      <trkpt lat="43.16601" lon="2.4119">
        <ele>188.304321</ele>
        <time>2013-06-23T09:57:50Z</time>
      </trkpt>
      <trkpt lat="43.16597" lon="2.41196">
        <ele>188.543152</ele>
        <time>2013-06-23T09:57:54Z</time>
      </trkpt>
      <trkpt lat="43.16594" lon="2.41202">
        <ele>188.751404</ele>
        <time>2013-06-23T09:57:57Z</time>
      </trkpt>
      <trkpt lat="43.16592" lon="2.41208">
        <ele>188.933075</ele>
        <time>2013-06-23T09:58:08Z</time>
      </trkpt>
      <trkpt lat="43.16588" lon="2.41215">
        <ele>189.132019</ele>
        <time>2013-06-23T09:58:17Z</time>
      </trkpt>
      <trkpt lat="43.16586" lon="2.41222">
        <ele>189.321075</ele>
        <time>2013-06-23T09:58:20Z</time>
      </trkpt>
      <trkpt lat="43.16583" lon="2.41227">
        <ele>189.475647</ele>
        <time>2013-06-23T09:58:22Z</time>
      </trkpt>
      <trkpt lat="43.16581" lon="2.41233">
        <ele>189.845001</ele>
        <time>2013-06-23T09:58:24Z</time>
      </trkpt>
      <trkpt lat="43.16579" lon="2.41242">
        <ele>190.178131</ele>
        <time>2013-06-23T09:58:28Z</time>
      </trkpt>
      <trkpt lat="43.16579" lon="2.41248">
        <ele>190.357452</ele>
        <time>2013-06-23T09:58:29Z</time>
      </trkpt>
      <trkpt lat="43.16578" lon="2.41255">
        <ele>190.721832</ele>
        <time>2013-06-23T09:58:31Z</time>
      </trkpt>
      <trkpt lat="43.16578" lon="2.41262">
        <ele>191.215485</ele>
        <time>2013-06-23T09:58:33Z</time>
      </trkpt>
      <trkpt lat="43.16577" lon="2.4127">
        <ele>191.776855</ele>
        <time>2013-06-23T09:58:36Z</time>
      </trkpt>
      <trkpt lat="43.16575" lon="2.41277">
        <ele>192.330017</ele>
        <time>2013-06-23T09:58:39Z</time>
      </trkpt>
      <trkpt lat="43.16574" lon="2.41286">
        <ele>192.86261</ele>
        <time>2013-06-23T09:58:42Z</time>
      </trkpt>
      <trkpt lat="43.16575" lon="2.41297">
        <ele>193.539551</ele>
        <time>2013-06-23T09:58:52Z</time>
      </trkpt>
      <trkpt lat="43.16574" lon="2.41307">
        <ele>194.109741</ele>
        <time>2013-06-23T09:59:03Z</time>
      </trkpt>
      <trkpt lat="43.16575" lon="2.41316">
        <ele>194.625427</ele>
        <time>2013-06-23T09:59:16Z</time>
      </trkpt>
      <trkpt lat="43.16577" lon="2.41321">
        <ele>195.013306</ele>
        <time>2013-06-23T09:59:21Z</time>
      </trkpt>
      <trkpt lat="43.1658" lon="2.41328">
        <ele>195.504333</ele>
        <time>2013-06-23T09:59:25Z</time>
      </trkpt>
      <trkpt lat="43.1658" lon="2.41335">
        <ele>195.956238</ele>
        <time>2013-06-23T09:59:28Z</time>
      </trkpt>
      <trkpt lat="43.16582" lon="2.41342">
        <ele>196.361481</ele>
        <time>2013-06-23T09:59:31Z</time>
      </trkpt>
      <trkpt lat="43.16583" lon="2.4135">
        <ele>196.757385</ele>
        <time>2013-06-23T09:59:34Z</time>
      </trkpt>
      <trkpt lat="43.16585" lon="2.41358">
        <ele>197.261322</ele>
        <time>2013-06-23T09:59:38Z</time>
      </trkpt>
      <trkpt lat="43.16588" lon="2.41364">
        <ele>197.860657</ele>
        <time>2013-06-23T09:59:40Z</time>
      </trkpt>
      <trkpt lat="43.16591" lon="2.4137">
        <ele>198.386566</ele>
        <time>2013-06-23T09:59:46Z</time>
      </trkpt>
      <trkpt lat="43.16592" lon="2.41377">
        <ele>198.841309</ele>
        <time>2013-06-23T09:59:57Z</time>
      </trkpt>
      <trkpt lat="43.16594" lon="2.41384">
        <ele>199.37146</ele>
        <time>2013-06-23T09:59:59Z</time>
      </trkpt>
      <trkpt lat="43.16595" lon="2.41392">
        <ele>199.920074</ele>
        <time>2013-06-23T10:00:02Z</time>
      </trkpt>
      <trkpt lat="43.16598" lon="2.41397">
        <ele>200.476379</ele>
        <time>2013-06-23T10:00:03Z</time>
      </trkpt>
      <trkpt lat="43.16603" lon="2.41401">
        <ele>201.181152</ele>
        <time>2013-06-23T10:00:06Z</time>
      </trkpt>
      <trkpt lat="43.16606" lon="2.41408">
        <ele>201.84967</ele>
        <time>2013-06-23T10:00:10Z</time>
      </trkpt>
      <trkpt lat="43.16604" lon="2.41415">
        <ele>202.124847</ele>
        <time>2013-06-23T10:00:15Z</time>
      </trkpt>
      <trkpt lat="43.16601" lon="2.4142">
        <ele>202.088165</ele>
        <time>2013-06-23T10:00:20Z</time>
      </trkpt>
      <trkpt lat="43.16598" lon="2.41425">
        <ele>202.110352</ele>
        <time>2013-06-23T10:00:23Z</time>
      </trkpt>
      <trkpt lat="43.16596" lon="2.41432">
        <ele>202.289398</ele>
        <time>2013-06-23T10:00:26Z</time>
      </trkpt>
      <trkpt lat="43.16596" lon="2.41439">
        <ele>202.727661</ele>
        <time>2013-06-23T10:00:30Z</time>
      </trkpt>
      <trkpt lat="43.16599" lon="2.41445">
        <ele>203.437988</ele>
        <time>2013-06-23T10:00:34Z</time>
      </trkpt>
      <trkpt lat="43.16603" lon="2.41451">
        <ele>204.231995</ele>
        <time>2013-06-23T10:00:37Z</time>
      </trkpt>
      <trkpt lat="43.16607" lon="2.41459">
        <ele>205.175201</ele>
        <time>2013-06-23T10:00:40Z</time>
      </trkpt>
      <trkpt lat="43.16609" lon="2.41464">
        <ele>205.79776</ele>
        <time>2013-06-23T10:00:42Z</time>
      </trkpt>
      <trkpt lat="43.16611" lon="2.41469">
        <ele>206.381989</ele>
        <time>2013-06-23T10:00:44Z</time>
      </trkpt>
      <trkpt lat="43.16614" lon="2.41478">
        <ele>207.243958</ele>
        <time>2013-06-23T10:00:48Z</time>
      </trkpt>
      <trkpt lat="43.16616" lon="2.41484">
        <ele>207.828247</ele>
        <time>2013-06-23T10:00:49Z</time>
      </trkpt>
      <trkpt lat="43.16617" lon="2.41492">
        <ele>208.528046</ele>
        <time>2013-06-23T10:00:52Z</time>
      </trkpt>
      <trkpt lat="43.16621" lon="2.41497">
        <ele>209.324036</ele>
        <time>2013-06-23T10:00:55Z</time>
      </trkpt>
      <trkpt lat="43.16627" lon="2.41501">
        <ele>210.216949</ele>
        <time>2013-06-23T10:00:58Z</time>
      </trkpt>
      <trkpt lat="43.16629" lon="2.41508">
        <ele>210.620422</ele>
        <time>2013-06-23T10:01:01Z</time>
      </trkpt>
      <trkpt lat="43.16632" lon="2.41516">
        <ele>211.162231</ele>
        <time>2013-06-23T10:01:04Z</time>
      </trkpt>
      <trkpt lat="43.16635" lon="2.41523">
        <ele>211.641357</ele>
        <time>2013-06-23T10:01:07Z</time>
      </trkpt>
      <trkpt lat="43.16636" lon="2.41529">
        <ele>211.944733</ele>
        <time>2013-06-23T10:01:10Z</time>
      </trkpt>
      <trkpt lat="43.1664" lon="2.41534">
        <ele>212.448486</ele>
        <time>2013-06-23T10:01:13Z</time>
      </trkpt>
      <trkpt lat="43.16644" lon="2.4154">
        <ele>213.003296</ele>
        <time>2013-06-23T10:01:15Z</time>
      </trkpt>
      <trkpt lat="43.16645" lon="2.41547">
        <ele>213.273438</ele>
        <time>2013-06-23T10:01:17Z</time>
      </trkpt>
      <trkpt lat="43.16644" lon="2.41556">
        <ele>213.33548</ele>
        <time>2013-06-23T10:01:19Z</time>
      </trkpt>
      <trkpt lat="43.16646" lon="2.41564">
        <ele>213.675995</ele>
        <time>2013-06-23T10:01:22Z</time>
      </trkpt>
      <trkpt lat="43.16649" lon="2.41571">
        <ele>214.091431</ele>
        <time>2013-06-23T10:01:23Z</time>
      </trkpt>
      <trkpt lat="43.16652" lon="2.41578">
        <ele>214.508789</ele>
        <time>2013-06-23T10:01:25Z</time>
      </trkpt>
      <trkpt lat="43.16655" lon="2.41586">
        <ele>214.880432</ele>
        <time>2013-06-23T10:01:28Z</time>
      </trkpt>
      <trkpt lat="43.16656" lon="2.41593">
        <ele>214.983368</ele>
        <time>2013-06-23T10:01:30Z</time>
      </trkpt>
      <trkpt lat="43.16658" lon="2.416">
        <ele>215.111481</ele>
        <time>2013-06-23T10:01:33Z</time>
      </trkpt>
      <trkpt lat="43.1666" lon="2.41607">
        <ele>215.197937</ele>
        <time>2013-06-23T10:01:34Z</time>
      </trkpt>
      <trkpt lat="43.16663" lon="2.41612">
        <ele>215.399933</ele>
        <time>2013-06-23T10:01:36Z</time>
      </trkpt>
      <trkpt lat="43.16666" lon="2.41617">
        <ele>215.580353</ele>
        <time>2013-06-23T10:01:38Z</time>
      </trkpt>
      <trkpt lat="43.16669" lon="2.41622">
        <ele>215.807159</ele>
        <time>2013-06-23T10:01:40Z</time>
      </trkpt>
      <trkpt lat="43.16674" lon="2.41627">
        <ele>216.164215</ele>
        <time>2013-06-23T10:01:42Z</time>
      </trkpt>
      <trkpt lat="43.16679" lon="2.41632">
        <ele>216.59613</ele>
        <time>2013-06-23T10:01:46Z</time>
      </trkpt>
      <trkpt lat="43.16684" lon="2.41636">
        <ele>216.944885</ele>
        <time>2013-06-23T10:01:47Z</time>
      </trkpt>
      <trkpt lat="43.16688" lon="2.4164">
        <ele>217.241974</ele>
        <time>2013-06-23T10:01:50Z</time>
      </trkpt>
      <trkpt lat="43.1669" lon="2.41647">
        <ele>217.340271</ele>
        <time>2013-06-23T10:01:53Z</time>
      </trkpt>
      <trkpt lat="43.16692" lon="2.41654">
        <ele>217.346466</ele>
        <time>2013-06-23T10:01:56Z</time>
      </trkpt>
      <trkpt lat="43.16692" lon="2.41661">
        <ele>217.271484</ele>
        <time>2013-06-23T10:01:58Z</time>
      </trkpt>
      <trkpt lat="43.16694" lon="2.41669">
        <ele>217.302673</ele>
        <time>2013-06-23T10:02:01Z</time>
      </trkpt>
      <trkpt lat="43.16694" lon="2.41676">
        <ele>217.442749</ele>
        <time>2013-06-23T10:02:03Z</time>
      </trkpt>
      <trkpt lat="43.16696" lon="2.41684">
        <ele>217.672485</ele>
        <time>2013-06-23T10:02:06Z</time>
      </trkpt>
      <trkpt lat="43.16698" lon="2.41691">
        <ele>217.876434</ele>
        <time>2013-06-23T10:02:07Z</time>
      </trkpt>
      <trkpt lat="43.167" lon="2.41697">
        <ele>218.091644</ele>
        <time>2013-06-23T10:02:09Z</time>
      </trkpt>
      <trkpt lat="43.16702" lon="2.41704">
        <ele>218.317078</ele>
        <time>2013-06-23T10:02:11Z</time>
      </trkpt>
      <trkpt lat="43.16705" lon="2.4171">
        <ele>218.528015</ele>
        <time>2013-06-23T10:02:13Z</time>
      </trkpt>
      <trkpt lat="43.16706" lon="2.41717">
        <ele>218.62265</ele>
        <time>2013-06-23T10:02:15Z</time>
      </trkpt>
      <trkpt lat="43.16707" lon="2.41725">
        <ele>218.761108</ele>
        <time>2013-06-23T10:02:19Z</time>
      </trkpt>
      <trkpt lat="43.16709" lon="2.41734">
        <ele>218.963379</ele>
        <time>2013-06-23T10:02:20Z</time>
      </trkpt>
      <trkpt lat="43.16711" lon="2.41744">
        <ele>219.101227</ele>
        <time>2013-06-23T10:02:21Z</time>
      </trkpt>
      <trkpt lat="43.16712" lon="2.41752">
        <ele>219.303955</ele>
        <time>2013-06-23T10:02:23Z</time>
      </trkpt>
      <trkpt lat="43.16714" lon="2.41759">
        <ele>219.742462</ele>
        <time>2013-06-23T10:02:25Z</time>
      </trkpt>
      <trkpt lat="43.16716" lon="2.41766">
        <ele>220.158569</ele>
        <time>2013-06-23T10:02:28Z</time>
      </trkpt>
      <trkpt lat="43.16718" lon="2.41772">
        <ele>220.542847</ele>
        <time>2013-06-23T10:02:29Z</time>
      </trkpt>
      <trkpt lat="43.1672" lon="2.41778">
        <ele>220.920013</ele>
        <time>2013-06-23T10:02:31Z</time>
      </trkpt>
      <trkpt lat="43.16722" lon="2.41785">
        <ele>221.298096</ele>
        <time>2013-06-23T10:02:33Z</time>
      </trkpt>
      <trkpt lat="43.16723" lon="2.41791">
        <ele>221.66745</ele>
        <time>2013-06-23T10:02:35Z</time>
      </trkpt>
      <trkpt lat="43.16724" lon="2.41799">
        <ele>222.037384</ele>
        <time>2013-06-23T10:02:38Z</time>
      </trkpt>
      <trkpt lat="43.16725" lon="2.41805">
        <ele>222.401672</ele>
        <time>2013-06-23T10:02:39Z</time>
      </trkpt>
      <trkpt lat="43.16727" lon="2.41813">
        <ele>222.774292</ele>
        <time>2013-06-23T10:02:41Z</time>
      </trkpt>
      <trkpt lat="43.16729" lon="2.4182">
        <ele>223.155365</ele>
        <time>2013-06-23T10:02:43Z</time>
      </trkpt>
      <trkpt lat="43.1673" lon="2.41827">
        <ele>223.468414</ele>
        <time>2013-06-23T10:02:45Z</time>
      </trkpt>
      <trkpt lat="43.16731" lon="2.41834">
        <ele>223.783966</ele>
        <time>2013-06-23T10:02:47Z</time>
      </trkpt>
      <trkpt lat="43.16735" lon="2.4184">
        <ele>223.987457</ele>
        <time>2013-06-23T10:02:51Z</time>
      </trkpt>
      <trkpt lat="43.1674" lon="2.41844">
        <ele>224.160431</ele>
        <time>2013-06-23T10:02:52Z</time>
      </trkpt>
      <trkpt lat="43.16743" lon="2.41851">
        <ele>224.366608</ele>
        <time>2013-06-23T10:02:55Z</time>
      </trkpt>
      <trkpt lat="43.16746" lon="2.41858">
        <ele>224.555389</ele>
        <time>2013-06-23T10:02:58Z</time>
      </trkpt>
      <trkpt lat="43.16748" lon="2.41865">
        <ele>224.735565</ele>
        <time>2013-06-23T10:03:01Z</time>
      </trkpt>
      <trkpt lat="43.1675" lon="2.41872">
        <ele>224.935547</ele>
        <time>2013-06-23T10:03:03Z</time>
      </trkpt>
      <trkpt lat="43.16752" lon="2.41879">
        <ele>225.138031</ele>
        <time>2013-06-23T10:03:06Z</time>
      </trkpt>
      <trkpt lat="43.16751" lon="2.41886">
        <ele>225.274261</ele>
        <time>2013-06-23T10:03:09Z</time>
      </trkpt>
      <trkpt lat="43.16747" lon="2.41889">
        <ele>225.327515</ele>
        <time>2013-06-23T10:03:23Z</time>
      </trkpt>
      <trkpt lat="43.16744" lon="2.41883">
        <ele>225.163177</ele>
        <time>2013-06-23T10:03:47Z</time>
      </trkpt>
      <trkpt lat="43.16742" lon="2.4189">
        <ele>225.33847</ele>
        <time>2013-06-23T10:04:29Z</time>
      </trkpt>
      <trkpt lat="43.16749" lon="2.41898">
        <ele>225.53775</ele>
        <time>2013-06-23T10:05:32Z</time>
      </trkpt>
      <trkpt lat="43.16749" lon="2.4189">
        <ele>225.357483</ele>
        <time>2013-06-23T10:06:12Z</time>
      </trkpt>
      <trkpt lat="43.16751" lon="2.41896">
        <ele>225.535156</ele>
        <time>2013-06-23T10:06:52Z</time>
      </trkpt>
      <trkpt lat="43.16752" lon="2.41903">
        <ele>225.731598</ele>
        <time>2013-06-23T10:06:56Z</time>
      </trkpt>
      <trkpt lat="43.16753" lon="2.41912">
        <ele>225.968201</ele>
        <time>2013-06-23T10:06:57Z</time>
      </trkpt>
      <trkpt lat="43.16754" lon="2.41919">
        <ele>226.057404</ele>
        <time>2013-06-23T10:06:59Z</time>
      </trkpt>
      <trkpt lat="43.16755" lon="2.41928">
        <ele>225.959015</ele>
        <time>2013-06-23T10:07:02Z</time>
      </trkpt>
      <trkpt lat="43.16757" lon="2.41937">
        <ele>225.860535</ele>
        <time>2013-06-23T10:07:06Z</time>
      </trkpt>
      <trkpt lat="43.16758" lon="2.41943">
        <ele>225.787048</ele>
        <time>2013-06-23T10:07:07Z</time>
      </trkpt>
      <trkpt lat="43.1676" lon="2.41949">
        <ele>225.701019</ele>
        <time>2013-06-23T10:07:09Z</time>
      </trkpt>
      <trkpt lat="43.16761" lon="2.41956">
        <ele>225.60791</ele>
        <time>2013-06-23T10:07:11Z</time>
      </trkpt>
      <trkpt lat="43.16762" lon="2.41962">
        <ele>225.505005</ele>
        <time>2013-06-23T10:07:14Z</time>
      </trkpt>
      <trkpt lat="43.16763" lon="2.41969">
        <ele>225.399536</ele>
        <time>2013-06-23T10:07:15Z</time>
      </trkpt>
      <trkpt lat="43.16765" lon="2.41974">
        <ele>225.301422</ele>
        <time>2013-06-23T10:07:17Z</time>
      </trkpt>
      <trkpt lat="43.16766" lon="2.4198">
        <ele>225.182007</ele>
        <time>2013-06-23T10:07:19Z</time>
      </trkpt>
      <trkpt lat="43.16767" lon="2.41987">
        <ele>225.051758</ele>
        <time>2013-06-23T10:07:21Z</time>
      </trkpt>
      <trkpt lat="43.16768" lon="2.41994">
        <ele>224.912231</ele>
        <time>2013-06-23T10:07:24Z</time>
      </trkpt>
      <trkpt lat="43.1677" lon="2.42001">
        <ele>224.71228</ele>
        <time>2013-06-23T10:07:26Z</time>
      </trkpt>
      <trkpt lat="43.16771" lon="2.4201">
        <ele>224.277802</ele>
        <time>2013-06-23T10:07:29Z</time>
      </trkpt>
      <trkpt lat="43.16773" lon="2.42018">
        <ele>223.877747</ele>
        <time>2013-06-23T10:07:31Z</time>
      </trkpt>
      <trkpt lat="43.16776" lon="2.42024">
        <ele>223.552185</ele>
        <time>2013-06-23T10:07:34Z</time>
      </trkpt>
      <trkpt lat="43.16782" lon="2.42028">
        <ele>223.269409</ele>
        <time>2013-06-23T10:07:35Z</time>
      </trkpt>
      <trkpt lat="43.16789" lon="2.42033">
        <ele>222.926758</ele>
        <time>2013-06-23T10:07:39Z</time>
      </trkpt>
      <trkpt lat="43.16793" lon="2.4204">
        <ele>222.582581</ele>
        <time>2013-06-23T10:07:40Z</time>
      </trkpt>
      <trkpt lat="43.16797" lon="2.42046">
        <ele>222.236938</ele>
        <time>2013-06-23T10:07:40Z</time>
      </trkpt>
      <trkpt lat="43.16801" lon="2.42052">
        <ele>221.890228</ele>
        <time>2013-06-23T10:07:40Z</time>
      </trkpt>
      <trkpt lat="43.16804" lon="2.42058">
        <ele>221.543915</ele>
        <time>2013-06-23T10:07:41Z</time>
      </trkpt>
      <trkpt lat="43.16808" lon="2.42064">
        <ele>221.220734</ele>
        <time>2013-06-23T10:07:42Z</time>
      </trkpt>
      <trkpt lat="43.16812" lon="2.42068">
        <ele>220.994598</ele>
        <time>2013-06-23T10:07:44Z</time>
      </trkpt>
      <trkpt lat="43.16817" lon="2.4207">
        <ele>220.841553</ele>
        <time>2013-06-23T10:07:45Z</time>
      </trkpt>
      <trkpt lat="43.16823" lon="2.42073">
        <ele>220.629425</ele>
        <time>2013-06-23T10:07:46Z</time>
      </trkpt>
      <trkpt lat="43.16827" lon="2.42078">
        <ele>220.338623</ele>
        <time>2013-06-23T10:07:48Z</time>
      </trkpt>
      <trkpt lat="43.16832" lon="2.42084">
        <ele>220.006653</ele>
        <time>2013-06-23T10:07:50Z</time>
      </trkpt>
      <trkpt lat="43.16837" lon="2.42086">
        <ele>219.41098</ele>
        <time>2013-06-23T10:07:52Z</time>
      </trkpt>
      <trkpt lat="43.16843" lon="2.42087">
        <ele>218.672485</ele>
        <time>2013-06-23T10:07:54Z</time>
      </trkpt>
      <trkpt lat="43.16847" lon="2.4209">
        <ele>218.017151</ele>
        <time>2013-06-23T10:07:57Z</time>
      </trkpt>
      <trkpt lat="43.16852" lon="2.42092">
        <ele>217.408203</ele>
        <time>2013-06-23T10:08:01Z</time>
      </trkpt>
      <trkpt lat="43.16857" lon="2.42092">
        <ele>216.791748</ele>
        <time>2013-06-23T10:08:09Z</time>
      </trkpt>
      <trkpt lat="43.16861" lon="2.42089">
        <ele>216.308838</ele>
        <time>2013-06-23T10:08:11Z</time>
      </trkpt>
      <trkpt lat="43.16867" lon="2.42086">
        <ele>215.602448</ele>
        <time>2013-06-23T10:08:14Z</time>
      </trkpt>
      <trkpt lat="43.16872" lon="2.42089">
        <ele>214.826355</ele>
        <time>2013-06-23T10:08:16Z</time>
      </trkpt>
      <trkpt lat="43.16878" lon="2.42092">
        <ele>214.086853</ele>
        <time>2013-06-23T10:08:19Z</time>
      </trkpt>
      <trkpt lat="43.16883" lon="2.42091">
        <ele>213.46994</ele>
        <time>2013-06-23T10:08:20Z</time>
      </trkpt>
      <trkpt lat="43.16887" lon="2.42088">
        <ele>212.942871</ele>
        <time>2013-06-23T10:08:22Z</time>
      </trkpt>
      <trkpt lat="43.16894" lon="2.42086">
        <ele>212.008301</ele>
        <time>2013-06-23T10:08:25Z</time>
      </trkpt>
      <trkpt lat="43.16899" lon="2.42086">
        <ele>211.370178</ele>
        <time>2013-06-23T10:08:26Z</time>
      </trkpt>
      <trkpt lat="43.16904" lon="2.42087">
        <ele>210.797363</ele>
        <time>2013-06-23T10:08:27Z</time>
      </trkpt>
      <trkpt lat="43.1691" lon="2.42089">
        <ele>210.098236</ele>
        <time>2013-06-23T10:08:30Z</time>
      </trkpt>
      <trkpt lat="43.16905" lon="2.42088">
        <ele>210.622375</ele>
        <time>2013-06-23T10:08:45Z</time>
      </trkpt>
      <trkpt lat="43.1691" lon="2.42092">
        <ele>210.12912</ele>
        <time>2013-06-23T10:09:04Z</time>
      </trkpt>
      <trkpt lat="43.16916" lon="2.42092">
        <ele>209.388702</ele>
        <time>2013-06-23T10:09:06Z</time>
      </trkpt>
      <trkpt lat="43.16921" lon="2.42086">
        <ele>208.605286</ele>
        <time>2013-06-23T10:09:08Z</time>
      </trkpt>
      <trkpt lat="43.16926" lon="2.42083">
        <ele>207.859192</ele>
        <time>2013-06-23T10:09:10Z</time>
      </trkpt>
      <trkpt lat="43.16933" lon="2.42083">
        <ele>206.995209</ele>
        <time>2013-06-23T10:09:13Z</time>
      </trkpt>
      <trkpt lat="43.16938" lon="2.42081">
        <ele>206.388458</ele>
        <time>2013-06-23T10:09:15Z</time>
      </trkpt>
      <trkpt lat="43.16944" lon="2.42079">
        <ele>205.57254</ele>
        <time>2013-06-23T10:09:32Z</time>
      </trkpt>
      <trkpt lat="43.16952" lon="2.42079">
        <ele>204.51825</ele>
        <time>2013-06-23T10:09:35Z</time>
      </trkpt>
      <trkpt lat="43.16957" lon="2.4208">
        <ele>203.947021</ele>
        <time>2013-06-23T10:09:35Z</time>
      </trkpt>
      <trkpt lat="43.16965" lon="2.4208">
        <ele>203.066132</ele>
        <time>2013-06-23T10:09:37Z</time>
      </trkpt>
      <trkpt lat="43.16972" lon="2.42081">
        <ele>202.227905</ele>
        <time>2013-06-23T10:09:39Z</time>
      </trkpt>
      <trkpt lat="43.16977" lon="2.42083">
        <ele>201.678406</ele>
        <time>2013-06-23T10:09:41Z</time>
      </trkpt>
      <trkpt lat="43.16985" lon="2.42086">
        <ele>200.700745</ele>
        <time>2013-06-23T10:09:43Z</time>
      </trkpt>
      <trkpt lat="43.16992" lon="2.42089">
        <ele>199.648926</ele>
        <time>2013-06-23T10:09:46Z</time>
      </trkpt>
      <trkpt lat="43.16997" lon="2.42088">
        <ele>199.038666</ele>
        <time>2013-06-23T10:09:48Z</time>
      </trkpt>
      <trkpt lat="43.17002" lon="2.42085">
        <ele>198.547302</ele>
        <time>2013-06-23T10:09:51Z</time>
      </trkpt>
      <trkpt lat="43.17006" lon="2.42082">
        <ele>197.723846</ele>
        <time>2013-06-23T10:09:53Z</time>
      </trkpt>
      <trkpt lat="43.1701" lon="2.42077">
        <ele>196.454742</ele>
        <time>2013-06-23T10:09:55Z</time>
      </trkpt>
      <trkpt lat="43.17016" lon="2.42072">
        <ele>195.034943</ele>
        <time>2013-06-23T10:09:58Z</time>
      </trkpt>
      <trkpt lat="43.17022" lon="2.42067">
        <ele>193.418457</ele>
        <time>2013-06-23T10:09:59Z</time>
      </trkpt>
      <trkpt lat="43.17029" lon="2.42063">
        <ele>191.927124</ele>
        <time>2013-06-23T10:10:01Z</time>
      </trkpt>
      <trkpt lat="43.17038" lon="2.42062">
        <ele>190.353058</ele>
        <time>2013-06-23T10:10:03Z</time>
      </trkpt>
      <trkpt lat="43.17045" lon="2.42064">
        <ele>189.142609</ele>
        <time>2013-06-23T10:10:05Z</time>
      </trkpt>
      <trkpt lat="43.1705" lon="2.42064">
        <ele>188.210083</ele>
        <time>2013-06-23T10:10:07Z</time>
      </trkpt>
      <trkpt lat="43.17055" lon="2.42059">
        <ele>187.011414</ele>
        <time>2013-06-23T10:10:10Z</time>
      </trkpt>
      <trkpt lat="43.17064" lon="2.42058">
        <ele>185.523438</ele>
        <time>2013-06-23T10:10:11Z</time>
      </trkpt>
      <trkpt lat="43.17072" lon="2.42056">
        <ele>184.006042</ele>
        <time>2013-06-23T10:10:13Z</time>
      </trkpt>
      <trkpt lat="43.17078" lon="2.42052">
        <ele>182.957581</ele>
        <time>2013-06-23T10:10:15Z</time>
      </trkpt>
      <trkpt lat="43.17082" lon="2.42048">
        <ele>182.191345</ele>
        <time>2013-06-23T10:10:17Z</time>
      </trkpt>
      <trkpt lat="43.17087" lon="2.42046">
        <ele>181.417175</ele>
        <time>2013-06-23T10:10:20Z</time>
      </trkpt>
      <trkpt lat="43.17091" lon="2.42042">
        <ele>180.658081</ele>
        <time>2013-06-23T10:10:21Z</time>
      </trkpt>
      <trkpt lat="43.17098" lon="2.42042">
        <ele>179.36261</ele>
        <time>2013-06-23T10:10:24Z</time>
      </trkpt>
      <trkpt lat="43.17102" lon="2.42043">
        <ele>178.483521</ele>
        <time>2013-06-23T10:10:26Z</time>
      </trkpt>
      <trkpt lat="43.17107" lon="2.42047">
        <ele>177.561829</ele>
        <time>2013-06-23T10:10:29Z</time>
      </trkpt>
      <trkpt lat="43.17111" lon="2.42052">
        <ele>176.868835</ele>
        <time>2013-06-23T10:10:31Z</time>
      </trkpt>
      <trkpt lat="43.17114" lon="2.42057">
        <ele>176.220459</ele>
        <time>2013-06-23T10:10:33Z</time>
      </trkpt>
      <trkpt lat="43.17118" lon="2.42063">
        <ele>175.498962</ele>
        <time>2013-06-23T10:10:35Z</time>
      </trkpt>
      <trkpt lat="43.17122" lon="2.42069">
        <ele>174.593018</ele>
        <time>2013-06-23T10:10:38Z</time>
      </trkpt>
      <trkpt lat="43.17127" lon="2.42072">
        <ele>173.686646</ele>
        <time>2013-06-23T10:10:40Z</time>
      </trkpt>
      <trkpt lat="43.17133" lon="2.42073">
        <ele>172.603943</ele>
        <time>2013-06-23T10:10:43Z</time>
      </trkpt>
      <trkpt lat="43.17138" lon="2.4207">
        <ele>171.567078</ele>
        <time>2013-06-23T10:10:44Z</time>
      </trkpt>
      <trkpt lat="43.17144" lon="2.42068">
        <ele>170.484253</ele>
        <time>2013-06-23T10:10:46Z</time>
      </trkpt>
      <trkpt lat="43.17149" lon="2.42068">
        <ele>169.511108</ele>
        <time>2013-06-23T10:10:49Z</time>
      </trkpt>
      <trkpt lat="43.17146" lon="2.42062">
        <ele>170.220215</ele>
        <time>2013-06-23T10:10:56Z</time>
      </trkpt>
      <trkpt lat="43.17146" lon="2.42055">
        <ele>170.293518</ele>
        <time>2013-06-23T10:10:59Z</time>
      </trkpt>
      <trkpt lat="43.17147" lon="2.42062">
        <ele>170.057495</ele>
        <time>2013-06-23T10:11:13Z</time>
      </trkpt>
      <trkpt lat="43.17152" lon="2.4206">
        <ele>169.039368</ele>
        <time>2013-06-23T10:12:22Z</time>
      </trkpt>
      <trkpt lat="43.17157" lon="2.42062">
        <ele>168.005554</ele>
        <time>2013-06-23T10:12:23Z</time>
      </trkpt>
      <trkpt lat="43.17163" lon="2.42065">
        <ele>166.985901</ele>
        <time>2013-06-23T10:12:25Z</time>
      </trkpt>
      <trkpt lat="43.17166" lon="2.4207">
        <ele>166.301453</ele>
        <time>2013-06-23T10:12:33Z</time>
      </trkpt>
      <trkpt lat="43.17171" lon="2.42072">
        <ele>166.018188</ele>
        <time>2013-06-23T10:12:57Z</time>
      </trkpt>
      <trkpt lat="43.17175" lon="2.42077">
        <ele>165.867676</ele>
        <time>2013-06-23T10:13:00Z</time>
      </trkpt>
      <trkpt lat="43.17179" lon="2.42082">
        <ele>165.715759</ele>
        <time>2013-06-23T10:13:02Z</time>
      </trkpt>
      <trkpt lat="43.17183" lon="2.42087">
        <ele>166.017273</ele>
        <time>2013-06-23T10:13:04Z</time>
      </trkpt>
      <trkpt lat="43.17188" lon="2.42092">
        <ele>166.361023</ele>
        <time>2013-06-23T10:13:08Z</time>
      </trkpt>
      <trkpt lat="43.17194" lon="2.42094">
        <ele>166.528564</ele>
        <time>2013-06-23T10:13:11Z</time>
      </trkpt>
      <trkpt lat="43.172" lon="2.42096">
        <ele>166.564758</ele>
        <time>2013-06-23T10:13:13Z</time>
      </trkpt>
      <trkpt lat="43.17206" lon="2.42097">
        <ele>166.611877</ele>
        <time>2013-06-23T10:13:15Z</time>
      </trkpt>
      <trkpt lat="43.17214" lon="2.42096">
        <ele>166.419495</ele>
        <time>2013-06-23T10:13:17Z</time>
      </trkpt>
      <trkpt lat="43.1722" lon="2.42095">
        <ele>166.203857</ele>
        <time>2013-06-23T10:13:19Z</time>
      </trkpt>
      <trkpt lat="43.17225" lon="2.42095">
        <ele>166.100586</ele>
        <time>2013-06-23T10:13:21Z</time>
      </trkpt>
      <trkpt lat="43.17232" lon="2.42093">
        <ele>165.750854</ele>
        <time>2013-06-23T10:13:23Z</time>
      </trkpt>
      <trkpt lat="43.17238" lon="2.42091">
        <ele>165.424927</ele>
        <time>2013-06-23T10:13:25Z</time>
      </trkpt>
      <trkpt lat="43.17246" lon="2.42091">
        <ele>165.251648</ele>
        <time>2013-06-23T10:13:27Z</time>
      </trkpt>
      <trkpt lat="43.17251" lon="2.42091">
        <ele>165.163208</ele>
        <time>2013-06-23T10:13:28Z</time>
      </trkpt>
      <trkpt lat="43.17257" lon="2.42092">
        <ele>164.965759</ele>
        <time>2013-06-23T10:13:29Z</time>
      </trkpt>
      <trkpt lat="43.17262" lon="2.42093">
        <ele>164.661926</ele>
        <time>2013-06-23T10:13:30Z</time>
      </trkpt>
      <trkpt lat="43.17267" lon="2.42092">
        <ele>164.357239</ele>
        <time>2013-06-23T10:13:32Z</time>
      </trkpt>
      <trkpt lat="43.17274" lon="2.42093">
        <ele>163.955933</ele>
        <time>2013-06-23T10:13:33Z</time>
      </trkpt>
      <trkpt lat="43.1728" lon="2.42092">
        <ele>163.494568</ele>
        <time>2013-06-23T10:13:35Z</time>
      </trkpt>
      <trkpt lat="43.17286" lon="2.42092">
        <ele>163.08667</ele>
        <time>2013-06-23T10:13:37Z</time>
      </trkpt>
      <trkpt lat="43.17294" lon="2.42091">
        <ele>162.589111</ele>
        <time>2013-06-23T10:13:39Z</time>
      </trkpt>
      <trkpt lat="43.17299" lon="2.42092">
        <ele>162.302734</ele>
        <time>2013-06-23T10:13:40Z</time>
      </trkpt>
      <trkpt lat="43.17307" lon="2.42094">
        <ele>161.94043</ele>
        <time>2013-06-23T10:13:42Z</time>
      </trkpt>
      <trkpt lat="43.17311" lon="2.42098">
        <ele>161.930054</ele>
        <time>2013-06-23T10:13:44Z</time>
      </trkpt>
      <trkpt lat="43.17316" lon="2.42107">
        <ele>162.077515</ele>
        <time>2013-06-23T10:13:45Z</time>
      </trkpt>
      <trkpt lat="43.1732" lon="2.42117">
        <ele>162.147339</ele>
        <time>2013-06-23T10:13:47Z</time>
      </trkpt>
      <trkpt lat="43.17324" lon="2.42126">
        <ele>162.137451</ele>
        <time>2013-06-23T10:13:49Z</time>
      </trkpt>
      <trkpt lat="43.17327" lon="2.42135">
        <ele>162.027344</ele>
        <time>2013-06-23T10:13:51Z</time>
      </trkpt>
      <trkpt lat="43.1733" lon="2.42145">
        <ele>161.965271</ele>
        <time>2013-06-23T10:13:53Z</time>
      </trkpt>
      <trkpt lat="43.17334" lon="2.42155">
        <ele>161.703125</ele>
        <time>2013-06-23T10:13:56Z</time>
      </trkpt>
      <trkpt lat="43.17336" lon="2.42162">
        <ele>161.738037</ele>
        <time>2013-06-23T10:13:57Z</time>
      </trkpt>
      <trkpt lat="43.17338" lon="2.42168">
        <ele>161.792847</ele>
        <time>2013-06-23T10:13:59Z</time>
      </trkpt>
      <trkpt lat="43.17342" lon="2.42175">
        <ele>161.810181</ele>
        <time>2013-06-23T10:14:01Z</time>
      </trkpt>
      <trkpt lat="43.17345" lon="2.42185">
        <ele>161.955872</ele>
        <time>2013-06-23T10:14:03Z</time>
      </trkpt>
      <trkpt lat="43.17347" lon="2.42192">
        <ele>162.071655</ele>
        <time>2013-06-23T10:14:04Z</time>
      </trkpt>
      <trkpt lat="43.17351" lon="2.42202">
        <ele>162.240417</ele>
        <time>2013-06-23T10:14:07Z</time>
      </trkpt>
      <trkpt lat="43.17355" lon="2.4221">
        <ele>162.242126</ele>
        <time>2013-06-23T10:14:08Z</time>
      </trkpt>
      <trkpt lat="43.1736" lon="2.42217">
        <ele>162.209534</ele>
        <time>2013-06-23T10:14:10Z</time>
      </trkpt>
      <trkpt lat="43.17364" lon="2.42222">
        <ele>162.157776</ele>
        <time>2013-06-23T10:14:12Z</time>
      </trkpt>
      <trkpt lat="43.17368" lon="2.42225">
        <ele>162.021484</ele>
        <time>2013-06-23T10:14:14Z</time>
      </trkpt>
      <trkpt lat="43.17373" lon="2.42226">
        <ele>161.775635</ele>
        <time>2013-06-23T10:14:16Z</time>
      </trkpt>
      <trkpt lat="43.17379" lon="2.42226">
        <ele>161.414612</ele>
        <time>2013-06-23T10:14:18Z</time>
      </trkpt>
      <trkpt lat="43.17384" lon="2.42226">
        <ele>161.093445</ele>
        <time>2013-06-23T10:14:20Z</time>
      </trkpt>
      <trkpt lat="43.17389" lon="2.42224">
        <ele>160.707458</ele>
        <time>2013-06-23T10:14:23Z</time>
      </trkpt>
      <trkpt lat="43.17394" lon="2.42224">
        <ele>160.416077</ele>
        <time>2013-06-23T10:14:28Z</time>
      </trkpt>
      <trkpt lat="43.17398" lon="2.42222">
        <ele>160.08783</ele>
        <time>2013-06-23T10:14:37Z</time>
      </trkpt>
      <trkpt lat="43.17403" lon="2.42223">
        <ele>159.870422</ele>
        <time>2013-06-23T10:15:16Z</time>
      </trkpt>
      <trkpt lat="43.17406" lon="2.42217">
        <ele>159.44104</ele>
        <time>2013-06-23T10:15:20Z</time>
      </trkpt>
      <trkpt lat="43.17411" lon="2.42213">
        <ele>158.992432</ele>
        <time>2013-06-23T10:15:26Z</time>
      </trkpt>
      <trkpt lat="43.17416" lon="2.42209">
        <ele>158.559143</ele>
        <time>2013-06-23T10:15:29Z</time>
      </trkpt>
      <trkpt lat="43.1742" lon="2.42204">
        <ele>158.487793</ele>
        <time>2013-06-23T10:15:32Z</time>
      </trkpt>
      <trkpt lat="43.17425" lon="2.42202">
        <ele>158.554626</ele>
        <time>2013-06-23T10:15:33Z</time>
      </trkpt>
      <trkpt lat="43.17431" lon="2.422">
        <ele>158.680481</ele>
        <time>2013-06-23T10:15:35Z</time>
      </trkpt>
      <trkpt lat="43.17436" lon="2.42196">
        <ele>158.606445</ele>
        <time>2013-06-23T10:15:37Z</time>
      </trkpt>
      <trkpt lat="43.17441" lon="2.42193">
        <ele>158.579773</ele>
        <time>2013-06-23T10:15:39Z</time>
      </trkpt>
      <trkpt lat="43.17445" lon="2.42189">
        <ele>158.416016</ele>
        <time>2013-06-23T10:15:41Z</time>
      </trkpt>
      <trkpt lat="43.17449" lon="2.42186">
        <ele>158.299194</ele>
        <time>2013-06-23T10:15:43Z</time>
      </trkpt>
      <trkpt lat="43.17453" lon="2.42183">
        <ele>158.185547</ele>
        <time>2013-06-23T10:15:45Z</time>
      </trkpt>
      <trkpt lat="43.17458" lon="2.42178">
        <ele>157.835938</ele>
        <time>2013-06-23T10:15:47Z</time>
      </trkpt>
      <trkpt lat="43.17462" lon="2.42172">
        <ele>157.401733</ele>
        <time>2013-06-23T10:15:49Z</time>
      </trkpt>
      <trkpt lat="43.17466" lon="2.42168">
        <ele>157.080627</ele>
        <time>2013-06-23T10:15:51Z</time>
      </trkpt>
      <trkpt lat="43.17469" lon="2.42162">
        <ele>157.222107</ele>
        <time>2013-06-23T10:16:02Z</time>
      </trkpt>
      <trkpt lat="43.17469" lon="2.42155">
        <ele>157.562195</ele>
        <time>2013-06-23T10:16:06Z</time>
      </trkpt>
      <trkpt lat="43.1747" lon="2.42146">
        <ele>157.953857</ele>
        <time>2013-06-23T10:16:07Z</time>
      </trkpt>
      <trkpt lat="43.17467" lon="2.42141">
        <ele>158.164246</ele>
        <time>2013-06-23T10:16:15Z</time>
      </trkpt>
      <trkpt lat="43.17467" lon="2.42135">
        <ele>158.46637</ele>
        <time>2013-06-23T10:16:26Z</time>
      </trkpt>
      <trkpt lat="43.17471" lon="2.42131">
        <ele>158.712769</ele>
        <time>2013-06-23T10:16:40Z</time>
      </trkpt>
      <trkpt lat="43.17476" lon="2.42128">
        <ele>158.890808</ele>
        <time>2013-06-23T10:17:25Z</time>
      </trkpt>
      <trkpt lat="43.17472" lon="2.42122">
        <ele>159.167114</ele>
        <time>2013-06-23T10:21:39Z</time>
      </trkpt>
      <trkpt lat="43.17471" lon="2.42113">
        <ele>159.528198</ele>
        <time>2013-06-23T10:21:41Z</time>
      </trkpt>
      <trkpt lat="43.17469" lon="2.42105">
        <ele>159.860352</ele>
        <time>2013-06-23T10:21:43Z</time>
      </trkpt>
      <trkpt lat="43.17468" lon="2.42099">
        <ele>160.138672</ele>
        <time>2013-06-23T10:21:45Z</time>
      </trkpt>
      <trkpt lat="43.17465" lon="2.42092">
        <ele>160.360046</ele>
        <time>2013-06-23T10:21:48Z</time>
      </trkpt>
      <trkpt lat="43.17463" lon="2.42086">
        <ele>160.540405</ele>
        <time>2013-06-23T10:21:49Z</time>
      </trkpt>
      <trkpt lat="43.1746" lon="2.4208">
        <ele>160.810303</ele>
        <time>2013-06-23T10:21:51Z</time>
      </trkpt>
      <trkpt lat="43.17458" lon="2.42074">
        <ele>161.315857</ele>
        <time>2013-06-23T10:21:53Z</time>
      </trkpt>
      <trkpt lat="43.17457" lon="2.42067">
        <ele>161.827515</ele>
        <time>2013-06-23T10:21:55Z</time>
      </trkpt>
      <trkpt lat="43.17457" lon="2.42058">
        <ele>162.551941</ele>
        <time>2013-06-23T10:21:58Z</time>
      </trkpt>
      <trkpt lat="43.17458" lon="2.4205">
        <ele>163.246155</ele>
        <time>2013-06-23T10:22:02Z</time>
      </trkpt>
      <trkpt lat="43.17462" lon="2.42043">
        <ele>164.01001</ele>
        <time>2013-06-23T10:22:04Z</time>
      </trkpt>
      <trkpt lat="43.17466" lon="2.42039">
        <ele>164.467285</ele>
        <time>2013-06-23T10:22:07Z</time>
      </trkpt>
      <trkpt lat="43.17468" lon="2.42047">
        <ele>163.86676</ele>
        <time>2013-06-23T10:22:11Z</time>
      </trkpt>
      <trkpt lat="43.17469" lon="2.42055">
        <ele>163.291687</ele>
        <time>2013-06-23T10:22:13Z</time>
      </trkpt>
      <trkpt lat="43.17472" lon="2.42062">
        <ele>162.739502</ele>
        <time>2013-06-23T10:22:15Z</time>
      </trkpt>
      <trkpt lat="43.17477" lon="2.4207">
        <ele>162.311584</ele>
        <time>2013-06-23T10:22:17Z</time>
      </trkpt>
      <trkpt lat="43.17482" lon="2.42073">
        <ele>162.207336</ele>
        <time>2013-06-23T10:22:19Z</time>
      </trkpt>
      <trkpt lat="43.17489" lon="2.42069">
        <ele>162.759155</ele>
        <time>2013-06-23T10:22:22Z</time>
      </trkpt>
      <trkpt lat="43.17493" lon="2.42065">
        <ele>163.278076</ele>
        <time>2013-06-23T10:22:24Z</time>
      </trkpt>
      <trkpt lat="43.17498" lon="2.42061">
        <ele>163.825439</ele>
        <time>2013-06-23T10:22:26Z</time>
      </trkpt>
      <trkpt lat="43.17504" lon="2.42056">
        <ele>163.96759</ele>
        <time>2013-06-23T10:22:28Z</time>
      </trkpt>
      <trkpt lat="43.17509" lon="2.42051">
        <ele>164.014587</ele>
        <time>2013-06-23T10:22:30Z</time>
      </trkpt>
      <trkpt lat="43.17512" lon="2.42046">
        <ele>164.07666</ele>
        <time>2013-06-23T10:22:32Z</time>
      </trkpt>
      <trkpt lat="43.17518" lon="2.42042">
        <ele>163.995117</ele>
        <time>2013-06-23T10:22:35Z</time>
      </trkpt>
      <trkpt lat="43.17523" lon="2.42037">
        <ele>163.951111</ele>
        <time>2013-06-23T10:22:37Z</time>
      </trkpt>
      <trkpt lat="43.17528" lon="2.42032">
        <ele>163.921326</ele>
        <time>2013-06-23T10:22:39Z</time>
      </trkpt>
      <trkpt lat="43.17532" lon="2.42028">
        <ele>163.9729</ele>
        <time>2013-06-23T10:22:41Z</time>
      </trkpt>
      <trkpt lat="43.17537" lon="2.42025">
        <ele>163.835632</ele>
        <time>2013-06-23T10:22:43Z</time>
      </trkpt>
      <trkpt lat="43.17541" lon="2.42022">
        <ele>163.784546</ele>
        <time>2013-06-23T10:22:45Z</time>
      </trkpt>
      <trkpt lat="43.17545" lon="2.42017">
        <ele>163.851074</ele>
        <time>2013-06-23T10:22:48Z</time>
      </trkpt>
      <trkpt lat="43.17548" lon="2.42012">
        <ele>163.916382</ele>
        <time>2013-06-23T10:22:52Z</time>
      </trkpt>
      <trkpt lat="43.17551" lon="2.42008">
        <ele>164.066162</ele>
        <time>2013-06-23T10:23:02Z</time>
      </trkpt>
      <trkpt lat="43.17555" lon="2.42004">
        <ele>163.993408</ele>
        <time>2013-06-23T10:23:15Z</time>
      </trkpt>
      <trkpt lat="43.1756" lon="2.42003">
        <ele>163.698059</ele>
        <time>2013-06-23T10:23:22Z</time>
      </trkpt>
      <trkpt lat="43.17565" lon="2.42002">
        <ele>163.449341</ele>
        <time>2013-06-23T10:23:35Z</time>
      </trkpt>
      <trkpt lat="43.1757" lon="2.42001">
        <ele>163.084839</ele>
        <time>2013-06-23T10:23:52Z</time>
      </trkpt>
      <trkpt lat="43.17571" lon="2.41994">
        <ele>163.614075</ele>
        <time>2013-06-23T10:25:43Z</time>
      </trkpt>
      <trkpt lat="43.17565" lon="2.41992">
        <ele>164.28363</ele>
        <time>2013-06-23T10:29:04Z</time>
      </trkpt>
      <trkpt lat="43.17565" lon="2.42">
        <ele>163.5177</ele>
        <time>2013-06-23T10:29:17Z</time>
      </trkpt>
      <trkpt lat="43.17566" lon="2.41993">
        <ele>164.148193</ele>
        <time>2013-06-23T10:29:36Z</time>
      </trkpt>
      <trkpt lat="43.17567" lon="2.42">
        <ele>163.406616</ele>
        <time>2013-06-23T10:30:12Z</time>
      </trkpt>
      <trkpt lat="43.17567" lon="2.41993">
        <ele>164.001404</ele>
        <time>2013-06-23T10:31:17Z</time>
      </trkpt>
      <trkpt lat="43.17565" lon="2.41999">
        <ele>163.619385</ele>
        <time>2013-06-23T10:32:02Z</time>
      </trkpt>
      <trkpt lat="43.17568" lon="2.41991">
        <ele>164.122681</ele>
        <time>2013-06-23T10:33:46Z</time>
      </trkpt>
      <trkpt lat="43.17564" lon="2.41996">
        <ele>164.000427</ele>
        <time>2013-06-23T10:34:20Z</time>
      </trkpt>
      <trkpt lat="43.17559" lon="2.42">
        <ele>164.051147</ele>
        <time>2013-06-23T10:34:50Z</time>
      </trkpt>
      <trkpt lat="43.17555" lon="2.42005">
        <ele>163.969849</ele>
        <time>2013-06-23T10:34:54Z</time>
      </trkpt>
      <trkpt lat="43.17559" lon="2.42">
        <ele>164.023315</ele>
        <time>2013-06-23T10:35:16Z</time>
      </trkpt>
      <trkpt lat="43.17561" lon="2.41992">
        <ele>164.588196</ele>
        <time>2013-06-23T10:35:29Z</time>
      </trkpt>
      <trkpt lat="43.17563" lon="2.41998">
        <ele>163.926208</ele>
        <time>2013-06-23T10:35:44Z</time>
      </trkpt>
      <trkpt lat="43.17562" lon="2.42006">
        <ele>163.313354</ele>
        <time>2013-06-23T10:35:46Z</time>
      </trkpt>
      <trkpt lat="43.17559" lon="2.42014">
        <ele>162.855957</ele>
        <time>2013-06-23T10:35:48Z</time>
      </trkpt>
      <trkpt lat="43.17555" lon="2.42026">
        <ele>162.199158</ele>
        <time>2013-06-23T10:35:50Z</time>
      </trkpt>
      <trkpt lat="43.17554" lon="2.42038">
        <ele>161.303223</ele>
        <time>2013-06-23T10:35:54Z</time>
      </trkpt>
      <trkpt lat="43.17552" lon="2.42044">
        <ele>160.945251</ele>
        <time>2013-06-23T10:35:54Z</time>
      </trkpt>
      <trkpt lat="43.1755" lon="2.42051">
        <ele>160.566284</ele>
        <time>2013-06-23T10:35:54Z</time>
      </trkpt>
      <trkpt lat="43.17555" lon="2.42049">
        <ele>160.266602</ele>
        <time>2013-06-23T10:36:01Z</time>
      </trkpt>
      <trkpt lat="43.17559" lon="2.42046">
        <ele>160.205505</ele>
        <time>2013-06-23T10:36:02Z</time>
      </trkpt>
      <trkpt lat="43.17564" lon="2.42042">
        <ele>160.165283</ele>
        <time>2013-06-23T10:36:04Z</time>
      </trkpt>
      <trkpt lat="43.17569" lon="2.42037">
        <ele>160.055298</ele>
        <time>2013-06-23T10:36:04Z</time>
      </trkpt>
      <trkpt lat="43.17576" lon="2.42033">
        <ele>159.851746</ele>
        <time>2013-06-23T10:36:06Z</time>
      </trkpt>
      <trkpt lat="43.17581" lon="2.4203">
        <ele>159.717407</ele>
        <time>2013-06-23T10:36:06Z</time>
      </trkpt>
      <trkpt lat="43.17587" lon="2.42028">
        <ele>159.386108</ele>
        <time>2013-06-23T10:36:08Z</time>
      </trkpt>
      <trkpt lat="43.17592" lon="2.42027">
        <ele>159.069458</ele>
        <time>2013-06-23T10:36:08Z</time>
      </trkpt>
      <trkpt lat="43.17596" lon="2.42027">
        <ele>158.70459</ele>
        <time>2013-06-23T10:36:09Z</time>
      </trkpt>
      <trkpt lat="43.17603" lon="2.4203">
        <ele>158.002686</ele>
        <time>2013-06-23T10:36:12Z</time>
      </trkpt>
      <trkpt lat="43.1761" lon="2.42035">
        <ele>157.181213</ele>
        <time>2013-06-23T10:36:16Z</time>
      </trkpt>
      <trkpt lat="43.17614" lon="2.4204">
        <ele>156.759399</ele>
        <time>2013-06-23T10:36:17Z</time>
      </trkpt>
      <trkpt lat="43.17622" lon="2.42047">
        <ele>156.036987</ele>
        <time>2013-06-23T10:36:25Z</time>
      </trkpt>
      <trkpt lat="43.17624" lon="2.42041">
        <ele>156.064514</ele>
        <time>2013-06-23T10:36:31Z</time>
      </trkpt>
      <trkpt lat="43.17625" lon="2.42031">
        <ele>156.244995</ele>
        <time>2013-06-23T10:36:34Z</time>
      </trkpt>
      <trkpt lat="43.17628" lon="2.42022">
        <ele>156.227661</ele>
        <time>2013-06-23T10:36:36Z</time>
      </trkpt>
      <trkpt lat="43.1763" lon="2.42015">
        <ele>156.201843</ele>
        <time>2013-06-23T10:36:38Z</time>
      </trkpt>
      <trkpt lat="43.17632" lon="2.42006">
        <ele>156.095093</ele>
        <time>2013-06-23T10:36:40Z</time>
      </trkpt>
      <trkpt lat="43.17634" lon="2.41999">
        <ele>155.921631</ele>
        <time>2013-06-23T10:36:42Z</time>
      </trkpt>
      <trkpt lat="43.17636" lon="2.41991">
        <ele>156.211182</ele>
        <time>2013-06-23T10:36:44Z</time>
      </trkpt>
      <trkpt lat="43.17641" lon="2.41982">
        <ele>156.10614</ele>
        <time>2013-06-23T10:36:46Z</time>
      </trkpt>
      <trkpt lat="43.17649" lon="2.41979">
        <ele>155.171997</ele>
        <time>2013-06-23T10:36:48Z</time>
      </trkpt>
      <trkpt lat="43.17654" lon="2.41975">
        <ele>154.740662</ele>
        <time>2013-06-23T10:36:50Z</time>
      </trkpt>
      <trkpt lat="43.17658" lon="2.41972">
        <ele>154.260193</ele>
        <time>2013-06-23T10:36:51Z</time>
      </trkpt>
      <trkpt lat="43.17665" lon="2.41966">
        <ele>153.468872</ele>
        <time>2013-06-23T10:36:52Z</time>
      </trkpt>
      <trkpt lat="43.1767" lon="2.4196">
        <ele>153.469299</ele>
        <time>2013-06-23T10:36:55Z</time>
      </trkpt>
      <trkpt lat="43.17672" lon="2.41954">
        <ele>153.651184</ele>
        <time>2013-06-23T10:36:56Z</time>
      </trkpt>
      <trkpt lat="43.17673" lon="2.41948">
        <ele>153.821594</ele>
        <time>2013-06-23T10:36:58Z</time>
      </trkpt>
      <trkpt lat="43.17674" lon="2.4194">
        <ele>154.027588</ele>
        <time>2013-06-23T10:37:01Z</time>
      </trkpt>
      <trkpt lat="43.17674" lon="2.41933">
        <ele>154.22406</ele>
        <time>2013-06-23T10:37:02Z</time>
      </trkpt>
      <trkpt lat="43.17674" lon="2.41926">
        <ele>154.420288</ele>
        <time>2013-06-23T10:37:04Z</time>
      </trkpt>
      <trkpt lat="43.17674" lon="2.41919">
        <ele>154.591003</ele>
        <time>2013-06-23T10:37:06Z</time>
      </trkpt>
      <trkpt lat="43.17674" lon="2.41908">
        <ele>155.213745</ele>
        <time>2013-06-23T10:37:10Z</time>
      </trkpt>
      <trkpt lat="43.17677" lon="2.41899">
        <ele>155.602051</ele>
        <time>2013-06-23T10:37:11Z</time>
      </trkpt>
      <trkpt lat="43.17681" lon="2.41893">
        <ele>155.717285</ele>
        <time>2013-06-23T10:37:14Z</time>
      </trkpt>
      <trkpt lat="43.17684" lon="2.41884">
        <ele>155.914734</ele>
        <time>2013-06-23T10:37:15Z</time>
      </trkpt>
      <trkpt lat="43.17687" lon="2.41878">
        <ele>156.001709</ele>
        <time>2013-06-23T10:37:18Z</time>
      </trkpt>
      <trkpt lat="43.1769" lon="2.41873">
        <ele>156.019653</ele>
        <time>2013-06-23T10:37:18Z</time>
      </trkpt>
      <trkpt lat="43.17693" lon="2.41867">
        <ele>155.997559</ele>
        <time>2013-06-23T10:37:19Z</time>
      </trkpt>
      <trkpt lat="43.17696" lon="2.41862">
        <ele>155.926025</ele>
        <time>2013-06-23T10:37:20Z</time>
      </trkpt>
      <trkpt lat="43.17699" lon="2.41856">
        <ele>155.789062</ele>
        <time>2013-06-23T10:37:22Z</time>
      </trkpt>
      <trkpt lat="43.17703" lon="2.41851">
        <ele>155.616333</ele>
        <time>2013-06-23T10:37:23Z</time>
      </trkpt>
      <trkpt lat="43.17706" lon="2.41845">
        <ele>155.450439</ele>
        <time>2013-06-23T10:37:24Z</time>
      </trkpt>
      <trkpt lat="43.1771" lon="2.41837">
        <ele>155.16571</ele>
        <time>2013-06-23T10:37:26Z</time>
      </trkpt>
      <trkpt lat="43.17717" lon="2.4183">
        <ele>154.631775</ele>
        <time>2013-06-23T10:37:27Z</time>
      </trkpt>
      <trkpt lat="43.17724" lon="2.41823">
        <ele>154.470703</ele>
        <time>2013-06-23T10:37:30Z</time>
      </trkpt>
      <trkpt lat="43.17727" lon="2.41819">
        <ele>154.265991</ele>
        <time>2013-06-23T10:37:30Z</time>
      </trkpt>
      <trkpt lat="43.17736" lon="2.41814">
        <ele>153.536499</ele>
        <time>2013-06-23T10:37:32Z</time>
      </trkpt>
      <trkpt lat="43.1774" lon="2.41812">
        <ele>153.109314</ele>
        <time>2013-06-23T10:37:34Z</time>
      </trkpt>
      <trkpt lat="43.17748" lon="2.4181">
        <ele>152.30127</ele>
        <time>2013-06-23T10:37:36Z</time>
      </trkpt>
      <trkpt lat="43.17756" lon="2.41807">
        <ele>152.005493</ele>
        <time>2013-06-23T10:37:38Z</time>
      </trkpt>
      <trkpt lat="43.1776" lon="2.41805">
        <ele>151.999634</ele>
        <time>2013-06-23T10:37:38Z</time>
      </trkpt>
      <trkpt lat="43.17769" lon="2.41802">
        <ele>151.906433</ele>
        <time>2013-06-23T10:37:40Z</time>
      </trkpt>
      <trkpt lat="43.17776" lon="2.41799">
        <ele>151.850525</ele>
        <time>2013-06-23T10:37:42Z</time>
      </trkpt>
      <trkpt lat="43.17782" lon="2.41797">
        <ele>151.778442</ele>
        <time>2013-06-23T10:37:45Z</time>
      </trkpt>
      <trkpt lat="43.17787" lon="2.41793">
        <ele>151.849854</ele>
        <time>2013-06-23T10:37:46Z</time>
      </trkpt>
      <trkpt lat="43.17794" lon="2.4179">
        <ele>151.727295</ele>
        <time>2013-06-23T10:37:49Z</time>
      </trkpt>
      <trkpt lat="43.17802" lon="2.41788">
        <ele>151.543945</ele>
        <time>2013-06-23T10:37:51Z</time>
      </trkpt>
      <trkpt lat="43.1781" lon="2.41787">
        <ele>151.245239</ele>
        <time>2013-06-23T10:37:53Z</time>
      </trkpt>
      <trkpt lat="43.17817" lon="2.41787">
        <ele>150.93457</ele>
        <time>2013-06-23T10:37:55Z</time>
      </trkpt>
      <trkpt lat="43.17823" lon="2.41793">
        <ele>150.36554</ele>
        <time>2013-06-23T10:37:58Z</time>
      </trkpt>
      <trkpt lat="43.17828" lon="2.41802">
        <ele>149.705872</ele>
        <time>2013-06-23T10:37:59Z</time>
      </trkpt>
      <trkpt lat="43.17833" lon="2.4181">
        <ele>149.12616</ele>
        <time>2013-06-23T10:38:01Z</time>
      </trkpt>
      <trkpt lat="43.17838" lon="2.41819">
        <ele>148.66333</ele>
        <time>2013-06-23T10:38:03Z</time>
      </trkpt>
      <trkpt lat="43.17842" lon="2.41828">
        <ele>148.242859</ele>
        <time>2013-06-23T10:38:05Z</time>
      </trkpt>
      <trkpt lat="43.17846" lon="2.41837">
        <ele>148.213684</ele>
        <time>2013-06-23T10:38:07Z</time>
      </trkpt>
      <trkpt lat="43.17851" lon="2.41846">
        <ele>148.798584</ele>
        <time>2013-06-23T10:38:09Z</time>
      </trkpt>
      <trkpt lat="43.17856" lon="2.41854">
        <ele>149.483093</ele>
        <time>2013-06-23T10:38:11Z</time>
      </trkpt>
      <trkpt lat="43.17861" lon="2.41862">
        <ele>150.149963</ele>
        <time>2013-06-23T10:38:13Z</time>
      </trkpt>
      <trkpt lat="43.17868" lon="2.41865">
        <ele>150.601135</ele>
        <time>2013-06-23T10:38:15Z</time>
      </trkpt>
      <trkpt lat="43.17873" lon="2.41867">
        <ele>150.962646</ele>
        <time>2013-06-23T10:38:17Z</time>
      </trkpt>
      <trkpt lat="43.17879" lon="2.41868">
        <ele>151.263489</ele>
        <time>2013-06-23T10:38:20Z</time>
      </trkpt>
      <trkpt lat="43.17885" lon="2.41869">
        <ele>151.558655</ele>
        <time>2013-06-23T10:38:21Z</time>
      </trkpt>
      <trkpt lat="43.1789" lon="2.41869">
        <ele>151.696777</ele>
        <time>2013-06-23T10:38:23Z</time>
      </trkpt>
      <trkpt lat="43.17895" lon="2.41868">
        <ele>151.80365</ele>
        <time>2013-06-23T10:38:25Z</time>
      </trkpt>
      <trkpt lat="43.179" lon="2.41868">
        <ele>151.926697</ele>
        <time>2013-06-23T10:38:27Z</time>
      </trkpt>
      <trkpt lat="43.17906" lon="2.41867">
        <ele>152.032593</ele>
        <time>2013-06-23T10:38:31Z</time>
      </trkpt>
      <trkpt lat="43.17911" lon="2.41865">
        <ele>151.999634</ele>
        <time>2013-06-23T10:38:33Z</time>
      </trkpt>
      <trkpt lat="43.17917" lon="2.41862">
        <ele>151.793274</ele>
        <time>2013-06-23T10:38:36Z</time>
      </trkpt>
      <trkpt lat="43.17922" lon="2.4186">
        <ele>151.743652</ele>
        <time>2013-06-23T10:38:39Z</time>
      </trkpt>
      <trkpt lat="43.17928" lon="2.41856">
        <ele>151.552979</ele>
        <time>2013-06-23T10:38:41Z</time>
      </trkpt>
      <trkpt lat="43.17932" lon="2.41853">
        <ele>151.299744</ele>
        <time>2013-06-23T10:38:43Z</time>
      </trkpt>
      <trkpt lat="43.17939" lon="2.41847">
        <ele>150.743286</ele>
        <time>2013-06-23T10:38:45Z</time>
      </trkpt>
      <trkpt lat="43.17944" lon="2.41843">
        <ele>150.363342</ele>
        <time>2013-06-23T10:38:47Z</time>
      </trkpt>
      <trkpt lat="43.17949" lon="2.41839">
        <ele>150.013855</ele>
        <time>2013-06-23T10:38:47Z</time>
      </trkpt>
      <trkpt lat="43.17955" lon="2.41835">
        <ele>149.65387</ele>
        <time>2013-06-23T10:38:48Z</time>
      </trkpt>
      <trkpt lat="43.1796" lon="2.41831">
        <ele>149.491882</ele>
        <time>2013-06-23T10:38:49Z</time>
      </trkpt>
      <trkpt lat="43.17966" lon="2.41827">
        <ele>149.516541</ele>
        <time>2013-06-23T10:38:51Z</time>
      </trkpt>
      <trkpt lat="43.17972" lon="2.41824">
        <ele>149.522949</ele>
        <time>2013-06-23T10:38:51Z</time>
      </trkpt>
      <trkpt lat="43.17977" lon="2.4182">
        <ele>149.477234</ele>
        <time>2013-06-23T10:38:52Z</time>
      </trkpt>
      <trkpt lat="43.17982" lon="2.41816">
        <ele>149.39502</ele>
        <time>2013-06-23T10:38:54Z</time>
      </trkpt>
      <trkpt lat="43.17987" lon="2.41812">
        <ele>149.265015</ele>
        <time>2013-06-23T10:38:55Z</time>
      </trkpt>
      <trkpt lat="43.17992" lon="2.41808">
        <ele>149.071594</ele>
        <time>2013-06-23T10:38:55Z</time>
      </trkpt>
      <trkpt lat="43.17997" lon="2.41803">
        <ele>148.807556</ele>
        <time>2013-06-23T10:38:56Z</time>
      </trkpt>
      <trkpt lat="43.18002" lon="2.41799">
        <ele>148.561035</ele>
        <time>2013-06-23T10:38:57Z</time>
      </trkpt>
      <trkpt lat="43.18007" lon="2.41793">
        <ele>148.293579</ele>
        <time>2013-06-23T10:38:59Z</time>
      </trkpt>
      <trkpt lat="43.18012" lon="2.41787">
        <ele>148.025269</ele>
        <time>2013-06-23T10:38:59Z</time>
      </trkpt>
      <trkpt lat="43.18017" lon="2.41782">
        <ele>147.767639</ele>
        <time>2013-06-23T10:39:00Z</time>
      </trkpt>
      <trkpt lat="43.18022" lon="2.41777">
        <ele>147.473267</ele>
        <time>2013-06-23T10:39:01Z</time>
      </trkpt>
      <trkpt lat="43.18026" lon="2.41772">
        <ele>147.108704</ele>
        <time>2013-06-23T10:39:03Z</time>
      </trkpt>
      <trkpt lat="43.18029" lon="2.41765">
        <ele>146.619324</ele>
        <time>2013-06-23T10:39:03Z</time>
      </trkpt>
      <trkpt lat="43.18032" lon="2.4176">
        <ele>146.207458</ele>
        <time>2013-06-23T10:39:05Z</time>
      </trkpt>
      <trkpt lat="43.18035" lon="2.41754">
        <ele>145.7677</ele>
        <time>2013-06-23T10:39:05Z</time>
      </trkpt>
      <trkpt lat="43.1804" lon="2.41746">
        <ele>145.386353</ele>
        <time>2013-06-23T10:39:07Z</time>
      </trkpt>
      <trkpt lat="43.18048" lon="2.41739">
        <ele>145.279419</ele>
        <time>2013-06-23T10:39:09Z</time>
      </trkpt>
      <trkpt lat="43.18052" lon="2.41736">
        <ele>145.216858</ele>
        <time>2013-06-23T10:39:11Z</time>
      </trkpt>
      <trkpt lat="43.1806" lon="2.41734">
        <ele>145.179688</ele>
        <time>2013-06-23T10:39:12Z</time>
      </trkpt>
      <trkpt lat="43.18067" lon="2.41734">
        <ele>145.184692</ele>
        <time>2013-06-23T10:39:16Z</time>
      </trkpt>
      <trkpt lat="43.18073" lon="2.41736">
        <ele>145.299316</ele>
        <time>2013-06-23T10:39:16Z</time>
      </trkpt>
      <trkpt lat="43.18078" lon="2.41739">
        <ele>145.445923</ele>
        <time>2013-06-23T10:39:19Z</time>
      </trkpt>
      <trkpt lat="43.18083" lon="2.41743">
        <ele>145.649353</ele>
        <time>2013-06-23T10:39:20Z</time>
      </trkpt>
      <trkpt lat="43.18087" lon="2.41745">
        <ele>145.615662</ele>
        <time>2013-06-23T10:39:23Z</time>
      </trkpt>
      <trkpt lat="43.18091" lon="2.41749">
        <ele>145.655029</ele>
        <time>2013-06-23T10:39:24Z</time>
      </trkpt>
      <trkpt lat="43.18095" lon="2.41754">
        <ele>145.991638</ele>
        <time>2013-06-23T10:39:27Z</time>
      </trkpt>
      <trkpt lat="43.181" lon="2.4176">
        <ele>146.361328</ele>
        <time>2013-06-23T10:39:29Z</time>
      </trkpt>
      <trkpt lat="43.18104" lon="2.41764">
        <ele>146.528687</ele>
        <time>2013-06-23T10:39:31Z</time>
      </trkpt>
      <trkpt lat="43.18108" lon="2.41767">
        <ele>146.607971</ele>
        <time>2013-06-23T10:39:33Z</time>
      </trkpt>
      <trkpt lat="43.18114" lon="2.41771">
        <ele>146.646484</ele>
        <time>2013-06-23T10:39:36Z</time>
      </trkpt>
      <trkpt lat="43.18118" lon="2.41774">
        <ele>146.661987</ele>
        <time>2013-06-23T10:39:39Z</time>
      </trkpt>
      <trkpt lat="43.18124" lon="2.41776">
        <ele>146.435303</ele>
        <time>2013-06-23T10:39:41Z</time>
      </trkpt>
      <trkpt lat="43.18129" lon="2.41779">
        <ele>146.393372</ele>
        <time>2013-06-23T10:39:43Z</time>
      </trkpt>
      <trkpt lat="43.18134" lon="2.41784">
        <ele>146.406006</ele>
        <time>2013-06-23T10:39:45Z</time>
      </trkpt>
      <trkpt lat="43.1814" lon="2.41792">
        <ele>146.435791</ele>
        <time>2013-06-23T10:39:47Z</time>
      </trkpt>
      <trkpt lat="43.18144" lon="2.41796">
        <ele>146.418152</ele>
        <time>2013-06-23T10:39:48Z</time>
      </trkpt>
      <trkpt lat="43.18147" lon="2.41803">
        <ele>146.507446</ele>
        <time>2013-06-23T10:39:50Z</time>
      </trkpt>
      <trkpt lat="43.18152" lon="2.41811">
        <ele>146.555298</ele>
        <time>2013-06-23T10:39:52Z</time>
      </trkpt>
      <trkpt lat="43.18155" lon="2.41819">
        <ele>146.584351</ele>
        <time>2013-06-23T10:39:52Z</time>
      </trkpt>
      <trkpt lat="43.18158" lon="2.41829">
        <ele>146.728577</ele>
        <time>2013-06-23T10:39:52Z</time>
      </trkpt>
      <trkpt lat="43.1816" lon="2.41837">
        <ele>146.776306</ele>
        <time>2013-06-23T10:39:53Z</time>
      </trkpt>
      <trkpt lat="43.1816" lon="2.41846">
        <ele>146.924988</ele>
        <time>2013-06-23T10:39:55Z</time>
      </trkpt>
      <trkpt lat="43.1816" lon="2.41856">
        <ele>147.120056</ele>
        <time>2013-06-23T10:39:55Z</time>
      </trkpt>
      <trkpt lat="43.18159" lon="2.41864">
        <ele>147.332825</ele>
        <time>2013-06-23T10:39:56Z</time>
      </trkpt>
      <trkpt lat="43.18157" lon="2.41871">
        <ele>147.708801</ele>
        <time>2013-06-23T10:39:57Z</time>
      </trkpt>
      <trkpt lat="43.18156" lon="2.41879">
        <ele>148.103149</ele>
        <time>2013-06-23T10:39:59Z</time>
      </trkpt>
      <trkpt lat="43.18154" lon="2.41886">
        <ele>148.463501</ele>
        <time>2013-06-23T10:40:00Z</time>
      </trkpt>
      <trkpt lat="43.18152" lon="2.41894">
        <ele>148.905029</ele>
        <time>2013-06-23T10:40:01Z</time>
      </trkpt>
      <trkpt lat="43.18151" lon="2.41901">
        <ele>149.360291</ele>
        <time>2013-06-23T10:40:01Z</time>
      </trkpt>
      <trkpt lat="43.1815" lon="2.4191">
        <ele>149.712891</ele>
        <time>2013-06-23T10:40:03Z</time>
      </trkpt>
      <trkpt lat="43.18148" lon="2.41918">
        <ele>150.089905</ele>
        <time>2013-06-23T10:40:03Z</time>
      </trkpt>
      <trkpt lat="43.18146" lon="2.41927">
        <ele>150.27301</ele>
        <time>2013-06-23T10:40:04Z</time>
      </trkpt>
      <trkpt lat="43.18145" lon="2.41934">
        <ele>150.420715</ele>
        <time>2013-06-23T10:40:05Z</time>
      </trkpt>
      <trkpt lat="43.18144" lon="2.41941">
        <ele>150.370544</ele>
        <time>2013-06-23T10:40:07Z</time>
      </trkpt>
      <trkpt lat="43.18143" lon="2.41947">
        <ele>150.549622</ele>
        <time>2013-06-23T10:40:07Z</time>
      </trkpt>
      <trkpt lat="43.18141" lon="2.41956">
        <ele>150.754517</ele>
        <time>2013-06-23T10:40:09Z</time>
      </trkpt>
      <trkpt lat="43.18139" lon="2.41962">
        <ele>150.90686</ele>
        <time>2013-06-23T10:40:12Z</time>
      </trkpt>
      <trkpt lat="43.18136" lon="2.4197">
        <ele>151.334595</ele>
        <time>2013-06-23T10:40:13Z</time>
      </trkpt>
      <trkpt lat="43.18134" lon="2.4198">
        <ele>151.369751</ele>
        <time>2013-06-23T10:40:16Z</time>
      </trkpt>
      <trkpt lat="43.18132" lon="2.41992">
        <ele>151.550476</ele>
        <time>2013-06-23T10:40:17Z</time>
      </trkpt>
      <trkpt lat="43.1813" lon="2.41998">
        <ele>151.826355</ele>
        <time>2013-06-23T10:40:18Z</time>
      </trkpt>
      <trkpt lat="43.18126" lon="2.42003">
        <ele>152.288086</ele>
        <time>2013-06-23T10:40:20Z</time>
      </trkpt>
      <trkpt lat="43.18123" lon="2.42008">
        <ele>152.722046</ele>
        <time>2013-06-23T10:40:20Z</time>
      </trkpt>
      <trkpt lat="43.18119" lon="2.42012">
        <ele>153.161682</ele>
        <time>2013-06-23T10:40:22Z</time>
      </trkpt>
      <trkpt lat="43.18113" lon="2.42019">
        <ele>153.889771</ele>
        <time>2013-06-23T10:40:24Z</time>
      </trkpt>
      <trkpt lat="43.18107" lon="2.42026">
        <ele>154.443054</ele>
        <time>2013-06-23T10:40:25Z</time>
      </trkpt>
      <trkpt lat="43.18103" lon="2.42034">
        <ele>154.8172</ele>
        <time>2013-06-23T10:40:28Z</time>
      </trkpt>
      <trkpt lat="43.181" lon="2.42043">
        <ele>154.913574</ele>
        <time>2013-06-23T10:40:29Z</time>
      </trkpt>
      <trkpt lat="43.18101" lon="2.42054">
        <ele>154.320435</ele>
        <time>2013-06-23T10:40:32Z</time>
      </trkpt>
      <trkpt lat="43.18102" lon="2.42065">
        <ele>153.908875</ele>
        <time>2013-06-23T10:40:33Z</time>
      </trkpt>
      <trkpt lat="43.181" lon="2.42075">
        <ele>153.654907</ele>
        <time>2013-06-23T10:40:36Z</time>
      </trkpt>
      <trkpt lat="43.18098" lon="2.42086">
        <ele>153.594482</ele>
        <time>2013-06-23T10:40:37Z</time>
      </trkpt>
      <trkpt lat="43.18096" lon="2.42095">
        <ele>153.858948</ele>
        <time>2013-06-23T10:40:40Z</time>
      </trkpt>
      <trkpt lat="43.18092" lon="2.42103">
        <ele>154.17804</ele>
        <time>2013-06-23T10:40:41Z</time>
      </trkpt>
      <trkpt lat="43.18089" lon="2.42111">
        <ele>154.51825</ele>
        <time>2013-06-23T10:40:44Z</time>
      </trkpt>
      <trkpt lat="43.18085" lon="2.42117">
        <ele>154.830383</ele>
        <time>2013-06-23T10:40:45Z</time>
      </trkpt>
      <trkpt lat="43.18082" lon="2.42123">
        <ele>155.224365</ele>
        <time>2013-06-23T10:40:48Z</time>
      </trkpt>
      <trkpt lat="43.18079" lon="2.42129">
        <ele>155.860901</ele>
        <time>2013-06-23T10:40:49Z</time>
      </trkpt>
      <trkpt lat="43.18075" lon="2.42137">
        <ele>156.629456</ele>
        <time>2013-06-23T10:40:52Z</time>
      </trkpt>
      <trkpt lat="43.18071" lon="2.42144">
        <ele>157.373535</ele>
        <time>2013-06-23T10:40:53Z</time>
      </trkpt>
      <trkpt lat="43.18069" lon="2.42151">
        <ele>157.731079</ele>
        <time>2013-06-23T10:40:56Z</time>
      </trkpt>
      <trkpt lat="43.18067" lon="2.42158">
        <ele>158.00061</ele>
        <time>2013-06-23T10:40:57Z</time>
      </trkpt>
      <trkpt lat="43.18066" lon="2.42165">
        <ele>158.201904</ele>
        <time>2013-06-23T10:41:00Z</time>
      </trkpt>
      <trkpt lat="43.18067" lon="2.42173">
        <ele>158.380981</ele>
        <time>2013-06-23T10:41:02Z</time>
      </trkpt>
      <trkpt lat="43.18069" lon="2.4218">
        <ele>158.419922</ele>
        <time>2013-06-23T10:41:07Z</time>
      </trkpt>
      <trkpt lat="43.18073" lon="2.42184">
        <ele>157.956055</ele>
        <time>2013-06-23T10:41:10Z</time>
      </trkpt>
      <trkpt lat="43.18079" lon="2.42187">
        <ele>157.053345</ele>
        <time>2013-06-23T10:41:13Z</time>
      </trkpt>
      <trkpt lat="43.18085" lon="2.42186">
        <ele>156.005432</ele>
        <time>2013-06-23T10:41:16Z</time>
      </trkpt>
      <trkpt lat="43.18092" lon="2.42185">
        <ele>155.338562</ele>
        <time>2013-06-23T10:41:18Z</time>
      </trkpt>
      <trkpt lat="43.18098" lon="2.42184">
        <ele>154.79071</ele>
        <time>2013-06-23T10:41:20Z</time>
      </trkpt>
      <trkpt lat="43.18104" lon="2.42184">
        <ele>154.332092</ele>
        <time>2013-06-23T10:41:22Z</time>
      </trkpt>
      <trkpt lat="43.18109" lon="2.42185">
        <ele>153.951538</ele>
        <time>2013-06-23T10:41:24Z</time>
      </trkpt>
      <trkpt lat="43.18114" lon="2.42186">
        <ele>153.546448</ele>
        <time>2013-06-23T10:41:29Z</time>
      </trkpt>
      <trkpt lat="43.18108" lon="2.42197">
        <ele>154.476562</ele>
        <time>2013-06-23T10:41:37Z</time>
      </trkpt>
      <trkpt lat="43.18102" lon="2.42206">
        <ele>155.511902</ele>
        <time>2013-06-23T10:41:42Z</time>
      </trkpt>
      <trkpt lat="43.18099" lon="2.42212">
        <ele>156.121948</ele>
        <time>2013-06-23T10:41:46Z</time>
      </trkpt>
      <trkpt lat="43.18099" lon="2.42222">
        <ele>156.545715</ele>
        <time>2013-06-23T10:41:49Z</time>
      </trkpt>
      <trkpt lat="43.18096" lon="2.4223">
        <ele>157.295471</ele>
        <time>2013-06-23T10:41:53Z</time>
      </trkpt>
      <trkpt lat="43.18095" lon="2.42236">
        <ele>157.728088</ele>
        <time>2013-06-23T10:41:55Z</time>
      </trkpt>
      <trkpt lat="43.18093" lon="2.42242">
        <ele>158.266235</ele>
        <time>2013-06-23T10:41:56Z</time>
      </trkpt>
      <trkpt lat="43.18091" lon="2.42249">
        <ele>158.893921</ele>
        <time>2013-06-23T10:41:59Z</time>
      </trkpt>
      <trkpt lat="43.1809" lon="2.42256">
        <ele>158.806763</ele>
        <time>2013-06-23T10:42:00Z</time>
      </trkpt>
      <trkpt lat="43.18087" lon="2.42263">
        <ele>158.924744</ele>
        <time>2013-06-23T10:42:03Z</time>
      </trkpt>
      <trkpt lat="43.18084" lon="2.42269">
        <ele>158.979187</ele>
        <time>2013-06-23T10:42:05Z</time>
      </trkpt>
      <trkpt lat="43.18082" lon="2.42276">
        <ele>158.912598</ele>
        <time>2013-06-23T10:42:07Z</time>
      </trkpt>
      <trkpt lat="43.18081" lon="2.42284">
        <ele>158.793579</ele>
        <time>2013-06-23T10:42:08Z</time>
      </trkpt>
      <trkpt lat="43.18079" lon="2.42291">
        <ele>158.760803</ele>
        <time>2013-06-23T10:42:11Z</time>
      </trkpt>
      <trkpt lat="43.18077" lon="2.42298">
        <ele>158.794128</ele>
        <time>2013-06-23T10:42:12Z</time>
      </trkpt>
      <trkpt lat="43.18075" lon="2.42305">
        <ele>158.868958</ele>
        <time>2013-06-23T10:42:15Z</time>
      </trkpt>
      <trkpt lat="43.18073" lon="2.42311">
        <ele>158.905212</ele>
        <time>2013-06-23T10:42:16Z</time>
      </trkpt>
      <trkpt lat="43.1807" lon="2.42319">
        <ele>159.062378</ele>
        <time>2013-06-23T10:42:19Z</time>
      </trkpt>
      <trkpt lat="43.18064" lon="2.42323">
        <ele>159.739624</ele>
        <time>2013-06-23T10:42:23Z</time>
      </trkpt>
      <trkpt lat="43.18059" lon="2.42322">
        <ele>160.698181</ele>
        <time>2013-06-23T10:42:26Z</time>
      </trkpt>
      <trkpt lat="43.18054" lon="2.42322">
        <ele>161.470703</ele>
        <time>2013-06-23T10:42:29Z</time>
      </trkpt>
      <trkpt lat="43.1805" lon="2.42318">
        <ele>162.430176</ele>
        <time>2013-06-23T10:42:32Z</time>
      </trkpt>
      <trkpt lat="43.18048" lon="2.4231">
        <ele>163.191589</ele>
        <time>2013-06-23T10:42:36Z</time>
      </trkpt>
      <trkpt lat="43.18048" lon="2.42303">
        <ele>163.602234</ele>
        <time>2013-06-23T10:42:38Z</time>
      </trkpt>
      <trkpt lat="43.18048" lon="2.42295">
        <ele>163.958435</ele>
        <time>2013-06-23T10:42:41Z</time>
      </trkpt>
      <trkpt lat="43.18048" lon="2.42289">
        <ele>164.22644</ele>
        <time>2013-06-23T10:42:44Z</time>
      </trkpt>
      <trkpt lat="43.18049" lon="2.42282">
        <ele>164.532593</ele>
        <time>2013-06-23T10:42:45Z</time>
      </trkpt>
      <trkpt lat="43.18049" lon="2.42276">
        <ele>164.868103</ele>
        <time>2013-06-23T10:42:48Z</time>
      </trkpt>
      <trkpt lat="43.18049" lon="2.42269">
        <ele>165.194458</ele>
        <time>2013-06-23T10:42:49Z</time>
      </trkpt>
      <trkpt lat="43.18049" lon="2.42262">
        <ele>165.562805</ele>
        <time>2013-06-23T10:42:52Z</time>
      </trkpt>
      <trkpt lat="43.18049" lon="2.42253">
        <ele>166.062439</ele>
        <time>2013-06-23T10:42:54Z</time>
      </trkpt>
      <trkpt lat="43.18049" lon="2.42246">
        <ele>165.91803</ele>
        <time>2013-06-23T10:42:56Z</time>
      </trkpt>
      <trkpt lat="43.18049" lon="2.42237">
        <ele>165.386292</ele>
        <time>2013-06-23T10:43:00Z</time>
      </trkpt>
      <trkpt lat="43.18049" lon="2.42229">
        <ele>164.933044</ele>
        <time>2013-06-23T10:43:03Z</time>
      </trkpt>
      <trkpt lat="43.18048" lon="2.42221">
        <ele>164.531372</ele>
        <time>2013-06-23T10:43:04Z</time>
      </trkpt>
      <trkpt lat="43.18048" lon="2.42214">
        <ele>164.115173</ele>
        <time>2013-06-23T10:43:05Z</time>
      </trkpt>
      <trkpt lat="43.18048" lon="2.42207">
        <ele>163.859985</ele>
        <time>2013-06-23T10:43:08Z</time>
      </trkpt>
      <trkpt lat="43.18045" lon="2.42201">
        <ele>163.8974</ele>
        <time>2013-06-23T10:43:09Z</time>
      </trkpt>
      <trkpt lat="43.18043" lon="2.42195">
        <ele>164.015686</ele>
        <time>2013-06-23T10:43:12Z</time>
      </trkpt>
      <trkpt lat="43.18039" lon="2.42191">
        <ele>164.436646</ele>
        <time>2013-06-23T10:43:13Z</time>
      </trkpt>
      <trkpt lat="43.18035" lon="2.42187">
        <ele>164.849731</ele>
        <time>2013-06-23T10:43:16Z</time>
      </trkpt>
      <trkpt lat="43.18029" lon="2.42183">
        <ele>165.660339</ele>
        <time>2013-06-23T10:43:18Z</time>
      </trkpt>
      <trkpt lat="43.18023" lon="2.42181">
        <ele>166.759766</ele>
        <time>2013-06-23T10:43:21Z</time>
      </trkpt>
      <trkpt lat="43.18017" lon="2.42179">
        <ele>167.662903</ele>
        <time>2013-06-23T10:43:25Z</time>
      </trkpt>
      <trkpt lat="43.18012" lon="2.42174">
        <ele>168.322693</ele>
        <time>2013-06-23T10:43:28Z</time>
      </trkpt>
      <trkpt lat="43.1801" lon="2.42167">
        <ele>168.149536</ele>
        <time>2013-06-23T10:43:30Z</time>
      </trkpt>
      <trkpt lat="43.18012" lon="2.4216">
        <ele>168.000244</ele>
        <time>2013-06-23T10:43:33Z</time>
      </trkpt>
      <trkpt lat="43.18014" lon="2.42154">
        <ele>167.798523</ele>
        <time>2013-06-23T10:43:36Z</time>
      </trkpt>
      <trkpt lat="43.18016" lon="2.42148">
        <ele>167.511292</ele>
        <time>2013-06-23T10:43:38Z</time>
      </trkpt>
      <trkpt lat="43.18019" lon="2.42142">
        <ele>167.127686</ele>
        <time>2013-06-23T10:43:40Z</time>
      </trkpt>
      <trkpt lat="43.18022" lon="2.42135">
        <ele>166.632568</ele>
        <time>2013-06-23T10:43:41Z</time>
      </trkpt>
      <trkpt lat="43.18024" lon="2.42129">
        <ele>166.284302</ele>
        <time>2013-06-23T10:43:44Z</time>
      </trkpt>
      <trkpt lat="43.18027" lon="2.42121">
        <ele>165.913025</ele>
        <time>2013-06-23T10:43:45Z</time>
      </trkpt>
      <trkpt lat="43.1803" lon="2.42115">
        <ele>165.50415</ele>
        <time>2013-06-23T10:43:49Z</time>
      </trkpt>
      <trkpt lat="43.18032" lon="2.42107">
        <ele>165.126709</ele>
        <time>2013-06-23T10:43:49Z</time>
      </trkpt>
      <trkpt lat="43.18035" lon="2.42098">
        <ele>164.745728</ele>
        <time>2013-06-23T10:43:52Z</time>
      </trkpt>
      <trkpt lat="43.18037" lon="2.4209">
        <ele>164.435059</ele>
        <time>2013-06-23T10:43:53Z</time>
      </trkpt>
      <trkpt lat="43.18038" lon="2.42081">
        <ele>164.263611</ele>
        <time>2013-06-23T10:43:56Z</time>
      </trkpt>
      <trkpt lat="43.18039" lon="2.42072">
        <ele>164.559998</ele>
        <time>2013-06-23T10:43:57Z</time>
      </trkpt>
      <trkpt lat="43.1804" lon="2.42063">
        <ele>164.879028</ele>
        <time>2013-06-23T10:44:00Z</time>
      </trkpt>
      <trkpt lat="43.1804" lon="2.42056">
        <ele>165.235962</ele>
        <time>2013-06-23T10:44:01Z</time>
      </trkpt>
      <trkpt lat="43.1804" lon="2.42048">
        <ele>165.59021</ele>
        <time>2013-06-23T10:44:04Z</time>
      </trkpt>
      <trkpt lat="43.1804" lon="2.4204">
        <ele>165.995789</ele>
        <time>2013-06-23T10:44:05Z</time>
      </trkpt>
      <trkpt lat="43.18039" lon="2.42031">
        <ele>166.568542</ele>
        <time>2013-06-23T10:44:08Z</time>
      </trkpt>
      <trkpt lat="43.18039" lon="2.42023">
        <ele>167.050476</ele>
        <time>2013-06-23T10:44:10Z</time>
      </trkpt>
      <trkpt lat="43.1804" lon="2.42014">
        <ele>167.253418</ele>
        <time>2013-06-23T10:44:12Z</time>
      </trkpt>
      <trkpt lat="43.18041" lon="2.42007">
        <ele>167.311096</ele>
        <time>2013-06-23T10:44:13Z</time>
      </trkpt>
      <trkpt lat="43.18043" lon="2.41999">
        <ele>167.202087</ele>
        <time>2013-06-23T10:44:16Z</time>
      </trkpt>
      <trkpt lat="43.18045" lon="2.41993">
        <ele>166.546692</ele>
        <time>2013-06-23T10:44:17Z</time>
      </trkpt>
      <trkpt lat="43.18047" lon="2.41983">
        <ele>165.635315</ele>
        <time>2013-06-23T10:44:21Z</time>
      </trkpt>
      <trkpt lat="43.1805" lon="2.41977">
        <ele>164.944641</ele>
        <time>2013-06-23T10:44:22Z</time>
      </trkpt>
      <trkpt lat="43.18052" lon="2.41969">
        <ele>164.401978</ele>
        <time>2013-06-23T10:44:24Z</time>
      </trkpt>
      <trkpt lat="43.18052" lon="2.41962">
        <ele>164.035278</ele>
        <time>2013-06-23T10:44:26Z</time>
      </trkpt>
      <trkpt lat="43.18052" lon="2.41955">
        <ele>163.857239</ele>
        <time>2013-06-23T10:44:28Z</time>
      </trkpt>
      <trkpt lat="43.1805" lon="2.41948">
        <ele>163.819092</ele>
        <time>2013-06-23T10:44:30Z</time>
      </trkpt>
      <trkpt lat="43.18048" lon="2.41942">
        <ele>163.756592</ele>
        <time>2013-06-23T10:44:33Z</time>
      </trkpt>
      <trkpt lat="43.18045" lon="2.41937">
        <ele>163.794861</ele>
        <time>2013-06-23T10:44:34Z</time>
      </trkpt>
      <trkpt lat="43.18041" lon="2.41931">
        <ele>163.804321</ele>
        <time>2013-06-23T10:44:36Z</time>
      </trkpt>
      <trkpt lat="43.18036" lon="2.41927">
        <ele>163.918152</ele>
        <time>2013-06-23T10:44:38Z</time>
      </trkpt>
      <trkpt lat="43.18031" lon="2.41924">
        <ele>164.051453</ele>
        <time>2013-06-23T10:44:40Z</time>
      </trkpt>
      <trkpt lat="43.18026" lon="2.41922">
        <ele>164.230896</ele>
        <time>2013-06-23T10:44:44Z</time>
      </trkpt>
      <trkpt lat="43.1802" lon="2.41921">
        <ele>164.436462</ele>
        <time>2013-06-23T10:44:44Z</time>
      </trkpt>
      <trkpt lat="43.18013" lon="2.4192">
        <ele>164.658203</ele>
        <time>2013-06-23T10:44:48Z</time>
      </trkpt>
      <trkpt lat="43.18009" lon="2.41919">
        <ele>164.801025</ele>
        <time>2013-06-23T10:44:50Z</time>
      </trkpt>
      <trkpt lat="43.18003" lon="2.41917">
        <ele>164.892273</ele>
        <time>2013-06-23T10:44:52Z</time>
      </trkpt>
      <trkpt lat="43.17996" lon="2.41917">
        <ele>164.79425</ele>
        <time>2013-06-23T10:44:55Z</time>
      </trkpt>
      <trkpt lat="43.17989" lon="2.41917">
        <ele>164.212708</ele>
        <time>2013-06-23T10:44:56Z</time>
      </trkpt>
      <trkpt lat="43.17984" lon="2.41917">
        <ele>163.907043</ele>
        <time>2013-06-23T10:44:58Z</time>
      </trkpt>
      <trkpt lat="43.17978" lon="2.41919">
        <ele>163.683044</ele>
        <time>2013-06-23T10:45:00Z</time>
      </trkpt>
      <trkpt lat="43.17971" lon="2.41921">
        <ele>163.382996</ele>
        <time>2013-06-23T10:45:02Z</time>
      </trkpt>
      <trkpt lat="43.17964" lon="2.41923">
        <ele>163.183716</ele>
        <time>2013-06-23T10:45:05Z</time>
      </trkpt>
      <trkpt lat="43.17959" lon="2.41927">
        <ele>163.184631</ele>
        <time>2013-06-23T10:45:06Z</time>
      </trkpt>
      <trkpt lat="43.17953" lon="2.41931">
        <ele>163.160278</ele>
        <time>2013-06-23T10:45:08Z</time>
      </trkpt>
      <trkpt lat="43.17947" lon="2.41934">
        <ele>163.085938</ele>
        <time>2013-06-23T10:45:10Z</time>
      </trkpt>
      <trkpt lat="43.17943" lon="2.41937">
        <ele>163.079529</ele>
        <time>2013-06-23T10:45:12Z</time>
      </trkpt>
      <trkpt lat="43.17939" lon="2.41943">
        <ele>163.341797</ele>
        <time>2013-06-23T10:45:16Z</time>
      </trkpt>
      <trkpt lat="43.17936" lon="2.41948">
        <ele>163.612122</ele>
        <time>2013-06-23T10:45:18Z</time>
      </trkpt>
      <trkpt lat="43.17934" lon="2.41954">
        <ele>164.137024</ele>
        <time>2013-06-23T10:45:22Z</time>
      </trkpt>
      <trkpt lat="43.17933" lon="2.41961">
        <ele>164.802979</ele>
        <time>2013-06-23T10:45:24Z</time>
      </trkpt>
      <trkpt lat="43.17933" lon="2.41968">
        <ele>165.417114</ele>
        <time>2013-06-23T10:45:26Z</time>
      </trkpt>
      <trkpt lat="43.17933" lon="2.41974">
        <ele>166.125122</ele>
        <time>2013-06-23T10:45:29Z</time>
      </trkpt>
      <trkpt lat="43.17933" lon="2.41982">
        <ele>166.893066</ele>
        <time>2013-06-23T10:45:30Z</time>
      </trkpt>
      <trkpt lat="43.17935" lon="2.41989">
        <ele>167.814148</ele>
        <time>2013-06-23T10:45:32Z</time>
      </trkpt>
      <trkpt lat="43.17937" lon="2.41996">
        <ele>168.746948</ele>
        <time>2013-06-23T10:45:34Z</time>
      </trkpt>
      <trkpt lat="43.17939" lon="2.42003">
        <ele>169.436218</ele>
        <time>2013-06-23T10:45:38Z</time>
      </trkpt>
      <trkpt lat="43.17941" lon="2.42009">
        <ele>169.607117</ele>
        <time>2013-06-23T10:45:39Z</time>
      </trkpt>
      <trkpt lat="43.17943" lon="2.42016">
        <ele>169.761475</ele>
        <time>2013-06-23T10:45:42Z</time>
      </trkpt>
      <trkpt lat="43.17945" lon="2.42023">
        <ele>169.855591</ele>
        <time>2013-06-23T10:45:43Z</time>
      </trkpt>
      <trkpt lat="43.17947" lon="2.4203">
        <ele>170.005493</ele>
        <time>2013-06-23T10:45:46Z</time>
      </trkpt>
      <trkpt lat="43.1795" lon="2.4204">
        <ele>170.131714</ele>
        <time>2013-06-23T10:45:47Z</time>
      </trkpt>
      <trkpt lat="43.17953" lon="2.42049">
        <ele>170.223328</ele>
        <time>2013-06-23T10:45:50Z</time>
      </trkpt>
      <trkpt lat="43.17956" lon="2.42056">
        <ele>170.340576</ele>
        <time>2013-06-23T10:45:52Z</time>
      </trkpt>
      <trkpt lat="43.1796" lon="2.42063">
        <ele>170.466187</ele>
        <time>2013-06-23T10:45:54Z</time>
      </trkpt>
      <trkpt lat="43.17963" lon="2.4207">
        <ele>170.528015</ele>
        <time>2013-06-23T10:45:55Z</time>
      </trkpt>
      <trkpt lat="43.17966" lon="2.42078">
        <ele>170.477844</ele>
        <time>2013-06-23T10:45:58Z</time>
      </trkpt>
      <trkpt lat="43.17969" lon="2.42089">
        <ele>170.557739</ele>
        <time>2013-06-23T10:45:59Z</time>
      </trkpt>
      <trkpt lat="43.1797" lon="2.42099">
        <ele>170.712463</ele>
        <time>2013-06-23T10:46:02Z</time>
      </trkpt>
      <trkpt lat="43.17969" lon="2.42109">
        <ele>170.809204</ele>
        <time>2013-06-23T10:46:04Z</time>
      </trkpt>
      <trkpt lat="43.17968" lon="2.42116">
        <ele>170.879944</ele>
        <time>2013-06-23T10:46:04Z</time>
      </trkpt>
      <trkpt lat="43.17966" lon="2.42122">
        <ele>170.958862</ele>
        <time>2013-06-23T10:46:06Z</time>
      </trkpt>
      <trkpt lat="43.17965" lon="2.42128">
        <ele>171.050964</ele>
        <time>2013-06-23T10:46:06Z</time>
      </trkpt>
      <trkpt lat="43.17962" lon="2.42138">
        <ele>171.272827</ele>
        <time>2013-06-23T10:46:08Z</time>
      </trkpt>
      <trkpt lat="43.17957" lon="2.42144">
        <ele>171.484924</ele>
        <time>2013-06-23T10:46:10Z</time>
      </trkpt>
      <trkpt lat="43.17952" lon="2.42148">
        <ele>171.703613</ele>
        <time>2013-06-23T10:46:13Z</time>
      </trkpt>
      <trkpt lat="43.17946" lon="2.4215">
        <ele>171.983765</ele>
        <time>2013-06-23T10:46:14Z</time>
      </trkpt>
      <trkpt lat="43.1794" lon="2.42154">
        <ele>172.28833</ele>
        <time>2013-06-23T10:46:16Z</time>
      </trkpt>
      <trkpt lat="43.17935" lon="2.42156">
        <ele>172.571472</ele>
        <time>2013-06-23T10:46:18Z</time>
      </trkpt>
      <trkpt lat="43.17929" lon="2.42156">
        <ele>172.807861</ele>
        <time>2013-06-23T10:46:20Z</time>
      </trkpt>
      <trkpt lat="43.17924" lon="2.42156">
        <ele>172.952026</ele>
        <time>2013-06-23T10:46:22Z</time>
      </trkpt>
      <trkpt lat="43.17917" lon="2.42155">
        <ele>173.143799</ele>
        <time>2013-06-23T10:46:25Z</time>
      </trkpt>
      <trkpt lat="43.17911" lon="2.42155">
        <ele>173.200806</ele>
        <time>2013-06-23T10:46:26Z</time>
      </trkpt>
      <trkpt lat="43.17905" lon="2.42155">
        <ele>173.243225</ele>
        <time>2013-06-23T10:46:28Z</time>
      </trkpt>
      <trkpt lat="43.17899" lon="2.42155">
        <ele>173.304321</ele>
        <time>2013-06-23T10:46:30Z</time>
      </trkpt>
      <trkpt lat="43.17893" lon="2.42154">
        <ele>173.279724</ele>
        <time>2013-06-23T10:46:32Z</time>
      </trkpt>
      <trkpt lat="43.17888" lon="2.42154">
        <ele>173.31366</ele>
        <time>2013-06-23T10:46:34Z</time>
      </trkpt>
      <trkpt lat="43.17882" lon="2.42155">
        <ele>173.462097</ele>
        <time>2013-06-23T10:46:36Z</time>
      </trkpt>
      <trkpt lat="43.17876" lon="2.42158">
        <ele>173.800537</ele>
        <time>2013-06-23T10:46:39Z</time>
      </trkpt>
      <trkpt lat="43.17871" lon="2.42164">
        <ele>174.355591</ele>
        <time>2013-06-23T10:46:40Z</time>
      </trkpt>
      <trkpt lat="43.17869" lon="2.42171">
        <ele>174.822754</ele>
        <time>2013-06-23T10:46:42Z</time>
      </trkpt>
      <trkpt lat="43.17866" lon="2.42177">
        <ele>175.260742</ele>
        <time>2013-06-23T10:46:44Z</time>
      </trkpt>
      <trkpt lat="43.17862" lon="2.42182">
        <ele>175.635132</ele>
        <time>2013-06-23T10:46:46Z</time>
      </trkpt>
      <trkpt lat="43.17859" lon="2.42187">
        <ele>175.963806</ele>
        <time>2013-06-23T10:46:49Z</time>
      </trkpt>
      <trkpt lat="43.17853" lon="2.42191">
        <ele>176.282898</ele>
        <time>2013-06-23T10:46:51Z</time>
      </trkpt>
      <trkpt lat="43.17849" lon="2.42194">
        <ele>176.483337</ele>
        <time>2013-06-23T10:46:54Z</time>
      </trkpt>
      <trkpt lat="43.17842" lon="2.42196">
        <ele>176.698303</ele>
        <time>2013-06-23T10:46:55Z</time>
      </trkpt>
      <trkpt lat="43.17838" lon="2.42198">
        <ele>176.870361</ele>
        <time>2013-06-23T10:46:58Z</time>
      </trkpt>
      <trkpt lat="43.17832" lon="2.42197">
        <ele>176.819885</ele>
        <time>2013-06-23T10:46:59Z</time>
      </trkpt>
      <trkpt lat="43.17826" lon="2.42197">
        <ele>176.750916</ele>
        <time>2013-06-23T10:47:02Z</time>
      </trkpt>
      <trkpt lat="43.17821" lon="2.42196">
        <ele>176.672607</ele>
        <time>2013-06-23T10:47:03Z</time>
      </trkpt>
      <trkpt lat="43.17815" lon="2.42195">
        <ele>176.573486</ele>
        <time>2013-06-23T10:47:06Z</time>
      </trkpt>
      <trkpt lat="43.17811" lon="2.42194">
        <ele>176.476868</ele>
        <time>2013-06-23T10:47:07Z</time>
      </trkpt>
      <trkpt lat="43.17806" lon="2.42192">
        <ele>176.330688</ele>
        <time>2013-06-23T10:47:10Z</time>
      </trkpt>
      <trkpt lat="43.17801" lon="2.4219">
        <ele>176.180786</ele>
        <time>2013-06-23T10:47:11Z</time>
      </trkpt>
      <trkpt lat="43.17797" lon="2.42189">
        <ele>176.089355</ele>
        <time>2013-06-23T10:47:14Z</time>
      </trkpt>
      <trkpt lat="43.1779" lon="2.42188">
        <ele>176.018188</ele>
        <time>2013-06-23T10:47:16Z</time>
      </trkpt>
      <trkpt lat="43.17784" lon="2.42187">
        <ele>175.941711</ele>
        <time>2013-06-23T10:47:18Z</time>
      </trkpt>
      <trkpt lat="43.17778" lon="2.42187">
        <ele>175.904297</ele>
        <time>2013-06-23T10:47:20Z</time>
      </trkpt>
      <trkpt lat="43.17772" lon="2.42186">
        <ele>175.816101</ele>
        <time>2013-06-23T10:47:22Z</time>
      </trkpt>
      <trkpt lat="43.17765" lon="2.42185">
        <ele>175.751343</ele>
        <time>2013-06-23T10:47:24Z</time>
      </trkpt>
      <trkpt lat="43.17759" lon="2.42185">
        <ele>175.684326</ele>
        <time>2013-06-23T10:47:26Z</time>
      </trkpt>
      <trkpt lat="43.17753" lon="2.42186">
        <ele>175.695251</ele>
        <time>2013-06-23T10:47:28Z</time>
      </trkpt>
      <trkpt lat="43.17748" lon="2.42192">
        <ele>175.743469</ele>
        <time>2013-06-23T10:47:30Z</time>
      </trkpt>
      <trkpt lat="43.17744" lon="2.42201">
        <ele>175.858276</ele>
        <time>2013-06-23T10:47:32Z</time>
      </trkpt>
      <trkpt lat="43.1774" lon="2.4221">
        <ele>176.131592</ele>
        <time>2013-06-23T10:47:35Z</time>
      </trkpt>
      <trkpt lat="43.17741" lon="2.42219">
        <ele>176.603394</ele>
        <time>2013-06-23T10:47:36Z</time>
      </trkpt>
      <trkpt lat="43.17743" lon="2.42228">
        <ele>177.106628</ele>
        <time>2013-06-23T10:47:38Z</time>
      </trkpt>
      <trkpt lat="43.17745" lon="2.42237">
        <ele>177.540161</ele>
        <time>2013-06-23T10:47:40Z</time>
      </trkpt>
      <trkpt lat="43.17745" lon="2.42246">
        <ele>177.939331</ele>
        <time>2013-06-23T10:47:42Z</time>
      </trkpt>
      <trkpt lat="43.17742" lon="2.42254">
        <ele>178.235107</ele>
        <time>2013-06-23T10:47:45Z</time>
      </trkpt>
      <trkpt lat="43.17736" lon="2.42259">
        <ele>178.512634</ele>
        <time>2013-06-23T10:47:46Z</time>
      </trkpt>
      <trkpt lat="43.17731" lon="2.42264">
        <ele>178.837524</ele>
        <time>2013-06-23T10:47:48Z</time>
      </trkpt>
      <trkpt lat="43.17726" lon="2.42268">
        <ele>179.184143</ele>
        <time>2013-06-23T10:47:50Z</time>
      </trkpt>
      <trkpt lat="43.1772" lon="2.4227">
        <ele>179.578552</ele>
        <time>2013-06-23T10:47:52Z</time>
      </trkpt>
      <trkpt lat="43.17714" lon="2.4227">
        <ele>179.904053</ele>
        <time>2013-06-23T10:47:54Z</time>
      </trkpt>
      <trkpt lat="43.17707" lon="2.42264">
        <ele>179.931091</ele>
        <time>2013-06-23T10:47:57Z</time>
      </trkpt>
      <trkpt lat="43.17699" lon="2.42259">
        <ele>179.848877</ele>
        <time>2013-06-23T10:47:58Z</time>
      </trkpt>
      <trkpt lat="43.17693" lon="2.42255">
        <ele>179.74054</ele>
        <time>2013-06-23T10:48:00Z</time>
      </trkpt>
      <trkpt lat="43.17688" lon="2.4225">
        <ele>179.46344</ele>
        <time>2013-06-23T10:48:02Z</time>
      </trkpt>
      <trkpt lat="43.17683" lon="2.42244">
        <ele>178.666016</ele>
        <time>2013-06-23T10:48:04Z</time>
      </trkpt>
      <trkpt lat="43.17679" lon="2.42237">
        <ele>177.711792</ele>
        <time>2013-06-23T10:48:07Z</time>
      </trkpt>
      <trkpt lat="43.17674" lon="2.4223">
        <ele>176.426453</ele>
        <time>2013-06-23T10:48:08Z</time>
      </trkpt>
      <trkpt lat="43.1767" lon="2.42222">
        <ele>174.964294</ele>
        <time>2013-06-23T10:48:10Z</time>
      </trkpt>
      <trkpt lat="43.17663" lon="2.42216">
        <ele>173.894531</ele>
        <time>2013-06-23T10:48:12Z</time>
      </trkpt>
      <trkpt lat="43.17655" lon="2.42214">
        <ele>173.33197</ele>
        <time>2013-06-23T10:48:14Z</time>
      </trkpt>
      <trkpt lat="43.17649" lon="2.42214">
        <ele>173.264893</ele>
        <time>2013-06-23T10:48:17Z</time>
      </trkpt>
      <trkpt lat="43.17643" lon="2.42217">
        <ele>173.795105</ele>
        <time>2013-06-23T10:48:18Z</time>
      </trkpt>
      <trkpt lat="43.17639" lon="2.42222">
        <ele>174.67865</ele>
        <time>2013-06-23T10:48:20Z</time>
      </trkpt>
      <trkpt lat="43.17635" lon="2.42229">
        <ele>175.862671</ele>
        <time>2013-06-23T10:48:22Z</time>
      </trkpt>
      <trkpt lat="43.1763" lon="2.42235">
        <ele>177.076599</ele>
        <time>2013-06-23T10:48:24Z</time>
      </trkpt>
      <trkpt lat="43.17624" lon="2.42241">
        <ele>178.223694</ele>
        <time>2013-06-23T10:48:26Z</time>
      </trkpt>
      <trkpt lat="43.17618" lon="2.42245">
        <ele>179.08551</ele>
        <time>2013-06-23T10:48:28Z</time>
      </trkpt>
      <trkpt lat="43.17613" lon="2.4225">
        <ele>179.952881</ele>
        <time>2013-06-23T10:48:30Z</time>
      </trkpt>
      <trkpt lat="43.17608" lon="2.42254">
        <ele>180.695862</ele>
        <time>2013-06-23T10:48:32Z</time>
      </trkpt>
      <trkpt lat="43.17603" lon="2.42258">
        <ele>181.373352</ele>
        <time>2013-06-23T10:48:34Z</time>
      </trkpt>
      <trkpt lat="43.17598" lon="2.4226">
        <ele>181.752808</ele>
        <time>2013-06-23T10:48:36Z</time>
      </trkpt>
      <trkpt lat="43.17593" lon="2.42262">
        <ele>182.107422</ele>
        <time>2013-06-23T10:48:38Z</time>
      </trkpt>
      <trkpt lat="43.17587" lon="2.42265">
        <ele>182.831848</ele>
        <time>2013-06-23T10:48:42Z</time>
      </trkpt>
      <trkpt lat="43.17582" lon="2.42267">
        <ele>182.996399</ele>
        <time>2013-06-23T10:48:43Z</time>
      </trkpt>
      <trkpt lat="43.17576" lon="2.4227">
        <ele>182.603088</ele>
        <time>2013-06-23T10:48:46Z</time>
      </trkpt>
      <trkpt lat="43.1757" lon="2.42272">
        <ele>182.173645</ele>
        <time>2013-06-23T10:48:47Z</time>
      </trkpt>
      <trkpt lat="43.17564" lon="2.42273">
        <ele>181.492493</ele>
        <time>2013-06-23T10:48:50Z</time>
      </trkpt>
      <trkpt lat="43.17556" lon="2.42274">
        <ele>180.424255</ele>
        <time>2013-06-23T10:48:51Z</time>
      </trkpt>
      <trkpt lat="43.17549" lon="2.42276">
        <ele>179.821228</ele>
        <time>2013-06-23T10:48:54Z</time>
      </trkpt>
      <trkpt lat="43.17543" lon="2.4228">
        <ele>179.664001</ele>
        <time>2013-06-23T10:48:55Z</time>
      </trkpt>
      <trkpt lat="43.17538" lon="2.42284">
        <ele>179.837891</ele>
        <time>2013-06-23T10:48:58Z</time>
      </trkpt>
      <trkpt lat="43.17532" lon="2.42287">
        <ele>179.667175</ele>
        <time>2013-06-23T10:48:59Z</time>
      </trkpt>
      <trkpt lat="43.17527" lon="2.42289">
        <ele>179.414734</ele>
        <time>2013-06-23T10:49:02Z</time>
      </trkpt>
      <trkpt lat="43.17523" lon="2.42292">
        <ele>179.51239</ele>
        <time>2013-06-23T10:49:04Z</time>
      </trkpt>
      <trkpt lat="43.17517" lon="2.42294">
        <ele>179.039978</ele>
        <time>2013-06-23T10:49:06Z</time>
      </trkpt>
      <trkpt lat="43.1751" lon="2.42296">
        <ele>178.438232</ele>
        <time>2013-06-23T10:49:08Z</time>
      </trkpt>
      <trkpt lat="43.17505" lon="2.42298">
        <ele>177.944702</ele>
        <time>2013-06-23T10:49:10Z</time>
      </trkpt>
      <trkpt lat="43.17498" lon="2.423">
        <ele>177.562988</ele>
        <time>2013-06-23T10:49:12Z</time>
      </trkpt>
      <trkpt lat="43.17493" lon="2.42305">
        <ele>177.993713</ele>
        <time>2013-06-23T10:49:15Z</time>
      </trkpt>
      <trkpt lat="43.17489" lon="2.42314">
        <ele>179.125427</ele>
        <time>2013-06-23T10:49:16Z</time>
      </trkpt>
      <trkpt lat="43.17487" lon="2.42321">
        <ele>180.396179</ele>
        <time>2013-06-23T10:49:18Z</time>
      </trkpt>
      <trkpt lat="43.17486" lon="2.4233">
        <ele>181.978088</ele>
        <time>2013-06-23T10:49:20Z</time>
      </trkpt>
      <trkpt lat="43.17486" lon="2.42338">
        <ele>183.008545</ele>
        <time>2013-06-23T10:49:22Z</time>
      </trkpt>
      <trkpt lat="43.17486" lon="2.42346">
        <ele>183.613953</ele>
        <time>2013-06-23T10:49:24Z</time>
      </trkpt>
      <trkpt lat="43.17485" lon="2.42354">
        <ele>184.180664</ele>
        <time>2013-06-23T10:49:27Z</time>
      </trkpt>
      <trkpt lat="43.17484" lon="2.42361">
        <ele>184.570862</ele>
        <time>2013-06-23T10:49:28Z</time>
      </trkpt>
      <trkpt lat="43.17481" lon="2.4237">
        <ele>184.754517</ele>
        <time>2013-06-23T10:49:30Z</time>
      </trkpt>
      <trkpt lat="43.17478" lon="2.42379">
        <ele>184.836853</ele>
        <time>2013-06-23T10:49:32Z</time>
      </trkpt>
      <trkpt lat="43.17475" lon="2.42388">
        <ele>184.971619</ele>
        <time>2013-06-23T10:49:34Z</time>
      </trkpt>
      <trkpt lat="43.17473" lon="2.42395">
        <ele>185.084839</ele>
        <time>2013-06-23T10:49:36Z</time>
      </trkpt>
      <trkpt lat="43.17471" lon="2.42401">
        <ele>185.180847</ele>
        <time>2013-06-23T10:49:38Z</time>
      </trkpt>
      <trkpt lat="43.17469" lon="2.42409">
        <ele>185.456177</ele>
        <time>2013-06-23T10:49:40Z</time>
      </trkpt>
      <trkpt lat="43.17468" lon="2.42417">
        <ele>185.881836</ele>
        <time>2013-06-23T10:49:42Z</time>
      </trkpt>
      <trkpt lat="43.17467" lon="2.42424">
        <ele>186.179749</ele>
        <time>2013-06-23T10:49:44Z</time>
      </trkpt>
      <trkpt lat="43.17469" lon="2.42431">
        <ele>186.949707</ele>
        <time>2013-06-23T10:49:46Z</time>
      </trkpt>
      <trkpt lat="43.17472" lon="2.42437">
        <ele>187.802551</ele>
        <time>2013-06-23T10:49:48Z</time>
      </trkpt>
      <trkpt lat="43.17474" lon="2.42444">
        <ele>188.571136</ele>
        <time>2013-06-23T10:49:51Z</time>
      </trkpt>
      <trkpt lat="43.17476" lon="2.4245">
        <ele>189.229248</ele>
        <time>2013-06-23T10:49:52Z</time>
      </trkpt>
      <trkpt lat="43.17476" lon="2.42457">
        <ele>189.602539</ele>
        <time>2013-06-23T10:49:54Z</time>
      </trkpt>
      <trkpt lat="43.17474" lon="2.42465">
        <ele>189.667999</ele>
        <time>2013-06-23T10:49:56Z</time>
      </trkpt>
      <trkpt lat="43.1747" lon="2.42469">
        <ele>189.194275</ele>
        <time>2013-06-23T10:49:58Z</time>
      </trkpt>
      <trkpt lat="43.17465" lon="2.42472">
        <ele>188.577606</ele>
        <time>2013-06-23T10:50:00Z</time>
      </trkpt>
      <trkpt lat="43.1746" lon="2.42473">
        <ele>187.925781</ele>
        <time>2013-06-23T10:50:03Z</time>
      </trkpt>
      <trkpt lat="43.17455" lon="2.42476">
        <ele>187.369202</ele>
        <time>2013-06-23T10:50:04Z</time>
      </trkpt>
      <trkpt lat="43.1745" lon="2.42478">
        <ele>186.844238</ele>
        <time>2013-06-23T10:50:06Z</time>
      </trkpt>
      <trkpt lat="43.17446" lon="2.42484">
        <ele>186.676941</ele>
        <time>2013-06-23T10:50:08Z</time>
      </trkpt>
      <trkpt lat="43.17443" lon="2.4249">
        <ele>186.64801</ele>
        <time>2013-06-23T10:50:10Z</time>
      </trkpt>
      <trkpt lat="43.1744" lon="2.42496">
        <ele>186.799133</ele>
        <time>2013-06-23T10:50:13Z</time>
      </trkpt>
      <trkpt lat="43.17438" lon="2.42504">
        <ele>186.828613</ele>
        <time>2013-06-23T10:50:15Z</time>
      </trkpt>
      <trkpt lat="43.17435" lon="2.42511">
        <ele>186.501343</ele>
        <time>2013-06-23T10:50:16Z</time>
      </trkpt>
      <trkpt lat="43.1743" lon="2.42516">
        <ele>185.998657</ele>
        <time>2013-06-23T10:50:18Z</time>
      </trkpt>
      <trkpt lat="43.17425" lon="2.42519">
        <ele>185.26709</ele>
        <time>2013-06-23T10:50:20Z</time>
      </trkpt>
      <trkpt lat="43.1742" lon="2.42522">
        <ele>184.651611</ele>
        <time>2013-06-23T10:50:23Z</time>
      </trkpt>
      <trkpt lat="43.17414" lon="2.42527">
        <ele>184.09967</ele>
        <time>2013-06-23T10:50:24Z</time>
      </trkpt>
      <trkpt lat="43.17413" lon="2.42535">
        <ele>184.089478</ele>
        <time>2013-06-23T10:50:26Z</time>
      </trkpt>
      <trkpt lat="43.17415" lon="2.42542">
        <ele>184.314209</ele>
        <time>2013-06-23T10:50:28Z</time>
      </trkpt>
      <trkpt lat="43.17417" lon="2.42548">
        <ele>184.650696</ele>
        <time>2013-06-23T10:50:30Z</time>
      </trkpt>
      <trkpt lat="43.17421" lon="2.42555">
        <ele>185.213074</ele>
        <time>2013-06-23T10:50:32Z</time>
      </trkpt>
      <trkpt lat="43.17425" lon="2.42561">
        <ele>185.862183</ele>
        <time>2013-06-23T10:50:35Z</time>
      </trkpt>
      <trkpt lat="43.17429" lon="2.42568">
        <ele>186.463745</ele>
        <time>2013-06-23T10:50:36Z</time>
      </trkpt>
      <trkpt lat="43.17434" lon="2.42573">
        <ele>187.097107</ele>
        <time>2013-06-23T10:50:38Z</time>
      </trkpt>
      <trkpt lat="43.17438" lon="2.42578">
        <ele>187.754761</ele>
        <time>2013-06-23T10:50:40Z</time>
      </trkpt>
      <trkpt lat="43.17442" lon="2.42583">
        <ele>188.344604</ele>
        <time>2013-06-23T10:50:42Z</time>
      </trkpt>
      <trkpt lat="43.17446" lon="2.42589">
        <ele>188.852112</ele>
        <time>2013-06-23T10:50:45Z</time>
      </trkpt>
      <trkpt lat="43.17451" lon="2.42595">
        <ele>189.316681</ele>
        <time>2013-06-23T10:50:46Z</time>
      </trkpt>
      <trkpt lat="43.17454" lon="2.426">
        <ele>189.692627</ele>
        <time>2013-06-23T10:50:48Z</time>
      </trkpt>
      <trkpt lat="43.17458" lon="2.42605">
        <ele>190.035248</ele>
        <time>2013-06-23T10:50:50Z</time>
      </trkpt>
      <trkpt lat="43.17462" lon="2.4261">
        <ele>190.415405</ele>
        <time>2013-06-23T10:50:52Z</time>
      </trkpt>
      <trkpt lat="43.17465" lon="2.42615">
        <ele>190.72464</ele>
        <time>2013-06-23T10:50:54Z</time>
      </trkpt>
      <trkpt lat="43.1747" lon="2.4262">
        <ele>191.190063</ele>
        <time>2013-06-23T10:50:59Z</time>
      </trkpt>
      <trkpt lat="43.17473" lon="2.42625">
        <ele>191.42749</ele>
        <time>2013-06-23T10:50:59Z</time>
      </trkpt>
      <trkpt lat="43.17476" lon="2.4263">
        <ele>191.59256</ele>
        <time>2013-06-23T10:51:02Z</time>
      </trkpt>
      <trkpt lat="43.17479" lon="2.42638">
        <ele>191.751862</ele>
        <time>2013-06-23T10:51:04Z</time>
      </trkpt>
      <trkpt lat="43.1748" lon="2.42645">
        <ele>191.698639</ele>
        <time>2013-06-23T10:51:06Z</time>
      </trkpt>
      <trkpt lat="43.1748" lon="2.42651">
        <ele>191.487152</ele>
        <time>2013-06-23T10:51:09Z</time>
      </trkpt>
      <trkpt lat="43.17479" lon="2.42659">
        <ele>191.165344</ele>
        <time>2013-06-23T10:51:11Z</time>
      </trkpt>
      <trkpt lat="43.17477" lon="2.42666">
        <ele>190.835205</ele>
        <time>2013-06-23T10:51:12Z</time>
      </trkpt>
      <trkpt lat="43.17477" lon="2.42676">
        <ele>190.611053</ele>
        <time>2013-06-23T10:51:14Z</time>
      </trkpt>
      <trkpt lat="43.17476" lon="2.42686">
        <ele>190.334808</ele>
        <time>2013-06-23T10:51:16Z</time>
      </trkpt>
      <trkpt lat="43.17475" lon="2.42697">
        <ele>190.038727</ele>
        <time>2013-06-23T10:51:19Z</time>
      </trkpt>
      <trkpt lat="43.17475" lon="2.42704">
        <ele>189.900085</ele>
        <time>2013-06-23T10:51:20Z</time>
      </trkpt>
      <trkpt lat="43.17476" lon="2.4271">
        <ele>189.790222</ele>
        <time>2013-06-23T10:51:20Z</time>
      </trkpt>
      <trkpt lat="43.17476" lon="2.42717">
        <ele>189.671387</ele>
        <time>2013-06-23T10:51:22Z</time>
      </trkpt>
      <trkpt lat="43.17475" lon="2.42728">
        <ele>189.428589</ele>
        <time>2013-06-23T10:51:23Z</time>
      </trkpt>
      <trkpt lat="43.17476" lon="2.42738">
        <ele>189.248932</ele>
        <time>2013-06-23T10:51:26Z</time>
      </trkpt>
      <trkpt lat="43.17478" lon="2.42747">
        <ele>189.058502</ele>
        <time>2013-06-23T10:51:27Z</time>
      </trkpt>
      <trkpt lat="43.17479" lon="2.42757">
        <ele>189.210083</ele>
        <time>2013-06-23T10:51:30Z</time>
      </trkpt>
      <trkpt lat="43.1748" lon="2.42767">
        <ele>189.511902</ele>
        <time>2013-06-23T10:51:31Z</time>
      </trkpt>
      <trkpt lat="43.17483" lon="2.42777">
        <ele>189.778259</ele>
        <time>2013-06-23T10:51:34Z</time>
      </trkpt>
      <trkpt lat="43.17486" lon="2.42788">
        <ele>190.050232</ele>
        <time>2013-06-23T10:51:35Z</time>
      </trkpt>
      <trkpt lat="43.17489" lon="2.42798">
        <ele>190.296692</ele>
        <time>2013-06-23T10:51:38Z</time>
      </trkpt>
      <trkpt lat="43.1749" lon="2.42807">
        <ele>190.529114</ele>
        <time>2013-06-23T10:51:39Z</time>
      </trkpt>
      <trkpt lat="43.17493" lon="2.42816">
        <ele>190.717255</ele>
        <time>2013-06-23T10:51:42Z</time>
      </trkpt>
      <trkpt lat="43.17495" lon="2.42826">
        <ele>190.935608</ele>
        <time>2013-06-23T10:51:43Z</time>
      </trkpt>
      <trkpt lat="43.17497" lon="2.42837">
        <ele>191.054626</ele>
        <time>2013-06-23T10:51:46Z</time>
      </trkpt>
      <trkpt lat="43.175" lon="2.42849">
        <ele>191.003937</ele>
        <time>2013-06-23T10:51:47Z</time>
      </trkpt>
      <trkpt lat="43.17501" lon="2.42855">
        <ele>190.748627</ele>
        <time>2013-06-23T10:51:48Z</time>
      </trkpt>
      <trkpt lat="43.17505" lon="2.42867">
        <ele>190.120056</ele>
        <time>2013-06-23T10:51:50Z</time>
      </trkpt>
      <trkpt lat="43.17508" lon="2.42871">
        <ele>189.490448</ele>
        <time>2013-06-23T10:51:51Z</time>
      </trkpt>
      <trkpt lat="43.17512" lon="2.42874">
        <ele>188.776398</ele>
        <time>2013-06-23T10:51:52Z</time>
      </trkpt>
      <trkpt lat="43.17519" lon="2.42879">
        <ele>187.487183</ele>
        <time>2013-06-23T10:51:54Z</time>
      </trkpt>
      <trkpt lat="43.17524" lon="2.42884">
        <ele>186.580872</ele>
        <time>2013-06-23T10:51:57Z</time>
      </trkpt>
      <trkpt lat="43.17529" lon="2.42893">
        <ele>185.712891</ele>
        <time>2013-06-23T10:51:58Z</time>
      </trkpt>
      <trkpt lat="43.17534" lon="2.42904">
        <ele>184.863403</ele>
        <time>2013-06-23T10:52:00Z</time>
      </trkpt>
      <trkpt lat="43.17536" lon="2.42909">
        <ele>184.469055</ele>
        <time>2013-06-23T10:52:02Z</time>
      </trkpt>
      <trkpt lat="43.17539" lon="2.42921">
        <ele>184.015076</ele>
        <time>2013-06-23T10:52:03Z</time>
      </trkpt>
      <trkpt lat="43.17541" lon="2.42932">
        <ele>183.457275</ele>
        <time>2013-06-23T10:52:05Z</time>
      </trkpt>
      <trkpt lat="43.17542" lon="2.42939">
        <ele>183.198242</ele>
        <time>2013-06-23T10:52:07Z</time>
      </trkpt>
      <trkpt lat="43.17543" lon="2.42947">
        <ele>182.857422</ele>
        <time>2013-06-23T10:52:07Z</time>
      </trkpt>
      <trkpt lat="43.17545" lon="2.42954">
        <ele>182.545227</ele>
        <time>2013-06-23T10:52:08Z</time>
      </trkpt>
      <trkpt lat="43.17547" lon="2.42962">
        <ele>182.10498</ele>
        <time>2013-06-23T10:52:09Z</time>
      </trkpt>
      <trkpt lat="43.17549" lon="2.4297">
        <ele>181.730347</ele>
        <time>2013-06-23T10:52:10Z</time>
      </trkpt>
      <trkpt lat="43.17552" lon="2.42979">
        <ele>181.299561</ele>
        <time>2013-06-23T10:52:11Z</time>
      </trkpt>
      <trkpt lat="43.17554" lon="2.42987">
        <ele>180.949341</ele>
        <time>2013-06-23T10:52:12Z</time>
      </trkpt>
      <trkpt lat="43.17556" lon="2.42994">
        <ele>180.605103</ele>
        <time>2013-06-23T10:52:13Z</time>
      </trkpt>
      <trkpt lat="43.17559" lon="2.43002">
        <ele>180.191406</ele>
        <time>2013-06-23T10:52:14Z</time>
      </trkpt>
      <trkpt lat="43.17561" lon="2.4301">
        <ele>179.670105</ele>
        <time>2013-06-23T10:52:15Z</time>
      </trkpt>
      <trkpt lat="43.17563" lon="2.43017">
        <ele>179.281128</ele>
        <time>2013-06-23T10:52:17Z</time>
      </trkpt>
      <trkpt lat="43.17563" lon="2.43026">
        <ele>179.004028</ele>
        <time>2013-06-23T10:52:17Z</time>
      </trkpt>
      <trkpt lat="43.17563" lon="2.43034">
        <ele>178.833374</ele>
        <time>2013-06-23T10:52:18Z</time>
      </trkpt>
      <trkpt lat="43.17562" lon="2.43042">
        <ele>178.732727</ele>
        <time>2013-06-23T10:52:19Z</time>
      </trkpt>
      <trkpt lat="43.17561" lon="2.4305">
        <ele>178.600098</ele>
        <time>2013-06-23T10:52:20Z</time>
      </trkpt>
      <trkpt lat="43.1756" lon="2.43057">
        <ele>178.54541</ele>
        <time>2013-06-23T10:52:21Z</time>
      </trkpt>
      <trkpt lat="43.17558" lon="2.43063">
        <ele>178.590332</ele>
        <time>2013-06-23T10:52:22Z</time>
      </trkpt>
      <trkpt lat="43.17553" lon="2.43073">
        <ele>178.93573</ele>
        <time>2013-06-23T10:52:24Z</time>
      </trkpt>
      <trkpt lat="43.17547" lon="2.4308">
        <ele>179.483582</ele>
        <time>2013-06-23T10:52:26Z</time>
      </trkpt>
      <trkpt lat="43.17541" lon="2.43085">
        <ele>179.966614</ele>
        <time>2013-06-23T10:52:29Z</time>
      </trkpt>
      <trkpt lat="43.17535" lon="2.43089">
        <ele>180.442261</ele>
        <time>2013-06-23T10:52:30Z</time>
      </trkpt>
      <trkpt lat="43.17529" lon="2.43093">
        <ele>180.897095</ele>
        <time>2013-06-23T10:52:32Z</time>
      </trkpt>
      <trkpt lat="43.17525" lon="2.43096">
        <ele>181.290161</ele>
        <time>2013-06-23T10:52:35Z</time>
      </trkpt>
      <trkpt lat="43.17519" lon="2.431">
        <ele>181.730957</ele>
        <time>2013-06-23T10:52:36Z</time>
      </trkpt>
      <trkpt lat="43.17512" lon="2.43104">
        <ele>182.340149</ele>
        <time>2013-06-23T10:52:38Z</time>
      </trkpt>
      <trkpt lat="43.17505" lon="2.43107">
        <ele>182.935486</ele>
        <time>2013-06-23T10:52:41Z</time>
      </trkpt>
      <trkpt lat="43.17499" lon="2.43111">
        <ele>183.380615</ele>
        <time>2013-06-23T10:52:42Z</time>
      </trkpt>
      <trkpt lat="43.17492" lon="2.43116">
        <ele>183.422607</ele>
        <time>2013-06-23T10:52:44Z</time>
      </trkpt>
      <trkpt lat="43.17486" lon="2.43122">
        <ele>183.34729</ele>
        <time>2013-06-23T10:52:46Z</time>
      </trkpt>
      <trkpt lat="43.1748" lon="2.4313">
        <ele>183.219421</ele>
        <time>2013-06-23T10:52:48Z</time>
      </trkpt>
      <trkpt lat="43.17474" lon="2.4314">
        <ele>182.963806</ele>
        <time>2013-06-23T10:52:51Z</time>
      </trkpt>
      <trkpt lat="43.1747" lon="2.43151">
        <ele>182.580872</ele>
        <time>2013-06-23T10:52:52Z</time>
      </trkpt>
      <trkpt lat="43.17469" lon="2.43158">
        <ele>182.343872</ele>
        <time>2013-06-23T10:52:53Z</time>
      </trkpt>
      <trkpt lat="43.17467" lon="2.43164">
        <ele>182.100891</ele>
        <time>2013-06-23T10:52:54Z</time>
      </trkpt>
      <trkpt lat="43.17466" lon="2.4317">
        <ele>181.948608</ele>
        <time>2013-06-23T10:52:55Z</time>
      </trkpt>
      <trkpt lat="43.17462" lon="2.4318">
        <ele>181.790894</ele>
        <time>2013-06-23T10:52:57Z</time>
      </trkpt>
      <trkpt lat="43.17458" lon="2.4319">
        <ele>181.655396</ele>
        <time>2013-06-23T10:52:59Z</time>
      </trkpt>
      <trkpt lat="43.17453" lon="2.432">
        <ele>181.66272</ele>
        <time>2013-06-23T10:53:01Z</time>
      </trkpt>
      <trkpt lat="43.17447" lon="2.43208">
        <ele>181.692566</ele>
        <time>2013-06-23T10:53:04Z</time>
      </trkpt>
      <trkpt lat="43.17443" lon="2.43216">
        <ele>181.684082</ele>
        <time>2013-06-23T10:53:05Z</time>
      </trkpt>
      <trkpt lat="43.17437" lon="2.43224">
        <ele>181.72821</ele>
        <time>2013-06-23T10:53:07Z</time>
      </trkpt>
      <trkpt lat="43.17432" lon="2.43234">
        <ele>181.672729</ele>
        <time>2013-06-23T10:53:10Z</time>
      </trkpt>
      <trkpt lat="43.17428" lon="2.43245">
        <ele>181.50061</ele>
        <time>2013-06-23T10:53:11Z</time>
      </trkpt>
      <trkpt lat="43.17427" lon="2.43257">
        <ele>181.154358</ele>
        <time>2013-06-23T10:53:13Z</time>
      </trkpt>
      <trkpt lat="43.17426" lon="2.43264">
        <ele>180.975708</ele>
        <time>2013-06-23T10:53:15Z</time>
      </trkpt>
      <trkpt lat="43.17426" lon="2.4327">
        <ele>180.791382</ele>
        <time>2013-06-23T10:53:15Z</time>
      </trkpt>
      <trkpt lat="43.17425" lon="2.43276">
        <ele>180.613159</ele>
        <time>2013-06-23T10:53:16Z</time>
      </trkpt>
      <trkpt lat="43.17425" lon="2.43283">
        <ele>180.420593</ele>
        <time>2013-06-23T10:53:17Z</time>
      </trkpt>
      <trkpt lat="43.17424" lon="2.4329">
        <ele>180.201965</ele>
        <time>2013-06-23T10:53:18Z</time>
      </trkpt>
      <trkpt lat="43.17424" lon="2.43297">
        <ele>179.988281</ele>
        <time>2013-06-23T10:53:19Z</time>
      </trkpt>
      <trkpt lat="43.17423" lon="2.43305">
        <ele>179.752014</ele>
        <time>2013-06-23T10:53:20Z</time>
      </trkpt>
      <trkpt lat="43.17421" lon="2.43314">
        <ele>179.487793</ele>
        <time>2013-06-23T10:53:21Z</time>
      </trkpt>
      <trkpt lat="43.17419" lon="2.43324">
        <ele>179.268188</ele>
        <time>2013-06-23T10:53:22Z</time>
      </trkpt>
      <trkpt lat="43.17415" lon="2.43333">
        <ele>179.197266</ele>
        <time>2013-06-23T10:53:23Z</time>
      </trkpt>
      <trkpt lat="43.1741" lon="2.43342">
        <ele>179.617065</ele>
        <time>2013-06-23T10:53:24Z</time>
      </trkpt>
      <trkpt lat="43.17404" lon="2.43348">
        <ele>180.172241</ele>
        <time>2013-06-23T10:53:26Z</time>
      </trkpt>
      <trkpt lat="43.17397" lon="2.43356">
        <ele>180.710205</ele>
        <time>2013-06-23T10:53:27Z</time>
      </trkpt>
      <trkpt lat="43.17391" lon="2.43363">
        <ele>181.177673</ele>
        <time>2013-06-23T10:53:27Z</time>
      </trkpt>
      <trkpt lat="43.17386" lon="2.43372">
        <ele>181.458496</ele>
        <time>2013-06-23T10:53:28Z</time>
      </trkpt>
      <trkpt lat="43.17382" lon="2.43379">
        <ele>181.657349</ele>
        <time>2013-06-23T10:53:29Z</time>
      </trkpt>
      <trkpt lat="43.17378" lon="2.43386">
        <ele>181.799194</ele>
        <time>2013-06-23T10:53:30Z</time>
      </trkpt>
      <trkpt lat="43.17375" lon="2.43394">
        <ele>181.902466</ele>
        <time>2013-06-23T10:53:31Z</time>
      </trkpt>
      <trkpt lat="43.17373" lon="2.43402">
        <ele>181.92688</ele>
        <time>2013-06-23T10:53:32Z</time>
      </trkpt>
      <trkpt lat="43.17371" lon="2.4341">
        <ele>181.869324</ele>
        <time>2013-06-23T10:53:33Z</time>
      </trkpt>
      <trkpt lat="43.17371" lon="2.43418">
        <ele>181.724182</ele>
        <time>2013-06-23T10:53:34Z</time>
      </trkpt>
      <trkpt lat="43.17372" lon="2.43426">
        <ele>181.715759</ele>
        <time>2013-06-23T10:53:35Z</time>
      </trkpt>
      <trkpt lat="43.17372" lon="2.43434">
        <ele>181.720459</ele>
        <time>2013-06-23T10:53:36Z</time>
      </trkpt>
      <trkpt lat="43.17372" lon="2.43443">
        <ele>181.726135</ele>
        <time>2013-06-23T10:53:38Z</time>
      </trkpt>
      <trkpt lat="43.17373" lon="2.43452">
        <ele>181.746277</ele>
        <time>2013-06-23T10:53:39Z</time>
      </trkpt>
      <trkpt lat="43.17373" lon="2.43461">
        <ele>181.771912</ele>
        <time>2013-06-23T10:53:39Z</time>
      </trkpt>
      <trkpt lat="43.17373" lon="2.43469">
        <ele>181.795593</ele>
        <time>2013-06-23T10:53:40Z</time>
      </trkpt>
      <trkpt lat="43.17373" lon="2.43476">
        <ele>181.814392</ele>
        <time>2013-06-23T10:53:41Z</time>
      </trkpt>
      <trkpt lat="43.17372" lon="2.43483">
        <ele>181.823242</ele>
        <time>2013-06-23T10:53:42Z</time>
      </trkpt>
      <trkpt lat="43.17371" lon="2.4349">
        <ele>181.786682</ele>
        <time>2013-06-23T10:53:43Z</time>
      </trkpt>
      <trkpt lat="43.17369" lon="2.43496">
        <ele>181.72406</ele>
        <time>2013-06-23T10:53:44Z</time>
      </trkpt>
      <trkpt lat="43.17366" lon="2.43506">
        <ele>181.821899</ele>
        <time>2013-06-23T10:53:46Z</time>
      </trkpt>
      <trkpt lat="43.17363" lon="2.43513">
        <ele>181.997009</ele>
        <time>2013-06-23T10:53:48Z</time>
      </trkpt>
      <trkpt lat="43.17361" lon="2.43519">
        <ele>182.17865</ele>
        <time>2013-06-23T10:53:50Z</time>
      </trkpt>
      <trkpt lat="43.1736" lon="2.43525">
        <ele>182.361206</ele>
        <time>2013-06-23T10:53:52Z</time>
      </trkpt>
      <trkpt lat="43.17358" lon="2.43532">
        <ele>182.589844</ele>
        <time>2013-06-23T10:53:54Z</time>
      </trkpt>
      <trkpt lat="43.17357" lon="2.4354">
        <ele>182.929688</ele>
        <time>2013-06-23T10:53:57Z</time>
      </trkpt>
      <trkpt lat="43.17357" lon="2.43547">
        <ele>183.204041</ele>
        <time>2013-06-23T10:53:59Z</time>
      </trkpt>
      <trkpt lat="43.17356" lon="2.43553">
        <ele>183.471191</ele>
        <time>2013-06-23T10:54:02Z</time>
      </trkpt>
      <trkpt lat="43.17356" lon="2.43559">
        <ele>183.7323</ele>
        <time>2013-06-23T10:54:03Z</time>
      </trkpt>
      <trkpt lat="43.17355" lon="2.43566">
        <ele>184.006287</ele>
        <time>2013-06-23T10:54:05Z</time>
      </trkpt>
      <trkpt lat="43.17355" lon="2.43574">
        <ele>184.330566</ele>
        <time>2013-06-23T10:54:07Z</time>
      </trkpt>
      <trkpt lat="43.17354" lon="2.43582">
        <ele>184.655945</ele>
        <time>2013-06-23T10:54:09Z</time>
      </trkpt>
      <trkpt lat="43.17353" lon="2.43588">
        <ele>185.089355</ele>
        <time>2013-06-23T10:54:11Z</time>
      </trkpt>
      <trkpt lat="43.17351" lon="2.43596">
        <ele>185.685852</ele>
        <time>2013-06-23T10:54:14Z</time>
      </trkpt>
      <trkpt lat="43.17349" lon="2.43601">
        <ele>186.120605</ele>
        <time>2013-06-23T10:54:17Z</time>
      </trkpt>
      <trkpt lat="43.17346" lon="2.43608">
        <ele>186.622986</ele>
        <time>2013-06-23T10:54:20Z</time>
      </trkpt>
      <trkpt lat="43.17343" lon="2.43615">
        <ele>187.193604</ele>
        <time>2013-06-23T10:54:24Z</time>
      </trkpt>
      <trkpt lat="43.17341" lon="2.43622">
        <ele>187.778015</ele>
        <time>2013-06-23T10:54:26Z</time>
      </trkpt>
      <trkpt lat="43.17339" lon="2.43629">
        <ele>188.468842</ele>
        <time>2013-06-23T10:54:29Z</time>
      </trkpt>
      <trkpt lat="43.17338" lon="2.43636">
        <ele>189.070007</ele>
        <time>2013-06-23T10:54:32Z</time>
      </trkpt>
      <trkpt lat="43.17337" lon="2.43645">
        <ele>189.882812</ele>
        <time>2013-06-23T10:54:37Z</time>
      </trkpt>
      <trkpt lat="43.17337" lon="2.43653">
        <ele>190.643097</ele>
        <time>2013-06-23T10:54:40Z</time>
      </trkpt>
      <trkpt lat="43.17335" lon="2.4366">
        <ele>191.33551</ele>
        <time>2013-06-23T10:54:43Z</time>
      </trkpt>
      <trkpt lat="43.17333" lon="2.43666">
        <ele>191.971863</ele>
        <time>2013-06-23T10:54:47Z</time>
      </trkpt>
      <trkpt lat="43.17331" lon="2.43672">
        <ele>192.591339</ele>
        <time>2013-06-23T10:54:49Z</time>
      </trkpt>
      <trkpt lat="43.17328" lon="2.43679">
        <ele>193.359924</ele>
        <time>2013-06-23T10:54:53Z</time>
      </trkpt>
      <trkpt lat="43.17327" lon="2.43687">
        <ele>194.137848</ele>
        <time>2013-06-23T10:54:57Z</time>
      </trkpt>
      <trkpt lat="43.17326" lon="2.43693">
        <ele>194.766174</ele>
        <time>2013-06-23T10:55:00Z</time>
      </trkpt>
      <trkpt lat="43.17324" lon="2.437">
        <ele>195.51004</ele>
        <time>2013-06-23T10:55:04Z</time>
      </trkpt>
      <trkpt lat="43.17322" lon="2.43707">
        <ele>196.254303</ele>
        <time>2013-06-23T10:55:08Z</time>
      </trkpt>
      <trkpt lat="43.1732" lon="2.43712">
        <ele>196.879456</ele>
        <time>2013-06-23T10:55:11Z</time>
      </trkpt>
      <trkpt lat="43.17319" lon="2.43719">
        <ele>197.563232</ele>
        <time>2013-06-23T10:55:14Z</time>
      </trkpt>
      <trkpt lat="43.17317" lon="2.43725">
        <ele>198.274933</ele>
        <time>2013-06-23T10:55:18Z</time>
      </trkpt>
      <trkpt lat="43.17314" lon="2.4373">
        <ele>198.902344</ele>
        <time>2013-06-23T10:55:21Z</time>
      </trkpt>
      <trkpt lat="43.1731" lon="2.4374">
        <ele>200.102173</ele>
        <time>2013-06-23T10:55:27Z</time>
      </trkpt>
      <trkpt lat="43.17306" lon="2.43743">
        <ele>200.597351</ele>
        <time>2013-06-23T10:55:31Z</time>
      </trkpt>
      <trkpt lat="43.17301" lon="2.43744">
        <ele>200.892548</ele>
        <time>2013-06-23T10:55:34Z</time>
      </trkpt>
      <trkpt lat="43.17296" lon="2.43747">
        <ele>201.431458</ele>
        <time>2013-06-23T10:55:37Z</time>
      </trkpt>
      <trkpt lat="43.17292" lon="2.43751">
        <ele>202.098236</ele>
        <time>2013-06-23T10:55:40Z</time>
      </trkpt>
      <trkpt lat="43.17286" lon="2.43754">
        <ele>202.561157</ele>
        <time>2013-06-23T10:55:45Z</time>
      </trkpt>
      <trkpt lat="43.17282" lon="2.43757">
        <ele>203.016388</ele>
        <time>2013-06-23T10:55:47Z</time>
      </trkpt>
      <trkpt lat="43.17276" lon="2.4376">
        <ele>203.461975</ele>
        <time>2013-06-23T10:55:51Z</time>
      </trkpt>
      <trkpt lat="43.17272" lon="2.43763">
        <ele>203.804596</ele>
        <time>2013-06-23T10:55:54Z</time>
      </trkpt>
      <trkpt lat="43.17267" lon="2.43768">
        <ele>204.271698</ele>
        <time>2013-06-23T10:55:57Z</time>
      </trkpt>
      <trkpt lat="43.17263" lon="2.43772">
        <ele>204.699982</ele>
        <time>2013-06-23T10:55:59Z</time>
      </trkpt>
      <trkpt lat="43.1726" lon="2.43778">
        <ele>205.112946</ele>
        <time>2013-06-23T10:56:01Z</time>
      </trkpt>
      <trkpt lat="43.17255" lon="2.43786">
        <ele>205.658447</ele>
        <time>2013-06-23T10:56:05Z</time>
      </trkpt>
      <trkpt lat="43.17252" lon="2.43798">
        <ele>206.286133</ele>
        <time>2013-06-23T10:56:10Z</time>
      </trkpt>
      <trkpt lat="43.17251" lon="2.43806">
        <ele>206.707703</ele>
        <time>2013-06-23T10:56:12Z</time>
      </trkpt>
      <trkpt lat="43.17252" lon="2.43818">
        <ele>207.297058</ele>
        <time>2013-06-23T10:56:19Z</time>
      </trkpt>
      <trkpt lat="43.17253" lon="2.4383">
        <ele>207.873962</ele>
        <time>2013-06-23T10:56:27Z</time>
      </trkpt>
      <trkpt lat="43.17253" lon="2.4384">
        <ele>208.147186</ele>
        <time>2013-06-23T10:56:44Z</time>
      </trkpt>
      <trkpt lat="43.17255" lon="2.43848">
        <ele>208.288849</ele>
        <time>2013-06-23T10:56:48Z</time>
      </trkpt>
      <trkpt lat="43.17254" lon="2.43856">
        <ele>208.373322</ele>
        <time>2013-06-23T10:56:51Z</time>
      </trkpt>
      <trkpt lat="43.17255" lon="2.43864">
        <ele>208.479645</ele>
        <time>2013-06-23T10:56:54Z</time>
      </trkpt>
      <trkpt lat="43.17256" lon="2.43872">
        <ele>208.598877</ele>
        <time>2013-06-23T10:56:57Z</time>
      </trkpt>
      <trkpt lat="43.17257" lon="2.43881">
        <ele>208.7258</ele>
        <time>2013-06-23T10:57:00Z</time>
      </trkpt>
      <trkpt lat="43.17257" lon="2.43889">
        <ele>208.832123</ele>
        <time>2013-06-23T10:57:03Z</time>
      </trkpt>
      <trkpt lat="43.17258" lon="2.43897">
        <ele>208.961212</ele>
        <time>2013-06-23T10:57:06Z</time>
      </trkpt>
      <trkpt lat="43.17261" lon="2.43907">
        <ele>209.147919</ele>
        <time>2013-06-23T10:57:10Z</time>
      </trkpt>
      <trkpt lat="43.17262" lon="2.43915">
        <ele>209.273224</ele>
        <time>2013-06-23T10:57:13Z</time>
      </trkpt>
      <trkpt lat="43.17264" lon="2.43922">
        <ele>209.160797</ele>
        <time>2013-06-23T10:57:16Z</time>
      </trkpt>
      <trkpt lat="43.17264" lon="2.43929">
        <ele>208.97406</ele>
        <time>2013-06-23T10:57:19Z</time>
      </trkpt>
      <trkpt lat="43.17265" lon="2.43939">
        <ele>208.68454</ele>
        <time>2013-06-23T10:57:23Z</time>
      </trkpt>
      <trkpt lat="43.17264" lon="2.43946">
        <ele>208.470428</ele>
        <time>2013-06-23T10:57:26Z</time>
      </trkpt>
      <trkpt lat="43.17263" lon="2.43957">
        <ele>208.130585</ele>
        <time>2013-06-23T10:57:27Z</time>
      </trkpt>
      <trkpt lat="43.17262" lon="2.43967">
        <ele>207.822052</ele>
        <time>2013-06-23T10:57:29Z</time>
      </trkpt>
      <trkpt lat="43.1726" lon="2.43977">
        <ele>207.523438</ele>
        <time>2013-06-23T10:57:31Z</time>
      </trkpt>
      <trkpt lat="43.17258" lon="2.43983">
        <ele>207.376465</ele>
        <time>2013-06-23T10:57:32Z</time>
      </trkpt>
      <trkpt lat="43.17253" lon="2.43992">
        <ele>207.180908</ele>
        <time>2013-06-23T10:57:34Z</time>
      </trkpt>
      <trkpt lat="43.17251" lon="2.43998">
        <ele>207.050507</ele>
        <time>2013-06-23T10:57:35Z</time>
      </trkpt>
      <trkpt lat="43.17248" lon="2.44004">
        <ele>206.983765</ele>
        <time>2013-06-23T10:57:37Z</time>
      </trkpt>
      <trkpt lat="43.17246" lon="2.44011">
        <ele>206.969177</ele>
        <time>2013-06-23T10:57:38Z</time>
      </trkpt>
      <trkpt lat="43.17243" lon="2.44018">
        <ele>206.968323</ele>
        <time>2013-06-23T10:57:38Z</time>
      </trkpt>
      <trkpt lat="43.1724" lon="2.44023">
        <ele>206.980103</ele>
        <time>2013-06-23T10:57:39Z</time>
      </trkpt>
      <trkpt lat="43.17236" lon="2.44029">
        <ele>207.008911</ele>
        <time>2013-06-23T10:57:40Z</time>
      </trkpt>
      <trkpt lat="43.17232" lon="2.44034">
        <ele>207.047974</ele>
        <time>2013-06-23T10:57:41Z</time>
      </trkpt>
      <trkpt lat="43.17228" lon="2.44038">
        <ele>207.099182</ele>
        <time>2013-06-23T10:57:42Z</time>
      </trkpt>
      <trkpt lat="43.17224" lon="2.44041">
        <ele>207.151093</ele>
        <time>2013-06-23T10:57:43Z</time>
      </trkpt>
      <trkpt lat="43.17219" lon="2.44043">
        <ele>207.203339</ele>
        <time>2013-06-23T10:57:44Z</time>
      </trkpt>
      <trkpt lat="43.17214" lon="2.44045">
        <ele>207.266846</ele>
        <time>2013-06-23T10:57:45Z</time>
      </trkpt>
      <trkpt lat="43.17209" lon="2.44047">
        <ele>207.344788</ele>
        <time>2013-06-23T10:57:47Z</time>
      </trkpt>
      <trkpt lat="43.17204" lon="2.4405">
        <ele>207.437866</ele>
        <time>2013-06-23T10:57:47Z</time>
      </trkpt>
      <trkpt lat="43.17196" lon="2.44054">
        <ele>207.616455</ele>
        <time>2013-06-23T10:57:49Z</time>
      </trkpt>
      <trkpt lat="43.1719" lon="2.44058">
        <ele>207.77713</ele>
        <time>2013-06-23T10:57:51Z</time>
      </trkpt>
      <trkpt lat="43.17183" lon="2.4406">
        <ele>207.940216</ele>
        <time>2013-06-23T10:57:53Z</time>
      </trkpt>
      <trkpt lat="43.17176" lon="2.44062">
        <ele>208.098602</ele>
        <time>2013-06-23T10:57:55Z</time>
      </trkpt>
      <trkpt lat="43.1717" lon="2.44064">
        <ele>208.257202</ele>
        <time>2013-06-23T10:57:57Z</time>
      </trkpt>
      <trkpt lat="43.17165" lon="2.44066">
        <ele>208.297729</ele>
        <time>2013-06-23T10:58:00Z</time>
      </trkpt>
      <trkpt lat="43.17159" lon="2.44067">
        <ele>208.134705</ele>
        <time>2013-06-23T10:58:01Z</time>
      </trkpt>
      <trkpt lat="43.17153" lon="2.44068">
        <ele>207.908691</ele>
        <time>2013-06-23T10:58:03Z</time>
      </trkpt>
      <trkpt lat="43.17146" lon="2.44068">
        <ele>207.640198</ele>
        <time>2013-06-23T10:58:05Z</time>
      </trkpt>
      <trkpt lat="43.17138" lon="2.44069">
        <ele>207.32962</ele>
        <time>2013-06-23T10:58:07Z</time>
      </trkpt>
      <trkpt lat="43.1713" lon="2.44067">
        <ele>207.007507</ele>
        <time>2013-06-23T10:58:09Z</time>
      </trkpt>
      <trkpt lat="43.17124" lon="2.44068">
        <ele>206.788269</ele>
        <time>2013-06-23T10:58:12Z</time>
      </trkpt>
      <trkpt lat="43.17119" lon="2.44072">
        <ele>206.598175</ele>
        <time>2013-06-23T10:58:13Z</time>
      </trkpt>
      <trkpt lat="43.17113" lon="2.4408">
        <ele>206.414246</ele>
        <time>2013-06-23T10:58:15Z</time>
      </trkpt>
      <trkpt lat="43.1711" lon="2.44085">
        <ele>206.254211</ele>
        <time>2013-06-23T10:58:16Z</time>
      </trkpt>
      <trkpt lat="43.17106" lon="2.4409">
        <ele>206.029572</ele>
        <time>2013-06-23T10:58:17Z</time>
      </trkpt>
      <trkpt lat="43.17102" lon="2.44095">
        <ele>205.795532</ele>
        <time>2013-06-23T10:58:18Z</time>
      </trkpt>
      <trkpt lat="43.17099" lon="2.441">
        <ele>205.569214</ele>
        <time>2013-06-23T10:58:19Z</time>
      </trkpt>
      <trkpt lat="43.17095" lon="2.44106">
        <ele>205.336517</ele>
        <time>2013-06-23T10:58:20Z</time>
      </trkpt>
      <trkpt lat="43.17092" lon="2.44112">
        <ele>205.1138</ele>
        <time>2013-06-23T10:58:22Z</time>
      </trkpt>
      <trkpt lat="43.17089" lon="2.44118">
        <ele>204.884827</ele>
        <time>2013-06-23T10:58:22Z</time>
      </trkpt>
      <trkpt lat="43.17086" lon="2.44124">
        <ele>204.653656</ele>
        <time>2013-06-23T10:58:23Z</time>
      </trkpt>
      <trkpt lat="43.17083" lon="2.44131">
        <ele>204.391632</ele>
        <time>2013-06-23T10:58:24Z</time>
      </trkpt>
      <trkpt lat="43.1708" lon="2.44139">
        <ele>204.098938</ele>
        <time>2013-06-23T10:58:25Z</time>
      </trkpt>
      <trkpt lat="43.17076" lon="2.44147">
        <ele>203.816345</ele>
        <time>2013-06-23T10:58:26Z</time>
      </trkpt>
      <trkpt lat="43.17073" lon="2.44156">
        <ele>203.52182</ele>
        <time>2013-06-23T10:58:27Z</time>
      </trkpt>
      <trkpt lat="43.1707" lon="2.44164">
        <ele>203.232178</ele>
        <time>2013-06-23T10:58:28Z</time>
      </trkpt>
      <trkpt lat="43.17067" lon="2.44173">
        <ele>202.789246</ele>
        <time>2013-06-23T10:58:29Z</time>
      </trkpt>
      <trkpt lat="43.17064" lon="2.44181">
        <ele>202.273804</ele>
        <time>2013-06-23T10:58:30Z</time>
      </trkpt>
      <trkpt lat="43.1706" lon="2.44189">
        <ele>201.74118</ele>
        <time>2013-06-23T10:58:31Z</time>
      </trkpt>
      <trkpt lat="43.17057" lon="2.44196">
        <ele>201.236023</ele>
        <time>2013-06-23T10:58:32Z</time>
      </trkpt>
      <trkpt lat="43.17053" lon="2.44202">
        <ele>200.75058</ele>
        <time>2013-06-23T10:58:34Z</time>
      </trkpt>
      <trkpt lat="43.17049" lon="2.44208">
        <ele>200.233582</ele>
        <time>2013-06-23T10:58:34Z</time>
      </trkpt>
      <trkpt lat="43.17045" lon="2.44214">
        <ele>199.719177</ele>
        <time>2013-06-23T10:58:35Z</time>
      </trkpt>
      <trkpt lat="43.1704" lon="2.44218">
        <ele>199.181366</ele>
        <time>2013-06-23T10:58:36Z</time>
      </trkpt>
      <trkpt lat="43.17034" lon="2.44222">
        <ele>198.670044</ele>
        <time>2013-06-23T10:58:37Z</time>
      </trkpt>
      <trkpt lat="43.1703" lon="2.44226">
        <ele>198.164429</ele>
        <time>2013-06-23T10:58:38Z</time>
      </trkpt>
      <trkpt lat="43.17025" lon="2.4423">
        <ele>197.645905</ele>
        <time>2013-06-23T10:58:39Z</time>
      </trkpt>
      <trkpt lat="43.17019" lon="2.44234">
        <ele>197.09848</ele>
        <time>2013-06-23T10:58:40Z</time>
      </trkpt>
      <trkpt lat="43.17015" lon="2.44238">
        <ele>196.584717</ele>
        <time>2013-06-23T10:58:41Z</time>
      </trkpt>
      <trkpt lat="43.17009" lon="2.44242">
        <ele>196.050201</ele>
        <time>2013-06-23T10:58:42Z</time>
      </trkpt>
      <trkpt lat="43.17004" lon="2.44246">
        <ele>195.523956</ele>
        <time>2013-06-23T10:58:44Z</time>
      </trkpt>
      <trkpt lat="43.17" lon="2.44249">
        <ele>195.043365</ele>
        <time>2013-06-23T10:58:45Z</time>
      </trkpt>
      <trkpt lat="43.16994" lon="2.44252">
        <ele>194.754791</ele>
        <time>2013-06-23T10:58:45Z</time>
      </trkpt>
      <trkpt lat="43.16989" lon="2.44254">
        <ele>194.492096</ele>
        <time>2013-06-23T10:58:46Z</time>
      </trkpt>
      <trkpt lat="43.16982" lon="2.44255">
        <ele>194.225159</ele>
        <time>2013-06-23T10:58:47Z</time>
      </trkpt>
      <trkpt lat="43.16974" lon="2.44256">
        <ele>193.926117</ele>
        <time>2013-06-23T10:58:48Z</time>
      </trkpt>
      <trkpt lat="43.16967" lon="2.44257">
        <ele>193.64386</ele>
        <time>2013-06-23T10:58:49Z</time>
      </trkpt>
      <trkpt lat="43.16961" lon="2.44259">
        <ele>193.366913</ele>
        <time>2013-06-23T10:58:50Z</time>
      </trkpt>
      <trkpt lat="43.16955" lon="2.44263">
        <ele>193.062561</ele>
        <time>2013-06-23T10:58:52Z</time>
      </trkpt>
      <trkpt lat="43.16949" lon="2.44267">
        <ele>192.76123</ele>
        <time>2013-06-23T10:58:52Z</time>
      </trkpt>
      <trkpt lat="43.16944" lon="2.44273">
        <ele>192.443665</ele>
        <time>2013-06-23T10:58:53Z</time>
      </trkpt>
      <trkpt lat="43.1694" lon="2.4428">
        <ele>192.128662</ele>
        <time>2013-06-23T10:58:55Z</time>
      </trkpt>
      <trkpt lat="43.16937" lon="2.44288">
        <ele>191.847198</ele>
        <time>2013-06-23T10:58:56Z</time>
      </trkpt>
      <trkpt lat="43.16935" lon="2.44296">
        <ele>191.572083</ele>
        <time>2013-06-23T10:58:56Z</time>
      </trkpt>
      <trkpt lat="43.16935" lon="2.44305">
        <ele>191.353271</ele>
        <time>2013-06-23T10:58:57Z</time>
      </trkpt>
      <trkpt lat="43.16935" lon="2.44313">
        <ele>191.14859</ele>
        <time>2013-06-23T10:58:58Z</time>
      </trkpt>
      <trkpt lat="43.16936" lon="2.44321">
        <ele>190.982239</ele>
        <time>2013-06-23T10:58:59Z</time>
      </trkpt>
      <trkpt lat="43.16936" lon="2.44329">
        <ele>190.81424</ele>
        <time>2013-06-23T10:59:00Z</time>
      </trkpt>
      <trkpt lat="43.16937" lon="2.44337">
        <ele>190.734589</ele>
        <time>2013-06-23T10:59:01Z</time>
      </trkpt>
      <trkpt lat="43.16938" lon="2.44346">
        <ele>190.733856</ele>
        <time>2013-06-23T10:59:02Z</time>
      </trkpt>
      <trkpt lat="43.16939" lon="2.44356">
        <ele>190.716736</ele>
        <time>2013-06-23T10:59:03Z</time>
      </trkpt>
      <trkpt lat="43.16939" lon="2.44367">
        <ele>190.681152</ele>
        <time>2013-06-23T10:59:04Z</time>
      </trkpt>
      <trkpt lat="43.16936" lon="2.44377">
        <ele>190.587494</ele>
        <time>2013-06-23T10:59:05Z</time>
      </trkpt>
      <trkpt lat="43.16934" lon="2.44386">
        <ele>190.497192</ele>
        <time>2013-06-23T10:59:06Z</time>
      </trkpt>
      <trkpt lat="43.16931" lon="2.44395">
        <ele>190.40036</ele>
        <time>2013-06-23T10:59:08Z</time>
      </trkpt>
      <trkpt lat="43.16928" lon="2.44402">
        <ele>190.281525</ele>
        <time>2013-06-23T10:59:08Z</time>
      </trkpt>
      <trkpt lat="43.16924" lon="2.44408">
        <ele>190.172394</ele>
        <time>2013-06-23T10:59:09Z</time>
      </trkpt>
      <trkpt lat="43.16919" lon="2.44413">
        <ele>190.048584</ele>
        <time>2013-06-23T10:59:10Z</time>
      </trkpt>
      <trkpt lat="43.16914" lon="2.44418">
        <ele>190.322083</ele>
        <time>2013-06-23T10:59:11Z</time>
      </trkpt>
      <trkpt lat="43.1691" lon="2.44423">
        <ele>190.741058</ele>
        <time>2013-06-23T10:59:12Z</time>
      </trkpt>
      <trkpt lat="43.16906" lon="2.44427">
        <ele>191.10968</ele>
        <time>2013-06-23T10:59:13Z</time>
      </trkpt>
      <trkpt lat="43.16903" lon="2.44432">
        <ele>191.415161</ele>
        <time>2013-06-23T10:59:14Z</time>
      </trkpt>
      <trkpt lat="43.16897" lon="2.4444">
        <ele>191.958496</ele>
        <time>2013-06-23T10:59:16Z</time>
      </trkpt>
      <trkpt lat="43.16892" lon="2.44447">
        <ele>192.385529</ele>
        <time>2013-06-23T10:59:19Z</time>
      </trkpt>
      <trkpt lat="43.16888" lon="2.44453">
        <ele>192.757751</ele>
        <time>2013-06-23T10:59:20Z</time>
      </trkpt>
      <trkpt lat="43.16882" lon="2.44456">
        <ele>193.263611</ele>
        <time>2013-06-23T10:59:23Z</time>
      </trkpt>
      <trkpt lat="43.16878" lon="2.44459">
        <ele>193.711029</ele>
        <time>2013-06-23T10:59:26Z</time>
      </trkpt>
      <trkpt lat="43.16873" lon="2.44461">
        <ele>194.149841</ele>
        <time>2013-06-23T10:59:32Z</time>
      </trkpt>
      <trkpt lat="43.16869" lon="2.44464">
        <ele>194.542511</ele>
        <time>2013-06-23T10:59:35Z</time>
      </trkpt>
      <trkpt lat="43.16864" lon="2.44468">
        <ele>194.962341</ele>
        <time>2013-06-23T10:59:39Z</time>
      </trkpt>
      <trkpt lat="43.16859" lon="2.44472">
        <ele>195.289185</ele>
        <time>2013-06-23T10:59:42Z</time>
      </trkpt>
      <trkpt lat="43.16855" lon="2.44476">
        <ele>195.635742</ele>
        <time>2013-06-23T10:59:45Z</time>
      </trkpt>
      <trkpt lat="43.16851" lon="2.44481">
        <ele>195.924561</ele>
        <time>2013-06-23T10:59:48Z</time>
      </trkpt>
      <trkpt lat="43.16847" lon="2.44486">
        <ele>196.130951</ele>
        <time>2013-06-23T10:59:51Z</time>
      </trkpt>
      <trkpt lat="43.16843" lon="2.44492">
        <ele>196.333344</ele>
        <time>2013-06-23T10:59:55Z</time>
      </trkpt>
      <trkpt lat="43.16839" lon="2.44496">
        <ele>196.586975</ele>
        <time>2013-06-23T10:59:58Z</time>
      </trkpt>
      <trkpt lat="43.16835" lon="2.44498">
        <ele>196.930145</ele>
        <time>2013-06-23T11:00:00Z</time>
      </trkpt>
      <trkpt lat="43.1683" lon="2.44499">
        <ele>197.42453</ele>
        <time>2013-06-23T11:00:03Z</time>
      </trkpt>
      <trkpt lat="43.16825" lon="2.44501">
        <ele>198.040802</ele>
        <time>2013-06-23T11:00:06Z</time>
      </trkpt>
      <trkpt lat="43.1682" lon="2.44502">
        <ele>198.702362</ele>
        <time>2013-06-23T11:00:09Z</time>
      </trkpt>
      <trkpt lat="43.16814" lon="2.44502">
        <ele>199.351532</ele>
        <time>2013-06-23T11:00:12Z</time>
      </trkpt>
      <trkpt lat="43.16809" lon="2.44502">
        <ele>199.96759</ele>
        <time>2013-06-23T11:00:15Z</time>
      </trkpt>
      <trkpt lat="43.16803" lon="2.44502">
        <ele>200.688599</ele>
        <time>2013-06-23T11:00:19Z</time>
      </trkpt>
      <trkpt lat="43.16798" lon="2.445">
        <ele>201.204895</ele>
        <time>2013-06-23T11:00:21Z</time>
      </trkpt>
      <trkpt lat="43.16793" lon="2.44499">
        <ele>201.964783</ele>
        <time>2013-06-23T11:00:24Z</time>
      </trkpt>
      <trkpt lat="43.16788" lon="2.44497">
        <ele>202.636749</ele>
        <time>2013-06-23T11:00:27Z</time>
      </trkpt>
      <trkpt lat="43.16784" lon="2.44496">
        <ele>203.301575</ele>
        <time>2013-06-23T11:00:30Z</time>
      </trkpt>
      <trkpt lat="43.16778" lon="2.44495">
        <ele>204.151367</ele>
        <time>2013-06-23T11:00:33Z</time>
      </trkpt>
      <trkpt lat="43.16772" lon="2.44493">
        <ele>204.943695</ele>
        <time>2013-06-23T11:00:36Z</time>
      </trkpt>
      <trkpt lat="43.16767" lon="2.44493">
        <ele>205.628723</ele>
        <time>2013-06-23T11:00:38Z</time>
      </trkpt>
      <trkpt lat="43.1676" lon="2.44491">
        <ele>206.734009</ele>
        <time>2013-06-23T11:00:43Z</time>
      </trkpt>
      <trkpt lat="43.16754" lon="2.44491">
        <ele>207.425476</ele>
        <time>2013-06-23T11:00:45Z</time>
      </trkpt>
      <trkpt lat="43.16746" lon="2.44492">
        <ele>208.118011</ele>
        <time>2013-06-23T11:00:49Z</time>
      </trkpt>
      <trkpt lat="43.1674" lon="2.44493">
        <ele>208.358673</ele>
        <time>2013-06-23T11:00:52Z</time>
      </trkpt>
      <trkpt lat="43.16735" lon="2.44493">
        <ele>208.610504</ele>
        <time>2013-06-23T11:00:55Z</time>
      </trkpt>
      <trkpt lat="43.16728" lon="2.44494">
        <ele>208.892365</ele>
        <time>2013-06-23T11:00:58Z</time>
      </trkpt>
      <trkpt lat="43.16723" lon="2.44496">
        <ele>209.059387</ele>
        <time>2013-06-23T11:01:00Z</time>
      </trkpt>
      <trkpt lat="43.16718" lon="2.44497">
        <ele>209.199127</ele>
        <time>2013-06-23T11:01:02Z</time>
      </trkpt>
      <trkpt lat="43.16711" lon="2.445">
        <ele>209.356262</ele>
        <time>2013-06-23T11:01:05Z</time>
      </trkpt>
      <trkpt lat="43.16707" lon="2.44502">
        <ele>209.575348</ele>
        <time>2013-06-23T11:01:08Z</time>
      </trkpt>
      <trkpt lat="43.16702" lon="2.44505">
        <ele>209.817627</ele>
        <time>2013-06-23T11:01:09Z</time>
      </trkpt>
      <trkpt lat="43.16698" lon="2.44507">
        <ele>210.04776</ele>
        <time>2013-06-23T11:01:11Z</time>
      </trkpt>
      <trkpt lat="43.16693" lon="2.4451">
        <ele>210.24884</ele>
        <time>2013-06-23T11:01:13Z</time>
      </trkpt>
      <trkpt lat="43.16688" lon="2.44512">
        <ele>210.484131</ele>
        <time>2013-06-23T11:01:16Z</time>
      </trkpt>
      <trkpt lat="43.16683" lon="2.44517">
        <ele>210.597717</ele>
        <time>2013-06-23T11:01:19Z</time>
      </trkpt>
      <trkpt lat="43.1668" lon="2.44523">
        <ele>210.608643</ele>
        <time>2013-06-23T11:01:21Z</time>
      </trkpt>
      <trkpt lat="43.16678" lon="2.4453">
        <ele>210.51181</ele>
        <time>2013-06-23T11:01:24Z</time>
      </trkpt>
      <trkpt lat="43.16676" lon="2.44537">
        <ele>210.354187</ele>
        <time>2013-06-23T11:01:25Z</time>
      </trkpt>
      <trkpt lat="43.16674" lon="2.44545">
        <ele>210.17981</ele>
        <time>2013-06-23T11:01:27Z</time>
      </trkpt>
      <trkpt lat="43.16673" lon="2.44551">
        <ele>210.018646</ele>
        <time>2013-06-23T11:01:30Z</time>
      </trkpt>
      <trkpt lat="43.1667" lon="2.44559">
        <ele>209.824493</ele>
        <time>2013-06-23T11:01:32Z</time>
      </trkpt>
      <trkpt lat="43.16666" lon="2.44565">
        <ele>209.593262</ele>
        <time>2013-06-23T11:01:35Z</time>
      </trkpt>
      <trkpt lat="43.16662" lon="2.4457">
        <ele>208.986847</ele>
        <time>2013-06-23T11:01:38Z</time>
      </trkpt>
      <trkpt lat="43.16659" lon="2.44576">
        <ele>208.357574</ele>
        <time>2013-06-23T11:01:42Z</time>
      </trkpt>
      <trkpt lat="43.16654" lon="2.44582">
        <ele>207.574463</ele>
        <time>2013-06-23T11:01:44Z</time>
      </trkpt>
      <trkpt lat="43.1665" lon="2.44588">
        <ele>206.783905</ele>
        <time>2013-06-23T11:01:47Z</time>
      </trkpt>
      <trkpt lat="43.16646" lon="2.44593">
        <ele>206.028534</ele>
        <time>2013-06-23T11:01:50Z</time>
      </trkpt>
      <trkpt lat="43.16645" lon="2.446">
        <ele>205.513428</ele>
        <time>2013-06-23T11:01:54Z</time>
      </trkpt>
      <trkpt lat="43.16645" lon="2.44606">
        <ele>205.170746</ele>
        <time>2013-06-23T11:01:55Z</time>
      </trkpt>
      <trkpt lat="43.16646" lon="2.44617">
        <ele>204.754456</ele>
        <time>2013-06-23T11:01:58Z</time>
      </trkpt>
      <trkpt lat="43.16647" lon="2.44626">
        <ele>204.58075</ele>
        <time>2013-06-23T11:02:00Z</time>
      </trkpt>
      <trkpt lat="43.16649" lon="2.44636">
        <ele>204.454681</ele>
        <time>2013-06-23T11:02:02Z</time>
      </trkpt>
      <trkpt lat="43.1665" lon="2.44647">
        <ele>204.059235</ele>
        <time>2013-06-23T11:02:05Z</time>
      </trkpt>
      <trkpt lat="43.1665" lon="2.44658">
        <ele>203.497284</ele>
        <time>2013-06-23T11:02:06Z</time>
      </trkpt>
      <trkpt lat="43.16649" lon="2.4467">
        <ele>202.814392</ele>
        <time>2013-06-23T11:02:08Z</time>
      </trkpt>
      <trkpt lat="43.16649" lon="2.44682">
        <ele>202.349609</ele>
        <time>2013-06-23T11:02:10Z</time>
      </trkpt>
      <trkpt lat="43.16649" lon="2.4469">
        <ele>202.125488</ele>
        <time>2013-06-23T11:02:11Z</time>
      </trkpt>
      <trkpt lat="43.16649" lon="2.44699">
        <ele>201.896179</ele>
        <time>2013-06-23T11:02:12Z</time>
      </trkpt>
      <trkpt lat="43.16649" lon="2.44708">
        <ele>201.518066</ele>
        <time>2013-06-23T11:02:13Z</time>
      </trkpt>
      <trkpt lat="43.16649" lon="2.44716">
        <ele>201.181915</ele>
        <time>2013-06-23T11:02:14Z</time>
      </trkpt>
      <trkpt lat="43.16649" lon="2.44723">
        <ele>200.957764</ele>
        <time>2013-06-23T11:02:16Z</time>
      </trkpt>
      <trkpt lat="43.16651" lon="2.44732">
        <ele>201.025513</ele>
        <time>2013-06-23T11:02:17Z</time>
      </trkpt>
      <trkpt lat="43.16653" lon="2.4474">
        <ele>201.527527</ele>
        <time>2013-06-23T11:02:20Z</time>
      </trkpt>
      <trkpt lat="43.16656" lon="2.44747">
        <ele>201.932404</ele>
        <time>2013-06-23T11:02:22Z</time>
      </trkpt>
      <trkpt lat="43.16658" lon="2.44754">
        <ele>202.309204</ele>
        <time>2013-06-23T11:02:26Z</time>
      </trkpt>
      <trkpt lat="43.16661" lon="2.44768">
        <ele>201.953979</ele>
        <time>2013-06-23T11:02:32Z</time>
      </trkpt>
      <trkpt lat="43.16661" lon="2.44779">
        <ele>201.298248</ele>
        <time>2013-06-23T11:02:34Z</time>
      </trkpt>
      <trkpt lat="43.16661" lon="2.44792">
        <ele>200.368347</ele>
        <time>2013-06-23T11:02:36Z</time>
      </trkpt>
      <trkpt lat="43.16661" lon="2.44801">
        <ele>199.781494</ele>
        <time>2013-06-23T11:02:38Z</time>
      </trkpt>
      <trkpt lat="43.16661" lon="2.44809">
        <ele>199.219818</ele>
        <time>2013-06-23T11:02:38Z</time>
      </trkpt>
      <trkpt lat="43.16662" lon="2.44818">
        <ele>198.744263</ele>
        <time>2013-06-23T11:02:39Z</time>
      </trkpt>
      <trkpt lat="43.16662" lon="2.44825">
        <ele>198.391663</ele>
        <time>2013-06-23T11:02:40Z</time>
      </trkpt>
      <trkpt lat="43.16663" lon="2.44831">
        <ele>198.158386</ele>
        <time>2013-06-23T11:02:41Z</time>
      </trkpt>
      <trkpt lat="43.16664" lon="2.44839">
        <ele>197.588409</ele>
        <time>2013-06-23T11:02:43Z</time>
      </trkpt>
      <trkpt lat="43.16664" lon="2.44846">
        <ele>196.845642</ele>
        <time>2013-06-23T11:02:45Z</time>
      </trkpt>
      <trkpt lat="43.16664" lon="2.44852">
        <ele>196.301758</ele>
        <time>2013-06-23T11:02:48Z</time>
      </trkpt>
      <trkpt lat="43.1667" lon="2.4486">
        <ele>196.834686</ele>
        <time>2013-06-23T11:03:06Z</time>
      </trkpt>
      <trkpt lat="43.16673" lon="2.44865">
        <ele>196.960815</ele>
        <time>2013-06-23T11:03:19Z</time>
      </trkpt>
      <trkpt lat="43.16674" lon="2.44876">
        <ele>196.149597</ele>
        <time>2013-06-23T11:03:25Z</time>
      </trkpt>
      <trkpt lat="43.16675" lon="2.44883">
        <ele>195.524933</ele>
        <time>2013-06-23T11:03:28Z</time>
      </trkpt>
      <trkpt lat="43.16676" lon="2.44891">
        <ele>194.949677</ele>
        <time>2013-06-23T11:03:31Z</time>
      </trkpt>
      <trkpt lat="43.16677" lon="2.44898">
        <ele>194.323517</ele>
        <time>2013-06-23T11:03:33Z</time>
      </trkpt>
      <trkpt lat="43.16678" lon="2.44908">
        <ele>193.679169</ele>
        <time>2013-06-23T11:03:36Z</time>
      </trkpt>
      <trkpt lat="43.1668" lon="2.44914">
        <ele>193.525635</ele>
        <time>2013-06-23T11:03:38Z</time>
      </trkpt>
      <trkpt lat="43.16683" lon="2.4492">
        <ele>193.393463</ele>
        <time>2013-06-23T11:03:40Z</time>
      </trkpt>
      <trkpt lat="43.16686" lon="2.44926">
        <ele>193.335724</ele>
        <time>2013-06-23T11:03:42Z</time>
      </trkpt>
      <trkpt lat="43.16688" lon="2.44932">
        <ele>193.143005</ele>
        <time>2013-06-23T11:03:44Z</time>
      </trkpt>
      <trkpt lat="43.16689" lon="2.44941">
        <ele>192.083984</ele>
        <time>2013-06-23T11:03:47Z</time>
      </trkpt>
      <trkpt lat="43.16688" lon="2.44951">
        <ele>190.538605</ele>
        <time>2013-06-23T11:03:49Z</time>
      </trkpt>
      <trkpt lat="43.16687" lon="2.44961">
        <ele>188.976196</ele>
        <time>2013-06-23T11:03:51Z</time>
      </trkpt>
      <trkpt lat="43.16686" lon="2.44971">
        <ele>187.459412</ele>
        <time>2013-06-23T11:03:53Z</time>
      </trkpt>
      <trkpt lat="43.16687" lon="2.44978">
        <ele>186.842407</ele>
        <time>2013-06-23T11:03:55Z</time>
      </trkpt>
      <trkpt lat="43.16689" lon="2.44985">
        <ele>186.344543</ele>
        <time>2013-06-23T11:03:58Z</time>
      </trkpt>
      <trkpt lat="43.16692" lon="2.44993">
        <ele>185.883179</ele>
        <time>2013-06-23T11:04:00Z</time>
      </trkpt>
      <trkpt lat="43.16693" lon="2.45">
        <ele>185.296936</ele>
        <time>2013-06-23T11:04:02Z</time>
      </trkpt>
      <trkpt lat="43.16693" lon="2.45008">
        <ele>184.46698</ele>
        <time>2013-06-23T11:04:12Z</time>
      </trkpt>
      <trkpt lat="43.16693" lon="2.45015">
        <ele>183.903076</ele>
        <time>2013-06-23T11:04:16Z</time>
      </trkpt>
      <trkpt lat="43.16694" lon="2.45024">
        <ele>183.136536</ele>
        <time>2013-06-23T11:04:19Z</time>
      </trkpt>
      <trkpt lat="43.16695" lon="2.45031">
        <ele>182.789062</ele>
        <time>2013-06-23T11:04:21Z</time>
      </trkpt>
      <trkpt lat="43.16695" lon="2.45038">
        <ele>181.959229</ele>
        <time>2013-06-23T11:04:23Z</time>
      </trkpt>
      <trkpt lat="43.16694" lon="2.45044">
        <ele>181.095337</ele>
        <time>2013-06-23T11:04:25Z</time>
      </trkpt>
      <trkpt lat="43.16689" lon="2.45044">
        <ele>179.918579</ele>
        <time>2013-06-23T11:04:30Z</time>
      </trkpt>
      <trkpt lat="43.16683" lon="2.45045">
        <ele>178.363831</ele>
        <time>2013-06-23T11:04:47Z</time>
      </trkpt>
      <trkpt lat="43.16678" lon="2.45046">
        <ele>176.745667</ele>
        <time>2013-06-23T11:04:49Z</time>
      </trkpt>
      <trkpt lat="43.16675" lon="2.45052">
        <ele>175.411499</ele>
        <time>2013-06-23T11:04:52Z</time>
      </trkpt>
      <trkpt lat="43.1667" lon="2.45055">
        <ele>174.070496</ele>
        <time>2013-06-23T11:04:57Z</time>
      </trkpt>
      <trkpt lat="43.16666" lon="2.45057">
        <ele>172.73468</ele>
        <time>2013-06-23T11:04:58Z</time>
      </trkpt>
      <trkpt lat="43.16661" lon="2.45056">
        <ele>172.122986</ele>
        <time>2013-06-23T11:05:10Z</time>
      </trkpt>
      <trkpt lat="43.16656" lon="2.45058">
        <ele>171.318359</ele>
        <time>2013-06-23T11:05:15Z</time>
      </trkpt>
      <trkpt lat="43.16651" lon="2.4506">
        <ele>170.398193</ele>
        <time>2013-06-23T11:05:18Z</time>
      </trkpt>
      <trkpt lat="43.16646" lon="2.4506">
        <ele>169.771667</ele>
        <time>2013-06-23T11:05:21Z</time>
      </trkpt>
      <trkpt lat="43.16642" lon="2.45062">
        <ele>168.964966</ele>
        <time>2013-06-23T11:05:24Z</time>
      </trkpt>
      <trkpt lat="43.16638" lon="2.45064">
        <ele>168.207825</ele>
        <time>2013-06-23T11:05:28Z</time>
      </trkpt>
      <trkpt lat="43.16633" lon="2.45061">
        <ele>167.853088</ele>
        <time>2013-06-23T11:05:33Z</time>
      </trkpt>
      <trkpt lat="43.16637" lon="2.45057">
        <ele>168.68396</ele>
        <time>2013-06-23T11:05:53Z</time>
      </trkpt>
      <trkpt lat="43.16633" lon="2.45053">
        <ele>168.432495</ele>
        <time>2013-06-23T11:07:02Z</time>
      </trkpt>
      <trkpt lat="43.1663" lon="2.45047">
        <ele>168.601013</ele>
        <time>2013-06-23T11:07:04Z</time>
      </trkpt>
      <trkpt lat="43.16626" lon="2.45037">
        <ele>168.672791</ele>
        <time>2013-06-23T11:07:06Z</time>
      </trkpt>
      <trkpt lat="43.16622" lon="2.45028">
        <ele>168.824341</ele>
        <time>2013-06-23T11:07:08Z</time>
      </trkpt>
      <trkpt lat="43.16619" lon="2.4502">
        <ele>169.018677</ele>
        <time>2013-06-23T11:07:10Z</time>
      </trkpt>
      <trkpt lat="43.16617" lon="2.45011">
        <ele>169.226929</ele>
        <time>2013-06-23T11:07:12Z</time>
      </trkpt>
      <trkpt lat="43.16615" lon="2.45005">
        <ele>169.358765</ele>
        <time>2013-06-23T11:07:14Z</time>
      </trkpt>
      <trkpt lat="43.16612" lon="2.44998">
        <ele>169.395386</ele>
        <time>2013-06-23T11:07:17Z</time>
      </trkpt>
      <trkpt lat="43.16609" lon="2.44991">
        <ele>169.440002</ele>
        <time>2013-06-23T11:07:20Z</time>
      </trkpt>
      <trkpt lat="43.16607" lon="2.44982">
        <ele>169.905823</ele>
        <time>2013-06-23T11:07:23Z</time>
      </trkpt>
      <trkpt lat="43.16605" lon="2.44975">
        <ele>170.119934</ele>
        <time>2013-06-23T11:07:25Z</time>
      </trkpt>
      <trkpt lat="43.16604" lon="2.44967">
        <ele>170.519897</ele>
        <time>2013-06-23T11:07:27Z</time>
      </trkpt>
      <trkpt lat="43.16602" lon="2.4496">
        <ele>170.815186</ele>
        <time>2013-06-23T11:07:30Z</time>
      </trkpt>
      <trkpt lat="43.16601" lon="2.44953">
        <ele>171.069458</ele>
        <time>2013-06-23T11:07:31Z</time>
      </trkpt>
      <trkpt lat="43.16599" lon="2.44946">
        <ele>171.324768</ele>
        <time>2013-06-23T11:07:33Z</time>
      </trkpt>
      <trkpt lat="43.16598" lon="2.44939">
        <ele>171.587036</ele>
        <time>2013-06-23T11:07:35Z</time>
      </trkpt>
      <trkpt lat="43.16596" lon="2.44933">
        <ele>171.777893</ele>
        <time>2013-06-23T11:07:37Z</time>
      </trkpt>
      <trkpt lat="43.16594" lon="2.44925">
        <ele>171.925354</ele>
        <time>2013-06-23T11:07:39Z</time>
      </trkpt>
      <trkpt lat="43.16592" lon="2.44918">
        <ele>171.937927</ele>
        <time>2013-06-23T11:07:42Z</time>
      </trkpt>
      <trkpt lat="43.1659" lon="2.44911">
        <ele>172.051025</ele>
        <time>2013-06-23T11:07:43Z</time>
      </trkpt>
      <trkpt lat="43.16589" lon="2.44905">
        <ele>172.128296</ele>
        <time>2013-06-23T11:07:45Z</time>
      </trkpt>
      <trkpt lat="43.16587" lon="2.44898">
        <ele>172.303345</ele>
        <time>2013-06-23T11:07:47Z</time>
      </trkpt>
      <trkpt lat="43.16585" lon="2.44891">
        <ele>172.340149</ele>
        <time>2013-06-23T11:07:49Z</time>
      </trkpt>
      <trkpt lat="43.16584" lon="2.44885">
        <ele>172.307678</ele>
        <time>2013-06-23T11:07:52Z</time>
      </trkpt>
      <trkpt lat="43.16582" lon="2.44878">
        <ele>172.683777</ele>
        <time>2013-06-23T11:07:53Z</time>
      </trkpt>
      <trkpt lat="43.1658" lon="2.44871">
        <ele>173.056885</ele>
        <time>2013-06-23T11:07:56Z</time>
      </trkpt>
      <trkpt lat="43.16579" lon="2.44865">
        <ele>173.404846</ele>
        <time>2013-06-23T11:07:57Z</time>
      </trkpt>
      <trkpt lat="43.16577" lon="2.44859">
        <ele>173.649109</ele>
        <time>2013-06-23T11:07:59Z</time>
      </trkpt>
      <trkpt lat="43.16573" lon="2.44854">
        <ele>173.739136</ele>
        <time>2013-06-23T11:08:01Z</time>
      </trkpt>
      <trkpt lat="43.16571" lon="2.44849">
        <ele>173.86969</ele>
        <time>2013-06-23T11:08:04Z</time>
      </trkpt>
      <trkpt lat="43.16567" lon="2.44845">
        <ele>173.826782</ele>
        <time>2013-06-23T11:08:05Z</time>
      </trkpt>
      <trkpt lat="43.16562" lon="2.44842">
        <ele>173.67041</ele>
        <time>2013-06-23T11:08:07Z</time>
      </trkpt>
      <trkpt lat="43.16557" lon="2.44837">
        <ele>173.594299</ele>
        <time>2013-06-23T11:08:10Z</time>
      </trkpt>
      <trkpt lat="43.16553" lon="2.44832">
        <ele>173.529724</ele>
        <time>2013-06-23T11:08:12Z</time>
      </trkpt>
      <trkpt lat="43.16549" lon="2.44827">
        <ele>173.478699</ele>
        <time>2013-06-23T11:08:14Z</time>
      </trkpt>
      <trkpt lat="43.16546" lon="2.44823">
        <ele>173.504517</ele>
        <time>2013-06-23T11:08:17Z</time>
      </trkpt>
      <trkpt lat="43.16543" lon="2.44817">
        <ele>173.539124</ele>
        <time>2013-06-23T11:08:18Z</time>
      </trkpt>
      <trkpt lat="43.16539" lon="2.44812">
        <ele>173.552979</ele>
        <time>2013-06-23T11:08:20Z</time>
      </trkpt>
      <trkpt lat="43.16535" lon="2.44807">
        <ele>173.556641</ele>
        <time>2013-06-23T11:08:22Z</time>
      </trkpt>
      <trkpt lat="43.16532" lon="2.44802">
        <ele>173.541016</ele>
        <time>2013-06-23T11:08:24Z</time>
      </trkpt>
      <trkpt lat="43.16528" lon="2.44798">
        <ele>173.499023</ele>
        <time>2013-06-23T11:08:27Z</time>
      </trkpt>
      <trkpt lat="43.16524" lon="2.44793">
        <ele>173.451233</ele>
        <time>2013-06-23T11:08:28Z</time>
      </trkpt>
      <trkpt lat="43.16521" lon="2.44788">
        <ele>173.429199</ele>
        <time>2013-06-23T11:08:30Z</time>
      </trkpt>
      <trkpt lat="43.16517" lon="2.44784">
        <ele>173.356201</ele>
        <time>2013-06-23T11:08:32Z</time>
      </trkpt>
      <trkpt lat="43.16512" lon="2.44779">
        <ele>173.269897</ele>
        <time>2013-06-23T11:08:34Z</time>
      </trkpt>
      <trkpt lat="43.16508" lon="2.44775">
        <ele>173.201416</ele>
        <time>2013-06-23T11:08:36Z</time>
      </trkpt>
      <trkpt lat="43.16505" lon="2.44771">
        <ele>173.165039</ele>
        <time>2013-06-23T11:08:38Z</time>
      </trkpt>
      <trkpt lat="43.16501" lon="2.44766">
        <ele>173.110779</ele>
        <time>2013-06-23T11:08:40Z</time>
      </trkpt>
      <trkpt lat="43.16497" lon="2.44762">
        <ele>173.324707</ele>
        <time>2013-06-23T11:08:42Z</time>
      </trkpt>
      <trkpt lat="43.16493" lon="2.44756">
        <ele>173.80249</ele>
        <time>2013-06-23T11:08:45Z</time>
      </trkpt>
      <trkpt lat="43.16488" lon="2.44752">
        <ele>174.157104</ele>
        <time>2013-06-23T11:08:47Z</time>
      </trkpt>
      <trkpt lat="43.16483" lon="2.44747">
        <ele>174.544617</ele>
        <time>2013-06-23T11:08:50Z</time>
      </trkpt>
      <trkpt lat="43.16478" lon="2.44743">
        <ele>174.90271</ele>
        <time>2013-06-23T11:08:51Z</time>
      </trkpt>
      <trkpt lat="43.16474" lon="2.44739">
        <ele>175.208313</ele>
        <time>2013-06-23T11:08:53Z</time>
      </trkpt>
      <trkpt lat="43.1647" lon="2.44734">
        <ele>175.544556</ele>
        <time>2013-06-23T11:08:55Z</time>
      </trkpt>
      <trkpt lat="43.16466" lon="2.44729">
        <ele>175.890137</ele>
        <time>2013-06-23T11:08:57Z</time>
      </trkpt>
      <trkpt lat="43.16462" lon="2.44723">
        <ele>176.224487</ele>
        <time>2013-06-23T11:08:59Z</time>
      </trkpt>
      <trkpt lat="43.16458" lon="2.44719">
        <ele>176.507202</ele>
        <time>2013-06-23T11:09:02Z</time>
      </trkpt>
      <trkpt lat="43.16454" lon="2.44713">
        <ele>176.824402</ele>
        <time>2013-06-23T11:09:03Z</time>
      </trkpt>
      <trkpt lat="43.1645" lon="2.44708">
        <ele>177.128601</ele>
        <time>2013-06-23T11:09:05Z</time>
      </trkpt>
      <trkpt lat="43.16445" lon="2.44702">
        <ele>177.428894</ele>
        <time>2013-06-23T11:09:08Z</time>
      </trkpt>
      <trkpt lat="43.16441" lon="2.44698">
        <ele>177.646667</ele>
        <time>2013-06-23T11:09:10Z</time>
      </trkpt>
      <trkpt lat="43.16436" lon="2.44695">
        <ele>177.808716</ele>
        <time>2013-06-23T11:09:12Z</time>
      </trkpt>
      <trkpt lat="43.16431" lon="2.44693">
        <ele>177.941162</ele>
        <time>2013-06-23T11:09:15Z</time>
      </trkpt>
      <trkpt lat="43.16425" lon="2.44692">
        <ele>178.018677</ele>
        <time>2013-06-23T11:09:16Z</time>
      </trkpt>
      <trkpt lat="43.1642" lon="2.44692">
        <ele>178.056946</ele>
        <time>2013-06-23T11:09:18Z</time>
      </trkpt>
      <trkpt lat="43.16414" lon="2.44692">
        <ele>178.140442</ele>
        <time>2013-06-23T11:09:21Z</time>
      </trkpt>
      <trkpt lat="43.16408" lon="2.4469">
        <ele>178.299683</ele>
        <time>2013-06-23T11:09:25Z</time>
      </trkpt>
      <trkpt lat="43.16403" lon="2.44688">
        <ele>178.475342</ele>
        <time>2013-06-23T11:09:31Z</time>
      </trkpt>
      <trkpt lat="43.164" lon="2.44683">
        <ele>178.744385</ele>
        <time>2013-06-23T11:09:37Z</time>
      </trkpt>
      <trkpt lat="43.16398" lon="2.44677">
        <ele>179.035645</ele>
        <time>2013-06-23T11:09:40Z</time>
      </trkpt>
      <trkpt lat="43.16393" lon="2.44671">
        <ele>179.357178</ele>
        <time>2013-06-23T11:09:45Z</time>
      </trkpt>
      <trkpt lat="43.1639" lon="2.44678">
        <ele>179.133057</ele>
        <time>2013-06-23T11:09:47Z</time>
      </trkpt>
      <trkpt lat="43.16388" lon="2.44685">
        <ele>178.863708</ele>
        <time>2013-06-23T11:09:49Z</time>
      </trkpt>
      <trkpt lat="43.16386" lon="2.44692">
        <ele>178.590149</ele>
        <time>2013-06-23T11:09:51Z</time>
      </trkpt>
      <trkpt lat="43.1638" lon="2.44699">
        <ele>178.378174</ele>
        <time>2013-06-23T11:09:53Z</time>
      </trkpt>
      <trkpt lat="43.16373" lon="2.44705">
        <ele>178.189331</ele>
        <time>2013-06-23T11:09:55Z</time>
      </trkpt>
      <trkpt lat="43.16368" lon="2.4471">
        <ele>178.000061</ele>
        <time>2013-06-23T11:09:57Z</time>
      </trkpt>
      <trkpt lat="43.16362" lon="2.44717">
        <ele>177.738708</ele>
        <time>2013-06-23T11:10:00Z</time>
      </trkpt>
      <trkpt lat="43.16358" lon="2.44726">
        <ele>177.265991</ele>
        <time>2013-06-23T11:10:01Z</time>
      </trkpt>
      <trkpt lat="43.16356" lon="2.44732">
        <ele>176.947144</ele>
        <time>2013-06-23T11:10:02Z</time>
      </trkpt>
      <trkpt lat="43.16351" lon="2.44744">
        <ele>176.306641</ele>
        <time>2013-06-23T11:10:04Z</time>
      </trkpt>
      <trkpt lat="43.16347" lon="2.4475">
        <ele>176.005798</ele>
        <time>2013-06-23T11:10:05Z</time>
      </trkpt>
      <trkpt lat="43.16343" lon="2.44762">
        <ele>176.284119</ele>
        <time>2013-06-23T11:10:07Z</time>
      </trkpt>
      <trkpt lat="43.16342" lon="2.44767">
        <ele>176.456299</ele>
        <time>2013-06-23T11:10:08Z</time>
      </trkpt>
      <trkpt lat="43.16338" lon="2.44777">
        <ele>176.806335</ele>
        <time>2013-06-23T11:10:10Z</time>
      </trkpt>
      <trkpt lat="43.16335" lon="2.44785">
        <ele>177.178467</ele>
        <time>2013-06-23T11:10:12Z</time>
      </trkpt>
      <trkpt lat="43.16333" lon="2.44792">
        <ele>177.566162</ele>
        <time>2013-06-23T11:10:14Z</time>
      </trkpt>
      <trkpt lat="43.16333" lon="2.44799">
        <ele>177.796204</ele>
        <time>2013-06-23T11:10:18Z</time>
      </trkpt>
      <trkpt lat="43.16338" lon="2.448">
        <ele>177.561829</ele>
        <time>2013-06-23T11:10:23Z</time>
      </trkpt>
      <trkpt lat="43.16342" lon="2.44803">
        <ele>177.381287</ele>
        <time>2013-06-23T11:10:26Z</time>
      </trkpt>
      <trkpt lat="43.16346" lon="2.44807">
        <ele>177.193115</ele>
        <time>2013-06-23T11:10:28Z</time>
      </trkpt>
      <trkpt lat="43.16353" lon="2.44812">
        <ele>176.861694</ele>
        <time>2013-06-23T11:10:30Z</time>
      </trkpt>
      <trkpt lat="43.16352" lon="2.44818">
        <ele>176.969727</ele>
        <time>2013-06-23T11:10:31Z</time>
      </trkpt>
      <trkpt lat="43.16352" lon="2.44826">
        <ele>177.133911</ele>
        <time>2013-06-23T11:10:37Z</time>
      </trkpt>
      <trkpt lat="43.16353" lon="2.44833">
        <ele>177.135559</ele>
        <time>2013-06-23T11:10:40Z</time>
      </trkpt>
      <trkpt lat="43.16351" lon="2.44839">
        <ele>177.901123</ele>
        <time>2013-06-23T11:10:45Z</time>
      </trkpt>
      <trkpt lat="43.1635" lon="2.44846">
        <ele>178.648987</ele>
        <time>2013-06-23T11:10:48Z</time>
      </trkpt>
      <trkpt lat="43.16348" lon="2.44853">
        <ele>179.6203</ele>
        <time>2013-06-23T11:10:52Z</time>
      </trkpt>
      <trkpt lat="43.16349" lon="2.4486">
        <ele>180.243958</ele>
        <time>2013-06-23T11:10:56Z</time>
      </trkpt>
      <trkpt lat="43.16351" lon="2.44866">
        <ele>180.466187</ele>
        <time>2013-06-23T11:11:13Z</time>
      </trkpt>
      <trkpt lat="43.16352" lon="2.44872">
        <ele>181.066956</ele>
        <time>2013-06-23T11:11:16Z</time>
      </trkpt>
      <trkpt lat="43.16348" lon="2.44876">
        <ele>181.973328</ele>
        <time>2013-06-23T11:11:24Z</time>
      </trkpt>
      <trkpt lat="43.16346" lon="2.44882">
        <ele>182.897095</ele>
        <time>2013-06-23T11:11:30Z</time>
      </trkpt>
      <trkpt lat="43.16347" lon="2.44889">
        <ele>183.45636</ele>
        <time>2013-06-23T11:11:35Z</time>
      </trkpt>
      <trkpt lat="43.16349" lon="2.44894">
        <ele>183.761963</ele>
        <time>2013-06-23T11:11:42Z</time>
      </trkpt>
      <trkpt lat="43.1635" lon="2.44901">
        <ele>184.303589</ele>
        <time>2013-06-23T11:11:48Z</time>
      </trkpt>
      <trkpt lat="43.16351" lon="2.44908">
        <ele>184.679016</ele>
        <time>2013-06-23T11:11:52Z</time>
      </trkpt>
      <trkpt lat="43.16351" lon="2.44915">
        <ele>185.417114</ele>
        <time>2013-06-23T11:11:57Z</time>
      </trkpt>
      <trkpt lat="43.1635" lon="2.44921">
        <ele>186.054749</ele>
        <time>2013-06-23T11:12:01Z</time>
      </trkpt>
      <trkpt lat="43.16355" lon="2.44929">
        <ele>185.561646</ele>
        <time>2013-06-23T11:12:11Z</time>
      </trkpt>
      <trkpt lat="43.16357" lon="2.44934">
        <ele>185.363159</ele>
        <time>2013-06-23T11:12:15Z</time>
      </trkpt>
      <trkpt lat="43.16357" lon="2.44942">
        <ele>185.804688</ele>
        <time>2013-06-23T11:12:21Z</time>
      </trkpt>
      <trkpt lat="43.16358" lon="2.44949">
        <ele>186.009766</ele>
        <time>2013-06-23T11:12:24Z</time>
      </trkpt>
      <trkpt lat="43.16358" lon="2.44956">
        <ele>186.538635</ele>
        <time>2013-06-23T11:12:27Z</time>
      </trkpt>
      <trkpt lat="43.16358" lon="2.44963">
        <ele>186.914124</ele>
        <time>2013-06-23T11:12:29Z</time>
      </trkpt>
      <trkpt lat="43.16357" lon="2.44969">
        <ele>187.372192</ele>
        <time>2013-06-23T11:12:32Z</time>
      </trkpt>
      <trkpt lat="43.16359" lon="2.44976">
        <ele>187.459534</ele>
        <time>2013-06-23T11:12:38Z</time>
      </trkpt>
      <trkpt lat="43.1636" lon="2.44983">
        <ele>187.722168</ele>
        <time>2013-06-23T11:12:52Z</time>
      </trkpt>
      <trkpt lat="43.16363" lon="2.44989">
        <ele>187.837524</ele>
        <time>2013-06-23T11:12:58Z</time>
      </trkpt>
      <trkpt lat="43.16365" lon="2.44994">
        <ele>188.010498</ele>
        <time>2013-06-23T11:13:01Z</time>
      </trkpt>
      <trkpt lat="43.16364" lon="2.45001">
        <ele>188.346283</ele>
        <time>2013-06-23T11:13:07Z</time>
      </trkpt>
      <trkpt lat="43.16364" lon="2.45008">
        <ele>187.641663</ele>
        <time>2013-06-23T11:13:17Z</time>
      </trkpt>
      <trkpt lat="43.16362" lon="2.45014">
        <ele>187.185486</ele>
        <time>2013-06-23T11:15:19Z</time>
      </trkpt>
      <trkpt lat="43.16369" lon="2.45015">
        <ele>186.82196</ele>
        <time>2013-06-23T11:17:13Z</time>
      </trkpt>
      <trkpt lat="43.16362" lon="2.45014">
        <ele>187.140015</ele>
        <time>2013-06-23T11:17:51Z</time>
      </trkpt>
      <trkpt lat="43.16356" lon="2.45011">
        <ele>187.759033</ele>
        <time>2013-06-23T11:17:54Z</time>
      </trkpt>
      <trkpt lat="43.16352" lon="2.45008">
        <ele>188.441711</ele>
        <time>2013-06-23T11:17:56Z</time>
      </trkpt>
      <trkpt lat="43.16347" lon="2.45005">
        <ele>189.097626</ele>
        <time>2013-06-23T11:17:58Z</time>
      </trkpt>
      <trkpt lat="43.16343" lon="2.45002">
        <ele>189.963318</ele>
        <time>2013-06-23T11:18:00Z</time>
      </trkpt>
      <trkpt lat="43.16337" lon="2.44996">
        <ele>190.585754</ele>
        <time>2013-06-23T11:18:03Z</time>
      </trkpt>
      <trkpt lat="43.16331" lon="2.44991">
        <ele>190.458557</ele>
        <time>2013-06-23T11:18:04Z</time>
      </trkpt>
      <trkpt lat="43.16326" lon="2.44986">
        <ele>189.451843</ele>
        <time>2013-06-23T11:18:06Z</time>
      </trkpt>
      <trkpt lat="43.1632" lon="2.44983">
        <ele>188.59259</ele>
        <time>2013-06-23T11:18:08Z</time>
      </trkpt>
      <trkpt lat="43.16314" lon="2.44978">
        <ele>187.802124</ele>
        <time>2013-06-23T11:18:10Z</time>
      </trkpt>
      <trkpt lat="43.16309" lon="2.44973">
        <ele>187.251099</ele>
        <time>2013-06-23T11:18:12Z</time>
      </trkpt>
      <trkpt lat="43.16305" lon="2.44968">
        <ele>186.985718</ele>
        <time>2013-06-23T11:18:15Z</time>
      </trkpt>
      <trkpt lat="43.16301" lon="2.44962">
        <ele>186.861084</ele>
        <time>2013-06-23T11:18:17Z</time>
      </trkpt>
      <trkpt lat="43.16297" lon="2.44957">
        <ele>186.881653</ele>
        <time>2013-06-23T11:18:19Z</time>
      </trkpt>
      <trkpt lat="43.16294" lon="2.44951">
        <ele>187.037842</ele>
        <time>2013-06-23T11:18:21Z</time>
      </trkpt>
      <trkpt lat="43.1629" lon="2.44945">
        <ele>187.205933</ele>
        <time>2013-06-23T11:18:25Z</time>
      </trkpt>
      <trkpt lat="43.16284" lon="2.44942">
        <ele>187.121704</ele>
        <time>2013-06-23T11:18:28Z</time>
      </trkpt>
      <trkpt lat="43.16279" lon="2.44939">
        <ele>187.193237</ele>
        <time>2013-06-23T11:18:30Z</time>
      </trkpt>
      <trkpt lat="43.16271" lon="2.44934">
        <ele>187.50293</ele>
        <time>2013-06-23T11:18:32Z</time>
      </trkpt>
      <trkpt lat="43.16263" lon="2.44928">
        <ele>188.221069</ele>
        <time>2013-06-23T11:18:34Z</time>
      </trkpt>
      <trkpt lat="43.16259" lon="2.44924">
        <ele>188.679749</ele>
        <time>2013-06-23T11:18:36Z</time>
      </trkpt>
      <trkpt lat="43.16255" lon="2.44921">
        <ele>189.215973</ele>
        <time>2013-06-23T11:18:36Z</time>
      </trkpt>
      <trkpt lat="43.16251" lon="2.44918">
        <ele>189.830383</ele>
        <time>2013-06-23T11:18:37Z</time>
      </trkpt>
      <trkpt lat="43.16247" lon="2.44914">
        <ele>189.454865</ele>
        <time>2013-06-23T11:18:38Z</time>
      </trkpt>
      <trkpt lat="43.16242" lon="2.44911">
        <ele>188.771606</ele>
        <time>2013-06-23T11:18:39Z</time>
      </trkpt>
      <trkpt lat="43.16238" lon="2.44907">
        <ele>188.105896</ele>
        <time>2013-06-23T11:18:40Z</time>
      </trkpt>
      <trkpt lat="43.16233" lon="2.44902">
        <ele>187.533447</ele>
        <time>2013-06-23T11:18:41Z</time>
      </trkpt>
      <trkpt lat="43.16229" lon="2.44898">
        <ele>187.024902</ele>
        <time>2013-06-23T11:18:42Z</time>
      </trkpt>
      <trkpt lat="43.16225" lon="2.44894">
        <ele>186.646301</ele>
        <time>2013-06-23T11:18:43Z</time>
      </trkpt>
      <trkpt lat="43.16221" lon="2.44889">
        <ele>186.411682</ele>
        <time>2013-06-23T11:18:44Z</time>
      </trkpt>
      <trkpt lat="43.16217" lon="2.44884">
        <ele>186.205872</ele>
        <time>2013-06-23T11:18:45Z</time>
      </trkpt>
      <trkpt lat="43.16214" lon="2.4488">
        <ele>186.006714</ele>
        <time>2013-06-23T11:18:47Z</time>
      </trkpt>
      <trkpt lat="43.16208" lon="2.44872">
        <ele>185.910217</ele>
        <time>2013-06-23T11:18:48Z</time>
      </trkpt>
      <trkpt lat="43.16202" lon="2.44863">
        <ele>186.108582</ele>
        <time>2013-06-23T11:18:50Z</time>
      </trkpt>
      <trkpt lat="43.16196" lon="2.44853">
        <ele>186.497681</ele>
        <time>2013-06-23T11:18:52Z</time>
      </trkpt>
      <trkpt lat="43.16193" lon="2.44848">
        <ele>186.723572</ele>
        <time>2013-06-23T11:18:53Z</time>
      </trkpt>
      <trkpt lat="43.16189" lon="2.44843">
        <ele>187.028625</ele>
        <time>2013-06-23T11:18:54Z</time>
      </trkpt>
      <trkpt lat="43.16186" lon="2.44838">
        <ele>187.428711</ele>
        <time>2013-06-23T11:18:56Z</time>
      </trkpt>
      <trkpt lat="43.16182" lon="2.44832">
        <ele>187.715576</ele>
        <time>2013-06-23T11:18:57Z</time>
      </trkpt>
      <trkpt lat="43.16179" lon="2.44827">
        <ele>187.499939</ele>
        <time>2013-06-23T11:18:57Z</time>
      </trkpt>
      <trkpt lat="43.16173" lon="2.44818">
        <ele>187.281555</ele>
        <time>2013-06-23T11:18:59Z</time>
      </trkpt>
      <trkpt lat="43.1617" lon="2.44814">
        <ele>187.254333</ele>
        <time>2013-06-23T11:19:00Z</time>
      </trkpt>
      <trkpt lat="43.16167" lon="2.44808">
        <ele>187.299011</ele>
        <time>2013-06-23T11:19:01Z</time>
      </trkpt>
      <trkpt lat="43.16162" lon="2.44799">
        <ele>187.483276</ele>
        <time>2013-06-23T11:19:03Z</time>
      </trkpt>
      <trkpt lat="43.16157" lon="2.4479">
        <ele>187.838501</ele>
        <time>2013-06-23T11:19:05Z</time>
      </trkpt>
      <trkpt lat="43.16152" lon="2.44781">
        <ele>188.380096</ele>
        <time>2013-06-23T11:19:08Z</time>
      </trkpt>
      <trkpt lat="43.16145" lon="2.44773">
        <ele>189.123505</ele>
        <time>2013-06-23T11:19:09Z</time>
      </trkpt>
      <trkpt lat="43.16141" lon="2.44769">
        <ele>189.651825</ele>
        <time>2013-06-23T11:19:10Z</time>
      </trkpt>
      <trkpt lat="43.16138" lon="2.44764">
        <ele>190.217102</ele>
        <time>2013-06-23T11:19:11Z</time>
      </trkpt>
      <trkpt lat="43.16134" lon="2.44759">
        <ele>190.861633</ele>
        <time>2013-06-23T11:19:12Z</time>
      </trkpt>
      <trkpt lat="43.16131" lon="2.44754">
        <ele>191.523682</ele>
        <time>2013-06-23T11:19:13Z</time>
      </trkpt>
      <trkpt lat="43.16125" lon="2.44751">
        <ele>192.399933</ele>
        <time>2013-06-23T11:19:15Z</time>
      </trkpt>
      <trkpt lat="43.16119" lon="2.44751">
        <ele>193.117889</ele>
        <time>2013-06-23T11:19:17Z</time>
      </trkpt>
      <trkpt lat="43.16113" lon="2.44745">
        <ele>194.104126</ele>
        <time>2013-06-23T11:19:20Z</time>
      </trkpt>
      <trkpt lat="43.16112" lon="2.44736">
        <ele>194.899628</ele>
        <time>2013-06-23T11:19:21Z</time>
      </trkpt>
      <trkpt lat="43.16111" lon="2.44727">
        <ele>195.652344</ele>
        <time>2013-06-23T11:19:23Z</time>
      </trkpt>
      <trkpt lat="43.1611" lon="2.4472">
        <ele>196.281677</ele>
        <time>2013-06-23T11:19:25Z</time>
      </trkpt>
      <trkpt lat="43.16109" lon="2.44714">
        <ele>196.85788</ele>
        <time>2013-06-23T11:19:27Z</time>
      </trkpt>
      <trkpt lat="43.16108" lon="2.44707">
        <ele>197.466583</ele>
        <time>2013-06-23T11:19:29Z</time>
      </trkpt>
      <trkpt lat="43.16107" lon="2.44701">
        <ele>198.030823</ele>
        <time>2013-06-23T11:19:32Z</time>
      </trkpt>
      <trkpt lat="43.16106" lon="2.44694">
        <ele>198.711823</ele>
        <time>2013-06-23T11:19:33Z</time>
      </trkpt>
      <trkpt lat="43.16106" lon="2.44688">
        <ele>199.302551</ele>
        <time>2013-06-23T11:19:35Z</time>
      </trkpt>
      <trkpt lat="43.16106" lon="2.4468">
        <ele>199.914642</ele>
        <time>2013-06-23T11:19:38Z</time>
      </trkpt>
      <trkpt lat="43.16106" lon="2.44673">
        <ele>200.453827</ele>
        <time>2013-06-23T11:19:42Z</time>
      </trkpt>
      <trkpt lat="43.16105" lon="2.44665">
        <ele>201.069916</ele>
        <time>2013-06-23T11:19:45Z</time>
      </trkpt>
      <trkpt lat="43.16102" lon="2.4466">
        <ele>201.978241</ele>
        <time>2013-06-23T11:19:48Z</time>
      </trkpt>
      <trkpt lat="43.16096" lon="2.44661">
        <ele>203.299011</ele>
        <time>2013-06-23T11:19:52Z</time>
      </trkpt>
      <trkpt lat="43.16092" lon="2.44664">
        <ele>204.206573</ele>
        <time>2013-06-23T11:19:55Z</time>
      </trkpt>
      <trkpt lat="43.16087" lon="2.44668">
        <ele>205.01532</ele>
        <time>2013-06-23T11:19:58Z</time>
      </trkpt>
      <trkpt lat="43.16083" lon="2.44673">
        <ele>205.51825</ele>
        <time>2013-06-23T11:20:02Z</time>
      </trkpt>
      <trkpt lat="43.1608" lon="2.44678">
        <ele>205.675079</ele>
        <time>2013-06-23T11:20:05Z</time>
      </trkpt>
      <trkpt lat="43.16077" lon="2.44684">
        <ele>205.773224</ele>
        <time>2013-06-23T11:20:08Z</time>
      </trkpt>
      <trkpt lat="43.16073" lon="2.44691">
        <ele>206.067566</ele>
        <time>2013-06-23T11:20:12Z</time>
      </trkpt>
      <trkpt lat="43.16069" lon="2.44695">
        <ele>206.68045</ele>
        <time>2013-06-23T11:20:17Z</time>
      </trkpt>
      <trkpt lat="43.16063" lon="2.44696">
        <ele>208.027771</ele>
        <time>2013-06-23T11:20:21Z</time>
      </trkpt>
      <trkpt lat="43.16059" lon="2.44694">
        <ele>209.418152</ele>
        <time>2013-06-23T11:20:24Z</time>
      </trkpt>
      <trkpt lat="43.16054" lon="2.44692">
        <ele>210.945312</ele>
        <time>2013-06-23T11:20:28Z</time>
      </trkpt>
      <trkpt lat="43.16048" lon="2.44692">
        <ele>212.421936</ele>
        <time>2013-06-23T11:20:33Z</time>
      </trkpt>
      <trkpt lat="43.16042" lon="2.44692">
        <ele>213.821899</ele>
        <time>2013-06-23T11:20:38Z</time>
      </trkpt>
      <trkpt lat="43.16038" lon="2.44695">
        <ele>214.554779</ele>
        <time>2013-06-23T11:20:41Z</time>
      </trkpt>
      <trkpt lat="43.16034" lon="2.44701">
        <ele>214.935944</ele>
        <time>2013-06-23T11:20:45Z</time>
      </trkpt>
      <trkpt lat="43.16031" lon="2.44705">
        <ele>215.044922</ele>
        <time>2013-06-23T11:20:48Z</time>
      </trkpt>
      <trkpt lat="43.16028" lon="2.44711">
        <ele>215.122742</ele>
        <time>2013-06-23T11:20:51Z</time>
      </trkpt>
      <trkpt lat="43.16025" lon="2.44716">
        <ele>215.122986</ele>
        <time>2013-06-23T11:20:55Z</time>
      </trkpt>
      <trkpt lat="43.16022" lon="2.44721">
        <ele>215.359985</ele>
        <time>2013-06-23T11:20:58Z</time>
      </trkpt>
      <trkpt lat="43.16019" lon="2.44726">
        <ele>215.600372</ele>
        <time>2013-06-23T11:21:02Z</time>
      </trkpt>
      <trkpt lat="43.16014" lon="2.44729">
        <ele>216.403076</ele>
        <time>2013-06-23T11:21:05Z</time>
      </trkpt>
      <trkpt lat="43.1601" lon="2.44732">
        <ele>216.984314</ele>
        <time>2013-06-23T11:21:08Z</time>
      </trkpt>
      <trkpt lat="43.16006" lon="2.44736">
        <ele>217.471313</ele>
        <time>2013-06-23T11:21:11Z</time>
      </trkpt>
      <trkpt lat="43.16" lon="2.4474">
        <ele>218.173859</ele>
        <time>2013-06-23T11:21:15Z</time>
      </trkpt>
      <trkpt lat="43.15996" lon="2.44744">
        <ele>218.943298</ele>
        <time>2013-06-23T11:21:18Z</time>
      </trkpt>
      <trkpt lat="43.15991" lon="2.44747">
        <ele>219.838745</ele>
        <time>2013-06-23T11:21:22Z</time>
      </trkpt>
      <trkpt lat="43.15986" lon="2.4475">
        <ele>221.027954</ele>
        <time>2013-06-23T11:21:26Z</time>
      </trkpt>
      <trkpt lat="43.15981" lon="2.44753">
        <ele>221.736298</ele>
        <time>2013-06-23T11:21:30Z</time>
      </trkpt>
      <trkpt lat="43.15976" lon="2.44756">
        <ele>222.775482</ele>
        <time>2013-06-23T11:21:35Z</time>
      </trkpt>
      <trkpt lat="43.15972" lon="2.44758">
        <ele>223.599609</ele>
        <time>2013-06-23T11:21:37Z</time>
      </trkpt>
      <trkpt lat="43.15966" lon="2.4476">
        <ele>224.77475</ele>
        <time>2013-06-23T11:21:42Z</time>
      </trkpt>
      <trkpt lat="43.15961" lon="2.4476">
        <ele>226.363708</ele>
        <time>2013-06-23T11:21:47Z</time>
      </trkpt>
      <trkpt lat="43.15956" lon="2.44762">
        <ele>227.192993</ele>
        <time>2013-06-23T11:21:48Z</time>
      </trkpt>
      <trkpt lat="43.15952" lon="2.44766">
        <ele>227.812408</ele>
        <time>2013-06-23T11:22:51Z</time>
      </trkpt>
      <trkpt lat="43.15949" lon="2.44772">
        <ele>227.470978</ele>
        <time>2013-06-23T11:22:55Z</time>
      </trkpt>
      <trkpt lat="43.15946" lon="2.44779">
        <ele>226.717102</ele>
        <time>2013-06-23T11:22:57Z</time>
      </trkpt>
      <trkpt lat="43.15943" lon="2.44784">
        <ele>226.587555</ele>
        <time>2013-06-23T11:22:59Z</time>
      </trkpt>
      <trkpt lat="43.1594" lon="2.44789">
        <ele>226.470825</ele>
        <time>2013-06-23T11:23:01Z</time>
      </trkpt>
      <trkpt lat="43.15937" lon="2.44793">
        <ele>226.479523</ele>
        <time>2013-06-23T11:23:03Z</time>
      </trkpt>
      <trkpt lat="43.15933" lon="2.44802">
        <ele>225.796387</ele>
        <time>2013-06-23T11:23:07Z</time>
      </trkpt>
      <trkpt lat="43.15929" lon="2.4481">
        <ele>225.269928</ele>
        <time>2013-06-23T11:23:08Z</time>
      </trkpt>
      <trkpt lat="43.15926" lon="2.44819">
        <ele>224.371246</ele>
        <time>2013-06-23T11:23:11Z</time>
      </trkpt>
      <trkpt lat="43.15924" lon="2.44827">
        <ele>223.394562</ele>
        <time>2013-06-23T11:23:12Z</time>
      </trkpt>
      <trkpt lat="43.15922" lon="2.44833">
        <ele>222.53595</ele>
        <time>2013-06-23T11:23:14Z</time>
      </trkpt>
      <trkpt lat="43.15921" lon="2.4484">
        <ele>221.462219</ele>
        <time>2013-06-23T11:23:16Z</time>
      </trkpt>
      <trkpt lat="43.15921" lon="2.44846">
        <ele>220.617401</ele>
        <time>2013-06-23T11:23:19Z</time>
      </trkpt>
      <trkpt lat="43.15918" lon="2.44853">
        <ele>220.295258</ele>
        <time>2013-06-23T11:23:20Z</time>
      </trkpt>
      <trkpt lat="43.15913" lon="2.44859">
        <ele>220.640045</ele>
        <time>2013-06-23T11:23:22Z</time>
      </trkpt>
      <trkpt lat="43.1591" lon="2.44867">
        <ele>220.098663</ele>
        <time>2013-06-23T11:23:25Z</time>
      </trkpt>
      <trkpt lat="43.1591" lon="2.44874">
        <ele>219.025238</ele>
        <time>2013-06-23T11:23:27Z</time>
      </trkpt>
      <trkpt lat="43.1591" lon="2.44881">
        <ele>217.628204</ele>
        <time>2013-06-23T11:23:29Z</time>
      </trkpt>
      <trkpt lat="43.15909" lon="2.44889">
        <ele>216.450043</ele>
        <time>2013-06-23T11:23:31Z</time>
      </trkpt>
      <trkpt lat="43.15908" lon="2.44898">
        <ele>215.15509</ele>
        <time>2013-06-23T11:23:33Z</time>
      </trkpt>
      <trkpt lat="43.15906" lon="2.44906">
        <ele>214.224182</ele>
        <time>2013-06-23T11:23:35Z</time>
      </trkpt>
      <trkpt lat="43.15903" lon="2.44912">
        <ele>213.860748</ele>
        <time>2013-06-23T11:23:37Z</time>
      </trkpt>
      <trkpt lat="43.15901" lon="2.44918">
        <ele>213.243652</ele>
        <time>2013-06-23T11:23:39Z</time>
      </trkpt>
      <trkpt lat="43.15898" lon="2.44925">
        <ele>212.961151</ele>
        <time>2013-06-23T11:23:42Z</time>
      </trkpt>
      <trkpt lat="43.15894" lon="2.44934">
        <ele>212.492096</ele>
        <time>2013-06-23T11:23:43Z</time>
      </trkpt>
      <trkpt lat="43.15892" lon="2.44941">
        <ele>211.769165</ele>
        <time>2013-06-23T11:23:45Z</time>
      </trkpt>
      <trkpt lat="43.15889" lon="2.44949">
        <ele>211.23114</ele>
        <time>2013-06-23T11:23:48Z</time>
      </trkpt>
      <trkpt lat="43.15886" lon="2.44957">
        <ele>210.535217</ele>
        <time>2013-06-23T11:23:52Z</time>
      </trkpt>
      <trkpt lat="43.15884" lon="2.44963">
        <ele>209.987793</ele>
        <time>2013-06-23T11:23:53Z</time>
      </trkpt>
      <trkpt lat="43.15882" lon="2.44971">
        <ele>208.890015</ele>
        <time>2013-06-23T11:23:55Z</time>
      </trkpt>
      <trkpt lat="43.15879" lon="2.44981">
        <ele>207.734344</ele>
        <time>2013-06-23T11:23:57Z</time>
      </trkpt>
      <trkpt lat="43.15876" lon="2.4499">
        <ele>206.806274</ele>
        <time>2013-06-23T11:23:59Z</time>
      </trkpt>
      <trkpt lat="43.15872" lon="2.44998">
        <ele>206.131592</ele>
        <time>2013-06-23T11:24:01Z</time>
      </trkpt>
      <trkpt lat="43.15869" lon="2.45005">
        <ele>205.225037</ele>
        <time>2013-06-23T11:24:04Z</time>
      </trkpt>
      <trkpt lat="43.15867" lon="2.45012">
        <ele>204.270996</ele>
        <time>2013-06-23T11:24:05Z</time>
      </trkpt>
      <trkpt lat="43.15863" lon="2.45018">
        <ele>203.709381</ele>
        <time>2013-06-23T11:24:07Z</time>
      </trkpt>
      <trkpt lat="43.1586" lon="2.45024">
        <ele>203.067657</ele>
        <time>2013-06-23T11:24:09Z</time>
      </trkpt>
      <trkpt lat="43.15857" lon="2.4503">
        <ele>202.623566</ele>
        <time>2013-06-23T11:24:11Z</time>
      </trkpt>
      <trkpt lat="43.15854" lon="2.45037">
        <ele>201.541016</ele>
        <time>2013-06-23T11:24:13Z</time>
      </trkpt>
      <trkpt lat="43.15853" lon="2.45043">
        <ele>200.451141</ele>
        <time>2013-06-23T11:24:16Z</time>
      </trkpt>
      <trkpt lat="43.1585" lon="2.45051">
        <ele>199.329895</ele>
        <time>2013-06-23T11:24:17Z</time>
      </trkpt>
      <trkpt lat="43.15845" lon="2.45059">
        <ele>198.334717</ele>
        <time>2013-06-23T11:24:19Z</time>
      </trkpt>
      <trkpt lat="43.15843" lon="2.45066">
        <ele>197.288239</ele>
        <time>2013-06-23T11:24:21Z</time>
      </trkpt>
      <trkpt lat="43.1584" lon="2.45072">
        <ele>196.419006</ele>
        <time>2013-06-23T11:24:23Z</time>
      </trkpt>
      <trkpt lat="43.15837" lon="2.4508">
        <ele>195.258667</ele>
        <time>2013-06-23T11:24:27Z</time>
      </trkpt>
      <trkpt lat="43.15835" lon="2.45087">
        <ele>194.194672</ele>
        <time>2013-06-23T11:24:28Z</time>
      </trkpt>
      <trkpt lat="43.15833" lon="2.45094">
        <ele>193.284393</ele>
        <time>2013-06-23T11:24:30Z</time>
      </trkpt>
      <trkpt lat="43.1583" lon="2.451">
        <ele>192.744171</ele>
        <time>2013-06-23T11:24:32Z</time>
      </trkpt>
      <trkpt lat="43.15827" lon="2.45105">
        <ele>192.533386</ele>
        <time>2013-06-23T11:24:34Z</time>
      </trkpt>
      <trkpt lat="43.15826" lon="2.45111">
        <ele>191.667175</ele>
        <time>2013-06-23T11:24:36Z</time>
      </trkpt>
      <trkpt lat="43.15825" lon="2.45118">
        <ele>190.580383</ele>
        <time>2013-06-23T11:24:39Z</time>
      </trkpt>
      <trkpt lat="43.15827" lon="2.45125">
        <ele>188.881744</ele>
        <time>2013-06-23T11:24:40Z</time>
      </trkpt>
      <trkpt lat="43.15829" lon="2.45131">
        <ele>187.241211</ele>
        <time>2013-06-23T11:24:42Z</time>
      </trkpt>
      <trkpt lat="43.1583" lon="2.45138">
        <ele>185.862732</ele>
        <time>2013-06-23T11:24:44Z</time>
      </trkpt>
      <trkpt lat="43.1583" lon="2.45145">
        <ele>184.571716</ele>
        <time>2013-06-23T11:24:46Z</time>
      </trkpt>
      <trkpt lat="43.15828" lon="2.45151">
        <ele>183.877014</ele>
        <time>2013-06-23T11:24:54Z</time>
      </trkpt>
      <trkpt lat="43.15824" lon="2.45153">
        <ele>184.476624</ele>
        <time>2013-06-23T11:26:08Z</time>
      </trkpt>
      <trkpt lat="43.15817" lon="2.45154">
        <ele>185.639465</ele>
        <time>2013-06-23T11:26:46Z</time>
      </trkpt>
      <trkpt lat="43.15812" lon="2.45151">
        <ele>187.08728</ele>
        <time>2013-06-23T11:26:49Z</time>
      </trkpt>
      <trkpt lat="43.15808" lon="2.45147">
        <ele>188.871887</ele>
        <time>2013-06-23T11:26:53Z</time>
      </trkpt>
      <trkpt lat="43.15804" lon="2.45143">
        <ele>190.334167</ele>
        <time>2013-06-23T11:26:57Z</time>
      </trkpt>
      <trkpt lat="43.158" lon="2.45137">
        <ele>192.315613</ele>
        <time>2013-06-23T11:26:59Z</time>
      </trkpt>
      <trkpt lat="43.15797" lon="2.45129">
        <ele>194.362305</ele>
        <time>2013-06-23T11:27:02Z</time>
      </trkpt>
      <trkpt lat="43.15793" lon="2.45126">
        <ele>195.945099</ele>
        <time>2013-06-23T11:27:06Z</time>
      </trkpt>
      <trkpt lat="43.15786" lon="2.45129">
        <ele>196.679626</ele>
        <time>2013-06-23T11:27:07Z</time>
      </trkpt>
      <trkpt lat="43.15783" lon="2.45135">
        <ele>196.286255</ele>
        <time>2013-06-23T11:27:09Z</time>
      </trkpt>
      <trkpt lat="43.15779" lon="2.45143">
        <ele>195.567963</ele>
        <time>2013-06-23T11:27:11Z</time>
      </trkpt>
      <trkpt lat="43.15781" lon="2.45151">
        <ele>193.689819</ele>
        <time>2013-06-23T11:27:14Z</time>
      </trkpt>
      <trkpt lat="43.15784" lon="2.45159">
        <ele>191.503754</ele>
        <time>2013-06-23T11:27:17Z</time>
      </trkpt>
      <trkpt lat="43.15785" lon="2.45165">
        <ele>190.095673</ele>
        <time>2013-06-23T11:27:19Z</time>
      </trkpt>
      <trkpt lat="43.15788" lon="2.45174">
        <ele>188.359955</ele>
        <time>2013-06-23T11:27:22Z</time>
      </trkpt>
      <trkpt lat="43.1579" lon="2.45181">
        <ele>186.993164</ele>
        <time>2013-06-23T11:27:24Z</time>
      </trkpt>
      <trkpt lat="43.15792" lon="2.45188">
        <ele>185.598694</ele>
        <time>2013-06-23T11:27:26Z</time>
      </trkpt>
      <trkpt lat="43.15794" lon="2.45197">
        <ele>184.011414</ele>
        <time>2013-06-23T11:27:29Z</time>
      </trkpt>
      <trkpt lat="43.15795" lon="2.45205">
        <ele>182.809143</ele>
        <time>2013-06-23T11:27:30Z</time>
      </trkpt>
      <trkpt lat="43.15796" lon="2.45214">
        <ele>181.458923</ele>
        <time>2013-06-23T11:27:32Z</time>
      </trkpt>
      <trkpt lat="43.15798" lon="2.45223">
        <ele>179.969299</ele>
        <time>2013-06-23T11:27:34Z</time>
      </trkpt>
      <trkpt lat="43.15798" lon="2.45237">
        <ele>178.184692</ele>
        <time>2013-06-23T11:27:36Z</time>
      </trkpt>
      <trkpt lat="43.15797" lon="2.45244">
        <ele>177.463318</ele>
        <time>2013-06-23T11:27:37Z</time>
      </trkpt>
      <trkpt lat="43.15796" lon="2.45251">
        <ele>176.686035</ele>
        <time>2013-06-23T11:27:38Z</time>
      </trkpt>
      <trkpt lat="43.15795" lon="2.4526">
        <ele>175.756897</ele>
        <time>2013-06-23T11:27:41Z</time>
      </trkpt>
      <trkpt lat="43.15793" lon="2.45267">
        <ele>175.059082</ele>
        <time>2013-06-23T11:27:43Z</time>
      </trkpt>
      <trkpt lat="43.15787" lon="2.45268">
        <ele>175.707581</ele>
        <time>2013-06-23T11:27:47Z</time>
      </trkpt>
      <trkpt lat="43.15788" lon="2.45258">
        <ele>176.982971</ele>
        <time>2013-06-23T11:28:13Z</time>
      </trkpt>
      <trkpt lat="43.15791" lon="2.45263">
        <ele>175.893677</ele>
        <time>2013-06-23T11:29:10Z</time>
      </trkpt>
      <trkpt lat="43.15795" lon="2.45267">
        <ele>174.861206</ele>
        <time>2013-06-23T11:29:25Z</time>
      </trkpt>
      <trkpt lat="43.15799" lon="2.4527">
        <ele>173.793274</ele>
        <time>2013-06-23T11:29:28Z</time>
      </trkpt>
      <trkpt lat="43.15805" lon="2.4528">
        <ele>171.855835</ele>
        <time>2013-06-23T11:29:30Z</time>
      </trkpt>
      <trkpt lat="43.15806" lon="2.45291">
        <ele>170.361084</ele>
        <time>2013-06-23T11:29:31Z</time>
      </trkpt>
      <trkpt lat="43.15807" lon="2.45301">
        <ele>169.057556</ele>
        <time>2013-06-23T11:29:33Z</time>
      </trkpt>
      <trkpt lat="43.15811" lon="2.45308">
        <ele>167.746338</ele>
        <time>2013-06-23T11:29:35Z</time>
      </trkpt>
      <trkpt lat="43.15816" lon="2.45306">
        <ele>167.487488</ele>
        <time>2013-06-23T11:29:37Z</time>
      </trkpt>
      <trkpt lat="43.15819" lon="2.45302">
        <ele>167.645508</ele>
        <time>2013-06-23T11:29:39Z</time>
      </trkpt>
      <trkpt lat="43.15824" lon="2.45306">
        <ele>166.693298</ele>
        <time>2013-06-23T11:29:43Z</time>
      </trkpt>
      <trkpt lat="43.15823" lon="2.45316">
        <ele>165.717529</ele>
        <time>2013-06-23T11:29:45Z</time>
      </trkpt>
      <trkpt lat="43.1582" lon="2.45327">
        <ele>164.829529</ele>
        <time>2013-06-23T11:29:47Z</time>
      </trkpt>
      <trkpt lat="43.15817" lon="2.45338">
        <ele>163.827087</ele>
        <time>2013-06-23T11:29:49Z</time>
      </trkpt>
      <trkpt lat="43.15815" lon="2.45344">
        <ele>163.222534</ele>
        <time>2013-06-23T11:29:50Z</time>
      </trkpt>
      <trkpt lat="43.15813" lon="2.4535">
        <ele>162.6427</ele>
        <time>2013-06-23T11:29:51Z</time>
      </trkpt>
      <trkpt lat="43.1581" lon="2.45357">
        <ele>162.025208</ele>
        <time>2013-06-23T11:29:54Z</time>
      </trkpt>
      <trkpt lat="43.15806" lon="2.45363">
        <ele>161.475403</ele>
        <time>2013-06-23T11:29:54Z</time>
      </trkpt>
      <trkpt lat="43.15803" lon="2.45369">
        <ele>161.006958</ele>
        <time>2013-06-23T11:29:54Z</time>
      </trkpt>
      <trkpt lat="43.15799" lon="2.45375">
        <ele>160.550476</ele>
        <time>2013-06-23T11:29:55Z</time>
      </trkpt>
      <trkpt lat="43.15795" lon="2.4538">
        <ele>160.060059</ele>
        <time>2013-06-23T11:29:56Z</time>
      </trkpt>
      <trkpt lat="43.15791" lon="2.45386">
        <ele>159.594421</ele>
        <time>2013-06-23T11:29:57Z</time>
      </trkpt>
      <trkpt lat="43.15786" lon="2.45391">
        <ele>159.213989</ele>
        <time>2013-06-23T11:29:58Z</time>
      </trkpt>
      <trkpt lat="43.15781" lon="2.45396">
        <ele>158.986267</ele>
        <time>2013-06-23T11:29:59Z</time>
      </trkpt>
      <trkpt lat="43.15774" lon="2.454">
        <ele>158.890869</ele>
        <time>2013-06-23T11:30:00Z</time>
      </trkpt>
      <trkpt lat="43.15768" lon="2.45403">
        <ele>158.78064</ele>
        <time>2013-06-23T11:30:02Z</time>
      </trkpt>
      <trkpt lat="43.1576" lon="2.45408">
        <ele>158.651367</ele>
        <time>2013-06-23T11:30:03Z</time>
      </trkpt>
      <trkpt lat="43.15753" lon="2.45412">
        <ele>158.507141</ele>
        <time>2013-06-23T11:30:03Z</time>
      </trkpt>
      <trkpt lat="43.15746" lon="2.45416">
        <ele>158.416138</ele>
        <time>2013-06-23T11:30:04Z</time>
      </trkpt>
      <trkpt lat="43.15739" lon="2.45419">
        <ele>158.480164</ele>
        <time>2013-06-23T11:30:05Z</time>
      </trkpt>
      <trkpt lat="43.15733" lon="2.45422">
        <ele>158.591003</ele>
        <time>2013-06-23T11:30:06Z</time>
      </trkpt>
      <trkpt lat="43.15727" lon="2.45424">
        <ele>158.723633</ele>
        <time>2013-06-23T11:30:07Z</time>
      </trkpt>
      <trkpt lat="43.15721" lon="2.45427">
        <ele>158.735168</ele>
        <time>2013-06-23T11:30:08Z</time>
      </trkpt>
      <trkpt lat="43.15718" lon="2.45433">
        <ele>158.341553</ele>
        <time>2013-06-23T11:30:09Z</time>
      </trkpt>
      <trkpt lat="43.15715" lon="2.45438">
        <ele>157.870972</ele>
        <time>2013-06-23T11:30:10Z</time>
      </trkpt>
      <trkpt lat="43.15711" lon="2.45444">
        <ele>157.32782</ele>
        <time>2013-06-23T11:30:11Z</time>
      </trkpt>
      <trkpt lat="43.15708" lon="2.45451">
        <ele>156.74646</ele>
        <time>2013-06-23T11:30:13Z</time>
      </trkpt>
      <trkpt lat="43.15704" lon="2.45458">
        <ele>156.142517</ele>
        <time>2013-06-23T11:30:14Z</time>
      </trkpt>
      <trkpt lat="43.157" lon="2.45464">
        <ele>155.544067</ele>
        <time>2013-06-23T11:30:14Z</time>
      </trkpt>
      <trkpt lat="43.15696" lon="2.45471">
        <ele>154.956787</ele>
        <time>2013-06-23T11:30:15Z</time>
      </trkpt>
      <trkpt lat="43.15691" lon="2.45478">
        <ele>154.415771</ele>
        <time>2013-06-23T11:30:16Z</time>
      </trkpt>
      <trkpt lat="43.15687" lon="2.45484">
        <ele>153.886963</ele>
        <time>2013-06-23T11:30:17Z</time>
      </trkpt>
      <trkpt lat="43.15682" lon="2.4549">
        <ele>153.344238</ele>
        <time>2013-06-23T11:30:18Z</time>
      </trkpt>
      <trkpt lat="43.15678" lon="2.45497">
        <ele>152.770508</ele>
        <time>2013-06-23T11:30:19Z</time>
      </trkpt>
      <trkpt lat="43.15673" lon="2.45504">
        <ele>152.419434</ele>
        <time>2013-06-23T11:30:20Z</time>
      </trkpt>
      <trkpt lat="43.15668" lon="2.4551">
        <ele>152.325562</ele>
        <time>2013-06-23T11:30:21Z</time>
      </trkpt>
      <trkpt lat="43.15663" lon="2.45517">
        <ele>152.336121</ele>
        <time>2013-06-23T11:30:24Z</time>
      </trkpt>
      <trkpt lat="43.15658" lon="2.45523">
        <ele>152.368469</ele>
        <time>2013-06-23T11:30:24Z</time>
      </trkpt>
      <trkpt lat="43.15653" lon="2.4553">
        <ele>152.374634</ele>
        <time>2013-06-23T11:30:24Z</time>
      </trkpt>
      <trkpt lat="43.15648" lon="2.45537">
        <ele>152.377197</ele>
        <time>2013-06-23T11:30:25Z</time>
      </trkpt>
      <trkpt lat="43.15643" lon="2.45544">
        <ele>152.362</ele>
        <time>2013-06-23T11:30:26Z</time>
      </trkpt>
      <trkpt lat="43.15638" lon="2.45551">
        <ele>152.348145</ele>
        <time>2013-06-23T11:30:27Z</time>
      </trkpt>
      <trkpt lat="43.15633" lon="2.45558">
        <ele>152.334534</ele>
        <time>2013-06-23T11:30:28Z</time>
      </trkpt>
      <trkpt lat="43.15629" lon="2.45565">
        <ele>152.31427</ele>
        <time>2013-06-23T11:30:29Z</time>
      </trkpt>
      <trkpt lat="43.15624" lon="2.45571">
        <ele>152.290344</ele>
        <time>2013-06-23T11:30:30Z</time>
      </trkpt>
      <trkpt lat="43.1562" lon="2.45579">
        <ele>152.240417</ele>
        <time>2013-06-23T11:30:32Z</time>
      </trkpt>
      <trkpt lat="43.15615" lon="2.45586">
        <ele>152.195679</ele>
        <time>2013-06-23T11:30:33Z</time>
      </trkpt>
      <trkpt lat="43.15611" lon="2.45593">
        <ele>152.14502</ele>
        <time>2013-06-23T11:30:33Z</time>
      </trkpt>
      <trkpt lat="43.15607" lon="2.456">
        <ele>152.093994</ele>
        <time>2013-06-23T11:30:34Z</time>
      </trkpt>
      <trkpt lat="43.15603" lon="2.45606">
        <ele>152.057922</ele>
        <time>2013-06-23T11:30:35Z</time>
      </trkpt>
      <trkpt lat="43.156" lon="2.45611">
        <ele>152.027954</ele>
        <time>2013-06-23T11:30:36Z</time>
      </trkpt>
      <trkpt lat="43.15597" lon="2.45616">
        <ele>151.995178</ele>
        <time>2013-06-23T11:30:37Z</time>
      </trkpt>
      <trkpt lat="43.15594" lon="2.45621">
        <ele>151.932434</ele>
        <time>2013-06-23T11:30:38Z</time>
      </trkpt>
      <trkpt lat="43.15592" lon="2.45628">
        <ele>151.65918</ele>
        <time>2013-06-23T11:30:40Z</time>
      </trkpt>
      <trkpt lat="43.1559" lon="2.45635">
        <ele>151.372009</ele>
        <time>2013-06-23T11:30:41Z</time>
      </trkpt>
      <trkpt lat="43.15589" lon="2.45642">
        <ele>151.068237</ele>
        <time>2013-06-23T11:30:41Z</time>
      </trkpt>
      <trkpt lat="43.15587" lon="2.4565">
        <ele>150.737915</ele>
        <time>2013-06-23T11:30:42Z</time>
      </trkpt>
      <trkpt lat="43.15585" lon="2.45658">
        <ele>150.393921</ele>
        <time>2013-06-23T11:30:43Z</time>
      </trkpt>
      <trkpt lat="43.15584" lon="2.45666">
        <ele>150.036255</ele>
        <time>2013-06-23T11:30:44Z</time>
      </trkpt>
      <trkpt lat="43.15582" lon="2.45673">
        <ele>149.664917</ele>
        <time>2013-06-23T11:30:45Z</time>
      </trkpt>
      <trkpt lat="43.15581" lon="2.45682">
        <ele>149.225525</ele>
        <time>2013-06-23T11:30:46Z</time>
      </trkpt>
      <trkpt lat="43.15579" lon="2.45691">
        <ele>148.796692</ele>
        <time>2013-06-23T11:30:47Z</time>
      </trkpt>
      <trkpt lat="43.15579" lon="2.45701">
        <ele>148.338684</ele>
        <time>2013-06-23T11:30:48Z</time>
      </trkpt>
      <trkpt lat="43.1558" lon="2.4571">
        <ele>147.87854</ele>
        <time>2013-06-23T11:30:49Z</time>
      </trkpt>
      <trkpt lat="43.1558" lon="2.45721">
        <ele>147.372925</ele>
        <time>2013-06-23T11:30:50Z</time>
      </trkpt>
      <trkpt lat="43.15581" lon="2.45732">
        <ele>146.839844</ele>
        <time>2013-06-23T11:30:51Z</time>
      </trkpt>
      <trkpt lat="43.15582" lon="2.45744">
        <ele>146.311768</ele>
        <time>2013-06-23T11:30:53Z</time>
      </trkpt>
      <trkpt lat="43.15584" lon="2.45754">
        <ele>146.141296</ele>
        <time>2013-06-23T11:30:53Z</time>
      </trkpt>
      <trkpt lat="43.15583" lon="2.45765">
        <ele>146.547668</ele>
        <time>2013-06-23T11:30:54Z</time>
      </trkpt>
      <trkpt lat="43.15581" lon="2.45775">
        <ele>146.887207</ele>
        <time>2013-06-23T11:30:55Z</time>
      </trkpt>
      <trkpt lat="43.15576" lon="2.45785">
        <ele>147.146851</ele>
        <time>2013-06-23T11:30:56Z</time>
      </trkpt>
      <trkpt lat="43.15572" lon="2.45793">
        <ele>147.339905</ele>
        <time>2013-06-23T11:30:57Z</time>
      </trkpt>
      <trkpt lat="43.15566" lon="2.45801">
        <ele>147.463074</ele>
        <time>2013-06-23T11:30:58Z</time>
      </trkpt>
      <trkpt lat="43.15562" lon="2.45805">
        <ele>147.458679</ele>
        <time>2013-06-23T11:30:59Z</time>
      </trkpt>
      <trkpt lat="43.15557" lon="2.45806">
        <ele>147.379578</ele>
        <time>2013-06-23T11:31:02Z</time>
      </trkpt>
      <trkpt lat="43.15553" lon="2.45811">
        <ele>147.391235</ele>
        <time>2013-06-23T11:31:04Z</time>
      </trkpt>
      <trkpt lat="43.15558" lon="2.45801">
        <ele>147.276611</ele>
        <time>2013-06-23T11:31:19Z</time>
      </trkpt>
      <trkpt lat="43.15555" lon="2.45806">
        <ele>147.32428</ele>
        <time>2013-06-23T11:32:27Z</time>
      </trkpt>
      <trkpt lat="43.15551" lon="2.45811">
        <ele>147.325134</ele>
        <time>2013-06-23T11:32:29Z</time>
      </trkpt>
      <trkpt lat="43.15545" lon="2.45816">
        <ele>147.293518</ele>
        <time>2013-06-23T11:32:32Z</time>
      </trkpt>
      <trkpt lat="43.1554" lon="2.4582">
        <ele>147.205078</ele>
        <time>2013-06-23T11:32:34Z</time>
      </trkpt>
      <trkpt lat="43.15534" lon="2.45824">
        <ele>147.084106</ele>
        <time>2013-06-23T11:32:36Z</time>
      </trkpt>
      <trkpt lat="43.15529" lon="2.45827">
        <ele>146.964661</ele>
        <time>2013-06-23T11:32:39Z</time>
      </trkpt>
      <trkpt lat="43.15524" lon="2.45832">
        <ele>146.867249</ele>
        <time>2013-06-23T11:32:40Z</time>
      </trkpt>
      <trkpt lat="43.1552" lon="2.45838">
        <ele>146.977295</ele>
        <time>2013-06-23T11:32:42Z</time>
      </trkpt>
      <trkpt lat="43.15516" lon="2.45843">
        <ele>147.103088</ele>
        <time>2013-06-23T11:32:44Z</time>
      </trkpt>
      <trkpt lat="43.15511" lon="2.45848">
        <ele>147.176758</ele>
        <time>2013-06-23T11:32:46Z</time>
      </trkpt>
      <trkpt lat="43.15505" lon="2.45854">
        <ele>147.208435</ele>
        <time>2013-06-23T11:32:48Z</time>
      </trkpt>
      <trkpt lat="43.15499" lon="2.4586">
        <ele>147.266113</ele>
        <time>2013-06-23T11:32:50Z</time>
      </trkpt>
      <trkpt lat="43.15492" lon="2.45865">
        <ele>147.537598</ele>
        <time>2013-06-23T11:32:52Z</time>
      </trkpt>
      <trkpt lat="43.15486" lon="2.45871">
        <ele>147.745972</ele>
        <time>2013-06-23T11:32:54Z</time>
      </trkpt>
      <trkpt lat="43.15479" lon="2.45877">
        <ele>147.936646</ele>
        <time>2013-06-23T11:32:56Z</time>
      </trkpt>
      <trkpt lat="43.15473" lon="2.45884">
        <ele>148.088196</ele>
        <time>2013-06-23T11:32:58Z</time>
      </trkpt>
      <trkpt lat="43.15466" lon="2.45891">
        <ele>148.18158</ele>
        <time>2013-06-23T11:33:00Z</time>
      </trkpt>
      <trkpt lat="43.15463" lon="2.45895">
        <ele>148.203186</ele>
        <time>2013-06-23T11:33:01Z</time>
      </trkpt>
      <trkpt lat="43.15459" lon="2.459">
        <ele>148.199219</ele>
        <time>2013-06-23T11:33:02Z</time>
      </trkpt>
      <trkpt lat="43.15455" lon="2.45904">
        <ele>148.166382</ele>
        <time>2013-06-23T11:33:03Z</time>
      </trkpt>
      <trkpt lat="43.15451" lon="2.45908">
        <ele>148.117737</ele>
        <time>2013-06-23T11:33:04Z</time>
      </trkpt>
      <trkpt lat="43.15447" lon="2.45912">
        <ele>148.046326</ele>
        <time>2013-06-23T11:33:06Z</time>
      </trkpt>
      <trkpt lat="43.15444" lon="2.45916">
        <ele>147.960205</ele>
        <time>2013-06-23T11:33:06Z</time>
      </trkpt>
      <trkpt lat="43.1544" lon="2.4592">
        <ele>147.971558</ele>
        <time>2013-06-23T11:33:07Z</time>
      </trkpt>
      <trkpt lat="43.15436" lon="2.45924">
        <ele>148.025818</ele>
        <time>2013-06-23T11:33:08Z</time>
      </trkpt>
      <trkpt lat="43.15433" lon="2.45928">
        <ele>148.065796</ele>
        <time>2013-06-23T11:33:09Z</time>
      </trkpt>
      <trkpt lat="43.15429" lon="2.45933">
        <ele>148.093811</ele>
        <time>2013-06-23T11:33:10Z</time>
      </trkpt>
      <trkpt lat="43.15425" lon="2.45938">
        <ele>148.132568</ele>
        <time>2013-06-23T11:33:11Z</time>
      </trkpt>
      <trkpt lat="43.15422" lon="2.45943">
        <ele>148.177307</ele>
        <time>2013-06-23T11:33:12Z</time>
      </trkpt>
      <trkpt lat="43.15419" lon="2.45948">
        <ele>148.216797</ele>
        <time>2013-06-23T11:33:13Z</time>
      </trkpt>
      <trkpt lat="43.15415" lon="2.45953">
        <ele>148.340759</ele>
        <time>2013-06-23T11:33:14Z</time>
      </trkpt>
      <trkpt lat="43.15412" lon="2.45959">
        <ele>148.559448</ele>
        <time>2013-06-23T11:33:15Z</time>
      </trkpt>
      <trkpt lat="43.15409" lon="2.45963">
        <ele>148.754456</ele>
        <time>2013-06-23T11:33:17Z</time>
      </trkpt>
      <trkpt lat="43.15405" lon="2.45969">
        <ele>148.938538</ele>
        <time>2013-06-23T11:33:18Z</time>
      </trkpt>
      <trkpt lat="43.15401" lon="2.45974">
        <ele>149.101624</ele>
        <time>2013-06-23T11:33:18Z</time>
      </trkpt>
      <trkpt lat="43.15398" lon="2.45978">
        <ele>149.231079</ele>
        <time>2013-06-23T11:33:19Z</time>
      </trkpt>
      <trkpt lat="43.15394" lon="2.45983">
        <ele>149.338806</ele>
        <time>2013-06-23T11:33:20Z</time>
      </trkpt>
      <trkpt lat="43.1539" lon="2.45987">
        <ele>149.420044</ele>
        <time>2013-06-23T11:33:21Z</time>
      </trkpt>
      <trkpt lat="43.15384" lon="2.45995">
        <ele>149.511475</ele>
        <time>2013-06-23T11:33:23Z</time>
      </trkpt>
      <trkpt lat="43.15375" lon="2.45996">
        <ele>149.452759</ele>
        <time>2013-06-23T11:33:25Z</time>
      </trkpt>
      <trkpt lat="43.15367" lon="2.45993">
        <ele>149.351868</ele>
        <time>2013-06-23T11:33:28Z</time>
      </trkpt>
      <trkpt lat="43.1536" lon="2.45988">
        <ele>149.279053</ele>
        <time>2013-06-23T11:33:29Z</time>
      </trkpt>
      <trkpt lat="43.15354" lon="2.45984">
        <ele>149.250793</ele>
        <time>2013-06-23T11:33:34Z</time>
      </trkpt>
      <trkpt lat="43.15349" lon="2.45983">
        <ele>149.237427</ele>
        <time>2013-06-23T11:33:34Z</time>
      </trkpt>
      <trkpt lat="43.15344" lon="2.45984">
        <ele>149.218628</ele>
        <time>2013-06-23T11:33:35Z</time>
      </trkpt>
      <trkpt lat="43.15338" lon="2.45987">
        <ele>149.176086</ele>
        <time>2013-06-23T11:33:37Z</time>
      </trkpt>
      <trkpt lat="43.15331" lon="2.4599">
        <ele>149.276062</ele>
        <time>2013-06-23T11:33:41Z</time>
      </trkpt>
      <trkpt lat="43.15325" lon="2.45992">
        <ele>149.714661</ele>
        <time>2013-06-23T11:33:41Z</time>
      </trkpt>
      <trkpt lat="43.15318" lon="2.45992">
        <ele>150.187195</ele>
        <time>2013-06-23T11:33:43Z</time>
      </trkpt>
      <trkpt lat="43.15311" lon="2.45993">
        <ele>150.740662</ele>
        <time>2013-06-23T11:33:45Z</time>
      </trkpt>
      <trkpt lat="43.15304" lon="2.45993">
        <ele>151.211304</ele>
        <time>2013-06-23T11:33:47Z</time>
      </trkpt>
      <trkpt lat="43.15298" lon="2.45994">
        <ele>151.67157</ele>
        <time>2013-06-23T11:33:49Z</time>
      </trkpt>
      <trkpt lat="43.15291" lon="2.45995">
        <ele>152.105652</ele>
        <time>2013-06-23T11:33:52Z</time>
      </trkpt>
      <trkpt lat="43.15284" lon="2.45996">
        <ele>152.59137</ele>
        <time>2013-06-23T11:33:53Z</time>
      </trkpt>
      <trkpt lat="43.15277" lon="2.45997">
        <ele>153.104431</ele>
        <time>2013-06-23T11:33:55Z</time>
      </trkpt>
      <trkpt lat="43.1527" lon="2.45997">
        <ele>153.615479</ele>
        <time>2013-06-23T11:33:57Z</time>
      </trkpt>
      <trkpt lat="43.15264" lon="2.45995">
        <ele>154.123657</ele>
        <time>2013-06-23T11:34:00Z</time>
      </trkpt>
      <trkpt lat="43.15257" lon="2.45994">
        <ele>154.615356</ele>
        <time>2013-06-23T11:34:01Z</time>
      </trkpt>
      <trkpt lat="43.15251" lon="2.45995">
        <ele>155.065186</ele>
        <time>2013-06-23T11:34:03Z</time>
      </trkpt>
      <trkpt lat="43.15244" lon="2.45999">
        <ele>155.583374</ele>
        <time>2013-06-23T11:34:05Z</time>
      </trkpt>
      <trkpt lat="43.15239" lon="2.46004">
        <ele>156.064331</ele>
        <time>2013-06-23T11:34:07Z</time>
      </trkpt>
      <trkpt lat="43.15234" lon="2.46011">
        <ele>156.553223</ele>
        <time>2013-06-23T11:34:09Z</time>
      </trkpt>
      <trkpt lat="43.15229" lon="2.46016">
        <ele>157.037354</ele>
        <time>2013-06-23T11:34:12Z</time>
      </trkpt>
      <trkpt lat="43.15224" lon="2.46021">
        <ele>157.540405</ele>
        <time>2013-06-23T11:34:14Z</time>
      </trkpt>
      <trkpt lat="43.1522" lon="2.46023">
        <ele>158.032104</ele>
        <time>2013-06-23T11:34:15Z</time>
      </trkpt>
      <trkpt lat="43.15214" lon="2.46025">
        <ele>158.592285</ele>
        <time>2013-06-23T11:34:18Z</time>
      </trkpt>
      <trkpt lat="43.15208" lon="2.46025">
        <ele>159.18988</ele>
        <time>2013-06-23T11:34:21Z</time>
      </trkpt>
      <trkpt lat="43.15202" lon="2.46025">
        <ele>159.735535</ele>
        <time>2013-06-23T11:34:25Z</time>
      </trkpt>
      <trkpt lat="43.15198" lon="2.46024">
        <ele>160.192932</ele>
        <time>2013-06-23T11:34:27Z</time>
      </trkpt>
      <trkpt lat="43.15192" lon="2.46024">
        <ele>160.728943</ele>
        <time>2013-06-23T11:34:30Z</time>
      </trkpt>
      <trkpt lat="43.15188" lon="2.46023">
        <ele>161.173523</ele>
        <time>2013-06-23T11:34:32Z</time>
      </trkpt>
      <trkpt lat="43.15183" lon="2.46023">
        <ele>161.677612</ele>
        <time>2013-06-23T11:34:36Z</time>
      </trkpt>
      <trkpt lat="43.15177" lon="2.46022">
        <ele>162.232056</ele>
        <time>2013-06-23T11:34:38Z</time>
      </trkpt>
      <trkpt lat="43.15172" lon="2.46022">
        <ele>162.717102</ele>
        <time>2013-06-23T11:34:40Z</time>
      </trkpt>
      <trkpt lat="43.15167" lon="2.46021">
        <ele>163.206299</ele>
        <time>2013-06-23T11:34:42Z</time>
      </trkpt>
      <trkpt lat="43.15161" lon="2.46019">
        <ele>163.893982</ele>
        <time>2013-06-23T11:34:45Z</time>
      </trkpt>
      <trkpt lat="43.15156" lon="2.46017">
        <ele>164.439758</ele>
        <time>2013-06-23T11:34:49Z</time>
      </trkpt>
      <trkpt lat="43.15151" lon="2.46015">
        <ele>164.98175</ele>
        <time>2013-06-23T11:34:53Z</time>
      </trkpt>
      <trkpt lat="43.15146" lon="2.46013">
        <ele>165.561462</ele>
        <time>2013-06-23T11:34:55Z</time>
      </trkpt>
      <trkpt lat="43.15141" lon="2.46012">
        <ele>166.20459</ele>
        <time>2013-06-23T11:35:01Z</time>
      </trkpt>
      <trkpt lat="43.15136" lon="2.46011">
        <ele>166.791138</ele>
        <time>2013-06-23T11:35:06Z</time>
      </trkpt>
      <trkpt lat="43.15131" lon="2.46009">
        <ele>167.355042</ele>
        <time>2013-06-23T11:35:10Z</time>
      </trkpt>
      <trkpt lat="43.15126" lon="2.46007">
        <ele>167.9198</ele>
        <time>2013-06-23T11:35:15Z</time>
      </trkpt>
      <trkpt lat="43.15122" lon="2.46006">
        <ele>168.44104</ele>
        <time>2013-06-23T11:35:18Z</time>
      </trkpt>
      <trkpt lat="43.15117" lon="2.46006">
        <ele>168.987488</ele>
        <time>2013-06-23T11:35:22Z</time>
      </trkpt>
      <trkpt lat="43.15112" lon="2.46007">
        <ele>169.601501</ele>
        <time>2013-06-23T11:35:25Z</time>
      </trkpt>
      <trkpt lat="43.15107" lon="2.46008">
        <ele>170.173706</ele>
        <time>2013-06-23T11:35:29Z</time>
      </trkpt>
      <trkpt lat="43.15102" lon="2.46009">
        <ele>170.745605</ele>
        <time>2013-06-23T11:35:33Z</time>
      </trkpt>
      <trkpt lat="43.15097" lon="2.4601">
        <ele>171.387878</ele>
        <time>2013-06-23T11:35:35Z</time>
      </trkpt>
      <trkpt lat="43.15092" lon="2.46009">
        <ele>171.960999</ele>
        <time>2013-06-23T11:35:38Z</time>
      </trkpt>
      <trkpt lat="43.15087" lon="2.46009">
        <ele>172.575623</ele>
        <time>2013-06-23T11:35:41Z</time>
      </trkpt>
      <trkpt lat="43.15082" lon="2.4601">
        <ele>173.190002</ele>
        <time>2013-06-23T11:35:44Z</time>
      </trkpt>
      <trkpt lat="43.15077" lon="2.46011">
        <ele>173.773987</ele>
        <time>2013-06-23T11:35:47Z</time>
      </trkpt>
      <trkpt lat="43.15072" lon="2.4601">
        <ele>174.363525</ele>
        <time>2013-06-23T11:35:50Z</time>
      </trkpt>
      <trkpt lat="43.15067" lon="2.46009">
        <ele>174.924927</ele>
        <time>2013-06-23T11:35:53Z</time>
      </trkpt>
      <trkpt lat="43.15062" lon="2.46009">
        <ele>175.480103</ele>
        <time>2013-06-23T11:35:56Z</time>
      </trkpt>
      <trkpt lat="43.15057" lon="2.4601">
        <ele>176.073792</ele>
        <time>2013-06-23T11:35:59Z</time>
      </trkpt>
      <trkpt lat="43.15051" lon="2.46009">
        <ele>176.645874</ele>
        <time>2013-06-23T11:36:02Z</time>
      </trkpt>
      <trkpt lat="43.15047" lon="2.46008">
        <ele>177.162842</ele>
        <time>2013-06-23T11:36:05Z</time>
      </trkpt>
      <trkpt lat="43.15042" lon="2.46007">
        <ele>177.648682</ele>
        <time>2013-06-23T11:36:08Z</time>
      </trkpt>
      <trkpt lat="43.15037" lon="2.46006">
        <ele>178.156616</ele>
        <time>2013-06-23T11:36:11Z</time>
      </trkpt>
      <trkpt lat="43.15033" lon="2.46006">
        <ele>178.688416</ele>
        <time>2013-06-23T11:36:14Z</time>
      </trkpt>
      <trkpt lat="43.15028" lon="2.46004">
        <ele>179.141235</ele>
        <time>2013-06-23T11:36:17Z</time>
      </trkpt>
      <trkpt lat="43.15024" lon="2.46002">
        <ele>179.533386</ele>
        <time>2013-06-23T11:36:20Z</time>
      </trkpt>
      <trkpt lat="43.15019" lon="2.46001">
        <ele>179.980164</ele>
        <time>2013-06-23T11:36:23Z</time>
      </trkpt>
      <trkpt lat="43.15014" lon="2.46">
        <ele>180.486328</ele>
        <time>2013-06-23T11:36:26Z</time>
      </trkpt>
      <trkpt lat="43.15009" lon="2.46">
        <ele>181.015442</ele>
        <time>2013-06-23T11:36:29Z</time>
      </trkpt>
      <trkpt lat="43.15005" lon="2.46001">
        <ele>181.545105</ele>
        <time>2013-06-23T11:36:32Z</time>
      </trkpt>
      <trkpt lat="43.15" lon="2.46001">
        <ele>182.120483</ele>
        <time>2013-06-23T11:36:37Z</time>
      </trkpt>
      <trkpt lat="43.14995" lon="2.46002">
        <ele>182.555603</ele>
        <time>2013-06-23T11:36:41Z</time>
      </trkpt>
      <trkpt lat="43.14989" lon="2.46002">
        <ele>182.987488</ele>
        <time>2013-06-23T11:36:46Z</time>
      </trkpt>
      <trkpt lat="43.14984" lon="2.46002">
        <ele>183.433899</ele>
        <time>2013-06-23T11:36:50Z</time>
      </trkpt>
      <trkpt lat="43.14979" lon="2.46002">
        <ele>183.84259</ele>
        <time>2013-06-23T11:36:52Z</time>
      </trkpt>
      <trkpt lat="43.14974" lon="2.46001">
        <ele>184.290039</ele>
        <time>2013-06-23T11:36:55Z</time>
      </trkpt>
      <trkpt lat="43.14968" lon="2.46001">
        <ele>184.712402</ele>
        <time>2013-06-23T11:36:59Z</time>
      </trkpt>
      <trkpt lat="43.14964" lon="2.46">
        <ele>185.065186</ele>
        <time>2013-06-23T11:37:01Z</time>
      </trkpt>
      <trkpt lat="43.14958" lon="2.45998">
        <ele>185.762146</ele>
        <time>2013-06-23T11:37:05Z</time>
      </trkpt>
      <trkpt lat="43.14952" lon="2.45999">
        <ele>186.129883</ele>
        <time>2013-06-23T11:38:32Z</time>
      </trkpt>
      <trkpt lat="43.14949" lon="2.46003">
        <ele>186.485779</ele>
        <time>2013-06-23T11:38:37Z</time>
      </trkpt>
      <trkpt lat="43.14945" lon="2.46007">
        <ele>187.035645</ele>
        <time>2013-06-23T11:38:41Z</time>
      </trkpt>
      <trkpt lat="43.14941" lon="2.46011">
        <ele>187.564941</ele>
        <time>2013-06-23T11:38:45Z</time>
      </trkpt>
      <trkpt lat="43.14937" lon="2.46013">
        <ele>188.12735</ele>
        <time>2013-06-23T11:38:50Z</time>
      </trkpt>
      <trkpt lat="43.14932" lon="2.46015">
        <ele>188.632324</ele>
        <time>2013-06-23T11:38:54Z</time>
      </trkpt>
      <trkpt lat="43.14927" lon="2.46017">
        <ele>189.165955</ele>
        <time>2013-06-23T11:38:59Z</time>
      </trkpt>
      <trkpt lat="43.14922" lon="2.46019">
        <ele>189.677795</ele>
        <time>2013-06-23T11:39:03Z</time>
      </trkpt>
      <trkpt lat="43.14918" lon="2.4602">
        <ele>190.133087</ele>
        <time>2013-06-23T11:39:07Z</time>
      </trkpt>
      <trkpt lat="43.14913" lon="2.46022">
        <ele>190.91861</ele>
        <time>2013-06-23T11:39:12Z</time>
      </trkpt>
      <trkpt lat="43.14907" lon="2.46021">
        <ele>191.751007</ele>
        <time>2013-06-23T11:39:16Z</time>
      </trkpt>
      <trkpt lat="43.14902" lon="2.46022">
        <ele>192.591064</ele>
        <time>2013-06-23T11:39:22Z</time>
      </trkpt>
      <trkpt lat="43.14897" lon="2.46023">
        <ele>193.361755</ele>
        <time>2013-06-23T11:39:25Z</time>
      </trkpt>
      <trkpt lat="43.14893" lon="2.46024">
        <ele>194.085663</ele>
        <time>2013-06-23T11:39:29Z</time>
      </trkpt>
      <trkpt lat="43.14888" lon="2.46025">
        <ele>194.872559</ele>
        <time>2013-06-23T11:39:34Z</time>
      </trkpt>
      <trkpt lat="43.14884" lon="2.46028">
        <ele>195.558624</ele>
        <time>2013-06-23T11:39:39Z</time>
      </trkpt>
      <trkpt lat="43.14879" lon="2.46028">
        <ele>196.313141</ele>
        <time>2013-06-23T11:39:45Z</time>
      </trkpt>
      <trkpt lat="43.14874" lon="2.46029">
        <ele>197.038971</ele>
        <time>2013-06-23T11:39:49Z</time>
      </trkpt>
      <trkpt lat="43.14869" lon="2.4603">
        <ele>197.810944</ele>
        <time>2013-06-23T11:39:55Z</time>
      </trkpt>
      <trkpt lat="43.14863" lon="2.46033">
        <ele>198.564117</ele>
        <time>2013-06-23T11:39:59Z</time>
      </trkpt>
      <trkpt lat="43.14858" lon="2.46036">
        <ele>199.248413</ele>
        <time>2013-06-23T11:40:05Z</time>
      </trkpt>
      <trkpt lat="43.14854" lon="2.46038">
        <ele>199.874359</ele>
        <time>2013-06-23T11:40:08Z</time>
      </trkpt>
      <trkpt lat="43.14849" lon="2.46041">
        <ele>200.489838</ele>
        <time>2013-06-23T11:40:13Z</time>
      </trkpt>
      <trkpt lat="43.14844" lon="2.46043">
        <ele>201.013611</ele>
        <time>2013-06-23T11:40:24Z</time>
      </trkpt>
      <trkpt lat="43.14839" lon="2.46042">
        <ele>201.700256</ele>
        <time>2013-06-23T11:40:32Z</time>
      </trkpt>
      <trkpt lat="43.14835" lon="2.4604">
        <ele>202.329407</ele>
        <time>2013-06-23T11:40:37Z</time>
      </trkpt>
      <trkpt lat="43.14831" lon="2.46037">
        <ele>202.987396</ele>
        <time>2013-06-23T11:40:43Z</time>
      </trkpt>
      <trkpt lat="43.14826" lon="2.46034">
        <ele>203.753052</ele>
        <time>2013-06-23T11:40:52Z</time>
      </trkpt>
      <trkpt lat="43.14822" lon="2.46033">
        <ele>204.47168</ele>
        <time>2013-06-23T11:40:58Z</time>
      </trkpt>
      <trkpt lat="43.14817" lon="2.46032">
        <ele>205.1521</ele>
        <time>2013-06-23T11:41:03Z</time>
      </trkpt>
      <trkpt lat="43.14812" lon="2.46032">
        <ele>205.83194</ele>
        <time>2013-06-23T11:41:09Z</time>
      </trkpt>
      <trkpt lat="43.14808" lon="2.46031">
        <ele>206.571838</ele>
        <time>2013-06-23T11:41:16Z</time>
      </trkpt>
      <trkpt lat="43.14803" lon="2.46032">
        <ele>207.26593</ele>
        <time>2013-06-23T11:41:26Z</time>
      </trkpt>
      <trkpt lat="43.14797" lon="2.4603">
        <ele>208.194458</ele>
        <time>2013-06-23T11:41:32Z</time>
      </trkpt>
      <trkpt lat="43.14793" lon="2.46029">
        <ele>208.911987</ele>
        <time>2013-06-23T11:41:38Z</time>
      </trkpt>
      <trkpt lat="43.14788" lon="2.46028">
        <ele>209.758453</ele>
        <time>2013-06-23T11:41:42Z</time>
      </trkpt>
      <trkpt lat="43.14783" lon="2.46026">
        <ele>210.620422</ele>
        <time>2013-06-23T11:41:50Z</time>
      </trkpt>
      <trkpt lat="43.14779" lon="2.46022">
        <ele>211.642273</ele>
        <time>2013-06-23T11:41:54Z</time>
      </trkpt>
      <trkpt lat="43.14774" lon="2.46019">
        <ele>212.670807</ele>
        <time>2013-06-23T11:42:00Z</time>
      </trkpt>
      <trkpt lat="43.14769" lon="2.46017">
        <ele>213.65271</ele>
        <time>2013-06-23T11:42:03Z</time>
      </trkpt>
      <trkpt lat="43.14765" lon="2.46017">
        <ele>214.475311</ele>
        <time>2013-06-23T11:42:08Z</time>
      </trkpt>
      <trkpt lat="43.1476" lon="2.46016">
        <ele>215.339233</ele>
        <time>2013-06-23T11:42:14Z</time>
      </trkpt>
      <trkpt lat="43.14755" lon="2.46014">
        <ele>216.299194</ele>
        <time>2013-06-23T11:42:23Z</time>
      </trkpt>
      <trkpt lat="43.1475" lon="2.46013">
        <ele>217.255005</ele>
        <time>2013-06-23T11:42:30Z</time>
      </trkpt>
      <trkpt lat="43.14746" lon="2.46011">
        <ele>217.859619</ele>
        <time>2013-06-23T11:42:34Z</time>
      </trkpt>
      <trkpt lat="43.14742" lon="2.46007">
        <ele>218.516724</ele>
        <time>2013-06-23T11:42:39Z</time>
      </trkpt>
      <trkpt lat="43.14738" lon="2.46004">
        <ele>219.231232</ele>
        <time>2013-06-23T11:42:43Z</time>
      </trkpt>
      <trkpt lat="43.14733" lon="2.46004">
        <ele>219.529083</ele>
        <time>2013-06-23T11:42:50Z</time>
      </trkpt>
      <trkpt lat="43.14728" lon="2.46003">
        <ele>219.891235</ele>
        <time>2013-06-23T11:42:55Z</time>
      </trkpt>
      <trkpt lat="43.14722" lon="2.46005">
        <ele>220.04184</ele>
        <time>2013-06-23T11:43:22Z</time>
      </trkpt>
      <trkpt lat="43.14717" lon="2.46007">
        <ele>220.16272</ele>
        <time>2013-06-23T11:43:26Z</time>
      </trkpt>
      <trkpt lat="43.14712" lon="2.46009">
        <ele>220.197418</ele>
        <time>2013-06-23T11:43:28Z</time>
      </trkpt>
      <trkpt lat="43.14708" lon="2.46011">
        <ele>220.244293</ele>
        <time>2013-06-23T11:43:30Z</time>
      </trkpt>
      <trkpt lat="43.14702" lon="2.46015">
        <ele>220.157623</ele>
        <time>2013-06-23T11:43:32Z</time>
      </trkpt>
      <trkpt lat="43.14695" lon="2.46018">
        <ele>220.159637</ele>
        <time>2013-06-23T11:43:34Z</time>
      </trkpt>
      <trkpt lat="43.14688" lon="2.46022">
        <ele>220.187042</ele>
        <time>2013-06-23T11:43:36Z</time>
      </trkpt>
      <trkpt lat="43.14679" lon="2.46026">
        <ele>220.307648</ele>
        <time>2013-06-23T11:43:38Z</time>
      </trkpt>
      <trkpt lat="43.14675" lon="2.4603">
        <ele>220.19104</ele>
        <time>2013-06-23T11:43:39Z</time>
      </trkpt>
      <trkpt lat="43.1467" lon="2.46039">
        <ele>219.554077</ele>
        <time>2013-06-23T11:43:41Z</time>
      </trkpt>
      <trkpt lat="43.14668" lon="2.46048">
        <ele>218.701508</ele>
        <time>2013-06-23T11:43:43Z</time>
      </trkpt>
      <trkpt lat="43.14663" lon="2.46055">
        <ele>218.542084</ele>
        <time>2013-06-23T11:43:46Z</time>
      </trkpt>
      <trkpt lat="43.14658" lon="2.46059">
        <ele>218.73822</ele>
        <time>2013-06-23T11:43:47Z</time>
      </trkpt>
      <trkpt lat="43.14654" lon="2.46065">
        <ele>218.533783</ele>
        <time>2013-06-23T11:43:49Z</time>
      </trkpt>
      <trkpt lat="43.1465" lon="2.46071">
        <ele>218.413269</ele>
        <time>2013-06-23T11:43:51Z</time>
      </trkpt>
      <trkpt lat="43.14648" lon="2.46079">
        <ele>217.920502</ele>
        <time>2013-06-23T11:43:54Z</time>
      </trkpt>
      <trkpt lat="43.14649" lon="2.46087">
        <ele>217.077637</ele>
        <time>2013-06-23T11:43:57Z</time>
      </trkpt>
      <trkpt lat="43.14653" lon="2.46093">
        <ele>216.328735</ele>
        <time>2013-06-23T11:43:59Z</time>
      </trkpt>
      <trkpt lat="43.14656" lon="2.46099">
        <ele>215.477692</ele>
        <time>2013-06-23T11:44:01Z</time>
      </trkpt>
      <trkpt lat="43.14658" lon="2.46105">
        <ele>214.942505</ele>
        <time>2013-06-23T11:44:03Z</time>
      </trkpt>
      <trkpt lat="43.14656" lon="2.46112">
        <ele>214.788361</ele>
        <time>2013-06-23T11:44:06Z</time>
      </trkpt>
      <trkpt lat="43.14654" lon="2.46119">
        <ele>214.785156</ele>
        <time>2013-06-23T11:44:07Z</time>
      </trkpt>
      <trkpt lat="43.1465" lon="2.46125">
        <ele>214.925629</ele>
        <time>2013-06-23T11:44:09Z</time>
      </trkpt>
      <trkpt lat="43.14646" lon="2.46132">
        <ele>215.24704</ele>
        <time>2013-06-23T11:44:11Z</time>
      </trkpt>
      <trkpt lat="43.14642" lon="2.46138">
        <ele>215.609924</ele>
        <time>2013-06-23T11:44:13Z</time>
      </trkpt>
      <trkpt lat="43.14637" lon="2.46144">
        <ele>216.096588</ele>
        <time>2013-06-23T11:44:15Z</time>
      </trkpt>
      <trkpt lat="43.14633" lon="2.46148">
        <ele>216.46875</ele>
        <time>2013-06-23T11:44:18Z</time>
      </trkpt>
      <trkpt lat="43.1463" lon="2.46156">
        <ele>216.630188</ele>
        <time>2013-06-23T11:44:19Z</time>
      </trkpt>
      <trkpt lat="43.14628" lon="2.46161">
        <ele>216.691467</ele>
        <time>2013-06-23T11:44:20Z</time>
      </trkpt>
      <trkpt lat="43.14624" lon="2.46173">
        <ele>217.835815</ele>
        <time>2013-06-23T11:44:22Z</time>
      </trkpt>
      <trkpt lat="43.1462" lon="2.46181">
        <ele>219.344299</ele>
        <time>2013-06-23T11:44:24Z</time>
      </trkpt>
      <trkpt lat="43.14619" lon="2.46189">
        <ele>220.220734</ele>
        <time>2013-06-23T11:44:26Z</time>
      </trkpt>
      <trkpt lat="43.14619" lon="2.46197">
        <ele>221.195038</ele>
        <time>2013-06-23T11:44:30Z</time>
      </trkpt>
      <trkpt lat="43.1462" lon="2.46204">
        <ele>221.614624</ele>
        <time>2013-06-23T11:44:31Z</time>
      </trkpt>
      <trkpt lat="43.14623" lon="2.4621">
        <ele>221.685059</ele>
        <time>2013-06-23T11:44:34Z</time>
      </trkpt>
      <trkpt lat="43.14629" lon="2.46214">
        <ele>221.200134</ele>
        <time>2013-06-23T11:44:37Z</time>
      </trkpt>
      <trkpt lat="43.14635" lon="2.46216">
        <ele>220.272705</ele>
        <time>2013-06-23T11:44:41Z</time>
      </trkpt>
      <trkpt lat="43.14641" lon="2.46216">
        <ele>219.241364</ele>
        <time>2013-06-23T11:44:43Z</time>
      </trkpt>
      <trkpt lat="43.14646" lon="2.46215">
        <ele>218.293793</ele>
        <time>2013-06-23T11:44:46Z</time>
      </trkpt>
      <trkpt lat="43.1465" lon="2.46219">
        <ele>217.872314</ele>
        <time>2013-06-23T11:45:01Z</time>
      </trkpt>
      <trkpt lat="43.14655" lon="2.4622">
        <ele>217.236938</ele>
        <time>2013-06-23T11:45:07Z</time>
      </trkpt>
      <trkpt lat="43.14661" lon="2.46221">
        <ele>216.179504</ele>
        <time>2013-06-23T11:45:13Z</time>
      </trkpt>
      <trkpt lat="43.14666" lon="2.46223">
        <ele>215.561188</ele>
        <time>2013-06-23T11:45:20Z</time>
      </trkpt>
      <trkpt lat="43.14668" lon="2.46229">
        <ele>215.764099</ele>
        <time>2013-06-23T11:45:28Z</time>
      </trkpt>
      <trkpt lat="43.1467" lon="2.46235">
        <ele>215.72168</ele>
        <time>2013-06-23T11:45:34Z</time>
      </trkpt>
      <trkpt lat="43.14671" lon="2.46241">
        <ele>216.079956</ele>
        <time>2013-06-23T11:45:38Z</time>
      </trkpt>
      <trkpt lat="43.14672" lon="2.46248">
        <ele>216.55423</ele>
        <time>2013-06-23T11:45:44Z</time>
      </trkpt>
      <trkpt lat="43.14672" lon="2.46255">
        <ele>217.201294</ele>
        <time>2013-06-23T11:45:52Z</time>
      </trkpt>
      <trkpt lat="43.14673" lon="2.46263">
        <ele>218.055542</ele>
        <time>2013-06-23T11:45:59Z</time>
      </trkpt>
      <trkpt lat="43.14673" lon="2.46269">
        <ele>218.964355</ele>
        <time>2013-06-23T11:46:06Z</time>
      </trkpt>
      <trkpt lat="43.14675" lon="2.46275">
        <ele>219.088989</ele>
        <time>2013-06-23T11:46:12Z</time>
      </trkpt>
      <trkpt lat="43.14679" lon="2.46278">
        <ele>218.515656</ele>
        <time>2013-06-23T11:46:18Z</time>
      </trkpt>
      <trkpt lat="43.14682" lon="2.46284">
        <ele>218.589294</ele>
        <time>2013-06-23T11:46:27Z</time>
      </trkpt>
      <trkpt lat="43.14682" lon="2.46294">
        <ele>219.687286</ele>
        <time>2013-06-23T11:46:31Z</time>
      </trkpt>
      <trkpt lat="43.14682" lon="2.46301">
        <ele>220.754303</ele>
        <time>2013-06-23T11:46:31Z</time>
      </trkpt>
      <trkpt lat="43.14679" lon="2.46308">
        <ele>222.408447</ele>
        <time>2013-06-23T11:46:34Z</time>
      </trkpt>
      <trkpt lat="43.14677" lon="2.46316">
        <ele>223.950836</ele>
        <time>2013-06-23T11:46:37Z</time>
      </trkpt>
      <trkpt lat="43.14675" lon="2.46322">
        <ele>225.395264</ele>
        <time>2013-06-23T11:46:41Z</time>
      </trkpt>
      <trkpt lat="43.14673" lon="2.4633">
        <ele>226.947845</ele>
        <time>2013-06-23T11:46:43Z</time>
      </trkpt>
      <trkpt lat="43.1467" lon="2.46338">
        <ele>227.887756</ele>
        <time>2013-06-23T11:46:46Z</time>
      </trkpt>
      <trkpt lat="43.14668" lon="2.46345">
        <ele>228.181396</ele>
        <time>2013-06-23T11:46:49Z</time>
      </trkpt>
      <trkpt lat="43.14667" lon="2.46353">
        <ele>228.216309</ele>
        <time>2013-06-23T11:46:53Z</time>
      </trkpt>
      <trkpt lat="43.14665" lon="2.46359">
        <ele>228.276215</ele>
        <time>2013-06-23T11:46:55Z</time>
      </trkpt>
      <trkpt lat="43.14663" lon="2.46367">
        <ele>228.22171</ele>
        <time>2013-06-23T11:46:58Z</time>
      </trkpt>
      <trkpt lat="43.14661" lon="2.46373">
        <ele>228.25354</ele>
        <time>2013-06-23T11:47:02Z</time>
      </trkpt>
      <trkpt lat="43.14658" lon="2.46381">
        <ele>228.28241</ele>
        <time>2013-06-23T11:47:04Z</time>
      </trkpt>
      <trkpt lat="43.14657" lon="2.46389">
        <ele>228.156219</ele>
        <time>2013-06-23T11:47:07Z</time>
      </trkpt>
      <trkpt lat="43.14656" lon="2.46396">
        <ele>228.091461</ele>
        <time>2013-06-23T11:47:11Z</time>
      </trkpt>
      <trkpt lat="43.14654" lon="2.46402">
        <ele>228.02005</ele>
        <time>2013-06-23T11:47:13Z</time>
      </trkpt>
      <trkpt lat="43.14653" lon="2.4641">
        <ele>227.877136</ele>
        <time>2013-06-23T11:47:17Z</time>
      </trkpt>
      <trkpt lat="43.14652" lon="2.46417">
        <ele>227.747986</ele>
        <time>2013-06-23T11:47:20Z</time>
      </trkpt>
      <trkpt lat="43.14651" lon="2.46425">
        <ele>227.117279</ele>
        <time>2013-06-23T11:47:23Z</time>
      </trkpt>
      <trkpt lat="43.14649" lon="2.46433">
        <ele>226.522583</ele>
        <time>2013-06-23T11:47:24Z</time>
      </trkpt>
      <trkpt lat="43.14647" lon="2.4644">
        <ele>226.097168</ele>
        <time>2013-06-23T11:47:26Z</time>
      </trkpt>
      <trkpt lat="43.14642" lon="2.46445">
        <ele>226.016663</ele>
        <time>2013-06-23T11:47:28Z</time>
      </trkpt>
      <trkpt lat="43.14636" lon="2.46449">
        <ele>226.091278</ele>
        <time>2013-06-23T11:47:30Z</time>
      </trkpt>
      <trkpt lat="43.14629" lon="2.46454">
        <ele>226.203674</ele>
        <time>2013-06-23T11:47:33Z</time>
      </trkpt>
      <trkpt lat="43.14622" lon="2.46455">
        <ele>226.610382</ele>
        <time>2013-06-23T11:47:34Z</time>
      </trkpt>
      <trkpt lat="43.14619" lon="2.46448">
        <ele>227.785217</ele>
        <time>2013-06-23T11:47:37Z</time>
      </trkpt>
      <trkpt lat="43.14617" lon="2.46442">
        <ele>228.723877</ele>
        <time>2013-06-23T11:47:39Z</time>
      </trkpt>
      <trkpt lat="43.14613" lon="2.46436">
        <ele>229.912231</ele>
        <time>2013-06-23T11:47:42Z</time>
      </trkpt>
      <trkpt lat="43.14609" lon="2.4643">
        <ele>231.15033</ele>
        <time>2013-06-23T11:47:47Z</time>
      </trkpt>
      <trkpt lat="43.14605" lon="2.46424">
        <ele>232.331696</ele>
        <time>2013-06-23T11:47:48Z</time>
      </trkpt>
      <trkpt lat="43.14601" lon="2.46419">
        <ele>233.549866</ele>
        <time>2013-06-23T11:47:52Z</time>
      </trkpt>
      <trkpt lat="43.14597" lon="2.46414">
        <ele>234.428101</ele>
        <time>2013-06-23T11:47:55Z</time>
      </trkpt>
      <trkpt lat="43.14593" lon="2.4641">
        <ele>235.150513</ele>
        <time>2013-06-23T11:48:00Z</time>
      </trkpt>
      <trkpt lat="43.14589" lon="2.46405">
        <ele>235.756256</ele>
        <time>2013-06-23T11:48:02Z</time>
      </trkpt>
      <trkpt lat="43.14585" lon="2.464">
        <ele>236.425049</ele>
        <time>2013-06-23T11:48:05Z</time>
      </trkpt>
      <trkpt lat="43.14581" lon="2.46396">
        <ele>236.877289</ele>
        <time>2013-06-23T11:48:08Z</time>
      </trkpt>
      <trkpt lat="43.14577" lon="2.46393">
        <ele>237.210236</ele>
        <time>2013-06-23T11:48:11Z</time>
      </trkpt>
      <trkpt lat="43.14573" lon="2.4639">
        <ele>237.538116</ele>
        <time>2013-06-23T11:48:14Z</time>
      </trkpt>
      <trkpt lat="43.14568" lon="2.4639">
        <ele>237.832397</ele>
        <time>2013-06-23T11:48:19Z</time>
      </trkpt>
      <trkpt lat="43.14564" lon="2.46387">
        <ele>238.211426</ele>
        <time>2013-06-23T11:48:22Z</time>
      </trkpt>
      <trkpt lat="43.14559" lon="2.46384">
        <ele>238.592133</ele>
        <time>2013-06-23T11:48:24Z</time>
      </trkpt>
      <trkpt lat="43.14554" lon="2.46383">
        <ele>238.949127</ele>
        <time>2013-06-23T11:48:28Z</time>
      </trkpt>
      <trkpt lat="43.14549" lon="2.46382">
        <ele>239.352478</ele>
        <time>2013-06-23T11:48:30Z</time>
      </trkpt>
      <trkpt lat="43.14544" lon="2.46381">
        <ele>239.691406</ele>
        <time>2013-06-23T11:48:34Z</time>
      </trkpt>
      <trkpt lat="43.1454" lon="2.4638">
        <ele>240.045593</ele>
        <time>2013-06-23T11:48:37Z</time>
      </trkpt>
      <trkpt lat="43.14535" lon="2.46379">
        <ele>240.428131</ele>
        <time>2013-06-23T11:48:40Z</time>
      </trkpt>
      <trkpt lat="43.1453" lon="2.46377">
        <ele>240.86145</ele>
        <time>2013-06-23T11:48:44Z</time>
      </trkpt>
      <trkpt lat="43.14525" lon="2.46376">
        <ele>241.244507</ele>
        <time>2013-06-23T11:48:46Z</time>
      </trkpt>
      <trkpt lat="43.14521" lon="2.46375">
        <ele>241.624207</ele>
        <time>2013-06-23T11:48:49Z</time>
      </trkpt>
      <trkpt lat="43.14516" lon="2.46374">
        <ele>242.024292</ele>
        <time>2013-06-23T11:48:52Z</time>
      </trkpt>
      <trkpt lat="43.14511" lon="2.46371">
        <ele>242.580688</ele>
        <time>2013-06-23T11:48:56Z</time>
      </trkpt>
      <trkpt lat="43.14507" lon="2.46367">
        <ele>243.260345</ele>
        <time>2013-06-23T11:48:58Z</time>
      </trkpt>
      <trkpt lat="43.14503" lon="2.46361">
        <ele>244.128357</ele>
        <time>2013-06-23T11:49:01Z</time>
      </trkpt>
      <trkpt lat="43.14499" lon="2.46354">
        <ele>245.088989</ele>
        <time>2013-06-23T11:49:04Z</time>
      </trkpt>
      <trkpt lat="43.14496" lon="2.46349">
        <ele>245.91272</ele>
        <time>2013-06-23T11:49:06Z</time>
      </trkpt>
      <trkpt lat="43.14494" lon="2.46343">
        <ele>246.757629</ele>
        <time>2013-06-23T11:49:08Z</time>
      </trkpt>
      <trkpt lat="43.14491" lon="2.46338">
        <ele>247.556549</ele>
        <time>2013-06-23T11:49:10Z</time>
      </trkpt>
      <trkpt lat="43.14487" lon="2.46331">
        <ele>248.324158</ele>
        <time>2013-06-23T11:49:13Z</time>
      </trkpt>
      <trkpt lat="43.14484" lon="2.46326">
        <ele>248.546021</ele>
        <time>2013-06-23T11:49:16Z</time>
      </trkpt>
      <trkpt lat="43.14482" lon="2.46321">
        <ele>248.751068</ele>
        <time>2013-06-23T11:49:17Z</time>
      </trkpt>
      <trkpt lat="43.14478" lon="2.46313">
        <ele>249.035675</ele>
        <time>2013-06-23T11:49:21Z</time>
      </trkpt>
      <trkpt lat="43.14475" lon="2.46308">
        <ele>249.251984</ele>
        <time>2013-06-23T11:49:22Z</time>
      </trkpt>
      <trkpt lat="43.14472" lon="2.46303">
        <ele>249.49292</ele>
        <time>2013-06-23T11:49:24Z</time>
      </trkpt>
      <trkpt lat="43.1447" lon="2.46298">
        <ele>249.738953</ele>
        <time>2013-06-23T11:49:26Z</time>
      </trkpt>
      <trkpt lat="43.14466" lon="2.46293">
        <ele>250.084869</ele>
        <time>2013-06-23T11:49:28Z</time>
      </trkpt>
      <trkpt lat="43.14462" lon="2.46292">
        <ele>250.615265</ele>
        <time>2013-06-23T11:49:31Z</time>
      </trkpt>
      <trkpt lat="43.14455" lon="2.46295">
        <ele>251.398254</ele>
        <time>2013-06-23T11:49:33Z</time>
      </trkpt>
      <trkpt lat="43.14451" lon="2.46301">
        <ele>252.03006</ele>
        <time>2013-06-23T11:49:36Z</time>
      </trkpt>
      <trkpt lat="43.14446" lon="2.46307">
        <ele>252.608521</ele>
        <time>2013-06-23T11:49:39Z</time>
      </trkpt>
      <trkpt lat="43.14443" lon="2.46311">
        <ele>253.042084</ele>
        <time>2013-06-23T11:49:42Z</time>
      </trkpt>
      <trkpt lat="43.14438" lon="2.46316">
        <ele>253.541443</ele>
        <time>2013-06-23T11:49:44Z</time>
      </trkpt>
      <trkpt lat="43.14434" lon="2.46321">
        <ele>254.098755</ele>
        <time>2013-06-23T11:49:47Z</time>
      </trkpt>
      <trkpt lat="43.14429" lon="2.46327">
        <ele>254.625824</ele>
        <time>2013-06-23T11:49:50Z</time>
      </trkpt>
      <trkpt lat="43.14426" lon="2.46331">
        <ele>255.010162</ele>
        <time>2013-06-23T11:49:54Z</time>
      </trkpt>
      <trkpt lat="43.14423" lon="2.46336">
        <ele>254.960022</ele>
        <time>2013-06-23T11:49:56Z</time>
      </trkpt>
      <trkpt lat="43.1442" lon="2.46342">
        <ele>254.597137</ele>
        <time>2013-06-23T11:49:59Z</time>
      </trkpt>
      <trkpt lat="43.14416" lon="2.46349">
        <ele>254.03479</ele>
        <time>2013-06-23T11:50:04Z</time>
      </trkpt>
      <trkpt lat="43.14413" lon="2.46354">
        <ele>253.666931</ele>
        <time>2013-06-23T11:50:07Z</time>
      </trkpt>
      <trkpt lat="43.14411" lon="2.4636">
        <ele>253.102539</ele>
        <time>2013-06-23T11:50:10Z</time>
      </trkpt>
      <trkpt lat="43.14408" lon="2.46367">
        <ele>252.498596</ele>
        <time>2013-06-23T11:50:13Z</time>
      </trkpt>
      <trkpt lat="43.14405" lon="2.46372">
        <ele>251.975952</ele>
        <time>2013-06-23T11:50:17Z</time>
      </trkpt>
      <trkpt lat="43.14401" lon="2.46377">
        <ele>251.637207</ele>
        <time>2013-06-23T11:50:20Z</time>
      </trkpt>
      <trkpt lat="43.14396" lon="2.46379">
        <ele>251.688721</ele>
        <time>2013-06-23T11:50:23Z</time>
      </trkpt>
      <trkpt lat="43.14391" lon="2.46381">
        <ele>251.910767</ele>
        <time>2013-06-23T11:50:26Z</time>
      </trkpt>
      <trkpt lat="43.14386" lon="2.46381">
        <ele>252.326019</ele>
        <time>2013-06-23T11:50:30Z</time>
      </trkpt>
      <trkpt lat="43.14381" lon="2.46379">
        <ele>252.981079</ele>
        <time>2013-06-23T11:50:36Z</time>
      </trkpt>
      <trkpt lat="43.14376" lon="2.46378">
        <ele>253.705536</ele>
        <time>2013-06-23T11:50:38Z</time>
      </trkpt>
      <trkpt lat="43.14371" lon="2.46376">
        <ele>254.36731</ele>
        <time>2013-06-23T11:50:41Z</time>
      </trkpt>
      <trkpt lat="43.14367" lon="2.46373">
        <ele>255.354523</ele>
        <time>2013-06-23T11:50:44Z</time>
      </trkpt>
      <trkpt lat="43.14361" lon="2.46371">
        <ele>256.310455</ele>
        <time>2013-06-23T11:50:49Z</time>
      </trkpt>
      <trkpt lat="43.14356" lon="2.46368">
        <ele>257.410217</ele>
        <time>2013-06-23T11:50:52Z</time>
      </trkpt>
      <trkpt lat="43.1435" lon="2.46364">
        <ele>258.646057</ele>
        <time>2013-06-23T11:50:54Z</time>
      </trkpt>
      <trkpt lat="43.14344" lon="2.46362">
        <ele>259.776398</ele>
        <time>2013-06-23T11:50:58Z</time>
      </trkpt>
      <trkpt lat="43.14339" lon="2.46359">
        <ele>260.841736</ele>
        <time>2013-06-23T11:51:02Z</time>
      </trkpt>
      <trkpt lat="43.14334" lon="2.46357">
        <ele>261.834076</ele>
        <time>2013-06-23T11:51:05Z</time>
      </trkpt>
      <trkpt lat="43.1433" lon="2.46352">
        <ele>263.01181</ele>
        <time>2013-06-23T11:51:09Z</time>
      </trkpt>
      <trkpt lat="43.14327" lon="2.46347">
        <ele>263.936127</ele>
        <time>2013-06-23T11:51:12Z</time>
      </trkpt>
      <trkpt lat="43.14323" lon="2.46343">
        <ele>264.709229</ele>
        <time>2013-06-23T11:51:15Z</time>
      </trkpt>
      <trkpt lat="43.14319" lon="2.46339">
        <ele>265.451019</ele>
        <time>2013-06-23T11:51:19Z</time>
      </trkpt>
      <trkpt lat="43.14314" lon="2.46335">
        <ele>266.138336</ele>
        <time>2013-06-23T11:51:22Z</time>
      </trkpt>
      <trkpt lat="43.1431" lon="2.46332">
        <ele>266.607452</ele>
        <time>2013-06-23T11:51:27Z</time>
      </trkpt>
      <trkpt lat="43.14306" lon="2.46328">
        <ele>266.896332</ele>
        <time>2013-06-23T11:51:30Z</time>
      </trkpt>
      <trkpt lat="43.14301" lon="2.46325">
        <ele>267.08609</ele>
        <time>2013-06-23T11:51:33Z</time>
      </trkpt>
      <trkpt lat="43.14295" lon="2.46324">
        <ele>267.169922</ele>
        <time>2013-06-23T11:51:36Z</time>
      </trkpt>
      <trkpt lat="43.14288" lon="2.46323">
        <ele>267.086365</ele>
        <time>2013-06-23T11:51:39Z</time>
      </trkpt>
      <trkpt lat="43.14284" lon="2.46323">
        <ele>267.053192</ele>
        <time>2013-06-23T11:51:42Z</time>
      </trkpt>
      <trkpt lat="43.14278" lon="2.46321">
        <ele>267.185425</ele>
        <time>2013-06-23T11:51:45Z</time>
      </trkpt>
      <trkpt lat="43.14272" lon="2.46319">
        <ele>267.389282</ele>
        <time>2013-06-23T11:51:48Z</time>
      </trkpt>
      <trkpt lat="43.14267" lon="2.46314">
        <ele>267.962982</ele>
        <time>2013-06-23T11:51:52Z</time>
      </trkpt>
      <trkpt lat="43.14262" lon="2.46308">
        <ele>268.728027</ele>
        <time>2013-06-23T11:51:54Z</time>
      </trkpt>
      <trkpt lat="43.14257" lon="2.46303">
        <ele>269.438324</ele>
        <time>2013-06-23T11:51:57Z</time>
      </trkpt>
      <trkpt lat="43.14254" lon="2.46296">
        <ele>270.363983</ele>
        <time>2013-06-23T11:52:00Z</time>
      </trkpt>
      <trkpt lat="43.14251" lon="2.46289">
        <ele>271.407715</ele>
        <time>2013-06-23T11:52:03Z</time>
      </trkpt>
      <trkpt lat="43.14247" lon="2.46284">
        <ele>272.437103</ele>
        <time>2013-06-23T11:52:06Z</time>
      </trkpt>
      <trkpt lat="43.14242" lon="2.4628">
        <ele>273.436005</ele>
        <time>2013-06-23T11:52:09Z</time>
      </trkpt>
      <trkpt lat="43.14237" lon="2.46276">
        <ele>274.406433</ele>
        <time>2013-06-23T11:52:12Z</time>
      </trkpt>
      <trkpt lat="43.14232" lon="2.46274">
        <ele>275.123444</ele>
        <time>2013-06-23T11:52:15Z</time>
      </trkpt>
      <trkpt lat="43.14226" lon="2.46272">
        <ele>275.802338</ele>
        <time>2013-06-23T11:52:19Z</time>
      </trkpt>
      <trkpt lat="43.1422" lon="2.4627">
        <ele>276.461212</ele>
        <time>2013-06-23T11:52:21Z</time>
      </trkpt>
      <trkpt lat="43.14216" lon="2.4627">
        <ele>276.875244</ele>
        <time>2013-06-23T11:52:23Z</time>
      </trkpt>
      <trkpt lat="43.1421" lon="2.4627">
        <ele>277.390991</ele>
        <time>2013-06-23T11:52:26Z</time>
      </trkpt>
      <trkpt lat="43.14203" lon="2.4627">
        <ele>277.964142</ele>
        <time>2013-06-23T11:52:30Z</time>
      </trkpt>
      <trkpt lat="43.14197" lon="2.4627">
        <ele>278.393494</ele>
        <time>2013-06-23T11:52:32Z</time>
      </trkpt>
      <trkpt lat="43.14191" lon="2.4627">
        <ele>278.927338</ele>
        <time>2013-06-23T11:52:35Z</time>
      </trkpt>
      <trkpt lat="43.14184" lon="2.46269">
        <ele>279.447815</ele>
        <time>2013-06-23T11:52:38Z</time>
      </trkpt>
      <trkpt lat="43.14178" lon="2.46268">
        <ele>280.032043</ele>
        <time>2013-06-23T11:52:41Z</time>
      </trkpt>
      <trkpt lat="43.14173" lon="2.46266">
        <ele>280.53479</ele>
        <time>2013-06-23T11:52:44Z</time>
      </trkpt>
      <trkpt lat="43.14168" lon="2.46265">
        <ele>280.97525</ele>
        <time>2013-06-23T11:52:47Z</time>
      </trkpt>
      <trkpt lat="43.14163" lon="2.46264">
        <ele>281.988678</ele>
        <time>2013-06-23T11:52:50Z</time>
      </trkpt>
      <trkpt lat="43.14158" lon="2.46264">
        <ele>283.40921</ele>
        <time>2013-06-23T11:52:53Z</time>
      </trkpt>
      <trkpt lat="43.14151" lon="2.46266">
        <ele>284.808044</ele>
        <time>2013-06-23T11:52:57Z</time>
      </trkpt>
      <trkpt lat="43.14148" lon="2.4627">
        <ele>285.510925</ele>
        <time>2013-06-23T11:53:00Z</time>
      </trkpt>
      <trkpt lat="43.14145" lon="2.46277">
        <ele>285.85614</ele>
        <time>2013-06-23T11:53:05Z</time>
      </trkpt>
      <trkpt lat="43.14143" lon="2.46285">
        <ele>285.865753</ele>
        <time>2013-06-23T11:53:09Z</time>
      </trkpt>
      <trkpt lat="43.14141" lon="2.46293">
        <ele>286.035339</ele>
        <time>2013-06-23T11:53:11Z</time>
      </trkpt>
      <trkpt lat="43.1414" lon="2.46299">
        <ele>285.964935</ele>
        <time>2013-06-23T11:53:13Z</time>
      </trkpt>
      <trkpt lat="43.1414" lon="2.46305">
        <ele>285.85556</ele>
        <time>2013-06-23T11:53:15Z</time>
      </trkpt>
      <trkpt lat="43.14138" lon="2.46312">
        <ele>285.992371</ele>
        <time>2013-06-23T11:53:17Z</time>
      </trkpt>
      <trkpt lat="43.14136" lon="2.46319">
        <ele>286.153534</ele>
        <time>2013-06-23T11:53:20Z</time>
      </trkpt>
      <trkpt lat="43.14132" lon="2.46325">
        <ele>286.901489</ele>
        <time>2013-06-23T11:53:21Z</time>
      </trkpt>
      <trkpt lat="43.14129" lon="2.46331">
        <ele>287.553345</ele>
        <time>2013-06-23T11:53:23Z</time>
      </trkpt>
      <trkpt lat="43.14125" lon="2.46335">
        <ele>288.533905</ele>
        <time>2013-06-23T11:53:25Z</time>
      </trkpt>
      <trkpt lat="43.14119" lon="2.46341">
        <ele>289.822998</ele>
        <time>2013-06-23T11:53:28Z</time>
      </trkpt>
      <trkpt lat="43.14116" lon="2.46347">
        <ele>290.648743</ele>
        <time>2013-06-23T11:53:30Z</time>
      </trkpt>
      <trkpt lat="43.14113" lon="2.46353">
        <ele>291.159851</ele>
        <time>2013-06-23T11:53:32Z</time>
      </trkpt>
      <trkpt lat="43.14112" lon="2.46359">
        <ele>291.326752</ele>
        <time>2013-06-23T11:53:34Z</time>
      </trkpt>
      <trkpt lat="43.1411" lon="2.46366">
        <ele>291.63327</ele>
        <time>2013-06-23T11:53:37Z</time>
      </trkpt>
      <trkpt lat="43.14109" lon="2.46374">
        <ele>291.780853</ele>
        <time>2013-06-23T11:53:40Z</time>
      </trkpt>
      <trkpt lat="43.14107" lon="2.4638">
        <ele>291.893097</ele>
        <time>2013-06-23T11:53:42Z</time>
      </trkpt>
      <trkpt lat="43.14106" lon="2.46388">
        <ele>291.962921</ele>
        <time>2013-06-23T11:53:45Z</time>
      </trkpt>
      <trkpt lat="43.14104" lon="2.46397">
        <ele>292.389587</ele>
        <time>2013-06-23T11:53:49Z</time>
      </trkpt>
      <trkpt lat="43.14102" lon="2.46403">
        <ele>292.836029</ele>
        <time>2013-06-23T11:53:51Z</time>
      </trkpt>
      <trkpt lat="43.14101" lon="2.46409">
        <ele>292.962433</ele>
        <time>2013-06-23T11:53:54Z</time>
      </trkpt>
      <trkpt lat="43.14098" lon="2.46415">
        <ele>293.794189</ele>
        <time>2013-06-23T11:53:58Z</time>
      </trkpt>
      <trkpt lat="43.14095" lon="2.46421">
        <ele>294.224518</ele>
        <time>2013-06-23T11:53:59Z</time>
      </trkpt>
      <trkpt lat="43.14095" lon="2.46427">
        <ele>294.050568</ele>
        <time>2013-06-23T11:54:01Z</time>
      </trkpt>
      <trkpt lat="43.14095" lon="2.46434">
        <ele>293.718781</ele>
        <time>2013-06-23T11:54:03Z</time>
      </trkpt>
      <trkpt lat="43.14095" lon="2.46442">
        <ele>293.323486</ele>
        <time>2013-06-23T11:54:07Z</time>
      </trkpt>
      <trkpt lat="43.14094" lon="2.4645">
        <ele>293.197876</ele>
        <time>2013-06-23T11:54:13Z</time>
      </trkpt>
      <trkpt lat="43.14092" lon="2.46456">
        <ele>293.52887</ele>
        <time>2013-06-23T11:54:16Z</time>
      </trkpt>
      <trkpt lat="43.14089" lon="2.46462">
        <ele>294.159637</ele>
        <time>2013-06-23T11:54:19Z</time>
      </trkpt>
      <trkpt lat="43.14086" lon="2.46468">
        <ele>294.722809</ele>
        <time>2013-06-23T11:54:22Z</time>
      </trkpt>
      <trkpt lat="43.14084" lon="2.46475">
        <ele>295.131317</ele>
        <time>2013-06-23T11:54:27Z</time>
      </trkpt>
      <trkpt lat="43.14086" lon="2.46481">
        <ele>294.103729</ele>
        <time>2013-06-23T11:57:11Z</time>
      </trkpt>
      <trkpt lat="43.14083" lon="2.46486">
        <ele>295.012115</ele>
        <time>2013-06-23T11:57:15Z</time>
      </trkpt>
      <trkpt lat="43.1408" lon="2.46491">
        <ele>295.695648</ele>
        <time>2013-06-23T11:57:16Z</time>
      </trkpt>
      <trkpt lat="43.14077" lon="2.46498">
        <ele>296.664703</ele>
        <time>2013-06-23T11:57:19Z</time>
      </trkpt>
      <trkpt lat="43.14074" lon="2.46504">
        <ele>297.839294</ele>
        <time>2013-06-23T11:57:21Z</time>
      </trkpt>
      <trkpt lat="43.14071" lon="2.46509">
        <ele>298.623138</ele>
        <time>2013-06-23T11:57:23Z</time>
      </trkpt>
      <trkpt lat="43.14069" lon="2.46517">
        <ele>299.155518</ele>
        <time>2013-06-23T11:57:27Z</time>
      </trkpt>
      <trkpt lat="43.14065" lon="2.46523">
        <ele>300.138794</ele>
        <time>2013-06-23T11:57:29Z</time>
      </trkpt>
      <trkpt lat="43.14062" lon="2.46529">
        <ele>300.81546</ele>
        <time>2013-06-23T11:57:34Z</time>
      </trkpt>
      <trkpt lat="43.14058" lon="2.46533">
        <ele>302.2547</ele>
        <time>2013-06-23T11:57:36Z</time>
      </trkpt>
      <trkpt lat="43.14054" lon="2.46539">
        <ele>303.276184</ele>
        <time>2013-06-23T11:57:40Z</time>
      </trkpt>
      <trkpt lat="43.14049" lon="2.46544">
        <ele>304.53241</ele>
        <time>2013-06-23T11:57:42Z</time>
      </trkpt>
      <trkpt lat="43.14044" lon="2.46549">
        <ele>305.571106</ele>
        <time>2013-06-23T11:57:45Z</time>
      </trkpt>
      <trkpt lat="43.14041" lon="2.46554">
        <ele>306.340851</ele>
        <time>2013-06-23T11:57:49Z</time>
      </trkpt>
      <trkpt lat="43.14037" lon="2.46559">
        <ele>306.895905</ele>
        <time>2013-06-23T11:57:51Z</time>
      </trkpt>
      <trkpt lat="43.14033" lon="2.46563">
        <ele>307.766174</ele>
        <time>2013-06-23T11:57:55Z</time>
      </trkpt>
      <trkpt lat="43.14028" lon="2.46564">
        <ele>309.448181</ele>
        <time>2013-06-23T11:58:00Z</time>
      </trkpt>
      <trkpt lat="43.14025" lon="2.46558">
        <ele>311.037292</ele>
        <time>2013-06-23T11:58:09Z</time>
      </trkpt>
      <trkpt lat="43.14027" lon="2.46553">
        <ele>310.989441</ele>
        <time>2013-06-23T11:58:14Z</time>
      </trkpt>
      <trkpt lat="43.14029" lon="2.46546">
        <ele>311.056183</ele>
        <time>2013-06-23T11:58:20Z</time>
      </trkpt>
      <trkpt lat="43.14031" lon="2.4654">
        <ele>311.140808</ele>
        <time>2013-06-23T11:58:23Z</time>
      </trkpt>
      <trkpt lat="43.14033" lon="2.46534">
        <ele>311.087769</ele>
        <time>2013-06-23T11:58:27Z</time>
      </trkpt>
      <trkpt lat="43.14036" lon="2.46528">
        <ele>310.891602</ele>
        <time>2013-06-23T11:58:32Z</time>
      </trkpt>
      <trkpt lat="43.14038" lon="2.46521">
        <ele>310.905792</ele>
        <time>2013-06-23T11:58:35Z</time>
      </trkpt>
      <trkpt lat="43.14039" lon="2.46515">
        <ele>310.915253</ele>
        <time>2013-06-23T11:58:39Z</time>
      </trkpt>
      <trkpt lat="43.14041" lon="2.46508">
        <ele>311.035522</ele>
        <time>2013-06-23T11:58:43Z</time>
      </trkpt>
      <trkpt lat="43.14043" lon="2.46501">
        <ele>311.037933</ele>
        <time>2013-06-23T11:58:49Z</time>
      </trkpt>
      <trkpt lat="43.14044" lon="2.46493">
        <ele>311.238037</ele>
        <time>2013-06-23T11:58:53Z</time>
      </trkpt>
      <trkpt lat="43.14045" lon="2.46486">
        <ele>311.573151</ele>
        <time>2013-06-23T11:58:56Z</time>
      </trkpt>
      <trkpt lat="43.14046" lon="2.46478">
        <ele>311.916748</ele>
        <time>2013-06-23T11:59:00Z</time>
      </trkpt>
      <trkpt lat="43.14046" lon="2.46471">
        <ele>312.31543</ele>
        <time>2013-06-23T11:59:03Z</time>
      </trkpt>
      <trkpt lat="43.14047" lon="2.46462">
        <ele>312.805298</ele>
        <time>2013-06-23T11:59:06Z</time>
      </trkpt>
      <trkpt lat="43.14048" lon="2.46455">
        <ele>313.031647</ele>
        <time>2013-06-23T11:59:09Z</time>
      </trkpt>
      <trkpt lat="43.14049" lon="2.46449">
        <ele>313.357483</ele>
        <time>2013-06-23T11:59:10Z</time>
      </trkpt>
      <trkpt lat="43.14049" lon="2.46442">
        <ele>313.762939</ele>
        <time>2013-06-23T11:59:12Z</time>
      </trkpt>
      <trkpt lat="43.1405" lon="2.46435">
        <ele>314.231171</ele>
        <time>2013-06-23T11:59:15Z</time>
      </trkpt>
      <trkpt lat="43.1405" lon="2.46428">
        <ele>314.824524</ele>
        <time>2013-06-23T11:59:18Z</time>
      </trkpt>
      <trkpt lat="43.14048" lon="2.46421">
        <ele>316.032349</ele>
        <time>2013-06-23T11:59:23Z</time>
      </trkpt>
      <trkpt lat="43.1405" lon="2.46414">
        <ele>315.609772</ele>
        <time>2013-06-23T12:01:02Z</time>
      </trkpt>
      <trkpt lat="43.1405" lon="2.46405">
        <ele>315.565369</ele>
        <time>2013-06-23T12:01:05Z</time>
      </trkpt>
      <trkpt lat="43.14049" lon="2.46398">
        <ele>316.232941</ele>
        <time>2013-06-23T12:01:08Z</time>
      </trkpt>
      <trkpt lat="43.14048" lon="2.4639">
        <ele>316.786499</ele>
        <time>2013-06-23T12:01:12Z</time>
      </trkpt>
      <trkpt lat="43.14046" lon="2.46384">
        <ele>317.494324</ele>
        <time>2013-06-23T12:01:13Z</time>
      </trkpt>
      <trkpt lat="43.14045" lon="2.46376">
        <ele>317.926605</ele>
        <time>2013-06-23T12:01:15Z</time>
      </trkpt>
      <trkpt lat="43.14045" lon="2.46369">
        <ele>318.287109</ele>
        <time>2013-06-23T12:01:17Z</time>
      </trkpt>
      <trkpt lat="43.14044" lon="2.46363">
        <ele>318.516815</ele>
        <time>2013-06-23T12:01:19Z</time>
      </trkpt>
      <trkpt lat="43.14043" lon="2.46356">
        <ele>319.014343</ele>
        <time>2013-06-23T12:01:22Z</time>
      </trkpt>
      <trkpt lat="43.1404" lon="2.46349">
        <ele>320.337158</ele>
        <time>2013-06-23T12:01:25Z</time>
      </trkpt>
      <trkpt lat="43.14038" lon="2.46344">
        <ele>321.250122</ele>
        <time>2013-06-23T12:01:27Z</time>
      </trkpt>
      <trkpt lat="43.14037" lon="2.46337">
        <ele>321.806244</ele>
        <time>2013-06-23T12:01:29Z</time>
      </trkpt>
      <trkpt lat="43.14036" lon="2.4633">
        <ele>321.941681</ele>
        <time>2013-06-23T12:01:31Z</time>
      </trkpt>
      <trkpt lat="43.14036" lon="2.46322">
        <ele>321.85498</ele>
        <time>2013-06-23T12:01:33Z</time>
      </trkpt>
      <trkpt lat="43.14035" lon="2.46315">
        <ele>321.964874</ele>
        <time>2013-06-23T12:01:36Z</time>
      </trkpt>
      <trkpt lat="43.14034" lon="2.46308">
        <ele>322.375305</ele>
        <time>2013-06-23T12:01:37Z</time>
      </trkpt>
      <trkpt lat="43.14032" lon="2.463">
        <ele>323.000549</ele>
        <time>2013-06-23T12:01:39Z</time>
      </trkpt>
      <trkpt lat="43.14028" lon="2.46294">
        <ele>324.547394</ele>
        <time>2013-06-23T12:01:42Z</time>
      </trkpt>
      <trkpt lat="43.14023" lon="2.4629">
        <ele>326.79306</ele>
        <time>2013-06-23T12:01:46Z</time>
      </trkpt>
      <trkpt lat="43.14018" lon="2.46286">
        <ele>328.684479</ele>
        <time>2013-06-23T12:01:48Z</time>
      </trkpt>
      <trkpt lat="43.14014" lon="2.46281">
        <ele>330.023956</ele>
        <time>2013-06-23T12:01:51Z</time>
      </trkpt>
      <trkpt lat="43.14009" lon="2.46275">
        <ele>331.693665</ele>
        <time>2013-06-23T12:01:53Z</time>
      </trkpt>
      <trkpt lat="43.14008" lon="2.46264">
        <ele>331.635376</ele>
        <time>2013-06-23T12:01:55Z</time>
      </trkpt>
      <trkpt lat="43.14009" lon="2.46257">
        <ele>331.080841</ele>
        <time>2013-06-23T12:01:56Z</time>
      </trkpt>
      <trkpt lat="43.1401" lon="2.4625">
        <ele>330.384125</ele>
        <time>2013-06-23T12:01:58Z</time>
      </trkpt>
      <trkpt lat="43.1401" lon="2.4624">
        <ele>330.242584</ele>
        <time>2013-06-23T12:01:59Z</time>
      </trkpt>
      <trkpt lat="43.14009" lon="2.46231">
        <ele>330.829193</ele>
        <time>2013-06-23T12:02:01Z</time>
      </trkpt>
      <trkpt lat="43.1401" lon="2.46223">
        <ele>330.694031</ele>
        <time>2013-06-23T12:02:03Z</time>
      </trkpt>
      <trkpt lat="43.1401" lon="2.46215">
        <ele>330.9198</ele>
        <time>2013-06-23T12:02:05Z</time>
      </trkpt>
      <trkpt lat="43.1401" lon="2.46207">
        <ele>331.108978</ele>
        <time>2013-06-23T12:02:07Z</time>
      </trkpt>
      <trkpt lat="43.14011" lon="2.46199">
        <ele>330.676178</ele>
        <time>2013-06-23T12:02:09Z</time>
      </trkpt>
      <trkpt lat="43.14012" lon="2.46191">
        <ele>330.691284</ele>
        <time>2013-06-23T12:02:11Z</time>
      </trkpt>
      <trkpt lat="43.14016" lon="2.46185">
        <ele>329.378845</ele>
        <time>2013-06-23T12:02:13Z</time>
      </trkpt>
      <trkpt lat="43.14019" lon="2.46175">
        <ele>328.709808</ele>
        <time>2013-06-23T12:02:15Z</time>
      </trkpt>
      <trkpt lat="43.14023" lon="2.46167">
        <ele>327.597778</ele>
        <time>2013-06-23T12:02:17Z</time>
      </trkpt>
      <trkpt lat="43.14028" lon="2.46158">
        <ele>326.645935</ele>
        <time>2013-06-23T12:02:19Z</time>
      </trkpt>
      <trkpt lat="43.14033" lon="2.46151">
        <ele>325.705078</ele>
        <time>2013-06-23T12:02:22Z</time>
      </trkpt>
      <trkpt lat="43.14036" lon="2.46143">
        <ele>325.092926</ele>
        <time>2013-06-23T12:02:23Z</time>
      </trkpt>
      <trkpt lat="43.14038" lon="2.46134">
        <ele>325.293884</ele>
        <time>2013-06-23T12:02:25Z</time>
      </trkpt>
      <trkpt lat="43.14038" lon="2.46125">
        <ele>325.90448</ele>
        <time>2013-06-23T12:02:27Z</time>
      </trkpt>
      <trkpt lat="43.14039" lon="2.46116">
        <ele>326.481842</ele>
        <time>2013-06-23T12:02:30Z</time>
      </trkpt>
      <trkpt lat="43.14039" lon="2.46107">
        <ele>327.104279</ele>
        <time>2013-06-23T12:02:31Z</time>
      </trkpt>
      <trkpt lat="43.1404" lon="2.46098">
        <ele>327.574799</ele>
        <time>2013-06-23T12:02:34Z</time>
      </trkpt>
      <trkpt lat="43.1404" lon="2.4609">
        <ele>328.077209</ele>
        <time>2013-06-23T12:02:35Z</time>
      </trkpt>
      <trkpt lat="43.14041" lon="2.46082">
        <ele>328.38446</ele>
        <time>2013-06-23T12:02:37Z</time>
      </trkpt>
      <trkpt lat="43.14041" lon="2.46073">
        <ele>328.74469</ele>
        <time>2013-06-23T12:02:39Z</time>
      </trkpt>
      <trkpt lat="43.14042" lon="2.46066">
        <ele>329.02124</ele>
        <time>2013-06-23T12:02:42Z</time>
      </trkpt>
      <trkpt lat="43.14042" lon="2.4606">
        <ele>329.394409</ele>
        <time>2013-06-23T12:02:43Z</time>
      </trkpt>
      <trkpt lat="43.14041" lon="2.46053">
        <ele>329.890411</ele>
        <time>2013-06-23T12:02:45Z</time>
      </trkpt>
      <trkpt lat="43.14041" lon="2.46046">
        <ele>330.329193</ele>
        <time>2013-06-23T12:02:47Z</time>
      </trkpt>
      <trkpt lat="43.14041" lon="2.46039">
        <ele>330.844788</ele>
        <time>2013-06-23T12:02:49Z</time>
      </trkpt>
      <trkpt lat="43.1404" lon="2.46031">
        <ele>331.60556</ele>
        <time>2013-06-23T12:02:51Z</time>
      </trkpt>
      <trkpt lat="43.14039" lon="2.46025">
        <ele>332.464111</ele>
        <time>2013-06-23T12:02:53Z</time>
      </trkpt>
      <trkpt lat="43.14037" lon="2.46018">
        <ele>333.527679</ele>
        <time>2013-06-23T12:02:55Z</time>
      </trkpt>
      <trkpt lat="43.14034" lon="2.46012">
        <ele>334.807648</ele>
        <time>2013-06-23T12:02:57Z</time>
      </trkpt>
      <trkpt lat="43.14032" lon="2.46006">
        <ele>336.082184</ele>
        <time>2013-06-23T12:02:59Z</time>
      </trkpt>
      <trkpt lat="43.1403" lon="2.45997">
        <ele>337.70578</ele>
        <time>2013-06-23T12:03:01Z</time>
      </trkpt>
      <trkpt lat="43.14029" lon="2.45988">
        <ele>339.999146</ele>
        <time>2013-06-23T12:03:03Z</time>
      </trkpt>
      <trkpt lat="43.14028" lon="2.45978">
        <ele>342.44104</ele>
        <time>2013-06-23T12:03:06Z</time>
      </trkpt>
      <trkpt lat="43.14028" lon="2.45971">
        <ele>344.048401</ele>
        <time>2013-06-23T12:03:07Z</time>
      </trkpt>
      <trkpt lat="43.14031" lon="2.45966">
        <ele>344.110382</ele>
        <time>2013-06-23T12:03:09Z</time>
      </trkpt>
      <trkpt lat="43.14037" lon="2.45961">
        <ele>343.13501</ele>
        <time>2013-06-23T12:03:12Z</time>
      </trkpt>
      <trkpt lat="43.14041" lon="2.45957">
        <ele>342.944977</ele>
        <time>2013-06-23T12:03:15Z</time>
      </trkpt>
      <trkpt lat="43.14046" lon="2.45953">
        <ele>342.332184</ele>
        <time>2013-06-23T12:03:19Z</time>
      </trkpt>
      <trkpt lat="43.14051" lon="2.4595">
        <ele>341.151428</ele>
        <time>2013-06-23T12:03:21Z</time>
      </trkpt>
      <trkpt lat="43.14055" lon="2.45946">
        <ele>340.946899</ele>
        <time>2013-06-23T12:03:23Z</time>
      </trkpt>
      <trkpt lat="43.1406" lon="2.45942">
        <ele>340.316986</ele>
        <time>2013-06-23T12:03:25Z</time>
      </trkpt>
      <trkpt lat="43.14065" lon="2.45938">
        <ele>339.728333</ele>
        <time>2013-06-23T12:03:27Z</time>
      </trkpt>
      <trkpt lat="43.14071" lon="2.45933">
        <ele>338.866089</ele>
        <time>2013-06-23T12:03:30Z</time>
      </trkpt>
      <trkpt lat="43.14079" lon="2.45928">
        <ele>337.702637</ele>
        <time>2013-06-23T12:03:31Z</time>
      </trkpt>
      <trkpt lat="43.14086" lon="2.45923">
        <ele>336.954956</ele>
        <time>2013-06-23T12:03:33Z</time>
      </trkpt>
      <trkpt lat="43.14092" lon="2.45917">
        <ele>336.686951</ele>
        <time>2013-06-23T12:03:35Z</time>
      </trkpt>
      <trkpt lat="43.14098" lon="2.4591">
        <ele>336.571594</ele>
        <time>2013-06-23T12:03:37Z</time>
      </trkpt>
      <trkpt lat="43.14105" lon="2.45903">
        <ele>336.253143</ele>
        <time>2013-06-23T12:03:39Z</time>
      </trkpt>
      <trkpt lat="43.14109" lon="2.459">
        <ele>335.940735</ele>
        <time>2013-06-23T12:03:41Z</time>
      </trkpt>
      <trkpt lat="43.14115" lon="2.45893">
        <ele>335.746368</ele>
        <time>2013-06-23T12:03:42Z</time>
      </trkpt>
      <trkpt lat="43.14121" lon="2.45886">
        <ele>335.378815</ele>
        <time>2013-06-23T12:03:44Z</time>
      </trkpt>
      <trkpt lat="43.14128" lon="2.4588">
        <ele>334.612762</ele>
        <time>2013-06-23T12:03:46Z</time>
      </trkpt>
      <trkpt lat="43.14135" lon="2.45874">
        <ele>333.742554</ele>
        <time>2013-06-23T12:03:48Z</time>
      </trkpt>
      <trkpt lat="43.14142" lon="2.45868">
        <ele>332.563965</ele>
        <time>2013-06-23T12:03:50Z</time>
      </trkpt>
      <trkpt lat="43.14148" lon="2.45861">
        <ele>331.742401</ele>
        <time>2013-06-23T12:03:52Z</time>
      </trkpt>
      <trkpt lat="43.14153" lon="2.45854">
        <ele>331.492188</ele>
        <time>2013-06-23T12:03:54Z</time>
      </trkpt>
      <trkpt lat="43.14157" lon="2.45847">
        <ele>331.243408</ele>
        <time>2013-06-23T12:03:56Z</time>
      </trkpt>
      <trkpt lat="43.14161" lon="2.45839">
        <ele>331.037659</ele>
        <time>2013-06-23T12:03:58Z</time>
      </trkpt>
      <trkpt lat="43.14166" lon="2.45833">
        <ele>330.248352</ele>
        <time>2013-06-23T12:04:00Z</time>
      </trkpt>
      <trkpt lat="43.14172" lon="2.45829">
        <ele>329.349304</ele>
        <time>2013-06-23T12:04:02Z</time>
      </trkpt>
      <trkpt lat="43.14177" lon="2.45824">
        <ele>328.879669</ele>
        <time>2013-06-23T12:04:04Z</time>
      </trkpt>
      <trkpt lat="43.14181" lon="2.45819">
        <ele>328.620544</ele>
        <time>2013-06-23T12:04:06Z</time>
      </trkpt>
      <trkpt lat="43.14184" lon="2.45812">
        <ele>328.849121</ele>
        <time>2013-06-23T12:04:09Z</time>
      </trkpt>
      <trkpt lat="43.14185" lon="2.45805">
        <ele>329.444885</ele>
        <time>2013-06-23T12:04:11Z</time>
      </trkpt>
      <trkpt lat="43.14186" lon="2.45797">
        <ele>330.141785</ele>
        <time>2013-06-23T12:04:14Z</time>
      </trkpt>
      <trkpt lat="43.14186" lon="2.45791">
        <ele>330.759125</ele>
        <time>2013-06-23T12:04:15Z</time>
      </trkpt>
      <trkpt lat="43.14186" lon="2.45783">
        <ele>331.562561</ele>
        <time>2013-06-23T12:04:18Z</time>
      </trkpt>
      <trkpt lat="43.14186" lon="2.45775">
        <ele>332.529266</ele>
        <time>2013-06-23T12:04:22Z</time>
      </trkpt>
      <trkpt lat="43.14187" lon="2.45769">
        <ele>333.169647</ele>
        <time>2013-06-23T12:04:27Z</time>
      </trkpt>
      <trkpt lat="43.14185" lon="2.45763">
        <ele>334.445892</ele>
        <time>2013-06-23T12:05:04Z</time>
      </trkpt>
      <trkpt lat="43.14186" lon="2.45754">
        <ele>335.271118</ele>
        <time>2013-06-23T12:05:21Z</time>
      </trkpt>
      <trkpt lat="43.14186" lon="2.45745">
        <ele>335.546204</ele>
        <time>2013-06-23T12:05:23Z</time>
      </trkpt>
      <trkpt lat="43.14187" lon="2.45735">
        <ele>335.344543</ele>
        <time>2013-06-23T12:05:26Z</time>
      </trkpt>
      <trkpt lat="43.14187" lon="2.45725">
        <ele>334.977448</ele>
        <time>2013-06-23T12:05:28Z</time>
      </trkpt>
      <trkpt lat="43.14187" lon="2.45715">
        <ele>334.826691</ele>
        <time>2013-06-23T12:05:29Z</time>
      </trkpt>
      <trkpt lat="43.14187" lon="2.45706">
        <ele>334.769379</ele>
        <time>2013-06-23T12:05:31Z</time>
      </trkpt>
      <trkpt lat="43.14187" lon="2.45697">
        <ele>334.706299</ele>
        <time>2013-06-23T12:05:33Z</time>
      </trkpt>
      <trkpt lat="43.14185" lon="2.45688">
        <ele>335.211639</ele>
        <time>2013-06-23T12:05:35Z</time>
      </trkpt>
      <trkpt lat="43.14184" lon="2.45679">
        <ele>335.679169</ele>
        <time>2013-06-23T12:05:37Z</time>
      </trkpt>
      <trkpt lat="43.14182" lon="2.45672">
        <ele>336.05368</ele>
        <time>2013-06-23T12:05:39Z</time>
      </trkpt>
      <trkpt lat="43.14181" lon="2.45663">
        <ele>336.062866</ele>
        <time>2013-06-23T12:05:42Z</time>
      </trkpt>
      <trkpt lat="43.14182" lon="2.45657">
        <ele>335.303192</ele>
        <time>2013-06-23T12:05:44Z</time>
      </trkpt>
      <trkpt lat="43.14183" lon="2.4565">
        <ele>334.452759</ele>
        <time>2013-06-23T12:05:46Z</time>
      </trkpt>
      <trkpt lat="43.14183" lon="2.45643">
        <ele>333.742126</ele>
        <time>2013-06-23T12:05:49Z</time>
      </trkpt>
      <trkpt lat="43.14183" lon="2.45634">
        <ele>332.865295</ele>
        <time>2013-06-23T12:05:50Z</time>
      </trkpt>
      <trkpt lat="43.14183" lon="2.45626">
        <ele>332.274963</ele>
        <time>2013-06-23T12:05:52Z</time>
      </trkpt>
      <trkpt lat="43.14182" lon="2.4562">
        <ele>332.046326</ele>
        <time>2013-06-23T12:05:54Z</time>
      </trkpt>
      <trkpt lat="43.1418" lon="2.45612">
        <ele>332.435394</ele>
        <time>2013-06-23T12:05:58Z</time>
      </trkpt>
      <trkpt lat="43.14177" lon="2.45605">
        <ele>332.920746</ele>
        <time>2013-06-23T12:06:00Z</time>
      </trkpt>
      <trkpt lat="43.14174" lon="2.45599">
        <ele>333.672607</ele>
        <time>2013-06-23T12:06:03Z</time>
      </trkpt>
      <trkpt lat="43.14169" lon="2.45594">
        <ele>334.951843</ele>
        <time>2013-06-23T12:06:07Z</time>
      </trkpt>
      <trkpt lat="43.14165" lon="2.45588">
        <ele>336.326355</ele>
        <time>2013-06-23T12:06:09Z</time>
      </trkpt>
      <trkpt lat="43.14162" lon="2.45581">
        <ele>337.378906</ele>
        <time>2013-06-23T12:06:13Z</time>
      </trkpt>
      <trkpt lat="43.1416" lon="2.45572">
        <ele>337.751465</ele>
        <time>2013-06-23T12:06:15Z</time>
      </trkpt>
      <trkpt lat="43.14159" lon="2.45564">
        <ele>337.722412</ele>
        <time>2013-06-23T12:06:18Z</time>
      </trkpt>
      <trkpt lat="43.14158" lon="2.45555">
        <ele>337.847198</ele>
        <time>2013-06-23T12:06:21Z</time>
      </trkpt>
      <trkpt lat="43.14157" lon="2.45547">
        <ele>337.632416</ele>
        <time>2013-06-23T12:06:25Z</time>
      </trkpt>
      <trkpt lat="43.14157" lon="2.45539">
        <ele>337.57135</ele>
        <time>2013-06-23T12:06:27Z</time>
      </trkpt>
      <trkpt lat="43.14156" lon="2.45532">
        <ele>337.599152</ele>
        <time>2013-06-23T12:06:30Z</time>
      </trkpt>
      <trkpt lat="43.14154" lon="2.45525">
        <ele>338.092499</ele>
        <time>2013-06-23T12:06:33Z</time>
      </trkpt>
      <trkpt lat="43.14152" lon="2.4552">
        <ele>338.502594</ele>
        <time>2013-06-23T12:06:35Z</time>
      </trkpt>
      <trkpt lat="43.14151" lon="2.45513">
        <ele>338.870575</ele>
        <time>2013-06-23T12:06:37Z</time>
      </trkpt>
      <trkpt lat="43.14147" lon="2.45505">
        <ele>340.076752</ele>
        <time>2013-06-23T12:06:40Z</time>
      </trkpt>
      <trkpt lat="43.14144" lon="2.455">
        <ele>340.982208</ele>
        <time>2013-06-23T12:06:42Z</time>
      </trkpt>
      <trkpt lat="43.14142" lon="2.45494">
        <ele>341.978455</ele>
        <time>2013-06-23T12:06:44Z</time>
      </trkpt>
      <trkpt lat="43.14141" lon="2.45487">
        <ele>342.6651</ele>
        <time>2013-06-23T12:06:46Z</time>
      </trkpt>
      <trkpt lat="43.1414" lon="2.45479">
        <ele>343.223236</ele>
        <time>2013-06-23T12:06:48Z</time>
      </trkpt>
      <trkpt lat="43.14139" lon="2.45468">
        <ele>343.685242</ele>
        <time>2013-06-23T12:06:50Z</time>
      </trkpt>
      <trkpt lat="43.14137" lon="2.4546">
        <ele>344.875458</ele>
        <time>2013-06-23T12:06:52Z</time>
      </trkpt>
      <trkpt lat="43.14135" lon="2.45453">
        <ele>345.562408</ele>
        <time>2013-06-23T12:06:54Z</time>
      </trkpt>
      <trkpt lat="43.14136" lon="2.45444">
        <ele>345.41803</ele>
        <time>2013-06-23T12:06:56Z</time>
      </trkpt>
      <trkpt lat="43.14137" lon="2.45436">
        <ele>344.950531</ele>
        <time>2013-06-23T12:06:59Z</time>
      </trkpt>
      <trkpt lat="43.14138" lon="2.45428">
        <ele>344.553772</ele>
        <time>2013-06-23T12:07:00Z</time>
      </trkpt>
      <trkpt lat="43.14138" lon="2.4542">
        <ele>344.64917</ele>
        <time>2013-06-23T12:07:02Z</time>
      </trkpt>
      <trkpt lat="43.14136" lon="2.45411">
        <ele>346.200287</ele>
        <time>2013-06-23T12:07:04Z</time>
      </trkpt>
      <trkpt lat="43.14138" lon="2.45403">
        <ele>346.891724</ele>
        <time>2013-06-23T12:07:06Z</time>
      </trkpt>
      <trkpt lat="43.14141" lon="2.45395">
        <ele>346.50708</ele>
        <time>2013-06-23T12:07:08Z</time>
      </trkpt>
      <trkpt lat="43.14145" lon="2.45388">
        <ele>345.849182</ele>
        <time>2013-06-23T12:07:10Z</time>
      </trkpt>
      <trkpt lat="43.14149" lon="2.45379">
        <ele>345.359924</ele>
        <time>2013-06-23T12:07:12Z</time>
      </trkpt>
      <trkpt lat="43.14154" lon="2.45371">
        <ele>344.448883</ele>
        <time>2013-06-23T12:07:14Z</time>
      </trkpt>
      <trkpt lat="43.14158" lon="2.45364">
        <ele>343.729919</ele>
        <time>2013-06-23T12:07:17Z</time>
      </trkpt>
      <trkpt lat="43.14161" lon="2.45356">
        <ele>343.665558</ele>
        <time>2013-06-23T12:07:18Z</time>
      </trkpt>
      <trkpt lat="43.14163" lon="2.45348">
        <ele>344.092529</ele>
        <time>2013-06-23T12:07:20Z</time>
      </trkpt>
      <trkpt lat="43.14165" lon="2.4534">
        <ele>344.663666</ele>
        <time>2013-06-23T12:07:22Z</time>
      </trkpt>
      <trkpt lat="43.14166" lon="2.45332">
        <ele>345.52063</ele>
        <time>2013-06-23T12:07:24Z</time>
      </trkpt>
      <trkpt lat="43.14166" lon="2.45325">
        <ele>345.72934</ele>
        <time>2013-06-23T12:07:26Z</time>
      </trkpt>
      <trkpt lat="43.14168" lon="2.45317">
        <ele>345.792023</ele>
        <time>2013-06-23T12:07:29Z</time>
      </trkpt>
      <trkpt lat="43.14168" lon="2.4531">
        <ele>346.005341</ele>
        <time>2013-06-23T12:07:31Z</time>
      </trkpt>
      <trkpt lat="43.14169" lon="2.45304">
        <ele>346.239136</ele>
        <time>2013-06-23T12:07:33Z</time>
      </trkpt>
      <trkpt lat="43.14169" lon="2.45297">
        <ele>346.742065</ele>
        <time>2013-06-23T12:07:35Z</time>
      </trkpt>
      <trkpt lat="43.14169" lon="2.45289">
        <ele>347.040466</ele>
        <time>2013-06-23T12:07:37Z</time>
      </trkpt>
      <trkpt lat="43.1417" lon="2.45282">
        <ele>347.345215</ele>
        <time>2013-06-23T12:07:40Z</time>
      </trkpt>
      <trkpt lat="43.14171" lon="2.45274">
        <ele>347.173431</ele>
        <time>2013-06-23T12:07:41Z</time>
      </trkpt>
      <trkpt lat="43.14174" lon="2.45265">
        <ele>346.674866</ele>
        <time>2013-06-23T12:07:43Z</time>
      </trkpt>
      <trkpt lat="43.14175" lon="2.45254">
        <ele>346.849792</ele>
        <time>2013-06-23T12:07:45Z</time>
      </trkpt>
      <trkpt lat="43.14178" lon="2.45245">
        <ele>346.793823</ele>
        <time>2013-06-23T12:07:47Z</time>
      </trkpt>
      <trkpt lat="43.1418" lon="2.45234">
        <ele>346.973846</ele>
        <time>2013-06-23T12:07:50Z</time>
      </trkpt>
      <trkpt lat="43.14183" lon="2.45224">
        <ele>346.967407</ele>
        <time>2013-06-23T12:07:51Z</time>
      </trkpt>
      <trkpt lat="43.14185" lon="2.45215">
        <ele>346.865997</ele>
        <time>2013-06-23T12:07:53Z</time>
      </trkpt>
      <trkpt lat="43.14187" lon="2.45206">
        <ele>346.926483</ele>
        <time>2013-06-23T12:07:55Z</time>
      </trkpt>
      <trkpt lat="43.14189" lon="2.45198">
        <ele>347.160614</ele>
        <time>2013-06-23T12:07:57Z</time>
      </trkpt>
      <trkpt lat="43.1419" lon="2.4519">
        <ele>347.531708</ele>
        <time>2013-06-23T12:07:59Z</time>
      </trkpt>
      <trkpt lat="43.14192" lon="2.45182">
        <ele>347.866119</ele>
        <time>2013-06-23T12:08:02Z</time>
      </trkpt>
      <trkpt lat="43.14192" lon="2.45174">
        <ele>348.437317</ele>
        <time>2013-06-23T12:08:03Z</time>
      </trkpt>
      <trkpt lat="43.14194" lon="2.45165">
        <ele>348.530273</ele>
        <time>2013-06-23T12:08:06Z</time>
      </trkpt>
      <trkpt lat="43.14195" lon="2.45159">
        <ele>348.299805</ele>
        <time>2013-06-23T12:08:08Z</time>
      </trkpt>
      <trkpt lat="43.14197" lon="2.45152">
        <ele>348.002472</ele>
        <time>2013-06-23T12:08:11Z</time>
      </trkpt>
      <trkpt lat="43.14199" lon="2.45145">
        <ele>347.608551</ele>
        <time>2013-06-23T12:08:12Z</time>
      </trkpt>
      <trkpt lat="43.142" lon="2.45137">
        <ele>347.168427</ele>
        <time>2013-06-23T12:08:15Z</time>
      </trkpt>
      <trkpt lat="43.14203" lon="2.45131">
        <ele>346.423401</ele>
        <time>2013-06-23T12:08:18Z</time>
      </trkpt>
      <trkpt lat="43.14205" lon="2.45125">
        <ele>345.990967</ele>
        <time>2013-06-23T12:08:21Z</time>
      </trkpt>
      <trkpt lat="43.14207" lon="2.45118">
        <ele>345.305237</ele>
        <time>2013-06-23T12:08:25Z</time>
      </trkpt>
      <trkpt lat="43.14209" lon="2.45111">
        <ele>344.899261</ele>
        <time>2013-06-23T12:08:28Z</time>
      </trkpt>
      <trkpt lat="43.14207" lon="2.45103">
        <ele>345.97287</ele>
        <time>2013-06-23T12:08:32Z</time>
      </trkpt>
      <trkpt lat="43.14205" lon="2.45095">
        <ele>347.441528</ele>
        <time>2013-06-23T12:08:35Z</time>
      </trkpt>
      <trkpt lat="43.14204" lon="2.45085">
        <ele>348.285858</ele>
        <time>2013-06-23T12:08:38Z</time>
      </trkpt>
      <trkpt lat="43.14204" lon="2.45078">
        <ele>348.296387</ele>
        <time>2013-06-23T12:08:41Z</time>
      </trkpt>
      <trkpt lat="43.14205" lon="2.4507">
        <ele>348.203186</ele>
        <time>2013-06-23T12:08:42Z</time>
      </trkpt>
      <trkpt lat="43.14206" lon="2.45062">
        <ele>347.974274</ele>
        <time>2013-06-23T12:08:44Z</time>
      </trkpt>
      <trkpt lat="43.14207" lon="2.45053">
        <ele>347.503265</ele>
        <time>2013-06-23T12:08:46Z</time>
      </trkpt>
      <trkpt lat="43.14207" lon="2.45045">
        <ele>347.593872</ele>
        <time>2013-06-23T12:08:48Z</time>
      </trkpt>
      <trkpt lat="43.14206" lon="2.45037">
        <ele>347.971436</ele>
        <time>2013-06-23T12:08:51Z</time>
      </trkpt>
      <trkpt lat="43.14205" lon="2.45031">
        <ele>348.735504</ele>
        <time>2013-06-23T12:08:52Z</time>
      </trkpt>
      <trkpt lat="43.14203" lon="2.45025">
        <ele>349.700134</ele>
        <time>2013-06-23T12:08:54Z</time>
      </trkpt>
      <trkpt lat="43.14201" lon="2.4502">
        <ele>350.728333</ele>
        <time>2013-06-23T12:08:56Z</time>
      </trkpt>
      <trkpt lat="43.14198" lon="2.45013">
        <ele>352.143036</ele>
        <time>2013-06-23T12:09:00Z</time>
      </trkpt>
      <trkpt lat="43.14194" lon="2.45007">
        <ele>353.915955</ele>
        <time>2013-06-23T12:09:02Z</time>
      </trkpt>
      <trkpt lat="43.14191" lon="2.44999">
        <ele>355.064117</ele>
        <time>2013-06-23T12:09:05Z</time>
      </trkpt>
      <trkpt lat="43.14191" lon="2.44992">
        <ele>354.593628</ele>
        <time>2013-06-23T12:09:07Z</time>
      </trkpt>
      <trkpt lat="43.1419" lon="2.44985">
        <ele>353.927582</ele>
        <time>2013-06-23T12:09:10Z</time>
      </trkpt>
      <trkpt lat="43.1419" lon="2.44978">
        <ele>353.570709</ele>
        <time>2013-06-23T12:09:11Z</time>
      </trkpt>
      <trkpt lat="43.14189" lon="2.4497">
        <ele>353.360229</ele>
        <time>2013-06-23T12:09:13Z</time>
      </trkpt>
      <trkpt lat="43.14187" lon="2.44964">
        <ele>353.379272</ele>
        <time>2013-06-23T12:09:15Z</time>
      </trkpt>
      <trkpt lat="43.14185" lon="2.44957">
        <ele>353.759277</ele>
        <time>2013-06-23T12:09:18Z</time>
      </trkpt>
      <trkpt lat="43.14182" lon="2.44952">
        <ele>354.711365</ele>
        <time>2013-06-23T12:09:21Z</time>
      </trkpt>
      <trkpt lat="43.14179" lon="2.44947">
        <ele>355.548218</ele>
        <time>2013-06-23T12:09:24Z</time>
      </trkpt>
      <trkpt lat="43.14174" lon="2.44941">
        <ele>357.106323</ele>
        <time>2013-06-23T12:09:27Z</time>
      </trkpt>
      <trkpt lat="43.1417" lon="2.44936">
        <ele>358.152344</ele>
        <time>2013-06-23T12:09:29Z</time>
      </trkpt>
      <trkpt lat="43.14167" lon="2.44928">
        <ele>358.74884</ele>
        <time>2013-06-23T12:09:32Z</time>
      </trkpt>
      <trkpt lat="43.14165" lon="2.44921">
        <ele>359.105835</ele>
        <time>2013-06-23T12:09:35Z</time>
      </trkpt>
      <trkpt lat="43.14165" lon="2.44912">
        <ele>358.976685</ele>
        <time>2013-06-23T12:09:39Z</time>
      </trkpt>
      <trkpt lat="43.14165" lon="2.44905">
        <ele>358.565125</ele>
        <time>2013-06-23T12:09:41Z</time>
      </trkpt>
      <trkpt lat="43.14165" lon="2.44899">
        <ele>358.511261</ele>
        <time>2013-06-23T12:09:43Z</time>
      </trkpt>
      <trkpt lat="43.14165" lon="2.44891">
        <ele>358.456909</ele>
        <time>2013-06-23T12:09:46Z</time>
      </trkpt>
      <trkpt lat="43.14164" lon="2.44885">
        <ele>358.619659</ele>
        <time>2013-06-23T12:09:47Z</time>
      </trkpt>
      <trkpt lat="43.14163" lon="2.44877">
        <ele>358.895203</ele>
        <time>2013-06-23T12:09:49Z</time>
      </trkpt>
      <trkpt lat="43.14162" lon="2.44871">
        <ele>359.135071</ele>
        <time>2013-06-23T12:09:51Z</time>
      </trkpt>
      <trkpt lat="43.14161" lon="2.44864">
        <ele>359.529205</ele>
        <time>2013-06-23T12:09:53Z</time>
      </trkpt>
      <trkpt lat="43.1416" lon="2.44857">
        <ele>359.972382</ele>
        <time>2013-06-23T12:09:55Z</time>
      </trkpt>
      <trkpt lat="43.14159" lon="2.4485">
        <ele>360.300629</ele>
        <time>2013-06-23T12:09:58Z</time>
      </trkpt>
      <trkpt lat="43.14158" lon="2.44842">
        <ele>360.236084</ele>
        <time>2013-06-23T12:09:59Z</time>
      </trkpt>
      <trkpt lat="43.14159" lon="2.44834">
        <ele>359.87851</ele>
        <time>2013-06-23T12:10:01Z</time>
      </trkpt>
      <trkpt lat="43.14159" lon="2.44826">
        <ele>360.111633</ele>
        <time>2013-06-23T12:10:03Z</time>
      </trkpt>
      <trkpt lat="43.1416" lon="2.44818">
        <ele>360.62616</ele>
        <time>2013-06-23T12:10:05Z</time>
      </trkpt>
      <trkpt lat="43.14161" lon="2.4481">
        <ele>360.885071</ele>
        <time>2013-06-23T12:10:08Z</time>
      </trkpt>
      <trkpt lat="43.14162" lon="2.44801">
        <ele>361.245575</ele>
        <time>2013-06-23T12:10:09Z</time>
      </trkpt>
      <trkpt lat="43.14163" lon="2.44791">
        <ele>361.396545</ele>
        <time>2013-06-23T12:10:11Z</time>
      </trkpt>
      <trkpt lat="43.14167" lon="2.44783">
        <ele>360.842041</ele>
        <time>2013-06-23T12:10:13Z</time>
      </trkpt>
      <trkpt lat="43.1417" lon="2.44775">
        <ele>360.318817</ele>
        <time>2013-06-23T12:10:15Z</time>
      </trkpt>
      <trkpt lat="43.14172" lon="2.44767">
        <ele>360.419922</ele>
        <time>2013-06-23T12:10:18Z</time>
      </trkpt>
      <trkpt lat="43.14171" lon="2.44761">
        <ele>361.172943</ele>
        <time>2013-06-23T12:10:20Z</time>
      </trkpt>
      <trkpt lat="43.14171" lon="2.44754">
        <ele>361.983826</ele>
        <time>2013-06-23T12:10:27Z</time>
      </trkpt>
      <trkpt lat="43.14171" lon="2.44747">
        <ele>362.993469</ele>
        <time>2013-06-23T12:10:38Z</time>
      </trkpt>
      <trkpt lat="43.14173" lon="2.44742">
        <ele>363.230713</ele>
        <time>2013-06-23T12:10:46Z</time>
      </trkpt>
      <trkpt lat="43.14175" lon="2.44736">
        <ele>363.669678</ele>
        <time>2013-06-23T12:10:51Z</time>
      </trkpt>
      <trkpt lat="43.14174" lon="2.44729">
        <ele>365.194855</ele>
        <time>2013-06-23T12:11:07Z</time>
      </trkpt>
      <trkpt lat="43.14173" lon="2.44735">
        <ele>364.401123</ele>
        <time>2013-06-23T12:11:21Z</time>
      </trkpt>
      <trkpt lat="43.14167" lon="2.44732">
        <ele>366.911591</ele>
        <time>2013-06-23T12:12:23Z</time>
      </trkpt>
      <trkpt lat="43.14172" lon="2.44731">
        <ele>365.40918</ele>
        <time>2013-06-23T12:13:15Z</time>
      </trkpt>
      <trkpt lat="43.14176" lon="2.44728">
        <ele>364.511292</ele>
        <time>2013-06-23T12:14:13Z</time>
      </trkpt>
      <trkpt lat="43.14175" lon="2.44735">
        <ele>363.595734</ele>
        <time>2013-06-23T12:16:19Z</time>
      </trkpt>
      <trkpt lat="43.14177" lon="2.44728">
        <ele>363.984131</ele>
        <time>2013-06-23T12:16:41Z</time>
      </trkpt>
      <trkpt lat="43.1418" lon="2.44721">
        <ele>364.310028</ele>
        <time>2013-06-23T12:16:43Z</time>
      </trkpt>
      <trkpt lat="43.14182" lon="2.44714">
        <ele>364.723389</ele>
        <time>2013-06-23T12:16:45Z</time>
      </trkpt>
      <trkpt lat="43.14185" lon="2.44706">
        <ele>364.975525</ele>
        <time>2013-06-23T12:16:48Z</time>
      </trkpt>
      <trkpt lat="43.14189" lon="2.44701">
        <ele>364.386719</ele>
        <time>2013-06-23T12:16:51Z</time>
      </trkpt>
      <trkpt lat="43.14193" lon="2.44694">
        <ele>364.168427</ele>
        <time>2013-06-23T12:16:53Z</time>
      </trkpt>
      <trkpt lat="43.14196" lon="2.44689">
        <ele>363.922485</ele>
        <time>2013-06-23T12:16:55Z</time>
      </trkpt>
      <trkpt lat="43.142" lon="2.44683">
        <ele>363.290161</ele>
        <time>2013-06-23T12:16:57Z</time>
      </trkpt>
      <trkpt lat="43.14204" lon="2.44677">
        <ele>362.760162</ele>
        <time>2013-06-23T12:16:59Z</time>
      </trkpt>
      <trkpt lat="43.14209" lon="2.4467">
        <ele>362.256653</ele>
        <time>2013-06-23T12:17:01Z</time>
      </trkpt>
      <trkpt lat="43.14213" lon="2.44664">
        <ele>361.616699</ele>
        <time>2013-06-23T12:17:04Z</time>
      </trkpt>
      <trkpt lat="43.14218" lon="2.44659">
        <ele>360.913635</ele>
        <time>2013-06-23T12:17:05Z</time>
      </trkpt>
      <trkpt lat="43.14224" lon="2.44653">
        <ele>360.18396</ele>
        <time>2013-06-23T12:17:07Z</time>
      </trkpt>
      <trkpt lat="43.14229" lon="2.44648">
        <ele>359.588531</ele>
        <time>2013-06-23T12:17:09Z</time>
      </trkpt>
      <trkpt lat="43.14233" lon="2.44643">
        <ele>359.230225</ele>
        <time>2013-06-23T12:17:12Z</time>
      </trkpt>
      <trkpt lat="43.14236" lon="2.44637">
        <ele>359.210846</ele>
        <time>2013-06-23T12:17:13Z</time>
      </trkpt>
      <trkpt lat="43.14239" lon="2.44631">
        <ele>359.69043</ele>
        <time>2013-06-23T12:17:15Z</time>
      </trkpt>
      <trkpt lat="43.14242" lon="2.44625">
        <ele>360.00589</ele>
        <time>2013-06-23T12:17:17Z</time>
      </trkpt>
      <trkpt lat="43.14245" lon="2.44618">
        <ele>360.276825</ele>
        <time>2013-06-23T12:17:19Z</time>
      </trkpt>
      <trkpt lat="43.14248" lon="2.44612">
        <ele>360.622467</ele>
        <time>2013-06-23T12:17:21Z</time>
      </trkpt>
      <trkpt lat="43.14253" lon="2.44606">
        <ele>360.621124</ele>
        <time>2013-06-23T12:17:23Z</time>
      </trkpt>
      <trkpt lat="43.14258" lon="2.44599">
        <ele>360.825043</ele>
        <time>2013-06-23T12:17:25Z</time>
      </trkpt>
      <trkpt lat="43.14263" lon="2.44593">
        <ele>360.657715</ele>
        <time>2013-06-23T12:17:28Z</time>
      </trkpt>
      <trkpt lat="43.14269" lon="2.44587">
        <ele>360.428772</ele>
        <time>2013-06-23T12:17:29Z</time>
      </trkpt>
      <trkpt lat="43.14274" lon="2.4458">
        <ele>360.199463</ele>
        <time>2013-06-23T12:17:31Z</time>
      </trkpt>
      <trkpt lat="43.14279" lon="2.44574">
        <ele>359.847473</ele>
        <time>2013-06-23T12:17:33Z</time>
      </trkpt>
      <trkpt lat="43.14284" lon="2.44567">
        <ele>359.51239</ele>
        <time>2013-06-23T12:17:35Z</time>
      </trkpt>
      <trkpt lat="43.14288" lon="2.44561">
        <ele>359.237183</ele>
        <time>2013-06-23T12:17:37Z</time>
      </trkpt>
      <trkpt lat="43.14293" lon="2.44556">
        <ele>358.74823</ele>
        <time>2013-06-23T12:17:40Z</time>
      </trkpt>
      <trkpt lat="43.14297" lon="2.4455">
        <ele>358.227905</ele>
        <time>2013-06-23T12:17:41Z</time>
      </trkpt>
      <trkpt lat="43.14301" lon="2.44543">
        <ele>358.165771</ele>
        <time>2013-06-23T12:17:43Z</time>
      </trkpt>
      <trkpt lat="43.14302" lon="2.44537">
        <ele>358.838287</ele>
        <time>2013-06-23T12:17:45Z</time>
      </trkpt>
      <trkpt lat="43.14301" lon="2.44531">
        <ele>360.233276</ele>
        <time>2013-06-23T12:17:47Z</time>
      </trkpt>
      <trkpt lat="43.143" lon="2.44523">
        <ele>361.940887</ele>
        <time>2013-06-23T12:17:50Z</time>
      </trkpt>
      <trkpt lat="43.14299" lon="2.44514">
        <ele>363.910889</ele>
        <time>2013-06-23T12:17:51Z</time>
      </trkpt>
      <trkpt lat="43.14299" lon="2.44505">
        <ele>365.383514</ele>
        <time>2013-06-23T12:17:53Z</time>
      </trkpt>
      <trkpt lat="43.143" lon="2.44497">
        <ele>366.382233</ele>
        <time>2013-06-23T12:17:55Z</time>
      </trkpt>
      <trkpt lat="43.14302" lon="2.44489">
        <ele>366.381317</ele>
        <time>2013-06-23T12:17:58Z</time>
      </trkpt>
      <trkpt lat="43.14305" lon="2.44481">
        <ele>366.4841</ele>
        <time>2013-06-23T12:17:59Z</time>
      </trkpt>
      <trkpt lat="43.14307" lon="2.44472">
        <ele>366.903046</ele>
        <time>2013-06-23T12:18:02Z</time>
      </trkpt>
      <trkpt lat="43.1431" lon="2.44462">
        <ele>366.732758</ele>
        <time>2013-06-23T12:18:03Z</time>
      </trkpt>
      <trkpt lat="43.14314" lon="2.44455">
        <ele>365.97348</ele>
        <time>2013-06-23T12:18:05Z</time>
      </trkpt>
      <trkpt lat="43.14319" lon="2.44449">
        <ele>364.545349</ele>
        <time>2013-06-23T12:18:07Z</time>
      </trkpt>
      <trkpt lat="43.14326" lon="2.44444">
        <ele>362.566315</ele>
        <time>2013-06-23T12:18:09Z</time>
      </trkpt>
      <trkpt lat="43.14333" lon="2.44439">
        <ele>360.350098</ele>
        <time>2013-06-23T12:18:11Z</time>
      </trkpt>
      <trkpt lat="43.14338" lon="2.44433">
        <ele>359.268524</ele>
        <time>2013-06-23T12:18:14Z</time>
      </trkpt>
      <trkpt lat="43.14343" lon="2.44425">
        <ele>358.563721</ele>
        <time>2013-06-23T12:18:15Z</time>
      </trkpt>
      <trkpt lat="43.14347" lon="2.44418">
        <ele>357.924377</ele>
        <time>2013-06-23T12:18:17Z</time>
      </trkpt>
      <trkpt lat="43.1435" lon="2.44413">
        <ele>357.604523</ele>
        <time>2013-06-23T12:18:19Z</time>
      </trkpt>
      <trkpt lat="43.14353" lon="2.44406">
        <ele>357.586365</ele>
        <time>2013-06-23T12:18:23Z</time>
      </trkpt>
      <trkpt lat="43.14352" lon="2.44397">
        <ele>358.672913</ele>
        <time>2013-06-23T12:18:25Z</time>
      </trkpt>
      <trkpt lat="43.1435" lon="2.4439">
        <ele>360.208862</ele>
        <time>2013-06-23T12:18:27Z</time>
      </trkpt>
      <trkpt lat="43.14348" lon="2.44384">
        <ele>361.583435</ele>
        <time>2013-06-23T12:18:29Z</time>
      </trkpt>
      <trkpt lat="43.14348" lon="2.44377">
        <ele>362.578339</ele>
        <time>2013-06-23T12:18:31Z</time>
      </trkpt>
      <trkpt lat="43.14349" lon="2.44369">
        <ele>363.042236</ele>
        <time>2013-06-23T12:18:34Z</time>
      </trkpt>
      <trkpt lat="43.14352" lon="2.44362">
        <ele>362.938934</ele>
        <time>2013-06-23T12:18:35Z</time>
      </trkpt>
      <trkpt lat="43.14355" lon="2.44356">
        <ele>362.528229</ele>
        <time>2013-06-23T12:18:38Z</time>
      </trkpt>
      <trkpt lat="43.14357" lon="2.44349">
        <ele>362.608704</ele>
        <time>2013-06-23T12:18:39Z</time>
      </trkpt>
      <trkpt lat="43.14357" lon="2.44342">
        <ele>363.234985</ele>
        <time>2013-06-23T12:18:41Z</time>
      </trkpt>
      <trkpt lat="43.14357" lon="2.44334">
        <ele>364.363342</ele>
        <time>2013-06-23T12:18:43Z</time>
      </trkpt>
      <trkpt lat="43.14356" lon="2.44326">
        <ele>364.764801</ele>
        <time>2013-06-23T12:18:46Z</time>
      </trkpt>
      <trkpt lat="43.14356" lon="2.44318">
        <ele>364.934845</ele>
        <time>2013-06-23T12:18:47Z</time>
      </trkpt>
      <trkpt lat="43.14358" lon="2.44311">
        <ele>364.752258</ele>
        <time>2013-06-23T12:18:49Z</time>
      </trkpt>
      <trkpt lat="43.1436" lon="2.44303">
        <ele>364.180908</ele>
        <time>2013-06-23T12:18:51Z</time>
      </trkpt>
      <trkpt lat="43.14361" lon="2.44297">
        <ele>363.90683</ele>
        <time>2013-06-23T12:18:53Z</time>
      </trkpt>
      <trkpt lat="43.14362" lon="2.4429">
        <ele>363.881256</ele>
        <time>2013-06-23T12:18:56Z</time>
      </trkpt>
      <trkpt lat="43.14362" lon="2.44283">
        <ele>363.831024</ele>
        <time>2013-06-23T12:18:57Z</time>
      </trkpt>
      <trkpt lat="43.14364" lon="2.44277">
        <ele>363.544281</ele>
        <time>2013-06-23T12:18:59Z</time>
      </trkpt>
      <trkpt lat="43.14365" lon="2.4427">
        <ele>363.396393</ele>
        <time>2013-06-23T12:19:01Z</time>
      </trkpt>
      <trkpt lat="43.14365" lon="2.44264">
        <ele>363.471649</ele>
        <time>2013-06-23T12:19:03Z</time>
      </trkpt>
      <trkpt lat="43.14364" lon="2.44257">
        <ele>363.921509</ele>
        <time>2013-06-23T12:19:05Z</time>
      </trkpt>
      <trkpt lat="43.14363" lon="2.4425">
        <ele>364.54834</ele>
        <time>2013-06-23T12:19:08Z</time>
      </trkpt>
      <trkpt lat="43.14362" lon="2.44244">
        <ele>365.434387</ele>
        <time>2013-06-23T12:19:09Z</time>
      </trkpt>
      <trkpt lat="43.1436" lon="2.44237">
        <ele>366.414459</ele>
        <time>2013-06-23T12:19:12Z</time>
      </trkpt>
      <trkpt lat="43.14358" lon="2.4423">
        <ele>367.456482</ele>
        <time>2013-06-23T12:19:15Z</time>
      </trkpt>
      <trkpt lat="43.14357" lon="2.44224">
        <ele>368.239349</ele>
        <time>2013-06-23T12:19:17Z</time>
      </trkpt>
      <trkpt lat="43.14356" lon="2.44217">
        <ele>369.031799</ele>
        <time>2013-06-23T12:19:20Z</time>
      </trkpt>
      <trkpt lat="43.14355" lon="2.44209">
        <ele>369.788635</ele>
        <time>2013-06-23T12:19:23Z</time>
      </trkpt>
      <trkpt lat="43.14354" lon="2.44203">
        <ele>370.442932</ele>
        <time>2013-06-23T12:19:26Z</time>
      </trkpt>
      <trkpt lat="43.14354" lon="2.44196">
        <ele>370.667847</ele>
        <time>2013-06-23T12:19:31Z</time>
      </trkpt>
      <trkpt lat="43.14355" lon="2.44188">
        <ele>370.654449</ele>
        <time>2013-06-23T12:19:34Z</time>
      </trkpt>
      <trkpt lat="43.14356" lon="2.44182">
        <ele>370.734009</ele>
        <time>2013-06-23T12:19:37Z</time>
      </trkpt>
      <trkpt lat="43.14356" lon="2.44175">
        <ele>370.928558</ele>
        <time>2013-06-23T12:19:40Z</time>
      </trkpt>
      <trkpt lat="43.14356" lon="2.44168">
        <ele>371.371735</ele>
        <time>2013-06-23T12:19:43Z</time>
      </trkpt>
      <trkpt lat="43.14356" lon="2.44161">
        <ele>371.533508</ele>
        <time>2013-06-23T12:19:47Z</time>
      </trkpt>
      <trkpt lat="43.14357" lon="2.44153">
        <ele>371.568359</ele>
        <time>2013-06-23T12:19:50Z</time>
      </trkpt>
      <trkpt lat="43.14357" lon="2.44145">
        <ele>371.810455</ele>
        <time>2013-06-23T12:19:52Z</time>
      </trkpt>
      <trkpt lat="43.14357" lon="2.44137">
        <ele>372.011536</ele>
        <time>2013-06-23T12:19:55Z</time>
      </trkpt>
      <trkpt lat="43.14357" lon="2.44129">
        <ele>372.432343</ele>
        <time>2013-06-23T12:19:58Z</time>
      </trkpt>
      <trkpt lat="43.14356" lon="2.44123">
        <ele>372.754578</ele>
        <time>2013-06-23T12:20:02Z</time>
      </trkpt>
      <trkpt lat="43.14355" lon="2.44116">
        <ele>373.436829</ele>
        <time>2013-06-23T12:20:05Z</time>
      </trkpt>
      <trkpt lat="43.14354" lon="2.44108">
        <ele>373.857361</ele>
        <time>2013-06-23T12:20:09Z</time>
      </trkpt>
      <trkpt lat="43.14354" lon="2.441">
        <ele>374.104492</ele>
        <time>2013-06-23T12:20:12Z</time>
      </trkpt>
      <trkpt lat="43.14355" lon="2.44093">
        <ele>374.099274</ele>
        <time>2013-06-23T12:20:15Z</time>
      </trkpt>
      <trkpt lat="43.14356" lon="2.44085">
        <ele>374.095734</ele>
        <time>2013-06-23T12:20:19Z</time>
      </trkpt>
      <trkpt lat="43.14356" lon="2.44078">
        <ele>373.739532</ele>
        <time>2013-06-23T12:20:22Z</time>
      </trkpt>
      <trkpt lat="43.14356" lon="2.44071">
        <ele>373.559479</ele>
        <time>2013-06-23T12:20:25Z</time>
      </trkpt>
      <trkpt lat="43.14356" lon="2.44064">
        <ele>373.265228</ele>
        <time>2013-06-23T12:20:29Z</time>
      </trkpt>
      <trkpt lat="43.14356" lon="2.44056">
        <ele>372.75592</ele>
        <time>2013-06-23T12:20:34Z</time>
      </trkpt>
      <trkpt lat="43.14354" lon="2.4405">
        <ele>372.859711</ele>
        <time>2013-06-23T12:20:38Z</time>
      </trkpt>
      <trkpt lat="43.14352" lon="2.44044">
        <ele>373.368561</ele>
        <time>2013-06-23T12:20:40Z</time>
      </trkpt>
      <trkpt lat="43.14349" lon="2.44037">
        <ele>373.82547</ele>
        <time>2013-06-23T12:20:43Z</time>
      </trkpt>
      <trkpt lat="43.14347" lon="2.4403">
        <ele>374.323669</ele>
        <time>2013-06-23T12:20:46Z</time>
      </trkpt>
      <trkpt lat="43.14344" lon="2.44023">
        <ele>374.730804</ele>
        <time>2013-06-23T12:20:51Z</time>
      </trkpt>
      <trkpt lat="43.14342" lon="2.44016">
        <ele>374.981049</ele>
        <time>2013-06-23T12:20:55Z</time>
      </trkpt>
      <trkpt lat="43.1434" lon="2.4401">
        <ele>375.563629</ele>
        <time>2013-06-23T12:20:57Z</time>
      </trkpt>
      <trkpt lat="43.14337" lon="2.44003">
        <ele>376.026031</ele>
        <time>2013-06-23T12:21:01Z</time>
      </trkpt>
      <trkpt lat="43.14335" lon="2.43994">
        <ele>376.901459</ele>
        <time>2013-06-23T12:21:04Z</time>
      </trkpt>
      <trkpt lat="43.14334" lon="2.43987">
        <ele>377.630463</ele>
        <time>2013-06-23T12:21:07Z</time>
      </trkpt>
      <trkpt lat="43.14332" lon="2.4398">
        <ele>378.594391</ele>
        <time>2013-06-23T12:21:09Z</time>
      </trkpt>
      <trkpt lat="43.1433" lon="2.43974">
        <ele>379.198334</ele>
        <time>2013-06-23T12:21:12Z</time>
      </trkpt>
      <trkpt lat="43.14328" lon="2.43968">
        <ele>379.913849</ele>
        <time>2013-06-23T12:21:14Z</time>
      </trkpt>
      <trkpt lat="43.14325" lon="2.43963">
        <ele>380.606934</ele>
        <time>2013-06-23T12:21:17Z</time>
      </trkpt>
      <trkpt lat="43.1432" lon="2.43962">
        <ele>381.296173</ele>
        <time>2013-06-23T12:21:22Z</time>
      </trkpt>
      <trkpt lat="43.14316" lon="2.43968">
        <ele>381.357178</ele>
        <time>2013-06-23T12:21:26Z</time>
      </trkpt>
      <trkpt lat="43.14313" lon="2.43973">
        <ele>381.393463</ele>
        <time>2013-06-23T12:21:31Z</time>
      </trkpt>
      <trkpt lat="43.14311" lon="2.43979">
        <ele>381.10733</ele>
        <time>2013-06-23T12:21:34Z</time>
      </trkpt>
      <trkpt lat="43.1431" lon="2.43985">
        <ele>380.865265</ele>
        <time>2013-06-23T12:21:37Z</time>
      </trkpt>
      <trkpt lat="43.14308" lon="2.43992">
        <ele>380.612213</ele>
        <time>2013-06-23T12:21:40Z</time>
      </trkpt>
      <trkpt lat="43.14305" lon="2.44">
        <ele>380.353271</ele>
        <time>2013-06-23T12:21:43Z</time>
      </trkpt>
      <trkpt lat="43.14303" lon="2.44006">
        <ele>380.828064</ele>
        <time>2013-06-23T12:21:45Z</time>
      </trkpt>
      <trkpt lat="43.14299" lon="2.44013">
        <ele>381.519409</ele>
        <time>2013-06-23T12:21:49Z</time>
      </trkpt>
      <trkpt lat="43.14294" lon="2.44017">
        <ele>382.234131</ele>
        <time>2013-06-23T12:21:52Z</time>
      </trkpt>
      <trkpt lat="43.14289" lon="2.44017">
        <ele>382.85022</ele>
        <time>2013-06-23T12:21:54Z</time>
      </trkpt>
      <trkpt lat="43.14283" lon="2.44016">
        <ele>383.417297</ele>
        <time>2013-06-23T12:21:57Z</time>
      </trkpt>
      <trkpt lat="43.14278" lon="2.44014">
        <ele>383.91571</ele>
        <time>2013-06-23T12:22:03Z</time>
      </trkpt>
      <trkpt lat="43.14274" lon="2.44011">
        <ele>384.312164</ele>
        <time>2013-06-23T12:22:04Z</time>
      </trkpt>
      <trkpt lat="43.1427" lon="2.44007">
        <ele>384.730682</ele>
        <time>2013-06-23T12:22:07Z</time>
      </trkpt>
      <trkpt lat="43.14265" lon="2.44002">
        <ele>385.179565</ele>
        <time>2013-06-23T12:22:11Z</time>
      </trkpt>
      <trkpt lat="43.14263" lon="2.43994">
        <ele>385.789307</ele>
        <time>2013-06-23T12:22:14Z</time>
      </trkpt>
      <trkpt lat="43.14261" lon="2.43985">
        <ele>386.602966</ele>
        <time>2013-06-23T12:22:17Z</time>
      </trkpt>
      <trkpt lat="43.14259" lon="2.43977">
        <ele>387.302734</ele>
        <time>2013-06-23T12:22:21Z</time>
      </trkpt>
      <trkpt lat="43.14259" lon="2.4397">
        <ele>387.812225</ele>
        <time>2013-06-23T12:22:23Z</time>
      </trkpt>
      <trkpt lat="43.14257" lon="2.43963">
        <ele>388.469727</ele>
        <time>2013-06-23T12:22:26Z</time>
      </trkpt>
      <trkpt lat="43.14253" lon="2.43957">
        <ele>389.269653</ele>
        <time>2013-06-23T12:22:29Z</time>
      </trkpt>
      <trkpt lat="43.14248" lon="2.43952">
        <ele>389.744141</ele>
        <time>2013-06-23T12:22:33Z</time>
      </trkpt>
      <trkpt lat="43.14243" lon="2.43948">
        <ele>389.747131</ele>
        <time>2013-06-23T12:22:34Z</time>
      </trkpt>
      <trkpt lat="43.14239" lon="2.43944">
        <ele>389.73468</ele>
        <time>2013-06-23T12:22:37Z</time>
      </trkpt>
      <trkpt lat="43.14234" lon="2.43942">
        <ele>389.608765</ele>
        <time>2013-06-23T12:22:38Z</time>
      </trkpt>
      <trkpt lat="43.14227" lon="2.43938">
        <ele>389.420074</ele>
        <time>2013-06-23T12:22:40Z</time>
      </trkpt>
      <trkpt lat="43.14219" lon="2.43935">
        <ele>389.257294</ele>
        <time>2013-06-23T12:22:43Z</time>
      </trkpt>
      <trkpt lat="43.14213" lon="2.4393">
        <ele>389.260193</ele>
        <time>2013-06-23T12:22:44Z</time>
      </trkpt>
      <trkpt lat="43.14208" lon="2.43925">
        <ele>389.370636</ele>
        <time>2013-06-23T12:22:47Z</time>
      </trkpt>
      <trkpt lat="43.14204" lon="2.43921">
        <ele>389.497589</ele>
        <time>2013-06-23T12:22:48Z</time>
      </trkpt>
      <trkpt lat="43.14201" lon="2.43916">
        <ele>389.676056</ele>
        <time>2013-06-23T12:22:53Z</time>
      </trkpt>
      <trkpt lat="43.14199" lon="2.4391">
        <ele>390.464111</ele>
        <time>2013-06-23T12:22:58Z</time>
      </trkpt>
      <trkpt lat="43.14196" lon="2.43904">
        <ele>391.040894</ele>
        <time>2013-06-23T12:23:09Z</time>
      </trkpt>
      <trkpt lat="43.142" lon="2.439">
        <ele>391.797943</ele>
        <time>2013-06-23T12:24:01Z</time>
      </trkpt>
      <trkpt lat="43.14196" lon="2.43904">
        <ele>391.053589</ele>
        <time>2013-06-23T12:25:23Z</time>
      </trkpt>
      <trkpt lat="43.14201" lon="2.43906">
        <ele>391.121948</ele>
        <time>2013-06-23T12:26:49Z</time>
      </trkpt>
      <trkpt lat="43.14198" lon="2.43901">
        <ele>391.595123</ele>
        <time>2013-06-23T12:29:52Z</time>
      </trkpt>
      <trkpt lat="43.14201" lon="2.43907">
        <ele>390.960815</ele>
        <time>2013-06-23T12:32:19Z</time>
      </trkpt>
      <trkpt lat="43.14199" lon="2.43901">
        <ele>391.617371</ele>
        <time>2013-06-23T12:32:51Z</time>
      </trkpt>
      <trkpt lat="43.14199" lon="2.43893">
        <ele>392.698425</ele>
        <time>2013-06-23T12:33:46Z</time>
      </trkpt>
      <trkpt lat="43.14198" lon="2.439">
        <ele>391.773743</ele>
        <time>2013-06-23T12:34:36Z</time>
      </trkpt>
      <trkpt lat="43.14194" lon="2.43901">
        <ele>391.431122</ele>
        <time>2013-06-23T12:36:33Z</time>
      </trkpt>
      <trkpt lat="43.14199" lon="2.43897">
        <ele>392.168518</ele>
        <time>2013-06-23T12:37:24Z</time>
      </trkpt>
      <trkpt lat="43.14196" lon="2.43892">
        <ele>392.718262</ele>
        <time>2013-06-23T12:38:39Z</time>
      </trkpt>
      <trkpt lat="43.14195" lon="2.43886">
        <ele>393.490112</ele>
        <time>2013-06-23T12:38:43Z</time>
      </trkpt>
      <trkpt lat="43.14195" lon="2.43879">
        <ele>394.329468</ele>
        <time>2013-06-23T12:38:52Z</time>
      </trkpt>
      <trkpt lat="43.14194" lon="2.43873">
        <ele>395.103699</ele>
        <time>2013-06-23T12:38:54Z</time>
      </trkpt>
      <trkpt lat="43.14192" lon="2.43865">
        <ele>396.01001</ele>
        <time>2013-06-23T12:38:58Z</time>
      </trkpt>
      <trkpt lat="43.1419" lon="2.43856">
        <ele>397.031219</ele>
        <time>2013-06-23T12:39:00Z</time>
      </trkpt>
      <trkpt lat="43.14189" lon="2.4385">
        <ele>397.738129</ele>
        <time>2013-06-23T12:39:02Z</time>
      </trkpt>
      <trkpt lat="43.14187" lon="2.43843">
        <ele>398.420868</ele>
        <time>2013-06-23T12:39:04Z</time>
      </trkpt>
      <trkpt lat="43.14185" lon="2.43837">
        <ele>399.062286</ele>
        <time>2013-06-23T12:39:07Z</time>
      </trkpt>
      <trkpt lat="43.14183" lon="2.43832">
        <ele>399.439453</ele>
        <time>2013-06-23T12:39:08Z</time>
      </trkpt>
      <trkpt lat="43.14181" lon="2.43826">
        <ele>399.327026</ele>
        <time>2013-06-23T12:39:10Z</time>
      </trkpt>
      <trkpt lat="43.14178" lon="2.43821">
        <ele>399.215576</ele>
        <time>2013-06-23T12:39:12Z</time>
      </trkpt>
      <trkpt lat="43.14175" lon="2.43815">
        <ele>399.032837</ele>
        <time>2013-06-23T12:39:14Z</time>
      </trkpt>
      <trkpt lat="43.14172" lon="2.43809">
        <ele>398.890137</ele>
        <time>2013-06-23T12:39:16Z</time>
      </trkpt>
      <trkpt lat="43.14171" lon="2.43802">
        <ele>398.842834</ele>
        <time>2013-06-23T12:39:20Z</time>
      </trkpt>
      <trkpt lat="43.14169" lon="2.43795">
        <ele>398.774475</ele>
        <time>2013-06-23T12:39:23Z</time>
      </trkpt>
      <trkpt lat="43.1417" lon="2.43788">
        <ele>398.93692</ele>
        <time>2013-06-23T12:39:26Z</time>
      </trkpt>
      <trkpt lat="43.14171" lon="2.43781">
        <ele>399.168182</ele>
        <time>2013-06-23T12:39:30Z</time>
      </trkpt>
      <trkpt lat="43.14173" lon="2.43774">
        <ele>399.509308</ele>
        <time>2013-06-23T12:39:32Z</time>
      </trkpt>
      <trkpt lat="43.14176" lon="2.43768">
        <ele>400.026031</ele>
        <time>2013-06-23T12:39:35Z</time>
      </trkpt>
      <trkpt lat="43.14179" lon="2.43761">
        <ele>400.653229</ele>
        <time>2013-06-23T12:39:42Z</time>
      </trkpt>
      <trkpt lat="43.14181" lon="2.43752">
        <ele>401.194122</ele>
        <time>2013-06-23T12:39:42Z</time>
      </trkpt>
      <trkpt lat="43.14183" lon="2.43746">
        <ele>401.393036</ele>
        <time>2013-06-23T12:39:43Z</time>
      </trkpt>
      <trkpt lat="43.14185" lon="2.43737">
        <ele>401.469116</ele>
        <time>2013-06-23T12:39:46Z</time>
      </trkpt>
      <trkpt lat="43.14187" lon="2.43729">
        <ele>401.666931</ele>
        <time>2013-06-23T12:39:50Z</time>
      </trkpt>
      <trkpt lat="43.1419" lon="2.43721">
        <ele>401.911896</ele>
        <time>2013-06-23T12:39:52Z</time>
      </trkpt>
      <trkpt lat="43.14192" lon="2.43715">
        <ele>402.197083</ele>
        <time>2013-06-23T12:39:55Z</time>
      </trkpt>
      <trkpt lat="43.14195" lon="2.43709">
        <ele>402.50769</ele>
        <time>2013-06-23T12:40:00Z</time>
      </trkpt>
      <trkpt lat="43.14196" lon="2.43702">
        <ele>402.732086</ele>
        <time>2013-06-23T12:40:05Z</time>
      </trkpt>
      <trkpt lat="43.14199" lon="2.43695">
        <ele>403.132263</ele>
        <time>2013-06-23T12:40:08Z</time>
      </trkpt>
      <trkpt lat="43.14202" lon="2.4369">
        <ele>403.544586</ele>
        <time>2013-06-23T12:40:11Z</time>
      </trkpt>
      <trkpt lat="43.14206" lon="2.43685">
        <ele>404.158844</ele>
        <time>2013-06-23T12:40:14Z</time>
      </trkpt>
      <trkpt lat="43.14209" lon="2.43678">
        <ele>404.691437</ele>
        <time>2013-06-23T12:40:23Z</time>
      </trkpt>
      <trkpt lat="43.14211" lon="2.43673">
        <ele>405.10614</ele>
        <time>2013-06-23T12:40:26Z</time>
      </trkpt>
      <trkpt lat="43.14214" lon="2.43666">
        <ele>405.664734</ele>
        <time>2013-06-23T12:40:29Z</time>
      </trkpt>
      <trkpt lat="43.14216" lon="2.4366">
        <ele>406.156708</ele>
        <time>2013-06-23T12:40:32Z</time>
      </trkpt>
      <trkpt lat="43.14217" lon="2.43654">
        <ele>406.595581</ele>
        <time>2013-06-23T12:40:33Z</time>
      </trkpt>
      <trkpt lat="43.14218" lon="2.43648">
        <ele>407.009949</ele>
        <time>2013-06-23T12:40:35Z</time>
      </trkpt>
      <trkpt lat="43.1422" lon="2.43641">
        <ele>407.464966</ele>
        <time>2013-06-23T12:40:37Z</time>
      </trkpt>
      <trkpt lat="43.14221" lon="2.43633">
        <ele>407.873199</ele>
        <time>2013-06-23T12:40:41Z</time>
      </trkpt>
      <trkpt lat="43.14221" lon="2.43626">
        <ele>408.081451</ele>
        <time>2013-06-23T12:40:42Z</time>
      </trkpt>
      <trkpt lat="43.1422" lon="2.4362">
        <ele>408.13385</ele>
        <time>2013-06-23T12:40:46Z</time>
      </trkpt>
      <trkpt lat="43.14219" lon="2.43613">
        <ele>408.067474</ele>
        <time>2013-06-23T12:40:47Z</time>
      </trkpt>
      <trkpt lat="43.14216" lon="2.43605">
        <ele>407.875427</ele>
        <time>2013-06-23T12:40:50Z</time>
      </trkpt>
      <trkpt lat="43.14214" lon="2.43599">
        <ele>407.743988</ele>
        <time>2013-06-23T12:40:53Z</time>
      </trkpt>
      <trkpt lat="43.14212" lon="2.43592">
        <ele>407.716522</ele>
        <time>2013-06-23T12:40:56Z</time>
      </trkpt>
      <trkpt lat="43.14212" lon="2.43585">
        <ele>407.876312</ele>
        <time>2013-06-23T12:40:58Z</time>
      </trkpt>
      <trkpt lat="43.14213" lon="2.43577">
        <ele>408.812622</ele>
        <time>2013-06-23T12:41:01Z</time>
      </trkpt>
      <trkpt lat="43.14214" lon="2.43568">
        <ele>409.979401</ele>
        <time>2013-06-23T12:41:05Z</time>
      </trkpt>
      <trkpt lat="43.14216" lon="2.43562">
        <ele>410.789398</ele>
        <time>2013-06-23T12:41:07Z</time>
      </trkpt>
      <trkpt lat="43.14218" lon="2.43556">
        <ele>411.602173</ele>
        <time>2013-06-23T12:41:09Z</time>
      </trkpt>
      <trkpt lat="43.14219" lon="2.4355">
        <ele>412.367096</ele>
        <time>2013-06-23T12:41:10Z</time>
      </trkpt>
      <trkpt lat="43.1422" lon="2.43543">
        <ele>413.230804</ele>
        <time>2013-06-23T12:41:13Z</time>
      </trkpt>
      <trkpt lat="43.14222" lon="2.43535">
        <ele>414.105774</ele>
        <time>2013-06-23T12:41:17Z</time>
      </trkpt>
      <trkpt lat="43.14224" lon="2.43527">
        <ele>415.0047</ele>
        <time>2013-06-23T12:41:19Z</time>
      </trkpt>
      <trkpt lat="43.14225" lon="2.43521">
        <ele>415.726227</ele>
        <time>2013-06-23T12:41:22Z</time>
      </trkpt>
      <trkpt lat="43.14227" lon="2.43515">
        <ele>416.364929</ele>
        <time>2013-06-23T12:41:25Z</time>
      </trkpt>
      <trkpt lat="43.14229" lon="2.43509">
        <ele>416.954681</ele>
        <time>2013-06-23T12:41:29Z</time>
      </trkpt>
      <trkpt lat="43.14231" lon="2.43501">
        <ele>417.64856</ele>
        <time>2013-06-23T12:41:33Z</time>
      </trkpt>
      <trkpt lat="43.14233" lon="2.43495">
        <ele>417.893951</ele>
        <time>2013-06-23T12:41:35Z</time>
      </trkpt>
      <trkpt lat="43.14235" lon="2.43488">
        <ele>418.037689</ele>
        <time>2013-06-23T12:41:39Z</time>
      </trkpt>
      <trkpt lat="43.14237" lon="2.43482">
        <ele>418.164734</ele>
        <time>2013-06-23T12:41:41Z</time>
      </trkpt>
      <trkpt lat="43.1424" lon="2.43477">
        <ele>418.25769</ele>
        <time>2013-06-23T12:41:45Z</time>
      </trkpt>
      <trkpt lat="43.14244" lon="2.43472">
        <ele>418.340057</ele>
        <time>2013-06-23T12:41:47Z</time>
      </trkpt>
      <trkpt lat="43.14247" lon="2.43466">
        <ele>418.42038</ele>
        <time>2013-06-23T12:41:51Z</time>
      </trkpt>
      <trkpt lat="43.1425" lon="2.43459">
        <ele>418.496155</ele>
        <time>2013-06-23T12:41:53Z</time>
      </trkpt>
      <trkpt lat="43.14252" lon="2.43452">
        <ele>418.623352</ele>
        <time>2013-06-23T12:41:57Z</time>
      </trkpt>
      <trkpt lat="43.14253" lon="2.43445">
        <ele>418.758453</ele>
        <time>2013-06-23T12:42:01Z</time>
      </trkpt>
      <trkpt lat="43.14255" lon="2.43438">
        <ele>418.871063</ele>
        <time>2013-06-23T12:42:03Z</time>
      </trkpt>
      <trkpt lat="43.14258" lon="2.43429">
        <ele>419.004669</ele>
        <time>2013-06-23T12:42:06Z</time>
      </trkpt>
      <trkpt lat="43.1426" lon="2.43422">
        <ele>419.095184</ele>
        <time>2013-06-23T12:42:09Z</time>
      </trkpt>
      <trkpt lat="43.14264" lon="2.43412">
        <ele>418.827393</ele>
        <time>2013-06-23T12:42:10Z</time>
      </trkpt>
      <trkpt lat="43.14267" lon="2.43406">
        <ele>418.446045</ele>
        <time>2013-06-23T12:42:13Z</time>
      </trkpt>
      <trkpt lat="43.14269" lon="2.43401">
        <ele>418.04538</ele>
        <time>2013-06-23T12:42:13Z</time>
      </trkpt>
      <trkpt lat="43.14274" lon="2.43391">
        <ele>417.271851</ele>
        <time>2013-06-23T12:42:14Z</time>
      </trkpt>
      <trkpt lat="43.1428" lon="2.43382">
        <ele>416.483002</ele>
        <time>2013-06-23T12:42:17Z</time>
      </trkpt>
      <trkpt lat="43.14284" lon="2.43377">
        <ele>416.016937</ele>
        <time>2013-06-23T12:42:18Z</time>
      </trkpt>
      <trkpt lat="43.14289" lon="2.43371">
        <ele>415.478485</ele>
        <time>2013-06-23T12:42:18Z</time>
      </trkpt>
      <trkpt lat="43.14294" lon="2.43366">
        <ele>414.877319</ele>
        <time>2013-06-23T12:42:19Z</time>
      </trkpt>
      <trkpt lat="43.14299" lon="2.43361">
        <ele>414.243317</ele>
        <time>2013-06-23T12:42:24Z</time>
      </trkpt>
      <trkpt lat="43.14305" lon="2.43355">
        <ele>413.541931</ele>
        <time>2013-06-23T12:42:24Z</time>
      </trkpt>
      <trkpt lat="43.14311" lon="2.43349">
        <ele>412.737549</ele>
        <time>2013-06-23T12:42:24Z</time>
      </trkpt>
      <trkpt lat="43.14317" lon="2.43343">
        <ele>411.893768</ele>
        <time>2013-06-23T12:42:24Z</time>
      </trkpt>
      <trkpt lat="43.14322" lon="2.43338">
        <ele>411.00235</ele>
        <time>2013-06-23T12:42:25Z</time>
      </trkpt>
      <trkpt lat="43.14328" lon="2.43331">
        <ele>410.050323</ele>
        <time>2013-06-23T12:42:25Z</time>
      </trkpt>
      <trkpt lat="43.14332" lon="2.43324">
        <ele>409.050415</ele>
        <time>2013-06-23T12:42:26Z</time>
      </trkpt>
      <trkpt lat="43.14335" lon="2.43317">
        <ele>408.309235</ele>
        <time>2013-06-23T12:42:27Z</time>
      </trkpt>
      <trkpt lat="43.14339" lon="2.4331">
        <ele>407.793274</ele>
        <time>2013-06-23T12:42:29Z</time>
      </trkpt>
      <trkpt lat="43.14342" lon="2.43304">
        <ele>407.356384</ele>
        <time>2013-06-23T12:42:30Z</time>
      </trkpt>
      <trkpt lat="43.14344" lon="2.43297">
        <ele>406.960785</ele>
        <time>2013-06-23T12:42:30Z</time>
      </trkpt>
      <trkpt lat="43.14347" lon="2.43292">
        <ele>406.626984</ele>
        <time>2013-06-23T12:42:31Z</time>
      </trkpt>
      <trkpt lat="43.14349" lon="2.43286">
        <ele>406.351959</ele>
        <time>2013-06-23T12:42:33Z</time>
      </trkpt>
      <trkpt lat="43.14354" lon="2.43276">
        <ele>405.944458</ele>
        <time>2013-06-23T12:42:34Z</time>
      </trkpt>
      <trkpt lat="43.14359" lon="2.43266">
        <ele>405.631226</ele>
        <time>2013-06-23T12:42:37Z</time>
      </trkpt>
      <trkpt lat="43.14363" lon="2.43256">
        <ele>405.415436</ele>
        <time>2013-06-23T12:42:38Z</time>
      </trkpt>
      <trkpt lat="43.14366" lon="2.43251">
        <ele>405.365601</ele>
        <time>2013-06-23T12:42:39Z</time>
      </trkpt>
      <trkpt lat="43.14369" lon="2.43246">
        <ele>405.328552</ele>
        <time>2013-06-23T12:42:44Z</time>
      </trkpt>
      <trkpt lat="43.14374" lon="2.43236">
        <ele>405.250763</ele>
        <time>2013-06-23T12:42:45Z</time>
      </trkpt>
      <trkpt lat="43.14379" lon="2.43226">
        <ele>405.129944</ele>
        <time>2013-06-23T12:42:46Z</time>
      </trkpt>
      <trkpt lat="43.14383" lon="2.43217">
        <ele>404.997131</ele>
        <time>2013-06-23T12:42:46Z</time>
      </trkpt>
      <trkpt lat="43.14387" lon="2.43208">
        <ele>404.871857</ele>
        <time>2013-06-23T12:42:49Z</time>
      </trkpt>
      <trkpt lat="43.14391" lon="2.43199">
        <ele>404.777466</ele>
        <time>2013-06-23T12:42:51Z</time>
      </trkpt>
      <trkpt lat="43.14395" lon="2.43191">
        <ele>404.678619</ele>
        <time>2013-06-23T12:42:53Z</time>
      </trkpt>
      <trkpt lat="43.14399" lon="2.43182">
        <ele>404.582458</ele>
        <time>2013-06-23T12:42:54Z</time>
      </trkpt>
      <trkpt lat="43.14403" lon="2.43174">
        <ele>404.56366</ele>
        <time>2013-06-23T12:42:57Z</time>
      </trkpt>
      <trkpt lat="43.14407" lon="2.43166">
        <ele>404.562805</ele>
        <time>2013-06-23T12:42:58Z</time>
      </trkpt>
      <trkpt lat="43.14411" lon="2.43159">
        <ele>404.65213</ele>
        <time>2013-06-23T12:43:01Z</time>
      </trkpt>
      <trkpt lat="43.14416" lon="2.43151">
        <ele>404.776093</ele>
        <time>2013-06-23T12:43:02Z</time>
      </trkpt>
      <trkpt lat="43.14421" lon="2.43143">
        <ele>404.876343</ele>
        <time>2013-06-23T12:43:05Z</time>
      </trkpt>
      <trkpt lat="43.14425" lon="2.43134">
        <ele>404.97522</ele>
        <time>2013-06-23T12:43:06Z</time>
      </trkpt>
      <trkpt lat="43.1443" lon="2.43126">
        <ele>405.106689</ele>
        <time>2013-06-23T12:43:09Z</time>
      </trkpt>
      <trkpt lat="43.14434" lon="2.43117">
        <ele>405.282867</ele>
        <time>2013-06-23T12:43:10Z</time>
      </trkpt>
      <trkpt lat="43.14438" lon="2.43107">
        <ele>405.535492</ele>
        <time>2013-06-23T12:43:13Z</time>
      </trkpt>
      <trkpt lat="43.14443" lon="2.43097">
        <ele>405.952667</ele>
        <time>2013-06-23T12:43:14Z</time>
      </trkpt>
      <trkpt lat="43.14448" lon="2.43087">
        <ele>406.506897</ele>
        <time>2013-06-23T12:43:17Z</time>
      </trkpt>
      <trkpt lat="43.14452" lon="2.43077">
        <ele>407.178436</ele>
        <time>2013-06-23T12:43:18Z</time>
      </trkpt>
      <trkpt lat="43.14456" lon="2.43068">
        <ele>407.882874</ele>
        <time>2013-06-23T12:43:21Z</time>
      </trkpt>
      <trkpt lat="43.1446" lon="2.4306">
        <ele>408.611908</ele>
        <time>2013-06-23T12:43:22Z</time>
      </trkpt>
      <trkpt lat="43.14465" lon="2.43052">
        <ele>409.32132</ele>
        <time>2013-06-23T12:43:26Z</time>
      </trkpt>
      <trkpt lat="43.14469" lon="2.43043">
        <ele>409.921844</ele>
        <time>2013-06-23T12:43:26Z</time>
      </trkpt>
      <trkpt lat="43.14473" lon="2.43035">
        <ele>410.432037</ele>
        <time>2013-06-23T12:43:29Z</time>
      </trkpt>
      <trkpt lat="43.14476" lon="2.43028">
        <ele>410.849731</ele>
        <time>2013-06-23T12:43:30Z</time>
      </trkpt>
      <trkpt lat="43.14479" lon="2.43021">
        <ele>411.175568</ele>
        <time>2013-06-23T12:43:33Z</time>
      </trkpt>
      <trkpt lat="43.14481" lon="2.43016">
        <ele>411.46109</ele>
        <time>2013-06-23T12:43:35Z</time>
      </trkpt>
      <trkpt lat="43.14484" lon="2.4301">
        <ele>411.71875</ele>
        <time>2013-06-23T12:43:37Z</time>
      </trkpt>
      <trkpt lat="43.14486" lon="2.43004">
        <ele>411.977173</ele>
        <time>2013-06-23T12:43:38Z</time>
      </trkpt>
      <trkpt lat="43.14489" lon="2.42997">
        <ele>412.21637</ele>
        <time>2013-06-23T12:43:41Z</time>
      </trkpt>
      <trkpt lat="43.14491" lon="2.42988">
        <ele>412.414337</ele>
        <time>2013-06-23T12:43:42Z</time>
      </trkpt>
      <trkpt lat="43.14493" lon="2.4298">
        <ele>412.457062</ele>
        <time>2013-06-23T12:43:46Z</time>
      </trkpt>
      <trkpt lat="43.14494" lon="2.42972">
        <ele>412.411499</ele>
        <time>2013-06-23T12:43:46Z</time>
      </trkpt>
      <trkpt lat="43.14493" lon="2.42965">
        <ele>412.094482</ele>
        <time>2013-06-23T12:43:49Z</time>
      </trkpt>
      <trkpt lat="43.1449" lon="2.42958">
        <ele>411.548706</ele>
        <time>2013-06-23T12:43:50Z</time>
      </trkpt>
      <trkpt lat="43.14486" lon="2.42953">
        <ele>410.993195</ele>
        <time>2013-06-23T12:43:53Z</time>
      </trkpt>
      <trkpt lat="43.14481" lon="2.42947">
        <ele>410.193176</ele>
        <time>2013-06-23T12:43:57Z</time>
      </trkpt>
      <trkpt lat="43.14477" lon="2.42944">
        <ele>409.563019</ele>
        <time>2013-06-23T12:43:57Z</time>
      </trkpt>
      <trkpt lat="43.14472" lon="2.42942">
        <ele>408.93512</ele>
        <time>2013-06-23T12:43:59Z</time>
      </trkpt>
      <trkpt lat="43.14468" lon="2.4294">
        <ele>408.332733</ele>
        <time>2013-06-23T12:44:02Z</time>
      </trkpt>
      <trkpt lat="43.14463" lon="2.42938">
        <ele>407.712189</ele>
        <time>2013-06-23T12:44:04Z</time>
      </trkpt>
      <trkpt lat="43.14457" lon="2.42938">
        <ele>406.977905</ele>
        <time>2013-06-23T12:44:07Z</time>
      </trkpt>
      <trkpt lat="43.14461" lon="2.42934">
        <ele>407.453308</ele>
        <time>2013-06-23T12:48:02Z</time>
      </trkpt>
      <trkpt lat="43.14462" lon="2.42941">
        <ele>407.566956</ele>
        <time>2013-06-23T13:02:28Z</time>
      </trkpt>
      <trkpt lat="43.14457" lon="2.4294">
        <ele>406.955536</ele>
        <time>2013-06-23T13:03:01Z</time>
      </trkpt>
      <trkpt lat="43.14457" lon="2.42933">
        <ele>406.906769</ele>
        <time>2013-06-23T13:03:51Z</time>
      </trkpt>
      <trkpt lat="43.14454" lon="2.42926">
        <ele>406.465759</ele>
        <time>2013-06-23T13:03:54Z</time>
      </trkpt>
      <trkpt lat="43.14457" lon="2.42917">
        <ele>406.788147</ele>
        <time>2013-06-23T13:03:57Z</time>
      </trkpt>
      <trkpt lat="43.1446" lon="2.4291">
        <ele>407.17099</ele>
        <time>2013-06-23T13:03:59Z</time>
      </trkpt>
      <trkpt lat="43.14463" lon="2.42904">
        <ele>407.513489</ele>
        <time>2013-06-23T13:04:01Z</time>
      </trkpt>
      <trkpt lat="43.14466" lon="2.42898">
        <ele>407.836884</ele>
        <time>2013-06-23T13:04:03Z</time>
      </trkpt>
      <trkpt lat="43.14469" lon="2.42891">
        <ele>408.180939</ele>
        <time>2013-06-23T13:04:06Z</time>
      </trkpt>
      <trkpt lat="43.14472" lon="2.42883">
        <ele>408.609131</ele>
        <time>2013-06-23T13:04:09Z</time>
      </trkpt>
      <trkpt lat="43.14474" lon="2.42877">
        <ele>408.891998</ele>
        <time>2013-06-23T13:04:11Z</time>
      </trkpt>
      <trkpt lat="43.14477" lon="2.42869">
        <ele>409.3367</ele>
        <time>2013-06-23T13:04:14Z</time>
      </trkpt>
      <trkpt lat="43.1448" lon="2.42864">
        <ele>409.722961</ele>
        <time>2013-06-23T13:04:16Z</time>
      </trkpt>
      <trkpt lat="43.14483" lon="2.42858">
        <ele>410.197174</ele>
        <time>2013-06-23T13:04:18Z</time>
      </trkpt>
      <trkpt lat="43.14485" lon="2.42852">
        <ele>410.565948</ele>
        <time>2013-06-23T13:04:22Z</time>
      </trkpt>
      <trkpt lat="43.14488" lon="2.42844">
        <ele>410.997528</ele>
        <time>2013-06-23T13:04:25Z</time>
      </trkpt>
      <trkpt lat="43.1449" lon="2.42837">
        <ele>411.466095</ele>
        <time>2013-06-23T13:04:28Z</time>
      </trkpt>
      <trkpt lat="43.14493" lon="2.42831">
        <ele>411.935394</ele>
        <time>2013-06-23T13:04:31Z</time>
      </trkpt>
      <trkpt lat="43.14495" lon="2.42823">
        <ele>412.629883</ele>
        <time>2013-06-23T13:04:34Z</time>
      </trkpt>
      <trkpt lat="43.14497" lon="2.42817">
        <ele>413.196289</ele>
        <time>2013-06-23T13:04:36Z</time>
      </trkpt>
      <trkpt lat="43.14498" lon="2.42811">
        <ele>413.757202</ele>
        <time>2013-06-23T13:04:38Z</time>
      </trkpt>
      <trkpt lat="43.14499" lon="2.42804">
        <ele>414.282928</ele>
        <time>2013-06-23T13:04:40Z</time>
      </trkpt>
      <trkpt lat="43.145" lon="2.42797">
        <ele>414.691101</ele>
        <time>2013-06-23T13:04:42Z</time>
      </trkpt>
      <trkpt lat="43.145" lon="2.4279">
        <ele>415.027649</ele>
        <time>2013-06-23T13:04:44Z</time>
      </trkpt>
      <trkpt lat="43.14499" lon="2.42782">
        <ele>415.342804</ele>
        <time>2013-06-23T13:04:46Z</time>
      </trkpt>
      <trkpt lat="43.14499" lon="2.42774">
        <ele>415.677643</ele>
        <time>2013-06-23T13:04:48Z</time>
      </trkpt>
      <trkpt lat="43.14498" lon="2.42765">
        <ele>415.930115</ele>
        <time>2013-06-23T13:04:50Z</time>
      </trkpt>
      <trkpt lat="43.14494" lon="2.42759">
        <ele>415.48288</ele>
        <time>2013-06-23T13:04:52Z</time>
      </trkpt>
      <trkpt lat="43.1449" lon="2.42756">
        <ele>414.888916</ele>
        <time>2013-06-23T13:04:54Z</time>
      </trkpt>
      <trkpt lat="43.14485" lon="2.42753">
        <ele>414.127838</ele>
        <time>2013-06-23T13:04:56Z</time>
      </trkpt>
      <trkpt lat="43.14479" lon="2.4275">
        <ele>413.291534</ele>
        <time>2013-06-23T13:04:58Z</time>
      </trkpt>
      <trkpt lat="43.14474" lon="2.42746">
        <ele>412.231995</ele>
        <time>2013-06-23T13:05:00Z</time>
      </trkpt>
      <trkpt lat="43.14469" lon="2.42742">
        <ele>411.316498</ele>
        <time>2013-06-23T13:05:02Z</time>
      </trkpt>
      <trkpt lat="43.14465" lon="2.42739">
        <ele>410.505646</ele>
        <time>2013-06-23T13:05:04Z</time>
      </trkpt>
      <trkpt lat="43.14462" lon="2.42733">
        <ele>409.741486</ele>
        <time>2013-06-23T13:05:06Z</time>
      </trkpt>
      <trkpt lat="43.14459" lon="2.42726">
        <ele>409.090942</ele>
        <time>2013-06-23T13:05:08Z</time>
      </trkpt>
      <trkpt lat="43.14458" lon="2.42718">
        <ele>408.660828</ele>
        <time>2013-06-23T13:05:10Z</time>
      </trkpt>
      <trkpt lat="43.14457" lon="2.42711">
        <ele>408.273865</ele>
        <time>2013-06-23T13:05:12Z</time>
      </trkpt>
      <trkpt lat="43.14457" lon="2.42702">
        <ele>408.082397</ele>
        <time>2013-06-23T13:05:14Z</time>
      </trkpt>
      <trkpt lat="43.14457" lon="2.42695">
        <ele>407.945435</ele>
        <time>2013-06-23T13:05:16Z</time>
      </trkpt>
      <trkpt lat="43.14457" lon="2.42687">
        <ele>407.797485</ele>
        <time>2013-06-23T13:05:18Z</time>
      </trkpt>
      <trkpt lat="43.14458" lon="2.42678">
        <ele>407.641174</ele>
        <time>2013-06-23T13:05:20Z</time>
      </trkpt>
      <trkpt lat="43.14458" lon="2.42668">
        <ele>407.549286</ele>
        <time>2013-06-23T13:05:22Z</time>
      </trkpt>
      <trkpt lat="43.14462" lon="2.42657">
        <ele>407.714508</ele>
        <time>2013-06-23T13:05:24Z</time>
      </trkpt>
      <trkpt lat="43.14464" lon="2.42652">
        <ele>407.871643</ele>
        <time>2013-06-23T13:05:25Z</time>
      </trkpt>
      <trkpt lat="43.14466" lon="2.42645">
        <ele>408.106598</ele>
        <time>2013-06-23T13:05:26Z</time>
      </trkpt>
      <trkpt lat="43.14469" lon="2.42639">
        <ele>408.246796</ele>
        <time>2013-06-23T13:05:27Z</time>
      </trkpt>
      <trkpt lat="43.1447" lon="2.42632">
        <ele>408.236115</ele>
        <time>2013-06-23T13:05:28Z</time>
      </trkpt>
      <trkpt lat="43.14472" lon="2.42625">
        <ele>408.259644</ele>
        <time>2013-06-23T13:05:29Z</time>
      </trkpt>
      <trkpt lat="43.14474" lon="2.42618">
        <ele>408.360321</ele>
        <time>2013-06-23T13:05:30Z</time>
      </trkpt>
      <trkpt lat="43.14477" lon="2.42611">
        <ele>408.55954</ele>
        <time>2013-06-23T13:05:31Z</time>
      </trkpt>
      <trkpt lat="43.14479" lon="2.42606">
        <ele>408.86853</ele>
        <time>2013-06-23T13:05:32Z</time>
      </trkpt>
      <trkpt lat="43.14483" lon="2.42601">
        <ele>409.345245</ele>
        <time>2013-06-23T13:05:33Z</time>
      </trkpt>
      <trkpt lat="43.1449" lon="2.42595">
        <ele>410.545776</ele>
        <time>2013-06-23T13:05:35Z</time>
      </trkpt>
      <trkpt lat="43.14497" lon="2.42589">
        <ele>411.672974</ele>
        <time>2013-06-23T13:05:37Z</time>
      </trkpt>
      <trkpt lat="43.14501" lon="2.42578">
        <ele>412.196716</ele>
        <time>2013-06-23T13:05:39Z</time>
      </trkpt>
      <trkpt lat="43.145" lon="2.42567">
        <ele>412.193481</ele>
        <time>2013-06-23T13:05:41Z</time>
      </trkpt>
      <trkpt lat="43.14496" lon="2.42558">
        <ele>411.52298</ele>
        <time>2013-06-23T13:05:43Z</time>
      </trkpt>
      <trkpt lat="43.14493" lon="2.42549">
        <ele>410.944</ele>
        <time>2013-06-23T13:05:45Z</time>
      </trkpt>
      <trkpt lat="43.14491" lon="2.4254">
        <ele>410.66925</ele>
        <time>2013-06-23T13:05:47Z</time>
      </trkpt>
      <trkpt lat="43.14491" lon="2.42531">
        <ele>410.777191</ele>
        <time>2013-06-23T13:05:49Z</time>
      </trkpt>
      <trkpt lat="43.14492" lon="2.42524">
        <ele>411.099274</ele>
        <time>2013-06-23T13:05:51Z</time>
      </trkpt>
      <trkpt lat="43.14494" lon="2.42515">
        <ele>411.564392</ele>
        <time>2013-06-23T13:05:53Z</time>
      </trkpt>
      <trkpt lat="43.14496" lon="2.42505">
        <ele>412.110016</ele>
        <time>2013-06-23T13:05:55Z</time>
      </trkpt>
      <trkpt lat="43.14498" lon="2.42495">
        <ele>412.55661</ele>
        <time>2013-06-23T13:05:57Z</time>
      </trkpt>
      <trkpt lat="43.14499" lon="2.42487">
        <ele>412.904907</ele>
        <time>2013-06-23T13:05:59Z</time>
      </trkpt>
      <trkpt lat="43.14499" lon="2.42479">
        <ele>413.018951</ele>
        <time>2013-06-23T13:06:01Z</time>
      </trkpt>
      <trkpt lat="43.14498" lon="2.42472">
        <ele>413.042389</ele>
        <time>2013-06-23T13:06:03Z</time>
      </trkpt>
      <trkpt lat="43.14498" lon="2.42464">
        <ele>413.117645</ele>
        <time>2013-06-23T13:06:05Z</time>
      </trkpt>
      <trkpt lat="43.14498" lon="2.42456">
        <ele>413.187683</ele>
        <time>2013-06-23T13:06:07Z</time>
      </trkpt>
      <trkpt lat="43.14497" lon="2.42449">
        <ele>413.150848</ele>
        <time>2013-06-23T13:06:09Z</time>
      </trkpt>
      <trkpt lat="43.14496" lon="2.42442">
        <ele>413.096985</ele>
        <time>2013-06-23T13:06:11Z</time>
      </trkpt>
      <trkpt lat="43.14496" lon="2.42434">
        <ele>413.108459</ele>
        <time>2013-06-23T13:06:13Z</time>
      </trkpt>
      <trkpt lat="43.14496" lon="2.42424">
        <ele>413.257141</ele>
        <time>2013-06-23T13:06:15Z</time>
      </trkpt>
      <trkpt lat="43.14496" lon="2.42414">
        <ele>413.43869</ele>
        <time>2013-06-23T13:06:17Z</time>
      </trkpt>
      <trkpt lat="43.14497" lon="2.42403">
        <ele>413.692627</ele>
        <time>2013-06-23T13:06:19Z</time>
      </trkpt>
      <trkpt lat="43.14497" lon="2.42394">
        <ele>413.850128</ele>
        <time>2013-06-23T13:06:21Z</time>
      </trkpt>
      <trkpt lat="43.14496" lon="2.42386">
        <ele>413.836334</ele>
        <time>2013-06-23T13:06:23Z</time>
      </trkpt>
      <trkpt lat="43.14496" lon="2.42378">
        <ele>413.862152</ele>
        <time>2013-06-23T13:06:25Z</time>
      </trkpt>
      <trkpt lat="43.14496" lon="2.42372">
        <ele>413.931</ele>
        <time>2013-06-23T13:06:27Z</time>
      </trkpt>
      <trkpt lat="43.14495" lon="2.42364">
        <ele>413.844421</ele>
        <time>2013-06-23T13:06:30Z</time>
      </trkpt>
      <trkpt lat="43.14494" lon="2.42355">
        <ele>413.843872</ele>
        <time>2013-06-23T13:06:33Z</time>
      </trkpt>
      <trkpt lat="43.14492" lon="2.42348">
        <ele>413.601044</ele>
        <time>2013-06-23T13:06:35Z</time>
      </trkpt>
      <trkpt lat="43.14486" lon="2.42344">
        <ele>412.628479</ele>
        <time>2013-06-23T13:06:38Z</time>
      </trkpt>
      <trkpt lat="43.1448" lon="2.42345">
        <ele>411.811401</ele>
        <time>2013-06-23T13:06:40Z</time>
      </trkpt>
      <trkpt lat="43.1448" lon="2.42351">
        <ele>411.768005</ele>
        <time>2013-06-23T13:06:46Z</time>
      </trkpt>
      <trkpt lat="43.14483" lon="2.42346">
        <ele>412.236359</ele>
        <time>2013-06-23T13:07:18Z</time>
      </trkpt>
      <trkpt lat="43.1448" lon="2.42337">
        <ele>411.881256</ele>
        <time>2013-06-23T13:07:21Z</time>
      </trkpt>
      <trkpt lat="43.14478" lon="2.4233">
        <ele>411.500732</ele>
        <time>2013-06-23T13:07:23Z</time>
      </trkpt>
      <trkpt lat="43.14475" lon="2.42322">
        <ele>411.100494</ele>
        <time>2013-06-23T13:07:25Z</time>
      </trkpt>
      <trkpt lat="43.14472" lon="2.42314">
        <ele>410.684143</ele>
        <time>2013-06-23T13:07:27Z</time>
      </trkpt>
      <trkpt lat="43.14467" lon="2.42307">
        <ele>410.201447</ele>
        <time>2013-06-23T13:07:29Z</time>
      </trkpt>
      <trkpt lat="43.14463" lon="2.423">
        <ele>409.770172</ele>
        <time>2013-06-23T13:07:31Z</time>
      </trkpt>
      <trkpt lat="43.14459" lon="2.42292">
        <ele>409.514954</ele>
        <time>2013-06-23T13:07:33Z</time>
      </trkpt>
      <trkpt lat="43.14457" lon="2.42283">
        <ele>409.583282</ele>
        <time>2013-06-23T13:07:35Z</time>
      </trkpt>
      <trkpt lat="43.14456" lon="2.42273">
        <ele>409.808167</ele>
        <time>2013-06-23T13:07:37Z</time>
      </trkpt>
      <trkpt lat="43.14456" lon="2.42262">
        <ele>410.103699</ele>
        <time>2013-06-23T13:07:39Z</time>
      </trkpt>
      <trkpt lat="43.14455" lon="2.42252">
        <ele>410.320404</ele>
        <time>2013-06-23T13:07:41Z</time>
      </trkpt>
      <trkpt lat="43.14451" lon="2.42243">
        <ele>410.193176</ele>
        <time>2013-06-23T13:07:43Z</time>
      </trkpt>
      <trkpt lat="43.14446" lon="2.42237">
        <ele>410.112152</ele>
        <time>2013-06-23T13:07:45Z</time>
      </trkpt>
      <trkpt lat="43.14439" lon="2.4223">
        <ele>410.214996</ele>
        <time>2013-06-23T13:07:47Z</time>
      </trkpt>
      <trkpt lat="43.14433" lon="2.42224">
        <ele>410.496826</ele>
        <time>2013-06-23T13:07:49Z</time>
      </trkpt>
      <trkpt lat="43.14426" lon="2.42218">
        <ele>410.974274</ele>
        <time>2013-06-23T13:07:51Z</time>
      </trkpt>
      <trkpt lat="43.14421" lon="2.42212">
        <ele>411.517365</ele>
        <time>2013-06-23T13:07:53Z</time>
      </trkpt>
      <trkpt lat="43.14418" lon="2.42205">
        <ele>412.136627</ele>
        <time>2013-06-23T13:07:55Z</time>
      </trkpt>
      <trkpt lat="43.14415" lon="2.422">
        <ele>412.61734</ele>
        <time>2013-06-23T13:07:57Z</time>
      </trkpt>
      <trkpt lat="43.14412" lon="2.42195">
        <ele>412.993469</ele>
        <time>2013-06-23T13:07:59Z</time>
      </trkpt>
      <trkpt lat="43.14409" lon="2.4219">
        <ele>413.391602</ele>
        <time>2013-06-23T13:08:01Z</time>
      </trkpt>
      <trkpt lat="43.14407" lon="2.42185">
        <ele>413.810638</ele>
        <time>2013-06-23T13:08:03Z</time>
      </trkpt>
      <trkpt lat="43.14403" lon="2.42178">
        <ele>414.390717</ele>
        <time>2013-06-23T13:08:06Z</time>
      </trkpt>
      <trkpt lat="43.14399" lon="2.42172">
        <ele>414.969513</ele>
        <time>2013-06-23T13:08:09Z</time>
      </trkpt>
      <trkpt lat="43.14395" lon="2.42164">
        <ele>415.630188</ele>
        <time>2013-06-23T13:08:12Z</time>
      </trkpt>
      <trkpt lat="43.14393" lon="2.42155">
        <ele>416.046295</ele>
        <time>2013-06-23T13:08:14Z</time>
      </trkpt>
      <trkpt lat="43.14393" lon="2.42144">
        <ele>416.515503</ele>
        <time>2013-06-23T13:08:16Z</time>
      </trkpt>
      <trkpt lat="43.14394" lon="2.42134">
        <ele>416.862</ele>
        <time>2013-06-23T13:08:18Z</time>
      </trkpt>
      <trkpt lat="43.14396" lon="2.42123">
        <ele>417.194702</ele>
        <time>2013-06-23T13:08:20Z</time>
      </trkpt>
      <trkpt lat="43.14398" lon="2.42111">
        <ele>417.523926</ele>
        <time>2013-06-23T13:08:22Z</time>
      </trkpt>
      <trkpt lat="43.144" lon="2.421">
        <ele>417.793274</ele>
        <time>2013-06-23T13:08:24Z</time>
      </trkpt>
      <trkpt lat="43.14402" lon="2.42089">
        <ele>418.053009</ele>
        <time>2013-06-23T13:08:26Z</time>
      </trkpt>
      <trkpt lat="43.14404" lon="2.42079">
        <ele>418.034576</ele>
        <time>2013-06-23T13:08:28Z</time>
      </trkpt>
      <trkpt lat="43.14405" lon="2.42068">
        <ele>417.758942</ele>
        <time>2013-06-23T13:08:30Z</time>
      </trkpt>
      <trkpt lat="43.14407" lon="2.42057">
        <ele>417.4534</ele>
        <time>2013-06-23T13:08:32Z</time>
      </trkpt>
      <trkpt lat="43.14409" lon="2.42046">
        <ele>417.140259</ele>
        <time>2013-06-23T13:08:34Z</time>
      </trkpt>
      <trkpt lat="43.14411" lon="2.42034">
        <ele>416.824432</ele>
        <time>2013-06-23T13:08:36Z</time>
      </trkpt>
      <trkpt lat="43.14413" lon="2.42023">
        <ele>416.503082</ele>
        <time>2013-06-23T13:08:38Z</time>
      </trkpt>
      <trkpt lat="43.14416" lon="2.42013">
        <ele>416.178345</ele>
        <time>2013-06-23T13:08:40Z</time>
      </trkpt>
      <trkpt lat="43.14418" lon="2.42007">
        <ele>415.827026</ele>
        <time>2013-06-23T13:08:41Z</time>
      </trkpt>
      <trkpt lat="43.14421" lon="2.41997">
        <ele>415.208679</ele>
        <time>2013-06-23T13:08:43Z</time>
      </trkpt>
      <trkpt lat="43.14423" lon="2.41987">
        <ele>414.647583</ele>
        <time>2013-06-23T13:08:45Z</time>
      </trkpt>
      <trkpt lat="43.14426" lon="2.41977">
        <ele>414.117432</ele>
        <time>2013-06-23T13:08:47Z</time>
      </trkpt>
      <trkpt lat="43.1443" lon="2.41967">
        <ele>413.577789</ele>
        <time>2013-06-23T13:08:49Z</time>
      </trkpt>
      <trkpt lat="43.14433" lon="2.41958">
        <ele>413.148499</ele>
        <time>2013-06-23T13:08:51Z</time>
      </trkpt>
      <trkpt lat="43.14436" lon="2.41949">
        <ele>412.816467</ele>
        <time>2013-06-23T13:08:53Z</time>
      </trkpt>
      <trkpt lat="43.14439" lon="2.41941">
        <ele>412.542664</ele>
        <time>2013-06-23T13:08:55Z</time>
      </trkpt>
      <trkpt lat="43.14442" lon="2.41932">
        <ele>412.359192</ele>
        <time>2013-06-23T13:08:57Z</time>
      </trkpt>
      <trkpt lat="43.14443" lon="2.41924">
        <ele>412.287689</ele>
        <time>2013-06-23T13:08:59Z</time>
      </trkpt>
      <trkpt lat="43.14445" lon="2.41916">
        <ele>412.345856</ele>
        <time>2013-06-23T13:09:01Z</time>
      </trkpt>
      <trkpt lat="43.14447" lon="2.41907">
        <ele>412.676727</ele>
        <time>2013-06-23T13:09:03Z</time>
      </trkpt>
      <trkpt lat="43.14449" lon="2.419">
        <ele>412.971375</ele>
        <time>2013-06-23T13:09:05Z</time>
      </trkpt>
      <trkpt lat="43.14451" lon="2.41893">
        <ele>413.235718</ele>
        <time>2013-06-23T13:09:07Z</time>
      </trkpt>
      <trkpt lat="43.14455" lon="2.41887">
        <ele>413.507385</ele>
        <time>2013-06-23T13:09:10Z</time>
      </trkpt>
      <trkpt lat="43.14459" lon="2.4188">
        <ele>413.831726</ele>
        <time>2013-06-23T13:09:13Z</time>
      </trkpt>
      <trkpt lat="43.14463" lon="2.41874">
        <ele>414.177216</ele>
        <time>2013-06-23T13:09:16Z</time>
      </trkpt>
      <trkpt lat="43.14466" lon="2.41868">
        <ele>414.625946</ele>
        <time>2013-06-23T13:09:19Z</time>
      </trkpt>
      <trkpt lat="43.1447" lon="2.41863">
        <ele>415.10022</ele>
        <time>2013-06-23T13:09:22Z</time>
      </trkpt>
      <trkpt lat="43.14473" lon="2.41857">
        <ele>415.686859</ele>
        <time>2013-06-23T13:09:25Z</time>
      </trkpt>
      <trkpt lat="43.14475" lon="2.4185">
        <ele>416.417938</ele>
        <time>2013-06-23T13:09:28Z</time>
      </trkpt>
      <trkpt lat="43.14478" lon="2.41842">
        <ele>417.219452</ele>
        <time>2013-06-23T13:09:31Z</time>
      </trkpt>
      <trkpt lat="43.14481" lon="2.41836">
        <ele>418.047791</ele>
        <time>2013-06-23T13:09:34Z</time>
      </trkpt>
      <trkpt lat="43.14484" lon="2.41829">
        <ele>418.605072</ele>
        <time>2013-06-23T13:09:37Z</time>
      </trkpt>
      <trkpt lat="43.14487" lon="2.41823">
        <ele>418.958801</ele>
        <time>2013-06-23T13:09:39Z</time>
      </trkpt>
      <trkpt lat="43.14491" lon="2.41816">
        <ele>419.449524</ele>
        <time>2013-06-23T13:09:41Z</time>
      </trkpt>
      <trkpt lat="43.14496" lon="2.41807">
        <ele>420.056396</ele>
        <time>2013-06-23T13:09:43Z</time>
      </trkpt>
      <trkpt lat="43.14501" lon="2.41799">
        <ele>420.357025</ele>
        <time>2013-06-23T13:09:45Z</time>
      </trkpt>
      <trkpt lat="43.14506" lon="2.41791">
        <ele>419.54303</ele>
        <time>2013-06-23T13:09:47Z</time>
      </trkpt>
      <trkpt lat="43.14511" lon="2.41783">
        <ele>418.956665</ele>
        <time>2013-06-23T13:09:49Z</time>
      </trkpt>
      <trkpt lat="43.14516" lon="2.41776">
        <ele>418.460114</ele>
        <time>2013-06-23T13:09:51Z</time>
      </trkpt>
      <trkpt lat="43.14521" lon="2.41769">
        <ele>418.090973</ele>
        <time>2013-06-23T13:09:53Z</time>
      </trkpt>
      <trkpt lat="43.14527" lon="2.4176">
        <ele>417.799927</ele>
        <time>2013-06-23T13:09:55Z</time>
      </trkpt>
      <trkpt lat="43.14534" lon="2.41753">
        <ele>417.454956</ele>
        <time>2013-06-23T13:09:57Z</time>
      </trkpt>
      <trkpt lat="43.14541" lon="2.41746">
        <ele>416.697174</ele>
        <time>2013-06-23T13:09:59Z</time>
      </trkpt>
      <trkpt lat="43.14544" lon="2.41742">
        <ele>416.207336</ele>
        <time>2013-06-23T13:10:00Z</time>
      </trkpt>
      <trkpt lat="43.14548" lon="2.41738">
        <ele>415.763458</ele>
        <time>2013-06-23T13:10:01Z</time>
      </trkpt>
      <trkpt lat="43.14552" lon="2.41735">
        <ele>415.388428</ele>
        <time>2013-06-23T13:10:02Z</time>
      </trkpt>
      <trkpt lat="43.14555" lon="2.41731">
        <ele>415.026794</ele>
        <time>2013-06-23T13:10:03Z</time>
      </trkpt>
      <trkpt lat="43.14559" lon="2.41729">
        <ele>414.682861</ele>
        <time>2013-06-23T13:10:04Z</time>
      </trkpt>
      <trkpt lat="43.14564" lon="2.41725">
        <ele>414.402618</ele>
        <time>2013-06-23T13:10:05Z</time>
      </trkpt>
      <trkpt lat="43.1457" lon="2.41718">
        <ele>414.230713</ele>
        <time>2013-06-23T13:10:07Z</time>
      </trkpt>
      <trkpt lat="43.14573" lon="2.41713">
        <ele>414.374756</ele>
        <time>2013-06-23T13:10:08Z</time>
      </trkpt>
      <trkpt lat="43.14575" lon="2.41707">
        <ele>414.631989</ele>
        <time>2013-06-23T13:10:09Z</time>
      </trkpt>
      <trkpt lat="43.14577" lon="2.41701">
        <ele>415.000153</ele>
        <time>2013-06-23T13:10:10Z</time>
      </trkpt>
      <trkpt lat="43.14579" lon="2.41695">
        <ele>415.426483</ele>
        <time>2013-06-23T13:10:11Z</time>
      </trkpt>
      <trkpt lat="43.1458" lon="2.41689">
        <ele>415.92041</ele>
        <time>2013-06-23T13:10:12Z</time>
      </trkpt>
      <trkpt lat="43.14581" lon="2.41683">
        <ele>416.471466</ele>
        <time>2013-06-23T13:10:13Z</time>
      </trkpt>
      <trkpt lat="43.14582" lon="2.41677">
        <ele>417.033203</ele>
        <time>2013-06-23T13:10:14Z</time>
      </trkpt>
      <trkpt lat="43.14583" lon="2.41671">
        <ele>417.624176</ele>
        <time>2013-06-23T13:10:15Z</time>
      </trkpt>
      <trkpt lat="43.14585" lon="2.4166">
        <ele>417.632721</ele>
        <time>2013-06-23T13:10:17Z</time>
      </trkpt>
      <trkpt lat="43.14588" lon="2.4165">
        <ele>417.214905</ele>
        <time>2013-06-23T13:10:19Z</time>
      </trkpt>
      <trkpt lat="43.14591" lon="2.41642">
        <ele>416.855316</ele>
        <time>2013-06-23T13:10:21Z</time>
      </trkpt>
      <trkpt lat="43.14593" lon="2.41634">
        <ele>416.528625</ele>
        <time>2013-06-23T13:10:23Z</time>
      </trkpt>
      <trkpt lat="43.14596" lon="2.41625">
        <ele>416.249237</ele>
        <time>2013-06-23T13:10:25Z</time>
      </trkpt>
      <trkpt lat="43.14599" lon="2.41617">
        <ele>416.084717</ele>
        <time>2013-06-23T13:10:27Z</time>
      </trkpt>
      <trkpt lat="43.14602" lon="2.41607">
        <ele>416.05191</ele>
        <time>2013-06-23T13:10:29Z</time>
      </trkpt>
      <trkpt lat="43.14604" lon="2.41597">
        <ele>416.186188</ele>
        <time>2013-06-23T13:10:31Z</time>
      </trkpt>
      <trkpt lat="43.14606" lon="2.41585">
        <ele>416.454651</ele>
        <time>2013-06-23T13:10:33Z</time>
      </trkpt>
      <trkpt lat="43.14609" lon="2.41574">
        <ele>416.033905</ele>
        <time>2013-06-23T13:10:35Z</time>
      </trkpt>
      <trkpt lat="43.14611" lon="2.41567">
        <ele>415.683899</ele>
        <time>2013-06-23T13:10:36Z</time>
      </trkpt>
      <trkpt lat="43.14612" lon="2.41561">
        <ele>415.344971</ele>
        <time>2013-06-23T13:10:37Z</time>
      </trkpt>
      <trkpt lat="43.14614" lon="2.41554">
        <ele>415.007751</ele>
        <time>2013-06-23T13:10:38Z</time>
      </trkpt>
      <trkpt lat="43.14616" lon="2.41548">
        <ele>414.651062</ele>
        <time>2013-06-23T13:10:39Z</time>
      </trkpt>
      <trkpt lat="43.14619" lon="2.41541">
        <ele>414.313293</ele>
        <time>2013-06-23T13:10:40Z</time>
      </trkpt>
      <trkpt lat="43.14621" lon="2.41535">
        <ele>414.010376</ele>
        <time>2013-06-23T13:10:41Z</time>
      </trkpt>
      <trkpt lat="43.14622" lon="2.41528">
        <ele>413.719757</ele>
        <time>2013-06-23T13:10:42Z</time>
      </trkpt>
      <trkpt lat="43.14624" lon="2.41521">
        <ele>413.44458</ele>
        <time>2013-06-23T13:10:43Z</time>
      </trkpt>
      <trkpt lat="43.14626" lon="2.41514">
        <ele>413.187469</ele>
        <time>2013-06-23T13:10:44Z</time>
      </trkpt>
      <trkpt lat="43.14627" lon="2.41506">
        <ele>412.95343</ele>
        <time>2013-06-23T13:10:45Z</time>
      </trkpt>
      <trkpt lat="43.14628" lon="2.41499">
        <ele>412.764343</ele>
        <time>2013-06-23T13:10:46Z</time>
      </trkpt>
      <trkpt lat="43.1463" lon="2.41492">
        <ele>412.68689</ele>
        <time>2013-06-23T13:10:47Z</time>
      </trkpt>
      <trkpt lat="43.14631" lon="2.41486">
        <ele>412.630035</ele>
        <time>2013-06-23T13:10:48Z</time>
      </trkpt>
      <trkpt lat="43.14632" lon="2.41479">
        <ele>412.55603</ele>
        <time>2013-06-23T13:10:49Z</time>
      </trkpt>
      <trkpt lat="43.14633" lon="2.41473">
        <ele>412.487122</ele>
        <time>2013-06-23T13:10:50Z</time>
      </trkpt>
      <trkpt lat="43.14634" lon="2.41466">
        <ele>412.422302</ele>
        <time>2013-06-23T13:10:51Z</time>
      </trkpt>
      <trkpt lat="43.14636" lon="2.4146">
        <ele>412.367157</ele>
        <time>2013-06-23T13:10:52Z</time>
      </trkpt>
      <trkpt lat="43.14637" lon="2.41453">
        <ele>412.310425</ele>
        <time>2013-06-23T13:10:53Z</time>
      </trkpt>
      <trkpt lat="43.14638" lon="2.41447">
        <ele>412.25705</ele>
        <time>2013-06-23T13:10:54Z</time>
      </trkpt>
      <trkpt lat="43.14639" lon="2.4144">
        <ele>412.214874</ele>
        <time>2013-06-23T13:10:55Z</time>
      </trkpt>
      <trkpt lat="43.14641" lon="2.41433">
        <ele>412.178619</ele>
        <time>2013-06-23T13:10:56Z</time>
      </trkpt>
      <trkpt lat="43.14642" lon="2.41427">
        <ele>412.159637</ele>
        <time>2013-06-23T13:10:57Z</time>
      </trkpt>
      <trkpt lat="43.14642" lon="2.4142">
        <ele>412.146454</ele>
        <time>2013-06-23T13:10:58Z</time>
      </trkpt>
      <trkpt lat="43.14643" lon="2.41414">
        <ele>412.156555</ele>
        <time>2013-06-23T13:10:59Z</time>
      </trkpt>
      <trkpt lat="43.14644" lon="2.41407">
        <ele>412.207764</ele>
        <time>2013-06-23T13:11:00Z</time>
      </trkpt>
      <trkpt lat="43.14645" lon="2.414">
        <ele>412.268402</ele>
        <time>2013-06-23T13:11:01Z</time>
      </trkpt>
      <trkpt lat="43.14646" lon="2.41393">
        <ele>412.341553</ele>
        <time>2013-06-23T13:11:02Z</time>
      </trkpt>
      <trkpt lat="43.14647" lon="2.41387">
        <ele>412.416016</ele>
        <time>2013-06-23T13:11:03Z</time>
      </trkpt>
      <trkpt lat="43.14648" lon="2.4138">
        <ele>412.487335</ele>
        <time>2013-06-23T13:11:04Z</time>
      </trkpt>
      <trkpt lat="43.14649" lon="2.41368">
        <ele>412.639801</ele>
        <time>2013-06-23T13:11:06Z</time>
      </trkpt>
      <trkpt lat="43.1465" lon="2.41362">
        <ele>412.729492</ele>
        <time>2013-06-23T13:11:07Z</time>
      </trkpt>
      <trkpt lat="43.1465" lon="2.41356">
        <ele>412.825104</ele>
        <time>2013-06-23T13:11:08Z</time>
      </trkpt>
      <trkpt lat="43.14651" lon="2.41349">
        <ele>412.927002</ele>
        <time>2013-06-23T13:11:09Z</time>
      </trkpt>
      <trkpt lat="43.14651" lon="2.41342">
        <ele>413.043518</ele>
        <time>2013-06-23T13:11:10Z</time>
      </trkpt>
      <trkpt lat="43.14651" lon="2.41334">
        <ele>413.170624</ele>
        <time>2013-06-23T13:11:11Z</time>
      </trkpt>
      <trkpt lat="43.14651" lon="2.41327">
        <ele>413.404816</ele>
        <time>2013-06-23T13:11:12Z</time>
      </trkpt>
      <trkpt lat="43.14651" lon="2.41319">
        <ele>413.654755</ele>
        <time>2013-06-23T13:11:13Z</time>
      </trkpt>
      <trkpt lat="43.14651" lon="2.41312">
        <ele>413.91156</ele>
        <time>2013-06-23T13:11:14Z</time>
      </trkpt>
      <trkpt lat="43.14651" lon="2.41303">
        <ele>414.181213</ele>
        <time>2013-06-23T13:11:15Z</time>
      </trkpt>
      <trkpt lat="43.14651" lon="2.41295">
        <ele>414.43573</ele>
        <time>2013-06-23T13:11:16Z</time>
      </trkpt>
      <trkpt lat="43.14653" lon="2.41287">
        <ele>414.668579</ele>
        <time>2013-06-23T13:11:17Z</time>
      </trkpt>
      <trkpt lat="43.14654" lon="2.41279">
        <ele>414.851868</ele>
        <time>2013-06-23T13:11:18Z</time>
      </trkpt>
      <trkpt lat="43.14655" lon="2.41273">
        <ele>415.002808</ele>
        <time>2013-06-23T13:11:19Z</time>
      </trkpt>
      <trkpt lat="43.14656" lon="2.41266">
        <ele>415.146698</ele>
        <time>2013-06-23T13:11:20Z</time>
      </trkpt>
      <trkpt lat="43.14657" lon="2.4126">
        <ele>415.282196</ele>
        <time>2013-06-23T13:11:21Z</time>
      </trkpt>
      <trkpt lat="43.14658" lon="2.41254">
        <ele>415.404999</ele>
        <time>2013-06-23T13:11:22Z</time>
      </trkpt>
      <trkpt lat="43.1466" lon="2.41243">
        <ele>416.116852</ele>
        <time>2013-06-23T13:11:24Z</time>
      </trkpt>
      <trkpt lat="43.14661" lon="2.41232">
        <ele>417.108704</ele>
        <time>2013-06-23T13:11:26Z</time>
      </trkpt>
      <trkpt lat="43.14662" lon="2.41222">
        <ele>418.056702</ele>
        <time>2013-06-23T13:11:28Z</time>
      </trkpt>
      <trkpt lat="43.14663" lon="2.41214">
        <ele>418.788177</ele>
        <time>2013-06-23T13:11:30Z</time>
      </trkpt>
      <trkpt lat="43.14663" lon="2.41208">
        <ele>419.408752</ele>
        <time>2013-06-23T13:11:32Z</time>
      </trkpt>
      <trkpt lat="43.14662" lon="2.41199">
        <ele>420.360077</ele>
        <time>2013-06-23T13:11:35Z</time>
      </trkpt>
      <trkpt lat="43.14659" lon="2.41193">
        <ele>421.311401</ele>
        <time>2013-06-23T13:11:38Z</time>
      </trkpt>
      <trkpt lat="43.14654" lon="2.41188">
        <ele>422.324249</ele>
        <time>2013-06-23T13:11:41Z</time>
      </trkpt>
      <trkpt lat="43.14649" lon="2.41186">
        <ele>423.13681</ele>
        <time>2013-06-23T13:11:44Z</time>
      </trkpt>
      <trkpt lat="43.14643" lon="2.41186">
        <ele>423.81955</ele>
        <time>2013-06-23T13:11:48Z</time>
      </trkpt>
      <trkpt lat="43.14638" lon="2.41187">
        <ele>424.344299</ele>
        <time>2013-06-23T13:11:51Z</time>
      </trkpt>
      <trkpt lat="43.14632" lon="2.41188">
        <ele>424.863007</ele>
        <time>2013-06-23T13:11:54Z</time>
      </trkpt>
      <trkpt lat="43.14627" lon="2.41189">
        <ele>425.286072</ele>
        <time>2013-06-23T13:11:57Z</time>
      </trkpt>
      <trkpt lat="43.14621" lon="2.41191">
        <ele>425.666168</ele>
        <time>2013-06-23T13:12:01Z</time>
      </trkpt>
      <trkpt lat="43.14617" lon="2.41194">
        <ele>425.826508</ele>
        <time>2013-06-23T13:12:05Z</time>
      </trkpt>
      <trkpt lat="43.14612" lon="2.41195">
        <ele>426.087555</ele>
        <time>2013-06-23T13:12:10Z</time>
      </trkpt>
      <trkpt lat="43.14607" lon="2.41195">
        <ele>426.62323</ele>
        <time>2013-06-23T13:12:14Z</time>
      </trkpt>
      <trkpt lat="43.14602" lon="2.41194">
        <ele>427.427765</ele>
        <time>2013-06-23T13:12:18Z</time>
      </trkpt>
      <trkpt lat="43.14598" lon="2.4119">
        <ele>428.507233</ele>
        <time>2013-06-23T13:12:23Z</time>
      </trkpt>
      <trkpt lat="43.14595" lon="2.41184">
        <ele>429.738403</ele>
        <time>2013-06-23T13:12:28Z</time>
      </trkpt>
      <trkpt lat="43.14594" lon="2.41176">
        <ele>431.170776</ele>
        <time>2013-06-23T13:12:42Z</time>
      </trkpt>
      <trkpt lat="43.14597" lon="2.4117">
        <ele>431.763397</ele>
        <time>2013-06-23T13:12:48Z</time>
      </trkpt>
      <trkpt lat="43.14599" lon="2.41163">
        <ele>432.367798</ele>
        <time>2013-06-23T13:12:53Z</time>
      </trkpt>
      <trkpt lat="43.14602" lon="2.41156">
        <ele>432.797058</ele>
        <time>2013-06-23T13:12:58Z</time>
      </trkpt>
      <trkpt lat="43.14603" lon="2.4115">
        <ele>433.238892</ele>
        <time>2013-06-23T13:13:01Z</time>
      </trkpt>
      <trkpt lat="43.14604" lon="2.41143">
        <ele>433.804871</ele>
        <time>2013-06-23T13:13:06Z</time>
      </trkpt>
      <trkpt lat="43.14607" lon="2.41138">
        <ele>433.940521</ele>
        <time>2013-06-23T13:13:13Z</time>
      </trkpt>
      <trkpt lat="43.1461" lon="2.41133">
        <ele>434.144775</ele>
        <time>2013-06-23T13:13:18Z</time>
      </trkpt>
      <trkpt lat="43.14613" lon="2.41127">
        <ele>434.22644</ele>
        <time>2013-06-23T13:13:22Z</time>
      </trkpt>
      <trkpt lat="43.14616" lon="2.41122">
        <ele>434.49469</ele>
        <time>2013-06-23T13:13:26Z</time>
      </trkpt>
      <trkpt lat="43.14619" lon="2.41114">
        <ele>434.829102</ele>
        <time>2013-06-23T13:13:31Z</time>
      </trkpt>
      <trkpt lat="43.14621" lon="2.41108">
        <ele>435.194794</ele>
        <time>2013-06-23T13:13:36Z</time>
      </trkpt>
      <trkpt lat="43.14622" lon="2.41101">
        <ele>435.665863</ele>
        <time>2013-06-23T13:13:40Z</time>
      </trkpt>
      <trkpt lat="43.14624" lon="2.41093">
        <ele>436.269104</ele>
        <time>2013-06-23T13:13:46Z</time>
      </trkpt>
      <trkpt lat="43.14624" lon="2.41086">
        <ele>436.868835</ele>
        <time>2013-06-23T13:13:53Z</time>
      </trkpt>
      <trkpt lat="43.14625" lon="2.4108">
        <ele>436.995605</ele>
        <time>2013-06-23T13:13:56Z</time>
      </trkpt>
      <trkpt lat="43.14627" lon="2.41071">
        <ele>436.621552</ele>
        <time>2013-06-23T13:14:00Z</time>
      </trkpt>
      <trkpt lat="43.14629" lon="2.41062">
        <ele>436.299072</ele>
        <time>2013-06-23T13:14:03Z</time>
      </trkpt>
      <trkpt lat="43.14631" lon="2.41054">
        <ele>436.010193</ele>
        <time>2013-06-23T13:14:06Z</time>
      </trkpt>
      <trkpt lat="43.14632" lon="2.41046">
        <ele>435.875183</ele>
        <time>2013-06-23T13:14:08Z</time>
      </trkpt>
      <trkpt lat="43.14634" lon="2.41035">
        <ele>435.820831</ele>
        <time>2013-06-23T13:14:10Z</time>
      </trkpt>
      <trkpt lat="43.14635" lon="2.41023">
        <ele>435.823914</ele>
        <time>2013-06-23T13:14:12Z</time>
      </trkpt>
      <trkpt lat="43.14636" lon="2.41016">
        <ele>435.852417</ele>
        <time>2013-06-23T13:14:13Z</time>
      </trkpt>
      <trkpt lat="43.14637" lon="2.41009">
        <ele>435.899628</ele>
        <time>2013-06-23T13:14:14Z</time>
      </trkpt>
      <trkpt lat="43.14638" lon="2.41002">
        <ele>435.968506</ele>
        <time>2013-06-23T13:14:15Z</time>
      </trkpt>
      <trkpt lat="43.14639" lon="2.40996">
        <ele>435.563538</ele>
        <time>2013-06-23T13:14:16Z</time>
      </trkpt>
      <trkpt lat="43.1464" lon="2.4099">
        <ele>434.944061</ele>
        <time>2013-06-23T13:14:17Z</time>
      </trkpt>
      <trkpt lat="43.14642" lon="2.40984">
        <ele>434.306396</ele>
        <time>2013-06-23T13:14:18Z</time>
      </trkpt>
      <trkpt lat="43.14643" lon="2.40977">
        <ele>433.674713</ele>
        <time>2013-06-23T13:14:19Z</time>
      </trkpt>
      <trkpt lat="43.14645" lon="2.4097">
        <ele>433.073883</ele>
        <time>2013-06-23T13:14:20Z</time>
      </trkpt>
      <trkpt lat="43.14647" lon="2.40964">
        <ele>432.559662</ele>
        <time>2013-06-23T13:14:21Z</time>
      </trkpt>
      <trkpt lat="43.14648" lon="2.40957">
        <ele>432.082367</ele>
        <time>2013-06-23T13:14:22Z</time>
      </trkpt>
      <trkpt lat="43.1465" lon="2.40951">
        <ele>431.651581</ele>
        <time>2013-06-23T13:14:23Z</time>
      </trkpt>
      <trkpt lat="43.14652" lon="2.40945">
        <ele>431.261719</ele>
        <time>2013-06-23T13:14:24Z</time>
      </trkpt>
      <trkpt lat="43.14653" lon="2.40939">
        <ele>430.901184</ele>
        <time>2013-06-23T13:14:25Z</time>
      </trkpt>
      <trkpt lat="43.14655" lon="2.40933">
        <ele>430.562866</ele>
        <time>2013-06-23T13:14:26Z</time>
      </trkpt>
      <trkpt lat="43.14657" lon="2.40922">
        <ele>429.953979</ele>
        <time>2013-06-23T13:14:28Z</time>
      </trkpt>
      <trkpt lat="43.14658" lon="2.40912">
        <ele>429.338654</ele>
        <time>2013-06-23T13:14:30Z</time>
      </trkpt>
      <trkpt lat="43.14659" lon="2.409">
        <ele>428.479797</ele>
        <time>2013-06-23T13:14:32Z</time>
      </trkpt>
      <trkpt lat="43.14659" lon="2.40893">
        <ele>427.985565</ele>
        <time>2013-06-23T13:14:33Z</time>
      </trkpt>
      <trkpt lat="43.1466" lon="2.40882">
        <ele>427.131348</ele>
        <time>2013-06-23T13:14:35Z</time>
      </trkpt>
      <trkpt lat="43.14661" lon="2.40872">
        <ele>426.417297</ele>
        <time>2013-06-23T13:14:37Z</time>
      </trkpt>
      <trkpt lat="43.1466" lon="2.40863">
        <ele>425.65332</ele>
        <time>2013-06-23T13:14:40Z</time>
      </trkpt>
      <trkpt lat="43.14661" lon="2.40857">
        <ele>425.164307</ele>
        <time>2013-06-23T13:14:42Z</time>
      </trkpt>
      <trkpt lat="43.14662" lon="2.40848">
        <ele>424.551025</ele>
        <time>2013-06-23T13:14:45Z</time>
      </trkpt>
      <trkpt lat="43.14664" lon="2.40839">
        <ele>424.177277</ele>
        <time>2013-06-23T13:14:47Z</time>
      </trkpt>
      <trkpt lat="43.14666" lon="2.40833">
        <ele>423.938507</ele>
        <time>2013-06-23T13:14:49Z</time>
      </trkpt>
      <trkpt lat="43.14668" lon="2.40826">
        <ele>423.598541</ele>
        <time>2013-06-23T13:14:51Z</time>
      </trkpt>
      <trkpt lat="43.14668" lon="2.40818">
        <ele>423.268799</ele>
        <time>2013-06-23T13:14:53Z</time>
      </trkpt>
      <trkpt lat="43.14669" lon="2.40811">
        <ele>422.951691</ele>
        <time>2013-06-23T13:14:55Z</time>
      </trkpt>
      <trkpt lat="43.14669" lon="2.40803">
        <ele>422.558624</ele>
        <time>2013-06-23T13:14:57Z</time>
      </trkpt>
      <trkpt lat="43.1467" lon="2.40796">
        <ele>422.215271</ele>
        <time>2013-06-23T13:14:59Z</time>
      </trkpt>
      <trkpt lat="43.14673" lon="2.40788">
        <ele>421.514221</ele>
        <time>2013-06-23T13:15:02Z</time>
      </trkpt>
      <trkpt lat="43.14676" lon="2.4078">
        <ele>420.873444</ele>
        <time>2013-06-23T13:15:05Z</time>
      </trkpt>
      <trkpt lat="43.14678" lon="2.40772">
        <ele>420.345703</ele>
        <time>2013-06-23T13:15:08Z</time>
      </trkpt>
      <trkpt lat="43.14678" lon="2.40765">
        <ele>419.993011</ele>
        <time>2013-06-23T13:15:12Z</time>
      </trkpt>
      <trkpt lat="43.14679" lon="2.40758">
        <ele>419.647797</ele>
        <time>2013-06-23T13:15:15Z</time>
      </trkpt>
      <trkpt lat="43.14681" lon="2.40752">
        <ele>419.232941</ele>
        <time>2013-06-23T13:15:18Z</time>
      </trkpt>
      <trkpt lat="43.14683" lon="2.40746">
        <ele>418.714081</ele>
        <time>2013-06-23T13:15:21Z</time>
      </trkpt>
      <trkpt lat="43.14685" lon="2.4074">
        <ele>418.184753</ele>
        <time>2013-06-23T13:15:24Z</time>
      </trkpt>
      <trkpt lat="43.14686" lon="2.40732">
        <ele>417.686859</ele>
        <time>2013-06-23T13:15:27Z</time>
      </trkpt>
      <trkpt lat="43.14688" lon="2.40723">
        <ele>417.160461</ele>
        <time>2013-06-23T13:15:30Z</time>
      </trkpt>
      <trkpt lat="43.14689" lon="2.40716">
        <ele>416.752991</ele>
        <time>2013-06-23T13:15:32Z</time>
      </trkpt>
      <trkpt lat="43.1469" lon="2.40709">
        <ele>416.340302</ele>
        <time>2013-06-23T13:15:34Z</time>
      </trkpt>
      <trkpt lat="43.14692" lon="2.407">
        <ele>415.717224</ele>
        <time>2013-06-23T13:15:36Z</time>
      </trkpt>
      <trkpt lat="43.14693" lon="2.40692">
        <ele>415.268127</ele>
        <time>2013-06-23T13:15:38Z</time>
      </trkpt>
      <trkpt lat="43.14693" lon="2.40685">
        <ele>414.874176</ele>
        <time>2013-06-23T13:15:40Z</time>
      </trkpt>
      <trkpt lat="43.14694" lon="2.40677">
        <ele>414.418976</ele>
        <time>2013-06-23T13:15:42Z</time>
      </trkpt>
      <trkpt lat="43.14696" lon="2.4067">
        <ele>413.85379</ele>
        <time>2013-06-23T13:15:44Z</time>
      </trkpt>
      <trkpt lat="43.14698" lon="2.40662">
        <ele>413.213776</ele>
        <time>2013-06-23T13:15:46Z</time>
      </trkpt>
      <trkpt lat="43.14699" lon="2.40655">
        <ele>412.652771</ele>
        <time>2013-06-23T13:15:48Z</time>
      </trkpt>
      <trkpt lat="43.14699" lon="2.40647">
        <ele>412.157562</ele>
        <time>2013-06-23T13:15:50Z</time>
      </trkpt>
      <trkpt lat="43.14699" lon="2.40639">
        <ele>411.648285</ele>
        <time>2013-06-23T13:15:52Z</time>
      </trkpt>
      <trkpt lat="43.14699" lon="2.40632">
        <ele>411.223755</ele>
        <time>2013-06-23T13:15:54Z</time>
      </trkpt>
      <trkpt lat="43.14699" lon="2.40623">
        <ele>410.626617</ele>
        <time>2013-06-23T13:15:56Z</time>
      </trkpt>
      <trkpt lat="43.14701" lon="2.40612">
        <ele>409.723236</ele>
        <time>2013-06-23T13:15:58Z</time>
      </trkpt>
      <trkpt lat="43.14702" lon="2.40601">
        <ele>408.868378</ele>
        <time>2013-06-23T13:16:00Z</time>
      </trkpt>
      <trkpt lat="43.14703" lon="2.40593">
        <ele>408.169647</ele>
        <time>2013-06-23T13:16:02Z</time>
      </trkpt>
      <trkpt lat="43.14704" lon="2.40586">
        <ele>407.659393</ele>
        <time>2013-06-23T13:16:04Z</time>
      </trkpt>
      <trkpt lat="43.14705" lon="2.40578">
        <ele>407.190002</ele>
        <time>2013-06-23T13:16:06Z</time>
      </trkpt>
      <trkpt lat="43.14707" lon="2.40571">
        <ele>406.619537</ele>
        <time>2013-06-23T13:16:08Z</time>
      </trkpt>
      <trkpt lat="43.14708" lon="2.40563">
        <ele>406.149872</ele>
        <time>2013-06-23T13:16:10Z</time>
      </trkpt>
      <trkpt lat="43.14709" lon="2.40554">
        <ele>405.668732</ele>
        <time>2013-06-23T13:16:12Z</time>
      </trkpt>
      <trkpt lat="43.14711" lon="2.40544">
        <ele>405.159851</ele>
        <time>2013-06-23T13:16:14Z</time>
      </trkpt>
      <trkpt lat="43.14712" lon="2.40536">
        <ele>404.741943</ele>
        <time>2013-06-23T13:16:16Z</time>
      </trkpt>
      <trkpt lat="43.14714" lon="2.40529">
        <ele>404.351044</ele>
        <time>2013-06-23T13:16:19Z</time>
      </trkpt>
      <trkpt lat="43.14715" lon="2.40519">
        <ele>403.957703</ele>
        <time>2013-06-23T13:16:22Z</time>
      </trkpt>
      <trkpt lat="43.14716" lon="2.40511">
        <ele>403.578949</ele>
        <time>2013-06-23T13:16:24Z</time>
      </trkpt>
      <trkpt lat="43.14718" lon="2.40503">
        <ele>403.261108</ele>
        <time>2013-06-23T13:16:26Z</time>
      </trkpt>
      <trkpt lat="43.14718" lon="2.40494">
        <ele>403.041382</ele>
        <time>2013-06-23T13:16:28Z</time>
      </trkpt>
      <trkpt lat="43.1472" lon="2.40485">
        <ele>402.856049</ele>
        <time>2013-06-23T13:16:30Z</time>
      </trkpt>
      <trkpt lat="43.14722" lon="2.40476">
        <ele>402.716736</ele>
        <time>2013-06-23T13:16:32Z</time>
      </trkpt>
      <trkpt lat="43.14723" lon="2.40468">
        <ele>402.621674</ele>
        <time>2013-06-23T13:16:34Z</time>
      </trkpt>
      <trkpt lat="43.14725" lon="2.40461">
        <ele>402.572266</ele>
        <time>2013-06-23T13:16:36Z</time>
      </trkpt>
      <trkpt lat="43.14727" lon="2.40455">
        <ele>402.559906</ele>
        <time>2013-06-23T13:16:38Z</time>
      </trkpt>
      <trkpt lat="43.14729" lon="2.40448">
        <ele>402.573486</ele>
        <time>2013-06-23T13:16:40Z</time>
      </trkpt>
      <trkpt lat="43.14731" lon="2.40439">
        <ele>402.631592</ele>
        <time>2013-06-23T13:16:43Z</time>
      </trkpt>
      <trkpt lat="43.14733" lon="2.40432">
        <ele>402.763275</ele>
        <time>2013-06-23T13:16:46Z</time>
      </trkpt>
      <trkpt lat="43.14735" lon="2.40425">
        <ele>402.851196</ele>
        <time>2013-06-23T13:16:49Z</time>
      </trkpt>
      <trkpt lat="43.14736" lon="2.40418">
        <ele>402.998779</ele>
        <time>2013-06-23T13:16:51Z</time>
      </trkpt>
      <trkpt lat="43.14739" lon="2.4041">
        <ele>403.51239</ele>
        <time>2013-06-23T13:16:54Z</time>
      </trkpt>
      <trkpt lat="43.14741" lon="2.40405">
        <ele>404.010254</ele>
        <time>2013-06-23T13:16:57Z</time>
      </trkpt>
      <trkpt lat="43.14743" lon="2.40397">
        <ele>404.636414</ele>
        <time>2013-06-23T13:17:00Z</time>
      </trkpt>
      <trkpt lat="43.14745" lon="2.40389">
        <ele>405.318054</ele>
        <time>2013-06-23T13:17:03Z</time>
      </trkpt>
      <trkpt lat="43.14747" lon="2.40382">
        <ele>406.112274</ele>
        <time>2013-06-23T13:17:06Z</time>
      </trkpt>
      <trkpt lat="43.14749" lon="2.40376">
        <ele>406.822083</ele>
        <time>2013-06-23T13:17:10Z</time>
      </trkpt>
      <trkpt lat="43.14752" lon="2.40368">
        <ele>406.687256</ele>
        <time>2013-06-23T13:17:28Z</time>
      </trkpt>
      <trkpt lat="43.14756" lon="2.4036">
        <ele>405.973145</ele>
        <time>2013-06-23T13:17:31Z</time>
      </trkpt>
      <trkpt lat="43.14758" lon="2.40353">
        <ele>405.695221</ele>
        <time>2013-06-23T13:17:33Z</time>
      </trkpt>
      <trkpt lat="43.14761" lon="2.40346">
        <ele>405.383667</ele>
        <time>2013-06-23T13:17:36Z</time>
      </trkpt>
      <trkpt lat="43.14763" lon="2.40339">
        <ele>405.282013</ele>
        <time>2013-06-23T13:17:38Z</time>
      </trkpt>
      <trkpt lat="43.14765" lon="2.40332">
        <ele>405.036987</ele>
        <time>2013-06-23T13:17:40Z</time>
      </trkpt>
      <trkpt lat="43.14767" lon="2.40323">
        <ele>404.000366</ele>
        <time>2013-06-23T13:17:42Z</time>
      </trkpt>
      <trkpt lat="43.1477" lon="2.40312">
        <ele>403.066772</ele>
        <time>2013-06-23T13:17:44Z</time>
      </trkpt>
      <trkpt lat="43.14772" lon="2.40306">
        <ele>402.614532</ele>
        <time>2013-06-23T13:17:45Z</time>
      </trkpt>
      <trkpt lat="43.14773" lon="2.403">
        <ele>402.221344</ele>
        <time>2013-06-23T13:17:46Z</time>
      </trkpt>
      <trkpt lat="43.14775" lon="2.40294">
        <ele>401.846985</ele>
        <time>2013-06-23T13:17:47Z</time>
      </trkpt>
      <trkpt lat="43.14777" lon="2.40288">
        <ele>401.475616</ele>
        <time>2013-06-23T13:17:48Z</time>
      </trkpt>
      <trkpt lat="43.14779" lon="2.40282">
        <ele>401.193207</ele>
        <time>2013-06-23T13:17:49Z</time>
      </trkpt>
      <trkpt lat="43.14784" lon="2.40273">
        <ele>400.698151</ele>
        <time>2013-06-23T13:17:51Z</time>
      </trkpt>
      <trkpt lat="43.14788" lon="2.40263">
        <ele>400.703583</ele>
        <time>2013-06-23T13:17:53Z</time>
      </trkpt>
      <trkpt lat="43.1479" lon="2.40251">
        <ele>401.012329</ele>
        <time>2013-06-23T13:17:55Z</time>
      </trkpt>
      <trkpt lat="43.14792" lon="2.40246">
        <ele>400.800171</ele>
        <time>2013-06-23T13:17:56Z</time>
      </trkpt>
      <trkpt lat="43.14793" lon="2.4024">
        <ele>400.49585</ele>
        <time>2013-06-23T13:17:57Z</time>
      </trkpt>
      <trkpt lat="43.14794" lon="2.40234">
        <ele>400.217682</ele>
        <time>2013-06-23T13:17:58Z</time>
      </trkpt>
      <trkpt lat="43.14795" lon="2.40228">
        <ele>399.968506</ele>
        <time>2013-06-23T13:17:59Z</time>
      </trkpt>
      <trkpt lat="43.14798" lon="2.40216">
        <ele>399.588348</ele>
        <time>2013-06-23T13:18:01Z</time>
      </trkpt>
      <trkpt lat="43.148" lon="2.40207">
        <ele>399.356842</ele>
        <time>2013-06-23T13:18:03Z</time>
      </trkpt>
      <trkpt lat="43.14801" lon="2.40197">
        <ele>399.181427</ele>
        <time>2013-06-23T13:18:05Z</time>
      </trkpt>
      <trkpt lat="43.14802" lon="2.40187">
        <ele>399.029907</ele>
        <time>2013-06-23T13:18:07Z</time>
      </trkpt>
      <trkpt lat="43.14805" lon="2.4018">
        <ele>399.103973</ele>
        <time>2013-06-23T13:18:09Z</time>
      </trkpt>
      <trkpt lat="43.14809" lon="2.40174">
        <ele>399.376648</ele>
        <time>2013-06-23T13:18:11Z</time>
      </trkpt>
      <trkpt lat="43.14812" lon="2.40167">
        <ele>399.697235</ele>
        <time>2013-06-23T13:18:13Z</time>
      </trkpt>
      <trkpt lat="43.14814" lon="2.40157">
        <ele>399.351837</ele>
        <time>2013-06-23T13:18:15Z</time>
      </trkpt>
      <trkpt lat="43.14816" lon="2.40149">
        <ele>399.203613</ele>
        <time>2013-06-23T13:18:17Z</time>
      </trkpt>
      <trkpt lat="43.14819" lon="2.40141">
        <ele>399.109802</ele>
        <time>2013-06-23T13:18:19Z</time>
      </trkpt>
      <trkpt lat="43.1482" lon="2.40133">
        <ele>398.907898</ele>
        <time>2013-06-23T13:18:21Z</time>
      </trkpt>
      <trkpt lat="43.14822" lon="2.40124">
        <ele>398.759796</ele>
        <time>2013-06-23T13:18:23Z</time>
      </trkpt>
      <trkpt lat="43.14824" lon="2.40111">
        <ele>398.447113</ele>
        <time>2013-06-23T13:18:25Z</time>
      </trkpt>
      <trkpt lat="43.14824" lon="2.40104">
        <ele>398.16214</ele>
        <time>2013-06-23T13:18:26Z</time>
      </trkpt>
      <trkpt lat="43.14825" lon="2.40096">
        <ele>397.9198</ele>
        <time>2013-06-23T13:18:27Z</time>
      </trkpt>
      <trkpt lat="43.14826" lon="2.40089">
        <ele>397.805908</ele>
        <time>2013-06-23T13:18:28Z</time>
      </trkpt>
      <trkpt lat="43.14827" lon="2.40083">
        <ele>397.814819</ele>
        <time>2013-06-23T13:18:29Z</time>
      </trkpt>
      <trkpt lat="43.14829" lon="2.40071">
        <ele>397.95697</ele>
        <time>2013-06-23T13:18:31Z</time>
      </trkpt>
      <trkpt lat="43.14831" lon="2.40065">
        <ele>398.267181</ele>
        <time>2013-06-23T13:18:32Z</time>
      </trkpt>
      <trkpt lat="43.14837" lon="2.4006">
        <ele>397.673737</ele>
        <time>2013-06-23T13:18:34Z</time>
      </trkpt>
      <trkpt lat="43.14844" lon="2.40054">
        <ele>395.888672</ele>
        <time>2013-06-23T13:18:36Z</time>
      </trkpt>
      <trkpt lat="43.1485" lon="2.40046">
        <ele>394.420135</ele>
        <time>2013-06-23T13:18:38Z</time>
      </trkpt>
      <trkpt lat="43.14855" lon="2.40038">
        <ele>393.256012</ele>
        <time>2013-06-23T13:18:40Z</time>
      </trkpt>
      <trkpt lat="43.14859" lon="2.4003">
        <ele>392.400452</ele>
        <time>2013-06-23T13:18:42Z</time>
      </trkpt>
      <trkpt lat="43.14864" lon="2.40022">
        <ele>391.373718</ele>
        <time>2013-06-23T13:18:44Z</time>
      </trkpt>
      <trkpt lat="43.14867" lon="2.40015">
        <ele>390.752533</ele>
        <time>2013-06-23T13:18:46Z</time>
      </trkpt>
      <trkpt lat="43.14869" lon="2.40006">
        <ele>390.518707</ele>
        <time>2013-06-23T13:18:49Z</time>
      </trkpt>
      <trkpt lat="43.1487" lon="2.39998">
        <ele>390.545166</ele>
        <time>2013-06-23T13:18:51Z</time>
      </trkpt>
      <trkpt lat="43.14871" lon="2.39989">
        <ele>390.712616</ele>
        <time>2013-06-23T13:18:53Z</time>
      </trkpt>
      <trkpt lat="43.14871" lon="2.3998">
        <ele>391.078094</ele>
        <time>2013-06-23T13:18:55Z</time>
      </trkpt>
      <trkpt lat="43.14871" lon="2.39968">
        <ele>391.492859</ele>
        <time>2013-06-23T13:18:57Z</time>
      </trkpt>
      <trkpt lat="43.14874" lon="2.3996">
        <ele>391.326843</ele>
        <time>2013-06-23T13:18:59Z</time>
      </trkpt>
      <trkpt lat="43.14877" lon="2.39954">
        <ele>391.075378</ele>
        <time>2013-06-23T13:19:01Z</time>
      </trkpt>
      <trkpt lat="43.1488" lon="2.39949">
        <ele>390.811096</ele>
        <time>2013-06-23T13:19:04Z</time>
      </trkpt>
      <trkpt lat="43.14884" lon="2.39945">
        <ele>390.464508</ele>
        <time>2013-06-23T13:19:16Z</time>
      </trkpt>
      <trkpt lat="43.14887" lon="2.39937">
        <ele>390.438904</ele>
        <time>2013-06-23T13:19:19Z</time>
      </trkpt>
      <trkpt lat="43.14889" lon="2.39931">
        <ele>390.578369</ele>
        <time>2013-06-23T13:19:21Z</time>
      </trkpt>
      <trkpt lat="43.1489" lon="2.39923">
        <ele>390.801849</ele>
        <time>2013-06-23T13:19:24Z</time>
      </trkpt>
      <trkpt lat="43.14891" lon="2.39917">
        <ele>391.113129</ele>
        <time>2013-06-23T13:19:26Z</time>
      </trkpt>
      <trkpt lat="43.14892" lon="2.39909">
        <ele>391.104004</ele>
        <time>2013-06-23T13:19:28Z</time>
      </trkpt>
      <trkpt lat="43.14892" lon="2.39903">
        <ele>391.11264</ele>
        <time>2013-06-23T13:19:30Z</time>
      </trkpt>
      <trkpt lat="43.14894" lon="2.39894">
        <ele>391.067352</ele>
        <time>2013-06-23T13:19:33Z</time>
      </trkpt>
      <trkpt lat="43.14896" lon="2.39888">
        <ele>390.982697</ele>
        <time>2013-06-23T13:19:35Z</time>
      </trkpt>
      <trkpt lat="43.14899" lon="2.39879">
        <ele>390.91275</ele>
        <time>2013-06-23T13:19:37Z</time>
      </trkpt>
      <trkpt lat="43.149" lon="2.39871">
        <ele>390.950226</ele>
        <time>2013-06-23T13:19:39Z</time>
      </trkpt>
      <trkpt lat="43.149" lon="2.39861">
        <ele>391.221588</ele>
        <time>2013-06-23T13:19:41Z</time>
      </trkpt>
      <trkpt lat="43.149" lon="2.3985">
        <ele>391.413727</ele>
        <time>2013-06-23T13:19:43Z</time>
      </trkpt>
      <trkpt lat="43.14902" lon="2.39841">
        <ele>391.537292</ele>
        <time>2013-06-23T13:19:45Z</time>
      </trkpt>
      <trkpt lat="43.14904" lon="2.39834">
        <ele>391.593811</ele>
        <time>2013-06-23T13:19:47Z</time>
      </trkpt>
      <trkpt lat="43.14906" lon="2.39828">
        <ele>391.620819</ele>
        <time>2013-06-23T13:19:49Z</time>
      </trkpt>
      <trkpt lat="43.14908" lon="2.39821">
        <ele>391.684906</ele>
        <time>2013-06-23T13:19:51Z</time>
      </trkpt>
      <trkpt lat="43.1491" lon="2.39812">
        <ele>391.780823</ele>
        <time>2013-06-23T13:19:53Z</time>
      </trkpt>
      <trkpt lat="43.14911" lon="2.39805">
        <ele>391.901703</ele>
        <time>2013-06-23T13:19:55Z</time>
      </trkpt>
      <trkpt lat="43.14912" lon="2.39797">
        <ele>392.015503</ele>
        <time>2013-06-23T13:19:58Z</time>
      </trkpt>
      <trkpt lat="43.14916" lon="2.39793">
        <ele>391.986023</ele>
        <time>2013-06-23T13:20:00Z</time>
      </trkpt>
      <trkpt lat="43.1492" lon="2.39788">
        <ele>390.9823</ele>
        <time>2013-06-23T13:20:02Z</time>
      </trkpt>
      <trkpt lat="43.14924" lon="2.39782">
        <ele>389.971985</ele>
        <time>2013-06-23T13:20:05Z</time>
      </trkpt>
      <trkpt lat="43.14927" lon="2.39775">
        <ele>389.254761</ele>
        <time>2013-06-23T13:20:08Z</time>
      </trkpt>
      <trkpt lat="43.14929" lon="2.39769">
        <ele>388.726593</ele>
        <time>2013-06-23T13:20:10Z</time>
      </trkpt>
      <trkpt lat="43.14932" lon="2.39764">
        <ele>387.892487</ele>
        <time>2013-06-23T13:20:12Z</time>
      </trkpt>
      <trkpt lat="43.14936" lon="2.39759">
        <ele>386.992981</ele>
        <time>2013-06-23T13:20:14Z</time>
      </trkpt>
      <trkpt lat="43.14941" lon="2.39753">
        <ele>385.735535</ele>
        <time>2013-06-23T13:20:16Z</time>
      </trkpt>
      <trkpt lat="43.14947" lon="2.39747">
        <ele>384.523254</ele>
        <time>2013-06-23T13:20:18Z</time>
      </trkpt>
      <trkpt lat="43.14949" lon="2.39738">
        <ele>384.957031</ele>
        <time>2013-06-23T13:20:20Z</time>
      </trkpt>
      <trkpt lat="43.14952" lon="2.39731">
        <ele>385.243469</ele>
        <time>2013-06-23T13:20:22Z</time>
      </trkpt>
      <trkpt lat="43.14952" lon="2.39724">
        <ele>386.050293</ele>
        <time>2013-06-23T13:20:28Z</time>
      </trkpt>
      <trkpt lat="43.14955" lon="2.39718">
        <ele>386.040894</ele>
        <time>2013-06-23T13:20:40Z</time>
      </trkpt>
      <trkpt lat="43.14957" lon="2.39711">
        <ele>386.402039</ele>
        <time>2013-06-23T13:20:42Z</time>
      </trkpt>
      <trkpt lat="43.14958" lon="2.39704">
        <ele>387.27179</ele>
        <time>2013-06-23T13:20:47Z</time>
      </trkpt>
      <trkpt lat="43.14962" lon="2.397">
        <ele>386.876709</ele>
        <time>2013-06-23T13:20:52Z</time>
      </trkpt>
      <trkpt lat="43.14966" lon="2.39694">
        <ele>386.482178</ele>
        <time>2013-06-23T13:20:54Z</time>
      </trkpt>
      <trkpt lat="43.14974" lon="2.3969">
        <ele>385.301025</ele>
        <time>2013-06-23T13:20:56Z</time>
      </trkpt>
      <trkpt lat="43.14978" lon="2.39689">
        <ele>384.367889</ele>
        <time>2013-06-23T13:20:59Z</time>
      </trkpt>
      <trkpt lat="43.14983" lon="2.39692">
        <ele>382.665466</ele>
        <time>2013-06-23T13:21:19Z</time>
      </trkpt>
      <trkpt lat="43.14988" lon="2.39695">
        <ele>380.899658</ele>
        <time>2013-06-23T13:21:21Z</time>
      </trkpt>
      <trkpt lat="43.14997" lon="2.39698">
        <ele>378.211517</ele>
        <time>2013-06-23T13:21:23Z</time>
      </trkpt>
      <trkpt lat="43.15003" lon="2.397">
        <ele>376.274597</ele>
        <time>2013-06-23T13:21:25Z</time>
      </trkpt>
      <trkpt lat="43.15009" lon="2.39701">
        <ele>374.986938</ele>
        <time>2013-06-23T13:21:27Z</time>
      </trkpt>
      <trkpt lat="43.15014" lon="2.397">
        <ele>374.142273</ele>
        <time>2013-06-23T13:21:29Z</time>
      </trkpt>
      <trkpt lat="43.1502" lon="2.39698">
        <ele>373.032349</ele>
        <time>2013-06-23T13:21:31Z</time>
      </trkpt>
      <trkpt lat="43.15027" lon="2.39698">
        <ele>371.712158</ele>
        <time>2013-06-23T13:21:33Z</time>
      </trkpt>
      <trkpt lat="43.15032" lon="2.39695">
        <ele>371.080261</ele>
        <time>2013-06-23T13:21:35Z</time>
      </trkpt>
      <trkpt lat="43.15038" lon="2.39692">
        <ele>370.198212</ele>
        <time>2013-06-23T13:21:37Z</time>
      </trkpt>
      <trkpt lat="43.15047" lon="2.39688">
        <ele>368.820007</ele>
        <time>2013-06-23T13:21:39Z</time>
      </trkpt>
      <trkpt lat="43.15053" lon="2.39684">
        <ele>367.882141</ele>
        <time>2013-06-23T13:21:41Z</time>
      </trkpt>
      <trkpt lat="43.15059" lon="2.39681">
        <ele>366.894165</ele>
        <time>2013-06-23T13:21:43Z</time>
      </trkpt>
      <trkpt lat="43.15066" lon="2.39679">
        <ele>365.740387</ele>
        <time>2013-06-23T13:21:45Z</time>
      </trkpt>
      <trkpt lat="43.15072" lon="2.39677">
        <ele>364.553558</ele>
        <time>2013-06-23T13:21:48Z</time>
      </trkpt>
      <trkpt lat="43.15079" lon="2.39674">
        <ele>363.204498</ele>
        <time>2013-06-23T13:21:51Z</time>
      </trkpt>
      <trkpt lat="43.15084" lon="2.39671">
        <ele>362.415131</ele>
        <time>2013-06-23T13:21:53Z</time>
      </trkpt>
      <trkpt lat="43.15089" lon="2.39668">
        <ele>362.126709</ele>
        <time>2013-06-23T13:21:55Z</time>
      </trkpt>
      <trkpt lat="43.15092" lon="2.39662">
        <ele>362.339722</ele>
        <time>2013-06-23T13:21:57Z</time>
      </trkpt>
      <trkpt lat="43.15096" lon="2.39655">
        <ele>362.454407</ele>
        <time>2013-06-23T13:21:59Z</time>
      </trkpt>
      <trkpt lat="43.15101" lon="2.39648">
        <ele>362.518066</ele>
        <time>2013-06-23T13:22:01Z</time>
      </trkpt>
      <trkpt lat="43.15106" lon="2.39644">
        <ele>362.062195</ele>
        <time>2013-06-23T13:22:03Z</time>
      </trkpt>
      <trkpt lat="43.15112" lon="2.39643">
        <ele>361.40387</ele>
        <time>2013-06-23T13:22:05Z</time>
      </trkpt>
      <trkpt lat="43.15117" lon="2.39642">
        <ele>360.686615</ele>
        <time>2013-06-23T13:22:07Z</time>
      </trkpt>
      <trkpt lat="43.15124" lon="2.39644">
        <ele>359.6427</ele>
        <time>2013-06-23T13:22:10Z</time>
      </trkpt>
      <trkpt lat="43.15126" lon="2.39636">
        <ele>359.833252</ele>
        <time>2013-06-23T13:22:14Z</time>
      </trkpt>
      <trkpt lat="43.15131" lon="2.3963">
        <ele>359.733398</ele>
        <time>2013-06-23T13:22:16Z</time>
      </trkpt>
      <trkpt lat="43.15136" lon="2.39628">
        <ele>359.085419</ele>
        <time>2013-06-23T13:22:18Z</time>
      </trkpt>
      <trkpt lat="43.1514" lon="2.39624">
        <ele>358.713867</ele>
        <time>2013-06-23T13:22:20Z</time>
      </trkpt>
      <trkpt lat="43.15148" lon="2.39618">
        <ele>357.976318</ele>
        <time>2013-06-23T13:22:22Z</time>
      </trkpt>
      <trkpt lat="43.15155" lon="2.39614">
        <ele>357.067627</ele>
        <time>2013-06-23T13:22:24Z</time>
      </trkpt>
      <trkpt lat="43.15162" lon="2.39613">
        <ele>356.007721</ele>
        <time>2013-06-23T13:22:26Z</time>
      </trkpt>
      <trkpt lat="43.15169" lon="2.39616">
        <ele>355.214478</ele>
        <time>2013-06-23T13:22:28Z</time>
      </trkpt>
      <trkpt lat="43.15176" lon="2.39618">
        <ele>355.671356</ele>
        <time>2013-06-23T13:22:30Z</time>
      </trkpt>
      <trkpt lat="43.15184" lon="2.3962">
        <ele>356.15155</ele>
        <time>2013-06-23T13:22:32Z</time>
      </trkpt>
      <trkpt lat="43.1519" lon="2.39625">
        <ele>356.450104</ele>
        <time>2013-06-23T13:22:34Z</time>
      </trkpt>
      <trkpt lat="43.15196" lon="2.39628">
        <ele>356.874817</ele>
        <time>2013-06-23T13:22:36Z</time>
      </trkpt>
      <trkpt lat="43.15202" lon="2.39631">
        <ele>357.296204</ele>
        <time>2013-06-23T13:22:38Z</time>
      </trkpt>
      <trkpt lat="43.15207" lon="2.39634">
        <ele>357.661224</ele>
        <time>2013-06-23T13:22:40Z</time>
      </trkpt>
      <trkpt lat="43.15213" lon="2.39636">
        <ele>358.133698</ele>
        <time>2013-06-23T13:22:43Z</time>
      </trkpt>
      <trkpt lat="43.15217" lon="2.39637">
        <ele>358.546814</ele>
        <time>2013-06-23T13:22:45Z</time>
      </trkpt>
      <trkpt lat="43.15222" lon="2.39638">
        <ele>359.000397</ele>
        <time>2013-06-23T13:22:47Z</time>
      </trkpt>
      <trkpt lat="43.15228" lon="2.39635">
        <ele>359.616028</ele>
        <time>2013-06-23T13:22:50Z</time>
      </trkpt>
      <trkpt lat="43.15232" lon="2.3963">
        <ele>359.962372</ele>
        <time>2013-06-23T13:22:55Z</time>
      </trkpt>
      <trkpt lat="43.15234" lon="2.39625">
        <ele>360.15683</ele>
        <time>2013-06-23T13:23:04Z</time>
      </trkpt>
      <trkpt lat="43.15235" lon="2.39617">
        <ele>360.280243</ele>
        <time>2013-06-23T13:23:11Z</time>
      </trkpt>
      <trkpt lat="43.15236" lon="2.39611">
        <ele>360.329529</ele>
        <time>2013-06-23T13:23:14Z</time>
      </trkpt>
      <trkpt lat="43.15238" lon="2.39604">
        <ele>360.44754</ele>
        <time>2013-06-23T13:23:19Z</time>
      </trkpt>
      <trkpt lat="43.15238" lon="2.39596">
        <ele>360.432831</ele>
        <time>2013-06-23T13:23:26Z</time>
      </trkpt>
      <trkpt lat="43.15238" lon="2.39589">
        <ele>360.441742</ele>
        <time>2013-06-23T13:23:31Z</time>
      </trkpt>
      <trkpt lat="43.1524" lon="2.39582">
        <ele>360.413605</ele>
        <time>2013-06-23T13:23:35Z</time>
      </trkpt>
      <trkpt lat="43.15243" lon="2.39576">
        <ele>359.93515</ele>
        <time>2013-06-23T13:23:39Z</time>
      </trkpt>
      <trkpt lat="43.15247" lon="2.39572">
        <ele>359.717194</ele>
        <time>2013-06-23T13:23:43Z</time>
      </trkpt>
      <trkpt lat="43.15251" lon="2.39567">
        <ele>359.497101</ele>
        <time>2013-06-23T13:23:47Z</time>
      </trkpt>
      <trkpt lat="43.15254" lon="2.39563">
        <ele>359.450439</ele>
        <time>2013-06-23T13:23:52Z</time>
      </trkpt>
      <trkpt lat="43.15258" lon="2.39559">
        <ele>359.440887</ele>
        <time>2013-06-23T13:23:56Z</time>
      </trkpt>
      <trkpt lat="43.15262" lon="2.39555">
        <ele>359.544128</ele>
        <time>2013-06-23T13:24:00Z</time>
      </trkpt>
      <trkpt lat="43.15267" lon="2.39554">
        <ele>359.987549</ele>
        <time>2013-06-23T13:24:04Z</time>
      </trkpt>
      <trkpt lat="43.15271" lon="2.39558">
        <ele>360.800507</ele>
        <time>2013-06-23T13:24:10Z</time>
      </trkpt>
      <trkpt lat="43.15277" lon="2.39555">
        <ele>361.088043</ele>
        <time>2013-06-23T13:24:15Z</time>
      </trkpt>
      <trkpt lat="43.15278" lon="2.39548">
        <ele>360.444397</ele>
        <time>2013-06-23T13:24:18Z</time>
      </trkpt>
      <trkpt lat="43.15279" lon="2.3954">
        <ele>359.562531</ele>
        <time>2013-06-23T13:24:23Z</time>
      </trkpt>
      <trkpt lat="43.15284" lon="2.39529">
        <ele>358.787018</ele>
        <time>2013-06-23T13:24:25Z</time>
      </trkpt>
      <trkpt lat="43.15287" lon="2.39524">
        <ele>358.514557</ele>
        <time>2013-06-23T13:24:26Z</time>
      </trkpt>
      <trkpt lat="43.15292" lon="2.39517">
        <ele>358.05191</ele>
        <time>2013-06-23T13:24:28Z</time>
      </trkpt>
      <trkpt lat="43.15296" lon="2.39512">
        <ele>357.745453</ele>
        <time>2013-06-23T13:24:30Z</time>
      </trkpt>
      <trkpt lat="43.15299" lon="2.39505">
        <ele>357.214264</ele>
        <time>2013-06-23T13:24:32Z</time>
      </trkpt>
      <trkpt lat="43.15301" lon="2.39498">
        <ele>356.265045</ele>
        <time>2013-06-23T13:24:34Z</time>
      </trkpt>
      <trkpt lat="43.15304" lon="2.39493">
        <ele>355.583466</ele>
        <time>2013-06-23T13:24:36Z</time>
      </trkpt>
      <trkpt lat="43.15307" lon="2.39489">
        <ele>355.113495</ele>
        <time>2013-06-23T13:24:38Z</time>
      </trkpt>
      <trkpt lat="43.15309" lon="2.39482">
        <ele>354.129608</ele>
        <time>2013-06-23T13:24:40Z</time>
      </trkpt>
      <trkpt lat="43.1531" lon="2.39476">
        <ele>353.112396</ele>
        <time>2013-06-23T13:24:42Z</time>
      </trkpt>
      <trkpt lat="43.15307" lon="2.3947">
        <ele>351.76236</ele>
        <time>2013-06-23T13:24:46Z</time>
      </trkpt>
      <trkpt lat="43.15305" lon="2.3946">
        <ele>349.827026</ele>
        <time>2013-06-23T13:24:49Z</time>
      </trkpt>
      <trkpt lat="43.15307" lon="2.39451">
        <ele>348.594727</ele>
        <time>2013-06-23T13:24:51Z</time>
      </trkpt>
      <trkpt lat="43.1531" lon="2.39445">
        <ele>347.637909</ele>
        <time>2013-06-23T13:24:52Z</time>
      </trkpt>
      <trkpt lat="43.15312" lon="2.39438">
        <ele>346.680603</ele>
        <time>2013-06-23T13:24:53Z</time>
      </trkpt>
      <trkpt lat="43.15314" lon="2.39431">
        <ele>345.576935</ele>
        <time>2013-06-23T13:24:54Z</time>
      </trkpt>
      <trkpt lat="43.15316" lon="2.39423">
        <ele>344.483734</ele>
        <time>2013-06-23T13:24:55Z</time>
      </trkpt>
      <trkpt lat="43.15317" lon="2.39417">
        <ele>343.491882</ele>
        <time>2013-06-23T13:24:56Z</time>
      </trkpt>
      <trkpt lat="43.15321" lon="2.39409">
        <ele>343.048676</ele>
        <time>2013-06-23T13:24:58Z</time>
      </trkpt>
      <trkpt lat="43.15326" lon="2.39405">
        <ele>343.090179</ele>
        <time>2013-06-23T13:25:00Z</time>
      </trkpt>
      <trkpt lat="43.15331" lon="2.394">
        <ele>343.126007</ele>
        <time>2013-06-23T13:25:02Z</time>
      </trkpt>
      <trkpt lat="43.15337" lon="2.39393">
        <ele>342.751862</ele>
        <time>2013-06-23T13:25:04Z</time>
      </trkpt>
      <trkpt lat="43.1534" lon="2.39389">
        <ele>342.453461</ele>
        <time>2013-06-23T13:25:05Z</time>
      </trkpt>
      <trkpt lat="43.15344" lon="2.39386">
        <ele>342.275116</ele>
        <time>2013-06-23T13:25:06Z</time>
      </trkpt>
      <trkpt lat="43.15348" lon="2.39382">
        <ele>342.183014</ele>
        <time>2013-06-23T13:25:07Z</time>
      </trkpt>
      <trkpt lat="43.15352" lon="2.39379">
        <ele>342.158875</ele>
        <time>2013-06-23T13:25:08Z</time>
      </trkpt>
      <trkpt lat="43.15355" lon="2.39373">
        <ele>342.134216</ele>
        <time>2013-06-23T13:25:09Z</time>
      </trkpt>
      <trkpt lat="43.15358" lon="2.39368">
        <ele>342.210144</ele>
        <time>2013-06-23T13:25:10Z</time>
      </trkpt>
      <trkpt lat="43.15362" lon="2.39364">
        <ele>342.454865</ele>
        <time>2013-06-23T13:25:11Z</time>
      </trkpt>
      <trkpt lat="43.15366" lon="2.3936">
        <ele>342.789948</ele>
        <time>2013-06-23T13:25:12Z</time>
      </trkpt>
      <trkpt lat="43.15371" lon="2.39353">
        <ele>343.420105</ele>
        <time>2013-06-23T13:25:14Z</time>
      </trkpt>
      <trkpt lat="43.15374" lon="2.39347">
        <ele>343.884705</ele>
        <time>2013-06-23T13:25:16Z</time>
      </trkpt>
      <trkpt lat="43.15377" lon="2.39343">
        <ele>344.51355</ele>
        <time>2013-06-23T13:25:18Z</time>
      </trkpt>
      <trkpt lat="43.1538" lon="2.39337">
        <ele>345.198029</ele>
        <time>2013-06-23T13:25:20Z</time>
      </trkpt>
      <trkpt lat="43.15383" lon="2.3933">
        <ele>346.00827</ele>
        <time>2013-06-23T13:25:23Z</time>
      </trkpt>
      <trkpt lat="43.15385" lon="2.39324">
        <ele>346.521027</ele>
        <time>2013-06-23T13:25:26Z</time>
      </trkpt>
      <trkpt lat="43.15388" lon="2.39319">
        <ele>347.214478</ele>
        <time>2013-06-23T13:25:32Z</time>
      </trkpt>
      <trkpt lat="43.1539" lon="2.39313">
        <ele>347.758881</ele>
        <time>2013-06-23T13:25:36Z</time>
      </trkpt>
      <trkpt lat="43.15391" lon="2.39307">
        <ele>348.30481</ele>
        <time>2013-06-23T13:25:39Z</time>
      </trkpt>
      <trkpt lat="43.15394" lon="2.39299">
        <ele>349.121643</ele>
        <time>2013-06-23T13:25:45Z</time>
      </trkpt>
      <trkpt lat="43.15395" lon="2.39293">
        <ele>349.678467</ele>
        <time>2013-06-23T13:25:48Z</time>
      </trkpt>
      <trkpt lat="43.15397" lon="2.39286">
        <ele>350.339203</ele>
        <time>2013-06-23T13:25:53Z</time>
      </trkpt>
      <trkpt lat="43.15399" lon="2.3928">
        <ele>351.07373</ele>
        <time>2013-06-23T13:25:57Z</time>
      </trkpt>
      <trkpt lat="43.15402" lon="2.39274">
        <ele>352.219208</ele>
        <time>2013-06-23T13:26:03Z</time>
      </trkpt>
      <trkpt lat="43.15406" lon="2.3927">
        <ele>353.576538</ele>
        <time>2013-06-23T13:26:09Z</time>
      </trkpt>
      <trkpt lat="43.15411" lon="2.39269">
        <ele>354.993439</ele>
        <time>2013-06-23T13:26:16Z</time>
      </trkpt>
      <trkpt lat="43.15415" lon="2.39273">
        <ele>355.874908</ele>
        <time>2013-06-23T13:26:22Z</time>
      </trkpt>
      <trkpt lat="43.15418" lon="2.39278">
        <ele>355.983948</ele>
        <time>2013-06-23T13:26:26Z</time>
      </trkpt>
      <trkpt lat="43.15422" lon="2.39281">
        <ele>355.730164</ele>
        <time>2013-06-23T13:26:31Z</time>
      </trkpt>
      <trkpt lat="43.15426" lon="2.39279">
        <ele>355.784515</ele>
        <time>2013-06-23T13:26:36Z</time>
      </trkpt>
      <trkpt lat="43.15431" lon="2.39278">
        <ele>355.82132</ele>
        <time>2013-06-23T13:26:41Z</time>
      </trkpt>
      <trkpt lat="43.15437" lon="2.39277">
        <ele>355.784302</ele>
        <time>2013-06-23T13:26:45Z</time>
      </trkpt>
      <trkpt lat="43.15442" lon="2.39276">
        <ele>355.87442</ele>
        <time>2013-06-23T13:26:53Z</time>
      </trkpt>
      <trkpt lat="43.15447" lon="2.39274">
        <ele>355.981049</ele>
        <time>2013-06-23T13:26:56Z</time>
      </trkpt>
      <trkpt lat="43.15453" lon="2.3927">
        <ele>356.225891</ele>
        <time>2013-06-23T13:26:59Z</time>
      </trkpt>
      <trkpt lat="43.15458" lon="2.39267">
        <ele>356.472839</ele>
        <time>2013-06-23T13:27:01Z</time>
      </trkpt>
      <trkpt lat="43.15462" lon="2.39264">
        <ele>356.755646</ele>
        <time>2013-06-23T13:27:03Z</time>
      </trkpt>
      <trkpt lat="43.15467" lon="2.39261">
        <ele>356.964966</ele>
        <time>2013-06-23T13:27:05Z</time>
      </trkpt>
      <trkpt lat="43.15473" lon="2.39259">
        <ele>357.122925</ele>
        <time>2013-06-23T13:27:07Z</time>
      </trkpt>
      <trkpt lat="43.15479" lon="2.39257">
        <ele>357.324646</ele>
        <time>2013-06-23T13:27:09Z</time>
      </trkpt>
      <trkpt lat="43.15484" lon="2.39254">
        <ele>357.583344</ele>
        <time>2013-06-23T13:27:11Z</time>
      </trkpt>
      <trkpt lat="43.1549" lon="2.39251">
        <ele>357.863281</ele>
        <time>2013-06-23T13:27:13Z</time>
      </trkpt>
      <trkpt lat="43.15496" lon="2.39249">
        <ele>357.81839</ele>
        <time>2013-06-23T13:27:15Z</time>
      </trkpt>
      <trkpt lat="43.15501" lon="2.39246">
        <ele>357.41983</ele>
        <time>2013-06-23T13:27:17Z</time>
      </trkpt>
      <trkpt lat="43.15506" lon="2.39244">
        <ele>356.298248</ele>
        <time>2013-06-23T13:27:19Z</time>
      </trkpt>
      <trkpt lat="43.15513" lon="2.39241">
        <ele>354.814178</ele>
        <time>2013-06-23T13:27:21Z</time>
      </trkpt>
      <trkpt lat="43.1552" lon="2.39238">
        <ele>353.444977</ele>
        <time>2013-06-23T13:27:23Z</time>
      </trkpt>
      <trkpt lat="43.15526" lon="2.39236">
        <ele>352.315704</ele>
        <time>2013-06-23T13:27:25Z</time>
      </trkpt>
      <trkpt lat="43.1553" lon="2.39232">
        <ele>351.374451</ele>
        <time>2013-06-23T13:27:27Z</time>
      </trkpt>
      <trkpt lat="43.15535" lon="2.39225">
        <ele>350.08963</ele>
        <time>2013-06-23T13:27:30Z</time>
      </trkpt>
      <trkpt lat="43.15538" lon="2.3922">
        <ele>349.253845</ele>
        <time>2013-06-23T13:27:32Z</time>
      </trkpt>
      <trkpt lat="43.15541" lon="2.39213">
        <ele>348.495056</ele>
        <time>2013-06-23T13:27:35Z</time>
      </trkpt>
      <trkpt lat="43.15542" lon="2.39208">
        <ele>347.880127</ele>
        <time>2013-06-23T13:27:38Z</time>
      </trkpt>
      <trkpt lat="43.15547" lon="2.39205">
        <ele>347.264526</ele>
        <time>2013-06-23T13:27:43Z</time>
      </trkpt>
      <trkpt lat="43.15548" lon="2.392">
        <ele>346.724823</ele>
        <time>2013-06-23T13:27:55Z</time>
      </trkpt>
      <trkpt lat="43.15551" lon="2.39194">
        <ele>346.089386</ele>
        <time>2013-06-23T13:27:59Z</time>
      </trkpt>
      <trkpt lat="43.15555" lon="2.39186">
        <ele>345.365723</ele>
        <time>2013-06-23T13:28:07Z</time>
      </trkpt>
      <trkpt lat="43.1556" lon="2.39179">
        <ele>344.686981</ele>
        <time>2013-06-23T13:28:09Z</time>
      </trkpt>
      <trkpt lat="43.15565" lon="2.39172">
        <ele>344.047119</ele>
        <time>2013-06-23T13:28:11Z</time>
      </trkpt>
      <trkpt lat="43.15568" lon="2.39167">
        <ele>343.724182</ele>
        <time>2013-06-23T13:28:12Z</time>
      </trkpt>
      <trkpt lat="43.15571" lon="2.39162">
        <ele>342.984955</ele>
        <time>2013-06-23T13:28:13Z</time>
      </trkpt>
      <trkpt lat="43.15575" lon="2.39152">
        <ele>341.72757</ele>
        <time>2013-06-23T13:28:15Z</time>
      </trkpt>
      <trkpt lat="43.15579" lon="2.39144">
        <ele>340.819427</ele>
        <time>2013-06-23T13:28:17Z</time>
      </trkpt>
      <trkpt lat="43.15585" lon="2.3914">
        <ele>340.254181</ele>
        <time>2013-06-23T13:28:19Z</time>
      </trkpt>
      <trkpt lat="43.15592" lon="2.39134">
        <ele>339.136047</ele>
        <time>2013-06-23T13:28:22Z</time>
      </trkpt>
      <trkpt lat="43.15598" lon="2.39127">
        <ele>338.218109</ele>
        <time>2013-06-23T13:28:23Z</time>
      </trkpt>
      <trkpt lat="43.15604" lon="2.3912">
        <ele>337.60968</ele>
        <time>2013-06-23T13:28:25Z</time>
      </trkpt>
      <trkpt lat="43.15609" lon="2.39112">
        <ele>337.268707</ele>
        <time>2013-06-23T13:28:27Z</time>
      </trkpt>
      <trkpt lat="43.15614" lon="2.39107">
        <ele>337.181213</ele>
        <time>2013-06-23T13:28:29Z</time>
      </trkpt>
      <trkpt lat="43.15618" lon="2.39102">
        <ele>337.230743</ele>
        <time>2013-06-23T13:28:31Z</time>
      </trkpt>
      <trkpt lat="43.15621" lon="2.39098">
        <ele>337.379242</ele>
        <time>2013-06-23T13:28:33Z</time>
      </trkpt>
      <trkpt lat="43.15624" lon="2.39093">
        <ele>337.637146</ele>
        <time>2013-06-23T13:28:35Z</time>
      </trkpt>
      <trkpt lat="43.15628" lon="2.39088">
        <ele>338.002075</ele>
        <time>2013-06-23T13:28:37Z</time>
      </trkpt>
      <trkpt lat="43.15632" lon="2.3908">
        <ele>338.317505</ele>
        <time>2013-06-23T13:28:40Z</time>
      </trkpt>
      <trkpt lat="43.15634" lon="2.39075">
        <ele>338.277222</ele>
        <time>2013-06-23T13:28:42Z</time>
      </trkpt>
      <trkpt lat="43.15638" lon="2.3907">
        <ele>338.371857</ele>
        <time>2013-06-23T13:28:44Z</time>
      </trkpt>
      <trkpt lat="43.15641" lon="2.39064">
        <ele>338.54776</ele>
        <time>2013-06-23T13:28:47Z</time>
      </trkpt>
      <trkpt lat="43.15644" lon="2.39058">
        <ele>338.84375</ele>
        <time>2013-06-23T13:28:50Z</time>
      </trkpt>
      <trkpt lat="43.15648" lon="2.39052">
        <ele>339.320221</ele>
        <time>2013-06-23T13:28:54Z</time>
      </trkpt>
      <trkpt lat="43.15653" lon="2.39047">
        <ele>339.982056</ele>
        <time>2013-06-23T13:28:58Z</time>
      </trkpt>
      <trkpt lat="43.15657" lon="2.39042">
        <ele>340.831818</ele>
        <time>2013-06-23T13:29:02Z</time>
      </trkpt>
      <trkpt lat="43.15662" lon="2.39038">
        <ele>341.841858</ele>
        <time>2013-06-23T13:29:06Z</time>
      </trkpt>
      <trkpt lat="43.15667" lon="2.39033">
        <ele>342.789215</ele>
        <time>2013-06-23T13:29:08Z</time>
      </trkpt>
      <trkpt lat="43.15672" lon="2.39026">
        <ele>342.638794</ele>
        <time>2013-06-23T13:29:10Z</time>
      </trkpt>
      <trkpt lat="43.15678" lon="2.39018">
        <ele>342.659302</ele>
        <time>2013-06-23T13:29:12Z</time>
      </trkpt>
      <trkpt lat="43.15681" lon="2.39013">
        <ele>342.789551</ele>
        <time>2013-06-23T13:29:13Z</time>
      </trkpt>
      <trkpt lat="43.15684" lon="2.39008">
        <ele>343.016724</ele>
        <time>2013-06-23T13:29:14Z</time>
      </trkpt>
      <trkpt lat="43.15687" lon="2.39003">
        <ele>343.310242</ele>
        <time>2013-06-23T13:29:15Z</time>
      </trkpt>
      <trkpt lat="43.1569" lon="2.38997">
        <ele>343.284119</ele>
        <time>2013-06-23T13:29:16Z</time>
      </trkpt>
      <trkpt lat="43.15694" lon="2.38992">
        <ele>343.002014</ele>
        <time>2013-06-23T13:29:17Z</time>
      </trkpt>
      <trkpt lat="43.15697" lon="2.38986">
        <ele>342.81897</ele>
        <time>2013-06-23T13:29:18Z</time>
      </trkpt>
      <trkpt lat="43.15701" lon="2.3898">
        <ele>342.746979</ele>
        <time>2013-06-23T13:29:19Z</time>
      </trkpt>
      <trkpt lat="43.15705" lon="2.38974">
        <ele>342.809296</ele>
        <time>2013-06-23T13:29:20Z</time>
      </trkpt>
      <trkpt lat="43.15708" lon="2.38967">
        <ele>342.977386</ele>
        <time>2013-06-23T13:29:21Z</time>
      </trkpt>
      <trkpt lat="43.15711" lon="2.38961">
        <ele>343.256653</ele>
        <time>2013-06-23T13:29:22Z</time>
      </trkpt>
      <trkpt lat="43.15714" lon="2.38956">
        <ele>343.614594</ele>
        <time>2013-06-23T13:29:23Z</time>
      </trkpt>
      <trkpt lat="43.15719" lon="2.38948">
        <ele>344.358704</ele>
        <time>2013-06-23T13:29:25Z</time>
      </trkpt>
      <trkpt lat="43.15723" lon="2.38942">
        <ele>345.054657</ele>
        <time>2013-06-23T13:29:27Z</time>
      </trkpt>
      <trkpt lat="43.15726" lon="2.38938">
        <ele>345.737701</ele>
        <time>2013-06-23T13:29:33Z</time>
      </trkpt>
      <trkpt lat="43.1573" lon="2.38933">
        <ele>346.572693</ele>
        <time>2013-06-23T13:29:37Z</time>
      </trkpt>
      <trkpt lat="43.15732" lon="2.38927">
        <ele>347.360535</ele>
        <time>2013-06-23T13:29:43Z</time>
      </trkpt>
      <trkpt lat="43.15735" lon="2.38921">
        <ele>348.43573</ele>
        <time>2013-06-23T13:29:49Z</time>
      </trkpt>
      <trkpt lat="43.15738" lon="2.38916">
        <ele>349.381195</ele>
        <time>2013-06-23T13:29:54Z</time>
      </trkpt>
      <trkpt lat="43.15742" lon="2.38912">
        <ele>350.207764</ele>
        <time>2013-06-23T13:30:00Z</time>
      </trkpt>
      <trkpt lat="43.15746" lon="2.38907">
        <ele>350.828247</ele>
        <time>2013-06-23T13:30:07Z</time>
      </trkpt>
      <trkpt lat="43.1575" lon="2.38905">
        <ele>351.605042</ele>
        <time>2013-06-23T13:30:16Z</time>
      </trkpt>
      <trkpt lat="43.15753" lon="2.38898">
        <ele>350.757538</ele>
        <time>2013-06-23T13:30:20Z</time>
      </trkpt>
      <trkpt lat="43.15752" lon="2.38892">
        <ele>350.766785</ele>
        <time>2013-06-23T13:30:30Z</time>
      </trkpt>
      <trkpt lat="43.15757" lon="2.38893">
        <ele>349.560638</ele>
        <time>2013-06-23T13:33:06Z</time>
      </trkpt>
      <trkpt lat="43.15755" lon="2.38887">
        <ele>350.084686</ele>
        <time>2013-06-23T13:34:24Z</time>
      </trkpt>
      <trkpt lat="43.15755" lon="2.3888">
        <ele>349.966492</ele>
        <time>2013-06-23T13:35:45Z</time>
      </trkpt>
      <trkpt lat="43.15752" lon="2.38871">
        <ele>350.382324</ele>
        <time>2013-06-23T13:35:48Z</time>
      </trkpt>
      <trkpt lat="43.1575" lon="2.38865">
        <ele>350.704498</ele>
        <time>2013-06-23T13:35:50Z</time>
      </trkpt>
      <trkpt lat="43.15747" lon="2.38859">
        <ele>349.707214</ele>
        <time>2013-06-23T13:35:53Z</time>
      </trkpt>
      <trkpt lat="43.15743" lon="2.38854">
        <ele>348.512329</ele>
        <time>2013-06-23T13:35:56Z</time>
      </trkpt>
      <trkpt lat="43.15745" lon="2.38848">
        <ele>348.692261</ele>
        <time>2013-06-23T13:35:58Z</time>
      </trkpt>
      <trkpt lat="43.15748" lon="2.38838">
        <ele>349.423218</ele>
        <time>2013-06-23T13:36:00Z</time>
      </trkpt>
      <trkpt lat="43.15752" lon="2.38828">
        <ele>348.512726</ele>
        <time>2013-06-23T13:36:02Z</time>
      </trkpt>
      <trkpt lat="43.15757" lon="2.38818">
        <ele>345.73468</ele>
        <time>2013-06-23T13:36:04Z</time>
      </trkpt>
      <trkpt lat="43.15762" lon="2.38812">
        <ele>343.612244</ele>
        <time>2013-06-23T13:36:06Z</time>
      </trkpt>
      <trkpt lat="43.15768" lon="2.38805">
        <ele>341.554108</ele>
        <time>2013-06-23T13:36:08Z</time>
      </trkpt>
      <trkpt lat="43.15774" lon="2.38795">
        <ele>339.163544</ele>
        <time>2013-06-23T13:36:10Z</time>
      </trkpt>
      <trkpt lat="43.15778" lon="2.3879">
        <ele>338.039734</ele>
        <time>2013-06-23T13:36:11Z</time>
      </trkpt>
      <trkpt lat="43.15781" lon="2.38784">
        <ele>336.979462</ele>
        <time>2013-06-23T13:36:12Z</time>
      </trkpt>
      <trkpt lat="43.15785" lon="2.38779">
        <ele>336.006775</ele>
        <time>2013-06-23T13:36:13Z</time>
      </trkpt>
      <trkpt lat="43.15788" lon="2.38774">
        <ele>335.228027</ele>
        <time>2013-06-23T13:36:14Z</time>
      </trkpt>
      <trkpt lat="43.15792" lon="2.38763">
        <ele>333.767822</ele>
        <time>2013-06-23T13:36:16Z</time>
      </trkpt>
      <trkpt lat="43.15795" lon="2.38756">
        <ele>333.038422</ele>
        <time>2013-06-23T13:36:17Z</time>
      </trkpt>
      <trkpt lat="43.15798" lon="2.38751">
        <ele>332.503326</ele>
        <time>2013-06-23T13:36:18Z</time>
      </trkpt>
      <trkpt lat="43.15802" lon="2.38742">
        <ele>331.412292</ele>
        <time>2013-06-23T13:36:20Z</time>
      </trkpt>
      <trkpt lat="43.15805" lon="2.38735">
        <ele>330.534058</ele>
        <time>2013-06-23T13:36:22Z</time>
      </trkpt>
      <trkpt lat="43.15808" lon="2.38727">
        <ele>329.774872</ele>
        <time>2013-06-23T13:36:24Z</time>
      </trkpt>
      <trkpt lat="43.15812" lon="2.38719">
        <ele>329.179657</ele>
        <time>2013-06-23T13:36:26Z</time>
      </trkpt>
      <trkpt lat="43.15814" lon="2.38714">
        <ele>328.828064</ele>
        <time>2013-06-23T13:36:27Z</time>
      </trkpt>
      <trkpt lat="43.15816" lon="2.38707">
        <ele>328.370544</ele>
        <time>2013-06-23T13:36:28Z</time>
      </trkpt>
      <trkpt lat="43.15818" lon="2.38701">
        <ele>328.071655</ele>
        <time>2013-06-23T13:36:29Z</time>
      </trkpt>
      <trkpt lat="43.15821" lon="2.38695">
        <ele>327.813354</ele>
        <time>2013-06-23T13:36:30Z</time>
      </trkpt>
      <trkpt lat="43.15823" lon="2.38686">
        <ele>327.417206</ele>
        <time>2013-06-23T13:36:32Z</time>
      </trkpt>
      <trkpt lat="43.15826" lon="2.38678">
        <ele>327.29187</ele>
        <time>2013-06-23T13:36:34Z</time>
      </trkpt>
      <trkpt lat="43.1583" lon="2.3867">
        <ele>327.634766</ele>
        <time>2013-06-23T13:36:36Z</time>
      </trkpt>
      <trkpt lat="43.15834" lon="2.38665">
        <ele>327.662384</ele>
        <time>2013-06-23T13:36:43Z</time>
      </trkpt>
      <trkpt lat="43.15838" lon="2.38657">
        <ele>325.612427</ele>
        <time>2013-06-23T13:36:47Z</time>
      </trkpt>
      <trkpt lat="43.15841" lon="2.38651">
        <ele>324.014771</ele>
        <time>2013-06-23T13:36:49Z</time>
      </trkpt>
      <trkpt lat="43.15844" lon="2.38646">
        <ele>322.454285</ele>
        <time>2013-06-23T13:36:51Z</time>
      </trkpt>
      <trkpt lat="43.15847" lon="2.38639">
        <ele>321.024567</ele>
        <time>2013-06-23T13:36:54Z</time>
      </trkpt>
      <trkpt lat="43.15846" lon="2.38631">
        <ele>320.233337</ele>
        <time>2013-06-23T13:36:58Z</time>
      </trkpt>
      <trkpt lat="43.15844" lon="2.38623">
        <ele>319.829895</ele>
        <time>2013-06-23T13:37:01Z</time>
      </trkpt>
      <trkpt lat="43.15842" lon="2.38617">
        <ele>319.434082</ele>
        <time>2013-06-23T13:37:03Z</time>
      </trkpt>
      <trkpt lat="43.15841" lon="2.38609">
        <ele>318.751129</ele>
        <time>2013-06-23T13:37:05Z</time>
      </trkpt>
      <trkpt lat="43.1584" lon="2.386">
        <ele>317.664032</ele>
        <time>2013-06-23T13:37:07Z</time>
      </trkpt>
      <trkpt lat="43.1584" lon="2.38593">
        <ele>316.7789</ele>
        <time>2013-06-23T13:37:08Z</time>
      </trkpt>
      <trkpt lat="43.1584" lon="2.38586">
        <ele>316.02536</ele>
        <time>2013-06-23T13:37:09Z</time>
      </trkpt>
      <trkpt lat="43.15838" lon="2.38575">
        <ele>315.488739</ele>
        <time>2013-06-23T13:37:11Z</time>
      </trkpt>
      <trkpt lat="43.15837" lon="2.38563">
        <ele>314.723297</ele>
        <time>2013-06-23T13:37:13Z</time>
      </trkpt>
      <trkpt lat="43.15837" lon="2.38552">
        <ele>313.891663</ele>
        <time>2013-06-23T13:37:15Z</time>
      </trkpt>
      <trkpt lat="43.15837" lon="2.38542">
        <ele>313.302551</ele>
        <time>2013-06-23T13:37:17Z</time>
      </trkpt>
      <trkpt lat="43.15836" lon="2.38532">
        <ele>312.696472</ele>
        <time>2013-06-23T13:37:19Z</time>
      </trkpt>
      <trkpt lat="43.15835" lon="2.38522">
        <ele>312.191437</ele>
        <time>2013-06-23T13:37:21Z</time>
      </trkpt>
      <trkpt lat="43.15835" lon="2.38516">
        <ele>311.732635</ele>
        <time>2013-06-23T13:37:22Z</time>
      </trkpt>
      <trkpt lat="43.15835" lon="2.38509">
        <ele>311.24704</ele>
        <time>2013-06-23T13:37:23Z</time>
      </trkpt>
      <trkpt lat="43.15834" lon="2.38502">
        <ele>310.878052</ele>
        <time>2013-06-23T13:37:24Z</time>
      </trkpt>
      <trkpt lat="43.15834" lon="2.38493">
        <ele>310.22049</ele>
        <time>2013-06-23T13:37:25Z</time>
      </trkpt>
      <trkpt lat="43.15833" lon="2.38486">
        <ele>309.297668</ele>
        <time>2013-06-23T13:37:26Z</time>
      </trkpt>
      <trkpt lat="43.15832" lon="2.38477">
        <ele>308.065857</ele>
        <time>2013-06-23T13:37:28Z</time>
      </trkpt>
      <trkpt lat="43.15832" lon="2.38467">
        <ele>306.763367</ele>
        <time>2013-06-23T13:37:30Z</time>
      </trkpt>
      <trkpt lat="43.15831" lon="2.38456">
        <ele>305.257294</ele>
        <time>2013-06-23T13:37:32Z</time>
      </trkpt>
      <trkpt lat="43.15831" lon="2.38445">
        <ele>304.190735</ele>
        <time>2013-06-23T13:37:34Z</time>
      </trkpt>
      <trkpt lat="43.15832" lon="2.38437">
        <ele>303.722504</ele>
        <time>2013-06-23T13:37:36Z</time>
      </trkpt>
      <trkpt lat="43.15834" lon="2.38429">
        <ele>303.252167</ele>
        <time>2013-06-23T13:37:38Z</time>
      </trkpt>
      <trkpt lat="43.15834" lon="2.38421">
        <ele>302.332672</ele>
        <time>2013-06-23T13:37:40Z</time>
      </trkpt>
      <trkpt lat="43.15834" lon="2.38411">
        <ele>300.750092</ele>
        <time>2013-06-23T13:37:42Z</time>
      </trkpt>
      <trkpt lat="43.15834" lon="2.38402">
        <ele>299.109711</ele>
        <time>2013-06-23T13:37:44Z</time>
      </trkpt>
      <trkpt lat="43.15835" lon="2.38396">
        <ele>297.769165</ele>
        <time>2013-06-23T13:37:46Z</time>
      </trkpt>
      <trkpt lat="43.15836" lon="2.38387">
        <ele>296.168884</ele>
        <time>2013-06-23T13:37:49Z</time>
      </trkpt>
      <trkpt lat="43.15838" lon="2.38379">
        <ele>294.337433</ele>
        <time>2013-06-23T13:37:51Z</time>
      </trkpt>
      <trkpt lat="43.15841" lon="2.38371">
        <ele>292.691437</ele>
        <time>2013-06-23T13:37:53Z</time>
      </trkpt>
      <trkpt lat="43.15842" lon="2.38363">
        <ele>291.169128</ele>
        <time>2013-06-23T13:37:55Z</time>
      </trkpt>
      <trkpt lat="43.15841" lon="2.38355">
        <ele>289.79007</ele>
        <time>2013-06-23T13:37:57Z</time>
      </trkpt>
      <trkpt lat="43.15842" lon="2.38346">
        <ele>288.073242</ele>
        <time>2013-06-23T13:37:59Z</time>
      </trkpt>
      <trkpt lat="43.15844" lon="2.38333">
        <ele>285.819092</ele>
        <time>2013-06-23T13:38:01Z</time>
      </trkpt>
      <trkpt lat="43.15845" lon="2.38327">
        <ele>284.574219</ele>
        <time>2013-06-23T13:38:02Z</time>
      </trkpt>
      <trkpt lat="43.15849" lon="2.38318">
        <ele>282.972473</ele>
        <time>2013-06-23T13:38:04Z</time>
      </trkpt>
      <trkpt lat="43.15852" lon="2.38311">
        <ele>281.756866</ele>
        <time>2013-06-23T13:38:07Z</time>
      </trkpt>
      <trkpt lat="43.15853" lon="2.38305">
        <ele>280.530884</ele>
        <time>2013-06-23T13:38:10Z</time>
      </trkpt>
      <trkpt lat="43.15856" lon="2.38294">
        <ele>278.71579</ele>
        <time>2013-06-23T13:38:14Z</time>
      </trkpt>
      <trkpt lat="43.15856" lon="2.38285">
        <ele>277.185913</ele>
        <time>2013-06-23T13:38:17Z</time>
      </trkpt>
      <trkpt lat="43.15853" lon="2.38281">
        <ele>276.219574</ele>
        <time>2013-06-23T13:38:21Z</time>
      </trkpt>
      <trkpt lat="43.15849" lon="2.38278">
        <ele>275.514709</ele>
        <time>2013-06-23T13:38:25Z</time>
      </trkpt>
      <trkpt lat="43.15844" lon="2.38279">
        <ele>275.494049</ele>
        <time>2013-06-23T13:38:27Z</time>
      </trkpt>
      <trkpt lat="43.15838" lon="2.38279">
        <ele>275.06665</ele>
        <time>2013-06-23T13:38:30Z</time>
      </trkpt>
      <trkpt lat="43.15834" lon="2.38277">
        <ele>274.428101</ele>
        <time>2013-06-23T13:38:33Z</time>
      </trkpt>
      <trkpt lat="43.15828" lon="2.38275">
        <ele>272.567993</ele>
        <time>2013-06-23T13:38:36Z</time>
      </trkpt>
      <trkpt lat="43.15821" lon="2.38278">
        <ele>271.088379</ele>
        <time>2013-06-23T13:38:38Z</time>
      </trkpt>
      <trkpt lat="43.15815" lon="2.38281">
        <ele>269.737244</ele>
        <time>2013-06-23T13:38:40Z</time>
      </trkpt>
      <trkpt lat="43.15806" lon="2.38285">
        <ele>267.930481</ele>
        <time>2013-06-23T13:38:42Z</time>
      </trkpt>
      <trkpt lat="43.158" lon="2.3829">
        <ele>266.892609</ele>
        <time>2013-06-23T13:38:44Z</time>
      </trkpt>
      <trkpt lat="43.15796" lon="2.38293">
        <ele>266.133179</ele>
        <time>2013-06-23T13:38:45Z</time>
      </trkpt>
      <trkpt lat="43.15788" lon="2.38296">
        <ele>264.092651</ele>
        <time>2013-06-23T13:38:47Z</time>
      </trkpt>
      <trkpt lat="43.15781" lon="2.38296">
        <ele>261.876892</ele>
        <time>2013-06-23T13:38:49Z</time>
      </trkpt>
      <trkpt lat="43.15773" lon="2.38297">
        <ele>259.476898</ele>
        <time>2013-06-23T13:38:51Z</time>
      </trkpt>
      <trkpt lat="43.15768" lon="2.38298">
        <ele>258.096802</ele>
        <time>2013-06-23T13:38:52Z</time>
      </trkpt>
      <trkpt lat="43.1576" lon="2.38298">
        <ele>255.715393</ele>
        <time>2013-06-23T13:38:54Z</time>
      </trkpt>
      <trkpt lat="43.15755" lon="2.38296">
        <ele>253.466644</ele>
        <time>2013-06-23T13:38:56Z</time>
      </trkpt>
      <trkpt lat="43.15751" lon="2.38287">
        <ele>251.032013</ele>
        <time>2013-06-23T13:38:58Z</time>
      </trkpt>
      <trkpt lat="43.15751" lon="2.38274">
        <ele>249.518188</ele>
        <time>2013-06-23T13:39:00Z</time>
      </trkpt>
      <trkpt lat="43.15753" lon="2.38267">
        <ele>248.992828</ele>
        <time>2013-06-23T13:39:01Z</time>
      </trkpt>
      <trkpt lat="43.15755" lon="2.38258">
        <ele>248.385742</ele>
        <time>2013-06-23T13:39:02Z</time>
      </trkpt>
      <trkpt lat="43.15757" lon="2.38252">
        <ele>248.139008</ele>
        <time>2013-06-23T13:39:03Z</time>
      </trkpt>
      <trkpt lat="43.1576" lon="2.38242">
        <ele>247.886902</ele>
        <time>2013-06-23T13:39:05Z</time>
      </trkpt>
      <trkpt lat="43.15758" lon="2.38236">
        <ele>246.966339</ele>
        <time>2013-06-23T13:39:07Z</time>
      </trkpt>
      <trkpt lat="43.15758" lon="2.38228">
        <ele>246.109894</ele>
        <time>2013-06-23T13:39:09Z</time>
      </trkpt>
      <trkpt lat="43.1576" lon="2.38222">
        <ele>246.156708</ele>
        <time>2013-06-23T13:39:10Z</time>
      </trkpt>
      <trkpt lat="43.15762" lon="2.38217">
        <ele>245.988495</ele>
        <time>2013-06-23T13:39:11Z</time>
      </trkpt>
      <trkpt lat="43.15765" lon="2.38204">
        <ele>245.42981</ele>
        <time>2013-06-23T13:39:13Z</time>
      </trkpt>
      <trkpt lat="43.15769" lon="2.38196">
        <ele>245.122986</ele>
        <time>2013-06-23T13:39:14Z</time>
      </trkpt>
      <trkpt lat="43.15771" lon="2.38189">
        <ele>244.712921</ele>
        <time>2013-06-23T13:39:15Z</time>
      </trkpt>
      <trkpt lat="43.15776" lon="2.3818">
        <ele>244.168365</ele>
        <time>2013-06-23T13:39:17Z</time>
      </trkpt>
      <trkpt lat="43.1578" lon="2.38171">
        <ele>243.565308</ele>
        <time>2013-06-23T13:39:19Z</time>
      </trkpt>
      <trkpt lat="43.15787" lon="2.38165">
        <ele>243.479767</ele>
        <time>2013-06-23T13:39:21Z</time>
      </trkpt>
      <trkpt lat="43.15792" lon="2.3816">
        <ele>243.776001</ele>
        <time>2013-06-23T13:39:22Z</time>
      </trkpt>
      <trkpt lat="43.15797" lon="2.38153">
        <ele>243.960266</ele>
        <time>2013-06-23T13:39:23Z</time>
      </trkpt>
      <trkpt lat="43.15803" lon="2.38146">
        <ele>244.004913</ele>
        <time>2013-06-23T13:39:24Z</time>
      </trkpt>
      <trkpt lat="43.15808" lon="2.3814">
        <ele>244.022644</ele>
        <time>2013-06-23T13:39:25Z</time>
      </trkpt>
      <trkpt lat="43.15813" lon="2.38136">
        <ele>244.032928</ele>
        <time>2013-06-23T13:39:26Z</time>
      </trkpt>
      <trkpt lat="43.15817" lon="2.38131">
        <ele>243.875793</ele>
        <time>2013-06-23T13:39:27Z</time>
      </trkpt>
      <trkpt lat="43.15825" lon="2.38124">
        <ele>243.589386</ele>
        <time>2013-06-23T13:39:29Z</time>
      </trkpt>
      <trkpt lat="43.15829" lon="2.3812">
        <ele>243.374786</ele>
        <time>2013-06-23T13:39:30Z</time>
      </trkpt>
      <trkpt lat="43.15834" lon="2.38116">
        <ele>243.086731</ele>
        <time>2013-06-23T13:39:31Z</time>
      </trkpt>
      <trkpt lat="43.15838" lon="2.38112">
        <ele>242.61377</ele>
        <time>2013-06-23T13:39:32Z</time>
      </trkpt>
      <trkpt lat="43.15843" lon="2.38108">
        <ele>242.154022</ele>
        <time>2013-06-23T13:39:33Z</time>
      </trkpt>
      <trkpt lat="43.1585" lon="2.38101">
        <ele>241.172882</ele>
        <time>2013-06-23T13:39:35Z</time>
      </trkpt>
      <trkpt lat="43.15855" lon="2.38096">
        <ele>240.357239</ele>
        <time>2013-06-23T13:39:37Z</time>
      </trkpt>
      <trkpt lat="43.15859" lon="2.38089">
        <ele>239.156891</ele>
        <time>2013-06-23T13:39:43Z</time>
      </trkpt>
      <trkpt lat="43.15861" lon="2.38081">
        <ele>238.801605</ele>
        <time>2013-06-23T13:39:45Z</time>
      </trkpt>
      <trkpt lat="43.15864" lon="2.38074">
        <ele>240.29483</ele>
        <time>2013-06-23T13:39:47Z</time>
      </trkpt>
      <trkpt lat="43.1587" lon="2.3807">
        <ele>240.646729</ele>
        <time>2013-06-23T13:39:49Z</time>
      </trkpt>
      <trkpt lat="43.15876" lon="2.38068">
        <ele>240.737793</ele>
        <time>2013-06-23T13:39:51Z</time>
      </trkpt>
      <trkpt lat="43.15881" lon="2.38066">
        <ele>240.669678</ele>
        <time>2013-06-23T13:39:53Z</time>
      </trkpt>
      <trkpt lat="43.15886" lon="2.38068">
        <ele>239.982635</ele>
        <time>2013-06-23T13:39:55Z</time>
      </trkpt>
      <trkpt lat="43.15893" lon="2.3807">
        <ele>239.101349</ele>
        <time>2013-06-23T13:39:57Z</time>
      </trkpt>
      <trkpt lat="43.15898" lon="2.3807">
        <ele>238.546112</ele>
        <time>2013-06-23T13:39:59Z</time>
      </trkpt>
      <trkpt lat="43.15906" lon="2.38069">
        <ele>238.169281</ele>
        <time>2013-06-23T13:40:01Z</time>
      </trkpt>
      <trkpt lat="43.15912" lon="2.38069">
        <ele>237.756927</ele>
        <time>2013-06-23T13:40:03Z</time>
      </trkpt>
      <trkpt lat="43.15919" lon="2.38069">
        <ele>237.301819</ele>
        <time>2013-06-23T13:40:05Z</time>
      </trkpt>
      <trkpt lat="43.15925" lon="2.38074">
        <ele>236.214111</ele>
        <time>2013-06-23T13:40:07Z</time>
      </trkpt>
      <trkpt lat="43.15929" lon="2.38078">
        <ele>235.488434</ele>
        <time>2013-06-23T13:40:09Z</time>
      </trkpt>
      <trkpt lat="43.15935" lon="2.38081">
        <ele>234.672638</ele>
        <time>2013-06-23T13:40:12Z</time>
      </trkpt>
      <trkpt lat="43.15943" lon="2.38081">
        <ele>234.471283</ele>
        <time>2013-06-23T13:40:14Z</time>
      </trkpt>
      <trkpt lat="43.15948" lon="2.3808">
        <ele>234.351868</ele>
        <time>2013-06-23T13:40:15Z</time>
      </trkpt>
      <trkpt lat="43.15956" lon="2.38076">
        <ele>234.609711</ele>
        <time>2013-06-23T13:40:17Z</time>
      </trkpt>
      <trkpt lat="43.15964" lon="2.38072">
        <ele>234.96524</ele>
        <time>2013-06-23T13:40:19Z</time>
      </trkpt>
      <trkpt lat="43.15971" lon="2.38069">
        <ele>235.063171</ele>
        <time>2013-06-23T13:40:21Z</time>
      </trkpt>
      <trkpt lat="43.15978" lon="2.38072">
        <ele>234.350647</ele>
        <time>2013-06-23T13:40:23Z</time>
      </trkpt>
      <trkpt lat="43.15982" lon="2.38077">
        <ele>233.575836</ele>
        <time>2013-06-23T13:40:25Z</time>
      </trkpt>
      <trkpt lat="43.15988" lon="2.38084">
        <ele>232.506927</ele>
        <time>2013-06-23T13:40:27Z</time>
      </trkpt>
      <trkpt lat="43.15994" lon="2.38092">
        <ele>232.774261</ele>
        <time>2013-06-23T13:40:29Z</time>
      </trkpt>
      <trkpt lat="43.15999" lon="2.381">
        <ele>232.894836</ele>
        <time>2013-06-23T13:40:31Z</time>
      </trkpt>
      <trkpt lat="43.16003" lon="2.3811">
        <ele>233.450684</ele>
        <time>2013-06-23T13:40:33Z</time>
      </trkpt>
      <trkpt lat="43.16006" lon="2.38121">
        <ele>233.988129</ele>
        <time>2013-06-23T13:40:35Z</time>
      </trkpt>
      <trkpt lat="43.1601" lon="2.38131">
        <ele>234.389282</ele>
        <time>2013-06-23T13:40:37Z</time>
      </trkpt>
      <trkpt lat="43.16011" lon="2.38139">
        <ele>234.574463</ele>
        <time>2013-06-23T13:40:39Z</time>
      </trkpt>
      <trkpt lat="43.16015" lon="2.38145">
        <ele>234.618713</ele>
        <time>2013-06-23T13:40:42Z</time>
      </trkpt>
      <trkpt lat="43.16019" lon="2.38151">
        <ele>234.570038</ele>
        <time>2013-06-23T13:40:44Z</time>
      </trkpt>
      <trkpt lat="43.16022" lon="2.38157">
        <ele>234.419525</ele>
        <time>2013-06-23T13:40:46Z</time>
      </trkpt>
      <trkpt lat="43.16027" lon="2.38164">
        <ele>234.082397</ele>
        <time>2013-06-23T13:40:48Z</time>
      </trkpt>
      <trkpt lat="43.16033" lon="2.38167">
        <ele>233.607574</ele>
        <time>2013-06-23T13:40:50Z</time>
      </trkpt>
      <trkpt lat="43.16039" lon="2.38171">
        <ele>233.5625</ele>
        <time>2013-06-23T13:40:52Z</time>
      </trkpt>
      <trkpt lat="43.16044" lon="2.38172">
        <ele>233.202484</ele>
        <time>2013-06-23T13:40:54Z</time>
      </trkpt>
      <trkpt lat="43.16049" lon="2.38173">
        <ele>232.887024</ele>
        <time>2013-06-23T13:40:56Z</time>
      </trkpt>
      <trkpt lat="43.16053" lon="2.38174">
        <ele>232.50592</ele>
        <time>2013-06-23T13:40:58Z</time>
      </trkpt>
      <trkpt lat="43.16059" lon="2.38178">
        <ele>232.153809</ele>
        <time>2013-06-23T13:41:00Z</time>
      </trkpt>
      <trkpt lat="43.16062" lon="2.38183">
        <ele>231.993195</ele>
        <time>2013-06-23T13:41:02Z</time>
      </trkpt>
      <trkpt lat="43.16067" lon="2.38189">
        <ele>231.520691</ele>
        <time>2013-06-23T13:41:04Z</time>
      </trkpt>
      <trkpt lat="43.16073" lon="2.38192">
        <ele>230.761414</ele>
        <time>2013-06-23T13:41:06Z</time>
      </trkpt>
      <trkpt lat="43.1608" lon="2.38198">
        <ele>229.786346</ele>
        <time>2013-06-23T13:41:08Z</time>
      </trkpt>
      <trkpt lat="43.16088" lon="2.38198">
        <ele>229.246185</ele>
        <time>2013-06-23T13:41:10Z</time>
      </trkpt>
      <trkpt lat="43.16095" lon="2.38197">
        <ele>229.302979</ele>
        <time>2013-06-23T13:41:12Z</time>
      </trkpt>
      <trkpt lat="43.16101" lon="2.38196">
        <ele>229.324066</ele>
        <time>2013-06-23T13:41:14Z</time>
      </trkpt>
      <trkpt lat="43.16108" lon="2.38198">
        <ele>229.273254</ele>
        <time>2013-06-23T13:41:16Z</time>
      </trkpt>
      <trkpt lat="43.16114" lon="2.38199">
        <ele>229.215424</ele>
        <time>2013-06-23T13:41:18Z</time>
      </trkpt>
      <trkpt lat="43.1612" lon="2.382">
        <ele>229.085175</ele>
        <time>2013-06-23T13:41:20Z</time>
      </trkpt>
      <trkpt lat="43.16125" lon="2.38202">
        <ele>228.95282</ele>
        <time>2013-06-23T13:41:22Z</time>
      </trkpt>
      <trkpt lat="43.1613" lon="2.38207">
        <ele>228.58197</ele>
        <time>2013-06-23T13:41:24Z</time>
      </trkpt>
      <trkpt lat="43.16136" lon="2.3821">
        <ele>228.258759</ele>
        <time>2013-06-23T13:41:27Z</time>
      </trkpt>
      <trkpt lat="43.1614" lon="2.38209">
        <ele>228.249573</ele>
        <time>2013-06-23T13:41:29Z</time>
      </trkpt>
      <trkpt lat="43.16145" lon="2.38205">
        <ele>228.572327</ele>
        <time>2013-06-23T13:41:32Z</time>
      </trkpt>
      <trkpt lat="43.16149" lon="2.38201">
        <ele>228.921478</ele>
        <time>2013-06-23T13:41:34Z</time>
      </trkpt>
      <trkpt lat="43.16154" lon="2.38197">
        <ele>229.360321</ele>
        <time>2013-06-23T13:41:36Z</time>
      </trkpt>
      <trkpt lat="43.16159" lon="2.38192">
        <ele>229.86676</ele>
        <time>2013-06-23T13:41:38Z</time>
      </trkpt>
      <trkpt lat="43.16164" lon="2.38191">
        <ele>230.030212</ele>
        <time>2013-06-23T13:41:40Z</time>
      </trkpt>
      <trkpt lat="43.16169" lon="2.38186">
        <ele>230.452087</ele>
        <time>2013-06-23T13:41:42Z</time>
      </trkpt>
      <trkpt lat="43.16174" lon="2.3818">
        <ele>230.35199</ele>
        <time>2013-06-23T13:41:44Z</time>
      </trkpt>
      <trkpt lat="43.16179" lon="2.38174">
        <ele>230.363281</ele>
        <time>2013-06-23T13:41:46Z</time>
      </trkpt>
      <trkpt lat="43.16186" lon="2.38166">
        <ele>230.039001</ele>
        <time>2013-06-23T13:41:48Z</time>
      </trkpt>
      <trkpt lat="43.16191" lon="2.38161">
        <ele>229.520386</ele>
        <time>2013-06-23T13:41:49Z</time>
      </trkpt>
      <trkpt lat="43.16197" lon="2.38157">
        <ele>228.830078</ele>
        <time>2013-06-23T13:41:50Z</time>
      </trkpt>
      <trkpt lat="43.16202" lon="2.38151">
        <ele>228.266418</ele>
        <time>2013-06-23T13:41:51Z</time>
      </trkpt>
      <trkpt lat="43.16207" lon="2.38146">
        <ele>227.561676</ele>
        <time>2013-06-23T13:41:52Z</time>
      </trkpt>
      <trkpt lat="43.16213" lon="2.38141">
        <ele>226.839447</ele>
        <time>2013-06-23T13:41:53Z</time>
      </trkpt>
      <trkpt lat="43.16218" lon="2.38137">
        <ele>225.997437</ele>
        <time>2013-06-23T13:41:54Z</time>
      </trkpt>
      <trkpt lat="43.16223" lon="2.38134">
        <ele>225.175049</ele>
        <time>2013-06-23T13:41:55Z</time>
      </trkpt>
      <trkpt lat="43.16227" lon="2.3813">
        <ele>224.602875</ele>
        <time>2013-06-23T13:41:56Z</time>
      </trkpt>
      <trkpt lat="43.16237" lon="2.38128">
        <ele>222.956116</ele>
        <time>2013-06-23T13:41:58Z</time>
      </trkpt>
      <trkpt lat="43.16242" lon="2.38127">
        <ele>221.891937</ele>
        <time>2013-06-23T13:41:59Z</time>
      </trkpt>
      <trkpt lat="43.1625" lon="2.38121">
        <ele>220.497803</ele>
        <time>2013-06-23T13:42:01Z</time>
      </trkpt>
      <trkpt lat="43.16255" lon="2.38118">
        <ele>219.951294</ele>
        <time>2013-06-23T13:42:02Z</time>
      </trkpt>
      <trkpt lat="43.16259" lon="2.38111">
        <ele>219.427155</ele>
        <time>2013-06-23T13:42:04Z</time>
      </trkpt>
      <trkpt lat="43.16262" lon="2.38104">
        <ele>219.066406</ele>
        <time>2013-06-23T13:42:06Z</time>
      </trkpt>
      <trkpt lat="43.16264" lon="2.38096">
        <ele>218.746765</ele>
        <time>2013-06-23T13:42:08Z</time>
      </trkpt>
      <trkpt lat="43.16266" lon="2.38087">
        <ele>218.573425</ele>
        <time>2013-06-23T13:42:10Z</time>
      </trkpt>
      <trkpt lat="43.16269" lon="2.38078">
        <ele>218.299805</ele>
        <time>2013-06-23T13:42:12Z</time>
      </trkpt>
      <trkpt lat="43.16277" lon="2.3807">
        <ele>217.805603</ele>
        <time>2013-06-23T13:42:14Z</time>
      </trkpt>
      <trkpt lat="43.16282" lon="2.38063">
        <ele>217.612488</ele>
        <time>2013-06-23T13:42:16Z</time>
      </trkpt>
      <trkpt lat="43.16287" lon="2.38057">
        <ele>217.419128</ele>
        <time>2013-06-23T13:42:18Z</time>
      </trkpt>
      <trkpt lat="43.16294" lon="2.38051">
        <ele>217.207977</ele>
        <time>2013-06-23T13:42:20Z</time>
      </trkpt>
      <trkpt lat="43.163" lon="2.38049">
        <ele>216.716675</ele>
        <time>2013-06-23T13:42:22Z</time>
      </trkpt>
      <trkpt lat="43.16308" lon="2.38053">
        <ele>215.303406</ele>
        <time>2013-06-23T13:42:24Z</time>
      </trkpt>
      <trkpt lat="43.16315" lon="2.38059">
        <ele>213.783173</ele>
        <time>2013-06-23T13:42:26Z</time>
      </trkpt>
      <trkpt lat="43.1632" lon="2.38062">
        <ele>212.735352</ele>
        <time>2013-06-23T13:42:28Z</time>
      </trkpt>
      <trkpt lat="43.16324" lon="2.38059">
        <ele>212.678253</ele>
        <time>2013-06-23T13:42:30Z</time>
      </trkpt>
      <trkpt lat="43.16329" lon="2.38053">
        <ele>212.932373</ele>
        <time>2013-06-23T13:42:33Z</time>
      </trkpt>
      <trkpt lat="43.16331" lon="2.38047">
        <ele>213.506104</ele>
        <time>2013-06-23T13:42:35Z</time>
      </trkpt>
      <trkpt lat="43.16335" lon="2.38041">
        <ele>213.930786</ele>
        <time>2013-06-23T13:42:37Z</time>
      </trkpt>
      <trkpt lat="43.16339" lon="2.38035">
        <ele>214.303925</ele>
        <time>2013-06-23T13:42:39Z</time>
      </trkpt>
      <trkpt lat="43.16344" lon="2.38029">
        <ele>214.680969</ele>
        <time>2013-06-23T13:42:41Z</time>
      </trkpt>
      <trkpt lat="43.16349" lon="2.38024">
        <ele>214.867737</ele>
        <time>2013-06-23T13:42:43Z</time>
      </trkpt>
      <trkpt lat="43.16353" lon="2.3802">
        <ele>214.867157</ele>
        <time>2013-06-23T13:42:45Z</time>
      </trkpt>
      <trkpt lat="43.16359" lon="2.38017">
        <ele>214.543793</ele>
        <time>2013-06-23T13:42:47Z</time>
      </trkpt>
      <trkpt lat="43.16364" lon="2.38019">
        <ele>213.793976</ele>
        <time>2013-06-23T13:42:49Z</time>
      </trkpt>
      <trkpt lat="43.1637" lon="2.3802">
        <ele>212.936523</ele>
        <time>2013-06-23T13:42:51Z</time>
      </trkpt>
      <trkpt lat="43.16375" lon="2.38018">
        <ele>212.621643</ele>
        <time>2013-06-23T13:42:53Z</time>
      </trkpt>
      <trkpt lat="43.16379" lon="2.38018">
        <ele>212.046631</ele>
        <time>2013-06-23T13:42:55Z</time>
      </trkpt>
      <trkpt lat="43.16385" lon="2.38023">
        <ele>210.980103</ele>
        <time>2013-06-23T13:42:57Z</time>
      </trkpt>
      <trkpt lat="43.1639" lon="2.38026">
        <ele>209.961884</ele>
        <time>2013-06-23T13:42:59Z</time>
      </trkpt>
      <trkpt lat="43.16397" lon="2.38029">
        <ele>208.987762</ele>
        <time>2013-06-23T13:43:01Z</time>
      </trkpt>
      <trkpt lat="43.16404" lon="2.38034">
        <ele>207.883514</ele>
        <time>2013-06-23T13:43:03Z</time>
      </trkpt>
      <trkpt lat="43.16408" lon="2.38041">
        <ele>206.896454</ele>
        <time>2013-06-23T13:43:05Z</time>
      </trkpt>
      <trkpt lat="43.16412" lon="2.38047">
        <ele>206.094727</ele>
        <time>2013-06-23T13:43:07Z</time>
      </trkpt>
      <trkpt lat="43.16417" lon="2.3805">
        <ele>205.385376</ele>
        <time>2013-06-23T13:43:09Z</time>
      </trkpt>
      <trkpt lat="43.16423" lon="2.38051">
        <ele>205.224182</ele>
        <time>2013-06-23T13:43:11Z</time>
      </trkpt>
      <trkpt lat="43.16429" lon="2.3805">
        <ele>205.222595</ele>
        <time>2013-06-23T13:43:13Z</time>
      </trkpt>
      <trkpt lat="43.16434" lon="2.38045">
        <ele>205.334839</ele>
        <time>2013-06-23T13:43:15Z</time>
      </trkpt>
      <trkpt lat="43.16437" lon="2.38041">
        <ele>205.416962</ele>
        <time>2013-06-23T13:43:17Z</time>
      </trkpt>
      <trkpt lat="43.16442" lon="2.38035">
        <ele>205.424133</ele>
        <time>2013-06-23T13:43:19Z</time>
      </trkpt>
      <trkpt lat="43.16447" lon="2.3803">
        <ele>205.281311</ele>
        <time>2013-06-23T13:43:22Z</time>
      </trkpt>
      <trkpt lat="43.1645" lon="2.38025">
        <ele>205.161133</ele>
        <time>2013-06-23T13:43:25Z</time>
      </trkpt>
      <trkpt lat="43.16453" lon="2.38015">
        <ele>204.982849</ele>
        <time>2013-06-23T13:43:28Z</time>
      </trkpt>
      <trkpt lat="43.16457" lon="2.38006">
        <ele>204.657837</ele>
        <time>2013-06-23T13:43:30Z</time>
      </trkpt>
      <trkpt lat="43.16459" lon="2.37998">
        <ele>204.560364</ele>
        <time>2013-06-23T13:43:32Z</time>
      </trkpt>
      <trkpt lat="43.16462" lon="2.3799">
        <ele>204.885223</ele>
        <time>2013-06-23T13:43:34Z</time>
      </trkpt>
      <trkpt lat="43.16465" lon="2.37981">
        <ele>205.115753</ele>
        <time>2013-06-23T13:43:36Z</time>
      </trkpt>
      <trkpt lat="43.16467" lon="2.37975">
        <ele>205.254272</ele>
        <time>2013-06-23T13:43:37Z</time>
      </trkpt>
      <trkpt lat="43.1647" lon="2.37968">
        <ele>205.17337</ele>
        <time>2013-06-23T13:43:38Z</time>
      </trkpt>
      <trkpt lat="43.16474" lon="2.37962">
        <ele>205.063416</ele>
        <time>2013-06-23T13:43:39Z</time>
      </trkpt>
      <trkpt lat="43.16477" lon="2.37953">
        <ele>205.062256</ele>
        <time>2013-06-23T13:43:41Z</time>
      </trkpt>
      <trkpt lat="43.1648" lon="2.37944">
        <ele>204.866455</ele>
        <time>2013-06-23T13:43:43Z</time>
      </trkpt>
      <trkpt lat="43.16484" lon="2.37936">
        <ele>204.609009</ele>
        <time>2013-06-23T13:43:45Z</time>
      </trkpt>
      <trkpt lat="43.16486" lon="2.37929">
        <ele>204.559357</ele>
        <time>2013-06-23T13:43:48Z</time>
      </trkpt>
      <trkpt lat="43.16489" lon="2.3792">
        <ele>204.223969</ele>
        <time>2013-06-23T13:43:50Z</time>
      </trkpt>
      <trkpt lat="43.16493" lon="2.3791">
        <ele>204.20755</ele>
        <time>2013-06-23T13:43:52Z</time>
      </trkpt>
      <trkpt lat="43.16497" lon="2.37903">
        <ele>204.359528</ele>
        <time>2013-06-23T13:43:54Z</time>
      </trkpt>
      <trkpt lat="43.16501" lon="2.37897">
        <ele>204.20874</ele>
        <time>2013-06-23T13:43:56Z</time>
      </trkpt>
      <trkpt lat="43.16506" lon="2.37897">
        <ele>203.85495</ele>
        <time>2013-06-23T13:43:58Z</time>
      </trkpt>
      <trkpt lat="43.16509" lon="2.37903">
        <ele>202.868134</ele>
        <time>2013-06-23T13:44:00Z</time>
      </trkpt>
      <trkpt lat="43.16515" lon="2.37905">
        <ele>202.298615</ele>
        <time>2013-06-23T13:44:02Z</time>
      </trkpt>
      <trkpt lat="43.1652" lon="2.37902">
        <ele>202.251984</ele>
        <time>2013-06-23T13:44:04Z</time>
      </trkpt>
      <trkpt lat="43.16524" lon="2.379">
        <ele>202.122772</ele>
        <time>2013-06-23T13:44:06Z</time>
      </trkpt>
      <trkpt lat="43.16531" lon="2.37898">
        <ele>201.798584</ele>
        <time>2013-06-23T13:44:09Z</time>
      </trkpt>
      <trkpt lat="43.16536" lon="2.37901">
        <ele>201.07193</ele>
        <time>2013-06-23T13:44:11Z</time>
      </trkpt>
      <trkpt lat="43.16541" lon="2.37897">
        <ele>201.094299</ele>
        <time>2013-06-23T13:44:13Z</time>
      </trkpt>
      <trkpt lat="43.16545" lon="2.37892">
        <ele>201.259155</ele>
        <time>2013-06-23T13:44:15Z</time>
      </trkpt>
      <trkpt lat="43.16551" lon="2.3789">
        <ele>200.942444</ele>
        <time>2013-06-23T13:44:17Z</time>
      </trkpt>
      <trkpt lat="43.16557" lon="2.3789">
        <ele>200.466553</ele>
        <time>2013-06-23T13:44:19Z</time>
      </trkpt>
      <trkpt lat="43.16559" lon="2.37899">
        <ele>199.452179</ele>
        <time>2013-06-23T13:44:22Z</time>
      </trkpt>
      <trkpt lat="43.16559" lon="2.37909">
        <ele>198.474182</ele>
        <time>2013-06-23T13:44:24Z</time>
      </trkpt>
      <trkpt lat="43.16561" lon="2.37919">
        <ele>197.663879</ele>
        <time>2013-06-23T13:44:26Z</time>
      </trkpt>
      <trkpt lat="43.16561" lon="2.37928">
        <ele>197.754791</ele>
        <time>2013-06-23T13:44:28Z</time>
      </trkpt>
      <trkpt lat="43.16563" lon="2.37937">
        <ele>197.714752</ele>
        <time>2013-06-23T13:44:30Z</time>
      </trkpt>
      <trkpt lat="43.16569" lon="2.37941">
        <ele>197.414917</ele>
        <time>2013-06-23T13:44:32Z</time>
      </trkpt>
      <trkpt lat="43.16575" lon="2.37941">
        <ele>197.049622</ele>
        <time>2013-06-23T13:44:34Z</time>
      </trkpt>
      <trkpt lat="43.16582" lon="2.37939">
        <ele>196.614685</ele>
        <time>2013-06-23T13:44:36Z</time>
      </trkpt>
      <trkpt lat="43.16588" lon="2.37937">
        <ele>196.222382</ele>
        <time>2013-06-23T13:44:38Z</time>
      </trkpt>
      <trkpt lat="43.16596" lon="2.37936">
        <ele>195.813538</ele>
        <time>2013-06-23T13:44:40Z</time>
      </trkpt>
      <trkpt lat="43.16604" lon="2.37936">
        <ele>195.384033</ele>
        <time>2013-06-23T13:44:43Z</time>
      </trkpt>
      <trkpt lat="43.16612" lon="2.37935">
        <ele>194.935669</ele>
        <time>2013-06-23T13:44:44Z</time>
      </trkpt>
      <trkpt lat="43.16621" lon="2.37934">
        <ele>194.490601</ele>
        <time>2013-06-23T13:44:46Z</time>
      </trkpt>
      <trkpt lat="43.16629" lon="2.37933">
        <ele>194.09436</ele>
        <time>2013-06-23T13:44:48Z</time>
      </trkpt>
      <trkpt lat="43.16636" lon="2.37932">
        <ele>193.753845</ele>
        <time>2013-06-23T13:44:50Z</time>
      </trkpt>
      <trkpt lat="43.16645" lon="2.37933">
        <ele>193.33136</ele>
        <time>2013-06-23T13:44:52Z</time>
      </trkpt>
      <trkpt lat="43.16653" lon="2.37933">
        <ele>192.903534</ele>
        <time>2013-06-23T13:44:54Z</time>
      </trkpt>
      <trkpt lat="43.16661" lon="2.37934">
        <ele>192.447662</ele>
        <time>2013-06-23T13:44:56Z</time>
      </trkpt>
      <trkpt lat="43.16669" lon="2.37934">
        <ele>192.233093</ele>
        <time>2013-06-23T13:44:58Z</time>
      </trkpt>
      <trkpt lat="43.16675" lon="2.37934">
        <ele>192.468994</ele>
        <time>2013-06-23T13:45:00Z</time>
      </trkpt>
      <trkpt lat="43.16681" lon="2.37933">
        <ele>192.693817</ele>
        <time>2013-06-23T13:45:03Z</time>
      </trkpt>
      <trkpt lat="43.16686" lon="2.37933">
        <ele>192.874634</ele>
        <time>2013-06-23T13:45:05Z</time>
      </trkpt>
      <trkpt lat="43.16692" lon="2.37933">
        <ele>193.077087</ele>
        <time>2013-06-23T13:45:07Z</time>
      </trkpt>
      <trkpt lat="43.16698" lon="2.37932">
        <ele>193.321777</ele>
        <time>2013-06-23T13:45:09Z</time>
      </trkpt>
      <trkpt lat="43.16703" lon="2.37931">
        <ele>193.563477</ele>
        <time>2013-06-23T13:45:11Z</time>
      </trkpt>
      <trkpt lat="43.16708" lon="2.37929">
        <ele>193.813171</ele>
        <time>2013-06-23T13:45:13Z</time>
      </trkpt>
      <trkpt lat="43.16715" lon="2.37932">
        <ele>193.901398</ele>
        <time>2013-06-23T13:45:16Z</time>
      </trkpt>
      <trkpt lat="43.16717" lon="2.37939">
        <ele>193.585205</ele>
        <time>2013-06-23T13:45:18Z</time>
      </trkpt>
      <trkpt lat="43.16719" lon="2.3795">
        <ele>193.016418</ele>
        <time>2013-06-23T13:45:20Z</time>
      </trkpt>
      <trkpt lat="43.1672" lon="2.37957">
        <ele>192.67041</ele>
        <time>2013-06-23T13:45:21Z</time>
      </trkpt>
      <trkpt lat="43.16722" lon="2.37964">
        <ele>192.333038</ele>
        <time>2013-06-23T13:45:22Z</time>
      </trkpt>
      <trkpt lat="43.16724" lon="2.37971">
        <ele>191.990021</ele>
        <time>2013-06-23T13:45:23Z</time>
      </trkpt>
      <trkpt lat="43.16726" lon="2.37979">
        <ele>191.622894</ele>
        <time>2013-06-23T13:45:24Z</time>
      </trkpt>
      <trkpt lat="43.16728" lon="2.37987">
        <ele>191.243408</ele>
        <time>2013-06-23T13:45:25Z</time>
      </trkpt>
      <trkpt lat="43.16731" lon="2.37995">
        <ele>190.8349</ele>
        <time>2013-06-23T13:45:26Z</time>
      </trkpt>
      <trkpt lat="43.16734" lon="2.38004">
        <ele>190.517517</ele>
        <time>2013-06-23T13:45:27Z</time>
      </trkpt>
      <trkpt lat="43.16737" lon="2.38013">
        <ele>190.296814</ele>
        <time>2013-06-23T13:45:29Z</time>
      </trkpt>
      <trkpt lat="43.1674" lon="2.38022">
        <ele>189.986603</ele>
        <time>2013-06-23T13:45:29Z</time>
      </trkpt>
      <trkpt lat="43.16743" lon="2.38033">
        <ele>189.563416</ele>
        <time>2013-06-23T13:45:30Z</time>
      </trkpt>
      <trkpt lat="43.16746" lon="2.38043">
        <ele>189.056366</ele>
        <time>2013-06-23T13:45:31Z</time>
      </trkpt>
      <trkpt lat="43.16749" lon="2.38055">
        <ele>188.431824</ele>
        <time>2013-06-23T13:45:32Z</time>
      </trkpt>
      <trkpt lat="43.16752" lon="2.38066">
        <ele>187.906555</ele>
        <time>2013-06-23T13:45:33Z</time>
      </trkpt>
      <trkpt lat="43.16754" lon="2.38077">
        <ele>187.471619</ele>
        <time>2013-06-23T13:45:34Z</time>
      </trkpt>
      <trkpt lat="43.16757" lon="2.38087">
        <ele>187.227295</ele>
        <time>2013-06-23T13:45:35Z</time>
      </trkpt>
      <trkpt lat="43.16759" lon="2.38098">
        <ele>187.251953</ele>
        <time>2013-06-23T13:45:36Z</time>
      </trkpt>
      <trkpt lat="43.16761" lon="2.38109">
        <ele>187.244446</ele>
        <time>2013-06-23T13:45:37Z</time>
      </trkpt>
      <trkpt lat="43.16763" lon="2.38119">
        <ele>187.20813</ele>
        <time>2013-06-23T13:45:39Z</time>
      </trkpt>
      <trkpt lat="43.16765" lon="2.38129">
        <ele>187.149902</ele>
        <time>2013-06-23T13:45:40Z</time>
      </trkpt>
      <trkpt lat="43.16768" lon="2.38139">
        <ele>187.068909</ele>
        <time>2013-06-23T13:45:40Z</time>
      </trkpt>
      <trkpt lat="43.16769" lon="2.38148">
        <ele>186.972717</ele>
        <time>2013-06-23T13:45:41Z</time>
      </trkpt>
      <trkpt lat="43.16771" lon="2.38157">
        <ele>186.865234</ele>
        <time>2013-06-23T13:45:42Z</time>
      </trkpt>
      <trkpt lat="43.16773" lon="2.38167">
        <ele>186.71875</ele>
        <time>2013-06-23T13:45:44Z</time>
      </trkpt>
      <trkpt lat="43.16775" lon="2.38175">
        <ele>186.603516</ele>
        <time>2013-06-23T13:45:44Z</time>
      </trkpt>
      <trkpt lat="43.16776" lon="2.38182">
        <ele>186.500305</ele>
        <time>2013-06-23T13:45:45Z</time>
      </trkpt>
      <trkpt lat="43.16779" lon="2.38189">
        <ele>186.388611</ele>
        <time>2013-06-23T13:45:46Z</time>
      </trkpt>
      <trkpt lat="43.16781" lon="2.38195">
        <ele>186.290039</ele>
        <time>2013-06-23T13:45:47Z</time>
      </trkpt>
      <trkpt lat="43.16784" lon="2.38201">
        <ele>186.185669</ele>
        <time>2013-06-23T13:45:49Z</time>
      </trkpt>
      <trkpt lat="43.16786" lon="2.38207">
        <ele>186.081665</ele>
        <time>2013-06-23T13:45:50Z</time>
      </trkpt>
      <trkpt lat="43.1679" lon="2.38214">
        <ele>185.955017</ele>
        <time>2013-06-23T13:45:50Z</time>
      </trkpt>
      <trkpt lat="43.16793" lon="2.38221">
        <ele>185.834839</ele>
        <time>2013-06-23T13:45:51Z</time>
      </trkpt>
      <trkpt lat="43.16796" lon="2.38228">
        <ele>185.713257</ele>
        <time>2013-06-23T13:45:52Z</time>
      </trkpt>
      <trkpt lat="43.168" lon="2.38235">
        <ele>185.581482</ele>
        <time>2013-06-23T13:45:53Z</time>
      </trkpt>
      <trkpt lat="43.16804" lon="2.38242">
        <ele>185.447998</ele>
        <time>2013-06-23T13:45:54Z</time>
      </trkpt>
      <trkpt lat="43.16807" lon="2.3825">
        <ele>185.317993</ele>
        <time>2013-06-23T13:45:55Z</time>
      </trkpt>
      <trkpt lat="43.16811" lon="2.38257">
        <ele>185.129761</ele>
        <time>2013-06-23T13:45:57Z</time>
      </trkpt>
      <trkpt lat="43.16814" lon="2.38265">
        <ele>184.898438</ele>
        <time>2013-06-23T13:45:57Z</time>
      </trkpt>
      <trkpt lat="43.16818" lon="2.38272">
        <ele>184.639832</ele>
        <time>2013-06-23T13:45:59Z</time>
      </trkpt>
      <trkpt lat="43.16822" lon="2.38279">
        <ele>184.328552</ele>
        <time>2013-06-23T13:46:00Z</time>
      </trkpt>
      <trkpt lat="43.16826" lon="2.38286">
        <ele>183.973083</ele>
        <time>2013-06-23T13:46:00Z</time>
      </trkpt>
      <trkpt lat="43.1683" lon="2.38294">
        <ele>183.583374</ele>
        <time>2013-06-23T13:46:01Z</time>
      </trkpt>
      <trkpt lat="43.16834" lon="2.383">
        <ele>183.197144</ele>
        <time>2013-06-23T13:46:02Z</time>
      </trkpt>
      <trkpt lat="43.16837" lon="2.38307">
        <ele>182.910645</ele>
        <time>2013-06-23T13:46:03Z</time>
      </trkpt>
      <trkpt lat="43.16841" lon="2.38314">
        <ele>182.621582</ele>
        <time>2013-06-23T13:46:04Z</time>
      </trkpt>
      <trkpt lat="43.16844" lon="2.38321">
        <ele>182.325195</ele>
        <time>2013-06-23T13:46:05Z</time>
      </trkpt>
      <trkpt lat="43.16848" lon="2.38327">
        <ele>182.040405</ele>
        <time>2013-06-23T13:46:06Z</time>
      </trkpt>
      <trkpt lat="43.16852" lon="2.38332">
        <ele>181.826538</ele>
        <time>2013-06-23T13:46:07Z</time>
      </trkpt>
      <trkpt lat="43.16856" lon="2.38335">
        <ele>181.678223</ele>
        <time>2013-06-23T13:46:09Z</time>
      </trkpt>
      <trkpt lat="43.16861" lon="2.38338">
        <ele>181.527893</ele>
        <time>2013-06-23T13:46:10Z</time>
      </trkpt>
      <trkpt lat="43.16866" lon="2.38341">
        <ele>181.36969</ele>
        <time>2013-06-23T13:46:10Z</time>
      </trkpt>
      <trkpt lat="43.16871" lon="2.38343">
        <ele>181.219421</ele>
        <time>2013-06-23T13:46:11Z</time>
      </trkpt>
      <trkpt lat="43.16877" lon="2.38345">
        <ele>181.044067</ele>
        <time>2013-06-23T13:46:13Z</time>
      </trkpt>
      <trkpt lat="43.16882" lon="2.38348">
        <ele>180.873779</ele>
        <time>2013-06-23T13:46:13Z</time>
      </trkpt>
      <trkpt lat="43.16888" lon="2.38349">
        <ele>180.698792</ele>
        <time>2013-06-23T13:46:14Z</time>
      </trkpt>
      <trkpt lat="43.16894" lon="2.38351">
        <ele>180.552795</ele>
        <time>2013-06-23T13:46:15Z</time>
      </trkpt>
      <trkpt lat="43.169" lon="2.38352">
        <ele>180.384766</ele>
        <time>2013-06-23T13:46:17Z</time>
      </trkpt>
      <trkpt lat="43.16907" lon="2.38353">
        <ele>180.217346</ele>
        <time>2013-06-23T13:46:18Z</time>
      </trkpt>
      <trkpt lat="43.16913" lon="2.38355">
        <ele>180.043762</ele>
        <time>2013-06-23T13:46:18Z</time>
      </trkpt>
      <trkpt lat="43.16919" lon="2.38356">
        <ele>179.934692</ele>
        <time>2013-06-23T13:46:19Z</time>
      </trkpt>
      <trkpt lat="43.16925" lon="2.38357">
        <ele>179.888367</ele>
        <time>2013-06-23T13:46:20Z</time>
      </trkpt>
      <trkpt lat="43.16931" lon="2.38358">
        <ele>179.842041</ele>
        <time>2013-06-23T13:46:21Z</time>
      </trkpt>
      <trkpt lat="43.16936" lon="2.38359">
        <ele>179.791626</ele>
        <time>2013-06-23T13:46:22Z</time>
      </trkpt>
      <trkpt lat="43.16942" lon="2.3836">
        <ele>179.715393</ele>
        <time>2013-06-23T13:46:23Z</time>
      </trkpt>
      <trkpt lat="43.16949" lon="2.38362">
        <ele>179.639343</ele>
        <time>2013-06-23T13:46:24Z</time>
      </trkpt>
      <trkpt lat="43.16954" lon="2.38363">
        <ele>179.597778</ele>
        <time>2013-06-23T13:46:25Z</time>
      </trkpt>
      <trkpt lat="43.1696" lon="2.38363">
        <ele>179.560669</ele>
        <time>2013-06-23T13:46:26Z</time>
      </trkpt>
      <trkpt lat="43.16966" lon="2.38365">
        <ele>179.500061</ele>
        <time>2013-06-23T13:46:27Z</time>
      </trkpt>
      <trkpt lat="43.16972" lon="2.38366">
        <ele>179.446411</ele>
        <time>2013-06-23T13:46:29Z</time>
      </trkpt>
      <trkpt lat="43.16978" lon="2.38367">
        <ele>179.394165</ele>
        <time>2013-06-23T13:46:30Z</time>
      </trkpt>
      <trkpt lat="43.16983" lon="2.38368">
        <ele>179.355591</ele>
        <time>2013-06-23T13:46:31Z</time>
      </trkpt>
      <trkpt lat="43.16989" lon="2.38369">
        <ele>179.302063</ele>
        <time>2013-06-23T13:46:31Z</time>
      </trkpt>
      <trkpt lat="43.16994" lon="2.3837">
        <ele>179.253052</ele>
        <time>2013-06-23T13:46:32Z</time>
      </trkpt>
      <trkpt lat="43.16999" lon="2.38371">
        <ele>179.200317</ele>
        <time>2013-06-23T13:46:33Z</time>
      </trkpt>
      <trkpt lat="43.17005" lon="2.38372">
        <ele>178.870972</ele>
        <time>2013-06-23T13:46:34Z</time>
      </trkpt>
      <trkpt lat="43.1701" lon="2.38373">
        <ele>178.463623</ele>
        <time>2013-06-23T13:46:35Z</time>
      </trkpt>
      <trkpt lat="43.17017" lon="2.38375">
        <ele>178.002441</ele>
        <time>2013-06-23T13:46:36Z</time>
      </trkpt>
      <trkpt lat="43.17024" lon="2.38376">
        <ele>177.502686</ele>
        <time>2013-06-23T13:46:37Z</time>
      </trkpt>
      <trkpt lat="43.17032" lon="2.38377">
        <ele>177.010742</ele>
        <time>2013-06-23T13:46:38Z</time>
      </trkpt>
      <trkpt lat="43.17039" lon="2.3838">
        <ele>176.501465</ele>
        <time>2013-06-23T13:46:39Z</time>
      </trkpt>
      <trkpt lat="43.17046" lon="2.38382">
        <ele>176.001038</ele>
        <time>2013-06-23T13:46:41Z</time>
      </trkpt>
      <trkpt lat="43.17053" lon="2.38386">
        <ele>175.481079</ele>
        <time>2013-06-23T13:46:41Z</time>
      </trkpt>
      <trkpt lat="43.17059" lon="2.38391">
        <ele>174.963745</ele>
        <time>2013-06-23T13:46:42Z</time>
      </trkpt>
      <trkpt lat="43.17064" lon="2.38399">
        <ele>174.451477</ele>
        <time>2013-06-23T13:46:43Z</time>
      </trkpt>
      <trkpt lat="43.17068" lon="2.38409">
        <ele>173.950256</ele>
        <time>2013-06-23T13:46:44Z</time>
      </trkpt>
      <trkpt lat="43.17071" lon="2.3842">
        <ele>173.552612</ele>
        <time>2013-06-23T13:46:46Z</time>
      </trkpt>
      <trkpt lat="43.17073" lon="2.3843">
        <ele>173.300415</ele>
        <time>2013-06-23T13:46:46Z</time>
      </trkpt>
      <trkpt lat="43.17074" lon="2.38441">
        <ele>173.083801</ele>
        <time>2013-06-23T13:46:47Z</time>
      </trkpt>
      <trkpt lat="43.17075" lon="2.38451">
        <ele>172.90448</ele>
        <time>2013-06-23T13:46:48Z</time>
      </trkpt>
      <trkpt lat="43.17076" lon="2.3846">
        <ele>172.739197</ele>
        <time>2013-06-23T13:46:49Z</time>
      </trkpt>
      <trkpt lat="43.17077" lon="2.38469">
        <ele>172.574219</ele>
        <time>2013-06-23T13:46:51Z</time>
      </trkpt>
      <trkpt lat="43.17078" lon="2.38478">
        <ele>172.409424</ele>
        <time>2013-06-23T13:46:52Z</time>
      </trkpt>
      <trkpt lat="43.1708" lon="2.38487">
        <ele>172.264038</ele>
        <time>2013-06-23T13:46:52Z</time>
      </trkpt>
      <trkpt lat="43.1708" lon="2.38494">
        <ele>172.147217</ele>
        <time>2013-06-23T13:46:53Z</time>
      </trkpt>
      <trkpt lat="43.17081" lon="2.38501">
        <ele>172.077087</ele>
        <time>2013-06-23T13:46:54Z</time>
      </trkpt>
      <trkpt lat="43.17082" lon="2.38513">
        <ele>172.196472</ele>
        <time>2013-06-23T13:46:56Z</time>
      </trkpt>
      <trkpt lat="43.17083" lon="2.38522">
        <ele>172.276978</ele>
        <time>2013-06-23T13:46:58Z</time>
      </trkpt>
      <trkpt lat="43.17085" lon="2.3853">
        <ele>172.394104</ele>
        <time>2013-06-23T13:47:01Z</time>
      </trkpt>
      <trkpt lat="43.17087" lon="2.38536">
        <ele>172.509033</ele>
        <time>2013-06-23T13:47:05Z</time>
      </trkpt>
      <trkpt lat="43.1709" lon="2.38542">
        <ele>172.671387</ele>
        <time>2013-06-23T13:47:07Z</time>
      </trkpt>
      <trkpt lat="43.17092" lon="2.38548">
        <ele>172.793823</ele>
        <time>2013-06-23T13:47:09Z</time>
      </trkpt>
      <trkpt lat="43.17091" lon="2.38556">
        <ele>172.889587</ele>
        <time>2013-06-23T13:47:11Z</time>
      </trkpt>
      <trkpt lat="43.1708" lon="2.38563">
        <ele>172.805176</ele>
        <time>2013-06-23T13:47:16Z</time>
      </trkpt>
      <trkpt lat="43.17075" lon="2.38563">
        <ele>172.876892</ele>
        <time>2013-06-23T13:47:17Z</time>
      </trkpt>
      <trkpt lat="43.17069" lon="2.38563">
        <ele>172.967712</ele>
        <time>2013-06-23T13:47:18Z</time>
      </trkpt>
      <trkpt lat="43.17063" lon="2.38564">
        <ele>173.058838</ele>
        <time>2013-06-23T13:47:19Z</time>
      </trkpt>
      <trkpt lat="43.17054" lon="2.38563">
        <ele>173.193848</ele>
        <time>2013-06-23T13:47:21Z</time>
      </trkpt>
      <trkpt lat="43.17048" lon="2.38562">
        <ele>173.269409</ele>
        <time>2013-06-23T13:47:22Z</time>
      </trkpt>
      <trkpt lat="43.17042" lon="2.38562">
        <ele>173.36084</ele>
        <time>2013-06-23T13:47:23Z</time>
      </trkpt>
      <trkpt lat="43.17036" lon="2.38563">
        <ele>173.464172</ele>
        <time>2013-06-23T13:47:25Z</time>
      </trkpt>
      <trkpt lat="43.17029" lon="2.3856">
        <ele>173.559937</ele>
        <time>2013-06-23T13:47:26Z</time>
      </trkpt>
      <trkpt lat="43.17022" lon="2.3856">
        <ele>173.653931</ele>
        <time>2013-06-23T13:47:28Z</time>
      </trkpt>
      <trkpt lat="43.17015" lon="2.38559">
        <ele>173.77002</ele>
        <time>2013-06-23T13:47:30Z</time>
      </trkpt>
      <trkpt lat="43.1701" lon="2.3856">
        <ele>173.847351</ele>
        <time>2013-06-23T13:47:31Z</time>
      </trkpt>
      <trkpt lat="43.17002" lon="2.38561">
        <ele>173.974121</ele>
        <time>2013-06-23T13:47:33Z</time>
      </trkpt>
      <trkpt lat="43.16994" lon="2.38563">
        <ele>174.101868</ele>
        <time>2013-06-23T13:47:36Z</time>
      </trkpt>
      <trkpt lat="43.1699" lon="2.38566">
        <ele>174.195496</ele>
        <time>2013-06-23T13:47:38Z</time>
      </trkpt>
      <trkpt lat="43.16985" lon="2.3857">
        <ele>174.298523</ele>
        <time>2013-06-23T13:47:39Z</time>
      </trkpt>
      <trkpt lat="43.16976" lon="2.38575">
        <ele>174.517822</ele>
        <time>2013-06-23T13:47:42Z</time>
      </trkpt>
      <trkpt lat="43.16966" lon="2.38581">
        <ele>174.796143</ele>
        <time>2013-06-23T13:47:45Z</time>
      </trkpt>
      <trkpt lat="43.16958" lon="2.38585">
        <ele>175.037598</ele>
        <time>2013-06-23T13:47:49Z</time>
      </trkpt>
      <trkpt lat="43.16953" lon="2.38587">
        <ele>175.230896</ele>
        <time>2013-06-23T13:47:50Z</time>
      </trkpt>
      <trkpt lat="43.16947" lon="2.38591">
        <ele>175.451172</ele>
        <time>2013-06-23T13:47:52Z</time>
      </trkpt>
      <trkpt lat="43.16941" lon="2.38592">
        <ele>175.626587</ele>
        <time>2013-06-23T13:47:57Z</time>
      </trkpt>
      <trkpt lat="43.16935" lon="2.38593">
        <ele>175.786499</ele>
        <time>2013-06-23T13:47:57Z</time>
      </trkpt>
      <trkpt lat="43.16928" lon="2.38594">
        <ele>175.96405</ele>
        <time>2013-06-23T13:47:58Z</time>
      </trkpt>
      <trkpt lat="43.16923" lon="2.38597">
        <ele>176.191223</ele>
        <time>2013-06-23T13:48:00Z</time>
      </trkpt>
      <trkpt lat="43.16918" lon="2.38601">
        <ele>176.403687</ele>
        <time>2013-06-23T13:48:02Z</time>
      </trkpt>
      <trkpt lat="43.16912" lon="2.38604">
        <ele>176.726624</ele>
        <time>2013-06-23T13:48:04Z</time>
      </trkpt>
      <trkpt lat="43.16908" lon="2.38609">
        <ele>177.087402</ele>
        <time>2013-06-23T13:48:06Z</time>
      </trkpt>
      <trkpt lat="43.16905" lon="2.38615">
        <ele>177.365112</ele>
        <time>2013-06-23T13:48:09Z</time>
      </trkpt>
      <trkpt lat="43.16903" lon="2.38622">
        <ele>177.649048</ele>
        <time>2013-06-23T13:48:10Z</time>
      </trkpt>
      <trkpt lat="43.16903" lon="2.3863">
        <ele>177.894592</ele>
        <time>2013-06-23T13:48:12Z</time>
      </trkpt>
      <trkpt lat="43.16902" lon="2.3864">
        <ele>178.187744</ele>
        <time>2013-06-23T13:48:14Z</time>
      </trkpt>
      <trkpt lat="43.16902" lon="2.38652">
        <ele>178.465027</ele>
        <time>2013-06-23T13:48:17Z</time>
      </trkpt>
      <trkpt lat="43.16903" lon="2.38663">
        <ele>178.727844</ele>
        <time>2013-06-23T13:48:19Z</time>
      </trkpt>
      <trkpt lat="43.16903" lon="2.38673">
        <ele>178.957153</ele>
        <time>2013-06-23T13:48:20Z</time>
      </trkpt>
      <trkpt lat="43.16905" lon="2.38683">
        <ele>179.050476</ele>
        <time>2013-06-23T13:48:22Z</time>
      </trkpt>
      <trkpt lat="43.16911" lon="2.38687">
        <ele>178.776062</ele>
        <time>2013-06-23T13:48:24Z</time>
      </trkpt>
      <trkpt lat="43.16918" lon="2.38689">
        <ele>178.518738</ele>
        <time>2013-06-23T13:48:26Z</time>
      </trkpt>
      <trkpt lat="43.16922" lon="2.38685">
        <ele>178.305664</ele>
        <time>2013-06-23T13:48:30Z</time>
      </trkpt>
      <trkpt lat="43.1693" lon="2.38684">
        <ele>178.095825</ele>
        <time>2013-06-23T13:48:31Z</time>
      </trkpt>
      <trkpt lat="43.16935" lon="2.38686">
        <ele>178.036011</ele>
        <time>2013-06-23T13:48:32Z</time>
      </trkpt>
      <trkpt lat="43.16939" lon="2.3869">
        <ele>178.03064</ele>
        <time>2013-06-23T13:48:33Z</time>
      </trkpt>
      <trkpt lat="43.16942" lon="2.38695">
        <ele>178.06897</ele>
        <time>2013-06-23T13:48:34Z</time>
      </trkpt>
      <trkpt lat="43.16945" lon="2.38701">
        <ele>178.147766</ele>
        <time>2013-06-23T13:48:35Z</time>
      </trkpt>
      <trkpt lat="43.16948" lon="2.3871">
        <ele>178.288513</ele>
        <time>2013-06-23T13:48:37Z</time>
      </trkpt>
      <trkpt lat="43.16951" lon="2.38714">
        <ele>178.316162</ele>
        <time>2013-06-23T13:48:40Z</time>
      </trkpt>
      <trkpt lat="43.16961" lon="2.38715">
        <ele>178.09668</ele>
        <time>2013-06-23T13:48:44Z</time>
      </trkpt>
      <trkpt lat="43.16966" lon="2.38715">
        <ele>177.976868</ele>
        <time>2013-06-23T13:48:46Z</time>
      </trkpt>
      <trkpt lat="43.16971" lon="2.38715">
        <ele>177.86322</ele>
        <time>2013-06-23T13:48:49Z</time>
      </trkpt>
      <trkpt lat="43.16978" lon="2.38715">
        <ele>177.681885</ele>
        <time>2013-06-23T13:48:51Z</time>
      </trkpt>
      <trkpt lat="43.16984" lon="2.38715">
        <ele>177.53186</ele>
        <time>2013-06-23T13:48:58Z</time>
      </trkpt>
      <trkpt lat="43.16989" lon="2.38715">
        <ele>177.406128</ele>
        <time>2013-06-23T13:49:07Z</time>
      </trkpt>
      <trkpt lat="43.16993" lon="2.38711">
        <ele>177.215027</ele>
        <time>2013-06-23T13:49:14Z</time>
      </trkpt>
      <trkpt lat="43.16999" lon="2.38712">
        <ele>177.126831</ele>
        <time>2013-06-23T13:49:48Z</time>
      </trkpt>
      <trkpt lat="43.17001" lon="2.38718">
        <ele>177.229919</ele>
        <time>2013-06-23T13:49:51Z</time>
      </trkpt>
      <trkpt lat="43.17003" lon="2.38729">
        <ele>177.489197</ele>
        <time>2013-06-23T13:50:01Z</time>
      </trkpt>
      <trkpt lat="43.17002" lon="2.38739">
        <ele>177.721741</ele>
        <time>2013-06-23T13:50:11Z</time>
      </trkpt>
      <trkpt lat="43.17001" lon="2.38728">
        <ele>177.458557</ele>
        <time>2013-06-23T13:50:37Z</time>
      </trkpt>
      <trkpt lat="43.17005" lon="2.38723">
        <ele>177.33429</ele>
        <time>2013-06-23T13:51:13Z</time>
      </trkpt>
      <trkpt lat="43.17001" lon="2.38728">
        <ele>177.455444</ele>
        <time>2013-06-23T13:51:43Z</time>
      </trkpt>
      <trkpt lat="43.17003" lon="2.38721">
        <ele>177.29834</ele>
        <time>2013-06-23T13:54:23Z</time>
      </trkpt>
    </trkseg>
  </trk>
</gpx>